<?xml version="1.0" encoding="UTF-8"?>
<gpx xmlns:xsi="http://www.w3.org/2001/XMLSchema-instance" xmlns="http://www.topografix.com/GPX/1/0" version="1.0" xsi:schemaLocation="http://www.topografix.com/GPX/1/0 http://www.topografix.com/GPX/1/0/gpx.xsd" creator="gpx.py -- https://github.com/tkrajina/gpxpy">
<name>丽江到大理173</name>
<desc>行者骑行软件</desc>
<author>行者骑行软件</author>
<url>http://www.imxingzhe.com</url>
<urlname>行者骑行软件</urlname>
<time>2015-08-27T06:29:33Z</time>
<keywords>行者骑行软件</keywords>
<distance>172.691</distance>
<trk>
<name>行者骑行软件</name>
<desc/>
<trkseg>
<trkpt lat="26.870068" lon="100.230651">
<time>2015-08-27T14:29:40Z</time></trkpt>
<trkpt lat="26.870148" lon="100.230861">
<time>2015-08-27T14:29:41Z</time></trkpt>
<trkpt lat="26.870208" lon="100.231002">
<time>2015-08-27T14:29:42Z</time></trkpt>
<trkpt lat="26.870278" lon="100.231322">
<time>2015-08-27T14:29:43Z</time></trkpt>
<trkpt lat="26.870308" lon="100.231532">
<time>2015-08-27T14:29:44Z</time></trkpt>
<trkpt lat="26.870318" lon="100.231712">
<time>2015-08-27T14:29:45Z</time></trkpt>
<trkpt lat="26.870299" lon="100.231832">
<time>2015-08-27T14:29:46Z</time></trkpt>
<trkpt lat="26.870279" lon="100.231952">
<time>2015-08-27T14:29:47Z</time></trkpt>
<trkpt lat="26.870249" lon="100.232072">
<time>2015-08-27T14:29:48Z</time></trkpt>
<trkpt lat="26.870219" lon="100.232212">
<time>2015-08-27T14:29:49Z</time></trkpt>
<trkpt lat="26.870099" lon="100.232493">
<time>2015-08-27T14:29:50Z</time></trkpt>
<trkpt lat="26.869939" lon="100.232903">
<time>2015-08-27T14:29:51Z</time></trkpt>
<trkpt lat="26.869929" lon="100.232913">
<time>2015-08-27T14:29:52Z</time></trkpt>
<trkpt lat="26.86937" lon="100.234004">
<time>2015-08-27T14:29:53Z</time></trkpt>
<trkpt lat="26.86931" lon="100.234104">
<time>2015-08-27T14:29:54Z</time></trkpt>
<trkpt lat="26.8693" lon="100.234124">
<time>2015-08-27T14:29:55Z</time></trkpt>
<trkpt lat="26.86924" lon="100.234184">
<time>2015-08-27T14:29:56Z</time></trkpt>
<trkpt lat="26.86917" lon="100.234244">
<time>2015-08-27T14:29:57Z</time></trkpt>
<trkpt lat="26.8691" lon="100.234274">
<time>2015-08-27T14:29:58Z</time></trkpt>
<trkpt lat="26.86908" lon="100.234284">
<time>2015-08-27T14:29:59Z</time></trkpt>
<trkpt lat="26.86901" lon="100.234324">
<time>2015-08-27T14:30:00Z</time></trkpt>
<trkpt lat="26.86893" lon="100.234334">
<time>2015-08-27T14:30:01Z</time></trkpt>
<trkpt lat="26.86817" lon="100.234464">
<time>2015-08-27T14:30:02Z</time></trkpt>
<trkpt lat="26.867891" lon="100.234504">
<time>2015-08-27T14:30:03Z</time></trkpt>
<trkpt lat="26.867861" lon="100.234514">
<time>2015-08-27T14:30:04Z</time></trkpt>
<trkpt lat="26.867821" lon="100.234524">
<time>2015-08-27T14:30:05Z</time></trkpt>
<trkpt lat="26.867461" lon="100.234584">
<time>2015-08-27T14:30:06Z</time></trkpt>
<trkpt lat="26.867401" lon="100.234574">
<time>2015-08-27T14:30:07Z</time></trkpt>
<trkpt lat="26.867401" lon="100.234574">
<time>2015-08-27T14:30:08Z</time></trkpt>
<trkpt lat="26.866771" lon="100.234664">
<time>2015-08-27T14:30:09Z</time></trkpt>
<trkpt lat="26.866601" lon="100.234684">
<time>2015-08-27T14:30:10Z</time></trkpt>
<trkpt lat="26.865991" lon="100.234824">
<time>2015-08-27T14:30:11Z</time></trkpt>
<trkpt lat="26.865451" lon="100.234944">
<time>2015-08-27T14:30:12Z</time></trkpt>
<trkpt lat="26.864472" lon="100.235194">
<time>2015-08-27T14:30:13Z</time></trkpt>
<trkpt lat="26.864162" lon="100.235274">
<time>2015-08-27T14:30:14Z</time></trkpt>
<trkpt lat="26.863492" lon="100.235435">
<time>2015-08-27T14:30:15Z</time></trkpt>
<trkpt lat="26.863432" lon="100.235445">
<time>2015-08-27T14:30:16Z</time></trkpt>
<trkpt lat="26.863232" lon="100.235515">
<time>2015-08-27T14:30:17Z</time></trkpt>
<trkpt lat="26.863212" lon="100.235525">
<time>2015-08-27T14:30:18Z</time></trkpt>
<trkpt lat="26.862962" lon="100.235585">
<time>2015-08-27T14:30:19Z</time></trkpt>
<trkpt lat="26.862482" lon="100.235735">
<time>2015-08-27T14:30:20Z</time></trkpt>
<trkpt lat="26.862302" lon="100.235785">
<time>2015-08-27T14:30:21Z</time></trkpt>
<trkpt lat="26.861742" lon="100.235885">
<time>2015-08-27T14:30:22Z</time></trkpt>
<trkpt lat="26.861083" lon="100.236035">
<time>2015-08-27T14:30:23Z</time></trkpt>
<trkpt lat="26.861033" lon="100.236045">
<time>2015-08-27T14:30:24Z</time></trkpt>
<trkpt lat="26.860893" lon="100.236065">
<time>2015-08-27T14:30:25Z</time></trkpt>
<trkpt lat="26.860463" lon="100.236145">
<time>2015-08-27T14:30:26Z</time></trkpt>
<trkpt lat="26.859783" lon="100.236265">
<time>2015-08-27T14:30:27Z</time></trkpt>
<trkpt lat="26.859253" lon="100.236405">
<time>2015-08-27T14:30:28Z</time></trkpt>
<trkpt lat="26.859173" lon="100.236425">
<time>2015-08-27T14:30:29Z</time></trkpt>
<trkpt lat="26.858313" lon="100.236685">
<time>2015-08-27T14:30:30Z</time></trkpt>
<trkpt lat="26.857594" lon="100.236885">
<time>2015-08-27T14:30:31Z</time></trkpt>
<trkpt lat="26.857394" lon="100.236995">
<time>2015-08-27T14:30:32Z</time></trkpt>
<trkpt lat="26.857344" lon="100.237015">
<time>2015-08-27T14:30:33Z</time></trkpt>
<trkpt lat="26.857064" lon="100.237146">
<time>2015-08-27T14:30:34Z</time></trkpt>
<trkpt lat="26.856564" lon="100.237526">
<time>2015-08-27T14:30:35Z</time></trkpt>
<trkpt lat="26.856054" lon="100.238036">
<time>2015-08-27T14:30:36Z</time></trkpt>
<trkpt lat="26.855305" lon="100.238786">
<time>2015-08-27T14:30:37Z</time></trkpt>
<trkpt lat="26.854615" lon="100.239457">
<time>2015-08-27T14:30:38Z</time></trkpt>
<trkpt lat="26.854115" lon="100.239937">
<time>2015-08-27T14:30:39Z</time></trkpt>
<trkpt lat="26.854035" lon="100.240007">
<time>2015-08-27T14:30:40Z</time></trkpt>
<trkpt lat="26.853925" lon="100.240087">
<time>2015-08-27T14:30:41Z</time></trkpt>
<trkpt lat="26.853725" lon="100.240227">
<time>2015-08-27T14:30:42Z</time></trkpt>
<trkpt lat="26.853336" lon="100.240407">
<time>2015-08-27T14:30:43Z</time></trkpt>
<trkpt lat="26.852656" lon="100.240647">
<time>2015-08-27T14:30:44Z</time></trkpt>
<trkpt lat="26.851416" lon="100.241057">
<time>2015-08-27T14:30:45Z</time></trkpt>
<trkpt lat="26.850476" lon="100.241427">
<time>2015-08-27T14:30:46Z</time></trkpt>
<trkpt lat="26.850376" lon="100.241467">
<time>2015-08-27T14:30:47Z</time></trkpt>
<trkpt lat="26.850186" lon="100.241547">
<time>2015-08-27T14:30:48Z</time></trkpt>
<trkpt lat="26.847457" lon="100.242618">
<time>2015-08-27T14:30:49Z</time></trkpt>
<trkpt lat="26.843408" lon="100.244208">
<time>2015-08-27T14:30:50Z</time></trkpt>
<trkpt lat="26.843128" lon="100.244338">
<time>2015-08-27T14:30:51Z</time></trkpt>
<trkpt lat="26.843128" lon="100.244338">
<time>2015-08-27T14:30:52Z</time></trkpt>
<trkpt lat="26.843078" lon="100.244368">
<time>2015-08-27T14:30:53Z</time></trkpt>
<trkpt lat="26.842728" lon="100.244538">
<time>2015-08-27T14:30:54Z</time></trkpt>
<trkpt lat="26.841589" lon="100.245078">
<time>2015-08-27T14:30:55Z</time></trkpt>
<trkpt lat="26.839279" lon="100.246158">
<time>2015-08-27T14:30:56Z</time></trkpt>
<trkpt lat="26.838829" lon="100.246378">
<time>2015-08-27T14:30:57Z</time></trkpt>
<trkpt lat="26.838109" lon="100.246718">
<time>2015-08-27T14:30:58Z</time></trkpt>
<trkpt lat="26.838059" lon="100.246748">
<time>2015-08-27T14:30:59Z</time></trkpt>
<trkpt lat="26.837789" lon="100.246849">
<time>2015-08-27T14:31:00Z</time></trkpt>
<trkpt lat="26.836949" lon="100.247179">
<time>2015-08-27T14:31:01Z</time></trkpt>
<trkpt lat="26.83664" lon="100.247319">
<time>2015-08-27T14:31:02Z</time></trkpt>
<trkpt lat="26.8365" lon="100.247409">
<time>2015-08-27T14:31:03Z</time></trkpt>
<trkpt lat="26.83637" lon="100.247479">
<time>2015-08-27T14:31:04Z</time></trkpt>
<trkpt lat="26.83608" lon="100.247699">
<time>2015-08-27T14:31:05Z</time></trkpt>
<trkpt lat="26.83581" lon="100.247939">
<time>2015-08-27T14:31:06Z</time></trkpt>
<trkpt lat="26.83575" lon="100.247979">
<time>2015-08-27T14:31:07Z</time></trkpt>
<trkpt lat="26.83558" lon="100.248119">
<time>2015-08-27T14:31:08Z</time></trkpt>
<trkpt lat="26.83551" lon="100.248179">
<time>2015-08-27T14:31:09Z</time></trkpt>
<trkpt lat="26.83525" lon="100.248409">
<time>2015-08-27T14:31:10Z</time></trkpt>
<trkpt lat="26.83505" lon="100.248569">
<time>2015-08-27T14:31:11Z</time></trkpt>
<trkpt lat="26.83501" lon="100.248599">
<time>2015-08-27T14:31:12Z</time></trkpt>
<trkpt lat="26.83475" lon="100.248819">
<time>2015-08-27T14:31:13Z</time></trkpt>
<trkpt lat="26.83442" lon="100.249029">
<time>2015-08-27T14:31:14Z</time></trkpt>
<trkpt lat="26.83421" lon="100.249159">
<time>2015-08-27T14:31:15Z</time></trkpt>
<trkpt lat="26.83397" lon="100.249329">
<time>2015-08-27T14:31:16Z</time></trkpt>
<trkpt lat="26.83367" lon="100.249489">
<time>2015-08-27T14:31:17Z</time></trkpt>
<trkpt lat="26.83335" lon="100.249609">
<time>2015-08-27T14:31:18Z</time></trkpt>
<trkpt lat="26.83215" lon="100.249889">
<time>2015-08-27T14:31:19Z</time></trkpt>
<trkpt lat="26.83154" lon="100.250019">
<time>2015-08-27T14:31:20Z</time></trkpt>
<trkpt lat="26.830121" lon="100.250369">
<time>2015-08-27T14:31:21Z</time></trkpt>
<trkpt lat="26.829321" lon="100.250559">
<time>2015-08-27T14:31:22Z</time></trkpt>
<trkpt lat="26.829111" lon="100.250599">
<time>2015-08-27T14:31:23Z</time></trkpt>
<trkpt lat="26.828321" lon="100.250749">
<time>2015-08-27T14:31:24Z</time></trkpt>
<trkpt lat="26.828041" lon="100.250749">
<time>2015-08-27T14:31:25Z</time></trkpt>
<trkpt lat="26.826701" lon="100.251059">
<time>2015-08-27T14:31:26Z</time></trkpt>
<trkpt lat="26.826681" lon="100.251069">
<time>2015-08-27T14:31:27Z</time></trkpt>
<trkpt lat="26.821542" lon="100.252179">
<time>2015-08-27T14:31:28Z</time></trkpt>
<trkpt lat="26.821242" lon="100.252239">
<time>2015-08-27T14:31:29Z</time></trkpt>
<trkpt lat="26.821032" lon="100.252299">
<time>2015-08-27T14:31:30Z</time></trkpt>
<trkpt lat="26.820522" lon="100.252499">
<time>2015-08-27T14:31:31Z</time></trkpt>
<trkpt lat="26.820492" lon="100.252519">
<time>2015-08-27T14:31:32Z</time></trkpt>
<trkpt lat="26.820382" lon="100.252589">
<time>2015-08-27T14:31:33Z</time></trkpt>
<trkpt lat="26.820232" lon="100.252689">
<time>2015-08-27T14:31:34Z</time></trkpt>
<trkpt lat="26.820052" lon="100.252828">
<time>2015-08-27T14:31:35Z</time></trkpt>
<trkpt lat="26.819872" lon="100.252978">
<time>2015-08-27T14:31:36Z</time></trkpt>
<trkpt lat="26.819642" lon="100.253178">
<time>2015-08-27T14:31:37Z</time></trkpt>
<trkpt lat="26.819512" lon="100.253338">
<time>2015-08-27T14:31:38Z</time></trkpt>
<trkpt lat="26.819442" lon="100.253418">
<time>2015-08-27T14:31:39Z</time></trkpt>
<trkpt lat="26.819442" lon="100.253418">
<time>2015-08-27T14:31:40Z</time></trkpt>
<trkpt lat="26.819372" lon="100.253568">
<time>2015-08-27T14:31:41Z</time></trkpt>
<trkpt lat="26.819352" lon="100.253598">
<time>2015-08-27T14:31:42Z</time></trkpt>
<trkpt lat="26.819252" lon="100.253738">
<time>2015-08-27T14:31:43Z</time></trkpt>
<trkpt lat="26.819092" lon="100.254058">
<time>2015-08-27T14:31:44Z</time></trkpt>
<trkpt lat="26.818972" lon="100.254438">
<time>2015-08-27T14:31:45Z</time></trkpt>
<trkpt lat="26.818932" lon="100.254648">
<time>2015-08-27T14:31:46Z</time></trkpt>
<trkpt lat="26.818881" lon="100.254978">
<time>2015-08-27T14:31:47Z</time></trkpt>
<trkpt lat="26.818861" lon="100.255388">
<time>2015-08-27T14:31:48Z</time></trkpt>
<trkpt lat="26.818851" lon="100.255488">
<time>2015-08-27T14:31:49Z</time></trkpt>
<trkpt lat="26.818831" lon="100.255568">
<time>2015-08-27T14:31:50Z</time></trkpt>
<trkpt lat="26.818831" lon="100.255668">
<time>2015-08-27T14:31:51Z</time></trkpt>
<trkpt lat="26.818841" lon="100.256018">
<time>2015-08-27T14:31:52Z</time></trkpt>
<trkpt lat="26.818851" lon="100.256208">
<time>2015-08-27T14:31:53Z</time></trkpt>
<trkpt lat="26.818851" lon="100.256667">
<time>2015-08-27T14:31:54Z</time></trkpt>
<trkpt lat="26.818821" lon="100.257017">
<time>2015-08-27T14:31:55Z</time></trkpt>
<trkpt lat="26.818811" lon="100.257167">
<time>2015-08-27T14:31:56Z</time></trkpt>
<trkpt lat="26.818681" lon="100.257407">
<time>2015-08-27T14:31:57Z</time></trkpt>
<trkpt lat="26.818541" lon="100.257617">
<time>2015-08-27T14:31:58Z</time></trkpt>
<trkpt lat="26.818461" lon="100.257707">
<time>2015-08-27T14:31:59Z</time></trkpt>
<trkpt lat="26.818271" lon="100.257847">
<time>2015-08-27T14:32:00Z</time></trkpt>
<trkpt lat="26.818201" lon="100.257877">
<time>2015-08-27T14:32:01Z</time></trkpt>
<trkpt lat="26.818091" lon="100.257937">
<time>2015-08-27T14:32:02Z</time></trkpt>
<trkpt lat="26.817761" lon="100.258007">
<time>2015-08-27T14:32:03Z</time></trkpt>
<trkpt lat="26.817491" lon="100.258017">
<time>2015-08-27T14:32:04Z</time></trkpt>
<trkpt lat="26.816961" lon="100.258047">
<time>2015-08-27T14:32:05Z</time></trkpt>
<trkpt lat="26.816521" lon="100.258067">
<time>2015-08-27T14:32:06Z</time></trkpt>
<trkpt lat="26.816141" lon="100.258057">
<time>2015-08-27T14:32:07Z</time></trkpt>
<trkpt lat="26.815961" lon="100.258077">
<time>2015-08-27T14:32:08Z</time></trkpt>
<trkpt lat="26.815841" lon="100.258087">
<time>2015-08-27T14:32:09Z</time></trkpt>
<trkpt lat="26.815451" lon="100.258077">
<time>2015-08-27T14:32:10Z</time></trkpt>
<trkpt lat="26.815311" lon="100.258087">
<time>2015-08-27T14:32:11Z</time></trkpt>
<trkpt lat="26.815181" lon="100.258127">
<time>2015-08-27T14:32:12Z</time></trkpt>
<trkpt lat="26.815051" lon="100.258187">
<time>2015-08-27T14:32:13Z</time></trkpt>
<trkpt lat="26.814911" lon="100.258257">
<time>2015-08-27T14:32:14Z</time></trkpt>
<trkpt lat="26.814771" lon="100.258337">
<time>2015-08-27T14:32:15Z</time></trkpt>
<trkpt lat="26.814361" lon="100.258517">
<time>2015-08-27T14:32:16Z</time></trkpt>
<trkpt lat="26.813911" lon="100.258747">
<time>2015-08-27T14:32:17Z</time></trkpt>
<trkpt lat="26.813581" lon="100.258887">
<time>2015-08-27T14:32:18Z</time></trkpt>
<trkpt lat="26.813091" lon="100.259147">
<time>2015-08-27T14:32:19Z</time></trkpt>
<trkpt lat="26.812551" lon="100.259416">
<time>2015-08-27T14:32:20Z</time></trkpt>
<trkpt lat="26.812011" lon="100.259696">
<time>2015-08-27T14:32:21Z</time></trkpt>
<trkpt lat="26.811851" lon="100.259836">
<time>2015-08-27T14:32:22Z</time></trkpt>
<trkpt lat="26.811661" lon="100.259926">
<time>2015-08-27T14:32:23Z</time></trkpt>
<trkpt lat="26.811511" lon="100.260046">
<time>2015-08-27T14:32:24Z</time></trkpt>
<trkpt lat="26.811371" lon="100.260186">
<time>2015-08-27T14:32:25Z</time></trkpt>
<trkpt lat="26.811281" lon="100.260356">
<time>2015-08-27T14:32:26Z</time></trkpt>
<trkpt lat="26.811221" lon="100.260546">
<time>2015-08-27T14:32:27Z</time></trkpt>
<trkpt lat="26.81119" lon="100.260746">
<time>2015-08-27T14:32:28Z</time></trkpt>
<trkpt lat="26.81119" lon="100.260956">
<time>2015-08-27T14:32:29Z</time></trkpt>
<trkpt lat="26.81122" lon="100.261545">
<time>2015-08-27T14:32:30Z</time></trkpt>
<trkpt lat="26.81125" lon="100.262145">
<time>2015-08-27T14:32:31Z</time></trkpt>
<trkpt lat="26.81128" lon="100.262555">
<time>2015-08-27T14:32:32Z</time></trkpt>
<trkpt lat="26.811289" lon="100.262775">
<time>2015-08-27T14:32:33Z</time></trkpt>
<trkpt lat="26.811299" lon="100.262954">
<time>2015-08-27T14:32:34Z</time></trkpt>
<trkpt lat="26.811329" lon="100.263354">
<time>2015-08-27T14:32:35Z</time></trkpt>
<trkpt lat="26.811349" lon="100.263764">
<time>2015-08-27T14:32:36Z</time></trkpt>
<trkpt lat="26.811339" lon="100.264144">
<time>2015-08-27T14:32:37Z</time></trkpt>
<trkpt lat="26.811228" lon="100.264663">
<time>2015-08-27T14:32:38Z</time></trkpt>
<trkpt lat="26.811128" lon="100.265033">
<time>2015-08-27T14:32:39Z</time></trkpt>
<trkpt lat="26.810998" lon="100.265523">
<time>2015-08-27T14:32:40Z</time></trkpt>
<trkpt lat="26.810928" lon="100.265822">
<time>2015-08-27T14:32:41Z</time></trkpt>
<trkpt lat="26.810787" lon="100.266292">
<time>2015-08-27T14:32:42Z</time></trkpt>
<trkpt lat="26.810717" lon="100.266442">
<time>2015-08-27T14:32:43Z</time></trkpt>
<trkpt lat="26.810637" lon="100.266582">
<time>2015-08-27T14:32:44Z</time></trkpt>
<trkpt lat="26.810547" lon="100.266692">
<time>2015-08-27T14:32:45Z</time></trkpt>
<trkpt lat="26.810427" lon="100.266792">
<time>2015-08-27T14:32:46Z</time></trkpt>
<trkpt lat="26.810207" lon="100.266902">
<time>2015-08-27T14:32:47Z</time></trkpt>
<trkpt lat="26.810087" lon="100.266982">
<time>2015-08-27T14:32:48Z</time></trkpt>
<trkpt lat="26.809597" lon="100.267131">
<time>2015-08-27T14:32:49Z</time></trkpt>
<trkpt lat="26.809337" lon="100.267191">
<time>2015-08-27T14:32:50Z</time></trkpt>
<trkpt lat="26.808947" lon="100.267311">
<time>2015-08-27T14:32:51Z</time></trkpt>
<trkpt lat="26.808667" lon="100.267391">
<time>2015-08-27T14:32:52Z</time></trkpt>
<trkpt lat="26.808337" lon="100.267511">
<time>2015-08-27T14:32:53Z</time></trkpt>
<trkpt lat="26.807997" lon="100.267591">
<time>2015-08-27T14:32:54Z</time></trkpt>
<trkpt lat="26.807687" lon="100.267701">
<time>2015-08-27T14:32:55Z</time></trkpt>
<trkpt lat="26.807247" lon="100.267871">
<time>2015-08-27T14:32:56Z</time></trkpt>
<trkpt lat="26.806797" lon="100.268001">
<time>2015-08-27T14:32:57Z</time></trkpt>
<trkpt lat="26.806497" lon="100.268111">
<time>2015-08-27T14:32:58Z</time></trkpt>
<trkpt lat="26.806187" lon="100.268211">
<time>2015-08-27T14:32:59Z</time></trkpt>
<trkpt lat="26.805887" lon="100.268321">
<time>2015-08-27T14:33:00Z</time></trkpt>
<trkpt lat="26.805587" lon="100.26842">
<time>2015-08-27T14:33:01Z</time></trkpt>
<trkpt lat="26.805237" lon="100.2685">
<time>2015-08-27T14:33:02Z</time></trkpt>
<trkpt lat="26.804697" lon="100.2687">
<time>2015-08-27T14:33:03Z</time></trkpt>
<trkpt lat="26.804506" lon="100.26876">
<time>2015-08-27T14:33:04Z</time></trkpt>
<trkpt lat="26.804116" lon="100.26886">
<time>2015-08-27T14:33:05Z</time></trkpt>
<trkpt lat="26.803746" lon="100.26898">
<time>2015-08-27T14:33:06Z</time></trkpt>
<trkpt lat="26.803236" lon="100.26915">
<time>2015-08-27T14:33:07Z</time></trkpt>
<trkpt lat="26.802706" lon="100.26932">
<time>2015-08-27T14:33:08Z</time></trkpt>
<trkpt lat="26.802526" lon="100.26938">
<time>2015-08-27T14:33:09Z</time></trkpt>
<trkpt lat="26.801996" lon="100.26957">
<time>2015-08-27T14:33:10Z</time></trkpt>
<trkpt lat="26.801836" lon="100.26962">
<time>2015-08-27T14:33:11Z</time></trkpt>
<trkpt lat="26.801396" lon="100.269749">
<time>2015-08-27T14:33:12Z</time></trkpt>
<trkpt lat="26.800936" lon="100.269909">
<time>2015-08-27T14:33:13Z</time></trkpt>
<trkpt lat="26.800896" lon="100.269919">
<time>2015-08-27T14:33:14Z</time></trkpt>
<trkpt lat="26.800616" lon="100.269989">
<time>2015-08-27T14:33:15Z</time></trkpt>
<trkpt lat="26.800286" lon="100.270109">
<time>2015-08-27T14:33:16Z</time></trkpt>
<trkpt lat="26.799946" lon="100.270209">
<time>2015-08-27T14:33:17Z</time></trkpt>
<trkpt lat="26.799386" lon="100.270369">
<time>2015-08-27T14:33:18Z</time></trkpt>
<trkpt lat="26.799006" lon="100.270499">
<time>2015-08-27T14:33:19Z</time></trkpt>
<trkpt lat="26.798426" lon="100.270689">
<time>2015-08-27T14:33:20Z</time></trkpt>
<trkpt lat="26.797906" lon="100.270858">
<time>2015-08-27T14:33:21Z</time></trkpt>
<trkpt lat="26.797436" lon="100.271008">
<time>2015-08-27T14:33:22Z</time></trkpt>
<trkpt lat="26.796956" lon="100.271158">
<time>2015-08-27T14:33:23Z</time></trkpt>
<trkpt lat="26.796405" lon="100.271338">
<time>2015-08-27T14:33:24Z</time></trkpt>
<trkpt lat="26.795865" lon="100.271508">
<time>2015-08-27T14:33:25Z</time></trkpt>
<trkpt lat="26.795535" lon="100.271608">
<time>2015-08-27T14:33:26Z</time></trkpt>
<trkpt lat="26.795055" lon="100.271768">
<time>2015-08-27T14:33:27Z</time></trkpt>
<trkpt lat="26.794575" lon="100.271908">
<time>2015-08-27T14:33:28Z</time></trkpt>
<trkpt lat="26.794425" lon="100.271967">
<time>2015-08-27T14:33:29Z</time></trkpt>
<trkpt lat="26.794105" lon="100.272057">
<time>2015-08-27T14:33:30Z</time></trkpt>
<trkpt lat="26.793235" lon="100.272207">
<time>2015-08-27T14:33:31Z</time></trkpt>
<trkpt lat="26.792895" lon="100.272237">
<time>2015-08-27T14:33:32Z</time></trkpt>
<trkpt lat="26.792545" lon="100.272247">
<time>2015-08-27T14:33:33Z</time></trkpt>
<trkpt lat="26.792055" lon="100.272277">
<time>2015-08-27T14:33:34Z</time></trkpt>
<trkpt lat="26.791515" lon="100.272307">
<time>2015-08-27T14:33:35Z</time></trkpt>
<trkpt lat="26.791145" lon="100.272317">
<time>2015-08-27T14:33:36Z</time></trkpt>
<trkpt lat="26.790585" lon="100.272317">
<time>2015-08-27T14:33:37Z</time></trkpt>
<trkpt lat="26.790035" lon="100.272347">
<time>2015-08-27T14:33:38Z</time></trkpt>
<trkpt lat="26.789865" lon="100.272367">
<time>2015-08-27T14:33:39Z</time></trkpt>
<trkpt lat="26.789365" lon="100.272397">
<time>2015-08-27T14:33:40Z</time></trkpt>
<trkpt lat="26.788925" lon="100.272497">
<time>2015-08-27T14:33:41Z</time></trkpt>
<trkpt lat="26.788625" lon="100.272617">
<time>2015-08-27T14:33:42Z</time></trkpt>
<trkpt lat="26.788315" lon="100.272767">
<time>2015-08-27T14:33:43Z</time></trkpt>
<trkpt lat="26.787985" lon="100.272957">
<time>2015-08-27T14:33:44Z</time></trkpt>
<trkpt lat="26.787825" lon="100.273047">
<time>2015-08-27T14:33:45Z</time></trkpt>
<trkpt lat="26.787195" lon="100.273386">
<time>2015-08-27T14:33:46Z</time></trkpt>
<trkpt lat="26.786855" lon="100.273556">
<time>2015-08-27T14:33:47Z</time></trkpt>
<trkpt lat="26.786705" lon="100.273646">
<time>2015-08-27T14:33:48Z</time></trkpt>
<trkpt lat="26.786264" lon="100.273896">
<time>2015-08-27T14:33:49Z</time></trkpt>
<trkpt lat="26.785814" lon="100.274125">
<time>2015-08-27T14:33:50Z</time></trkpt>
<trkpt lat="26.785504" lon="100.274295">
<time>2015-08-27T14:33:51Z</time></trkpt>
<trkpt lat="26.785384" lon="100.274365">
<time>2015-08-27T14:33:52Z</time></trkpt>
<trkpt lat="26.784934" lon="100.274595">
<time>2015-08-27T14:33:53Z</time></trkpt>
<trkpt lat="26.784664" lon="100.274755">
<time>2015-08-27T14:33:54Z</time></trkpt>
<trkpt lat="26.784303" lon="100.275015">
<time>2015-08-27T14:33:55Z</time></trkpt>
<trkpt lat="26.784093" lon="100.275214">
<time>2015-08-27T14:33:56Z</time></trkpt>
<trkpt lat="26.783813" lon="100.275544">
<time>2015-08-27T14:33:57Z</time></trkpt>
<trkpt lat="26.783643" lon="100.275754">
<time>2015-08-27T14:33:58Z</time></trkpt>
<trkpt lat="26.783373" lon="100.276083">
<time>2015-08-27T14:33:59Z</time></trkpt>
<trkpt lat="26.783092" lon="100.276453">
<time>2015-08-27T14:34:00Z</time></trkpt>
<trkpt lat="26.783052" lon="100.276503">
<time>2015-08-27T14:34:01Z</time></trkpt>
<trkpt lat="26.782772" lon="100.276862">
<time>2015-08-27T14:34:02Z</time></trkpt>
<trkpt lat="26.782381" lon="100.277352">
<time>2015-08-27T14:34:03Z</time></trkpt>
<trkpt lat="26.781991" lon="100.277841">
<time>2015-08-27T14:34:04Z</time></trkpt>
<trkpt lat="26.781901" lon="100.278021">
<time>2015-08-27T14:34:05Z</time></trkpt>
<trkpt lat="26.78166" lon="100.278311">
<time>2015-08-27T14:34:06Z</time></trkpt>
<trkpt lat="26.78157" lon="100.278401">
<time>2015-08-27T14:34:07Z</time></trkpt>
<trkpt lat="26.78139" lon="100.27859">
<time>2015-08-27T14:34:08Z</time></trkpt>
<trkpt lat="26.78122" lon="100.2787">
<time>2015-08-27T14:34:09Z</time></trkpt>
<trkpt lat="26.78079" lon="100.27876">
<time>2015-08-27T14:34:10Z</time></trkpt>
<trkpt lat="26.7806" lon="100.27875">
<time>2015-08-27T14:34:11Z</time></trkpt>
<trkpt lat="26.78027" lon="100.27867">
<time>2015-08-27T14:34:12Z</time></trkpt>
<trkpt lat="26.7797" lon="100.27853">
<time>2015-08-27T14:34:13Z</time></trkpt>
<trkpt lat="26.779121" lon="100.278471">
<time>2015-08-27T14:34:14Z</time></trkpt>
<trkpt lat="26.778721" lon="100.278471">
<time>2015-08-27T14:34:15Z</time></trkpt>
<trkpt lat="26.778331" lon="100.278501">
<time>2015-08-27T14:34:16Z</time></trkpt>
<trkpt lat="26.777951" lon="100.27856">
<time>2015-08-27T14:34:17Z</time></trkpt>
<trkpt lat="26.777761" lon="100.27859">
<time>2015-08-27T14:34:18Z</time></trkpt>
<trkpt lat="26.7772" lon="100.27869">
<time>2015-08-27T14:34:19Z</time></trkpt>
<trkpt lat="26.77664" lon="100.2788">
<time>2015-08-27T14:34:20Z</time></trkpt>
<trkpt lat="26.77628" lon="100.27886">
<time>2015-08-27T14:34:21Z</time></trkpt>
<trkpt lat="26.77574" lon="100.27894">
<time>2015-08-27T14:34:22Z</time></trkpt>
<trkpt lat="26.77541" lon="100.27901">
<time>2015-08-27T14:34:23Z</time></trkpt>
<trkpt lat="26.77527" lon="100.27905">
<time>2015-08-27T14:34:24Z</time></trkpt>
<trkpt lat="26.77514" lon="100.27911">
<time>2015-08-27T14:34:25Z</time></trkpt>
<trkpt lat="26.77503" lon="100.27921">
<time>2015-08-27T14:34:26Z</time></trkpt>
<trkpt lat="26.7748" lon="100.279449">
<time>2015-08-27T14:34:27Z</time></trkpt>
<trkpt lat="26.77448" lon="100.279769">
<time>2015-08-27T14:34:28Z</time></trkpt>
<trkpt lat="26.774129" lon="100.280109">
<time>2015-08-27T14:34:29Z</time></trkpt>
<trkpt lat="26.774079" lon="100.280179">
<time>2015-08-27T14:34:30Z</time></trkpt>
<trkpt lat="26.774029" lon="100.280248">
<time>2015-08-27T14:34:31Z</time></trkpt>
<trkpt lat="26.773999" lon="100.280288">
<time>2015-08-27T14:34:32Z</time></trkpt>
<trkpt lat="26.773959" lon="100.280338">
<time>2015-08-27T14:34:33Z</time></trkpt>
<trkpt lat="26.773959" lon="100.280338">
<time>2015-08-27T14:34:34Z</time></trkpt>
<trkpt lat="26.773729" lon="100.280208">
<time>2015-08-27T14:34:35Z</time></trkpt>
<trkpt lat="26.773559" lon="100.280099">
<time>2015-08-27T14:34:36Z</time></trkpt>
<trkpt lat="26.773339" lon="100.279989">
<time>2015-08-27T14:34:37Z</time></trkpt>
<trkpt lat="26.77319" lon="100.279909">
<time>2015-08-27T14:34:38Z</time></trkpt>
<trkpt lat="26.77285" lon="100.279689">
<time>2015-08-27T14:34:39Z</time></trkpt>
<trkpt lat="26.77231" lon="100.27934">
<time>2015-08-27T14:34:40Z</time></trkpt>
<trkpt lat="26.771601" lon="100.2787">
<time>2015-08-27T14:34:41Z</time></trkpt>
<trkpt lat="26.771601" lon="100.2787">
<time>2015-08-27T14:34:42Z</time></trkpt>
<trkpt lat="26.771491" lon="100.278541">
<time>2015-08-27T14:34:43Z</time></trkpt>
<trkpt lat="26.771361" lon="100.278341">
<time>2015-08-27T14:34:44Z</time></trkpt>
<trkpt lat="26.771222" lon="100.278051">
<time>2015-08-27T14:34:45Z</time></trkpt>
<trkpt lat="26.771202" lon="100.278001">
<time>2015-08-27T14:34:46Z</time></trkpt>
<trkpt lat="26.771132" lon="100.277852">
<time>2015-08-27T14:34:47Z</time></trkpt>
<trkpt lat="26.771092" lon="100.277752">
<time>2015-08-27T14:34:48Z</time></trkpt>
<trkpt lat="26.771092" lon="100.277752">
<time>2015-08-27T14:34:49Z</time></trkpt>
<trkpt lat="26.771062" lon="100.277642">
<time>2015-08-27T14:34:50Z</time></trkpt>
<trkpt lat="26.770933" lon="100.277212">
<time>2015-08-27T14:34:51Z</time></trkpt>
<trkpt lat="26.770863" lon="100.276973">
<time>2015-08-27T14:34:52Z</time></trkpt>
<trkpt lat="26.770584" lon="100.276104">
<time>2015-08-27T14:34:53Z</time></trkpt>
<trkpt lat="26.770464" lon="100.275744">
<time>2015-08-27T14:34:54Z</time></trkpt>
<trkpt lat="26.770414" lon="100.275604">
<time>2015-08-27T14:34:55Z</time></trkpt>
<trkpt lat="26.770354" lon="100.275474">
<time>2015-08-27T14:34:56Z</time></trkpt>
<trkpt lat="26.770275" lon="100.275344">
<time>2015-08-27T14:34:57Z</time></trkpt>
<trkpt lat="26.770175" lon="100.275235">
<time>2015-08-27T14:34:58Z</time></trkpt>
<trkpt lat="26.770085" lon="100.275135">
<time>2015-08-27T14:34:59Z</time></trkpt>
<trkpt lat="26.769925" lon="100.275005">
<time>2015-08-27T14:35:00Z</time></trkpt>
<trkpt lat="26.769485" lon="100.274685">
<time>2015-08-27T14:35:01Z</time></trkpt>
<trkpt lat="26.769036" lon="100.274356">
<time>2015-08-27T14:35:02Z</time></trkpt>
<trkpt lat="26.768796" lon="100.274186">
<time>2015-08-27T14:35:03Z</time></trkpt>
<trkpt lat="26.768766" lon="100.274166">
<time>2015-08-27T14:35:04Z</time></trkpt>
<trkpt lat="26.768766" lon="100.274166">
<time>2015-08-27T14:35:05Z</time></trkpt>
<trkpt lat="26.768706" lon="100.274146">
<time>2015-08-27T14:35:06Z</time></trkpt>
<trkpt lat="26.768676" lon="100.274116">
<time>2015-08-27T14:35:07Z</time></trkpt>
<trkpt lat="26.768626" lon="100.274076">
<time>2015-08-27T14:35:08Z</time></trkpt>
<trkpt lat="26.768556" lon="100.273986">
<time>2015-08-27T14:35:09Z</time></trkpt>
<trkpt lat="26.768446" lon="100.273856">
<time>2015-08-27T14:35:10Z</time></trkpt>
<trkpt lat="26.768346" lon="100.273726">
<time>2015-08-27T14:35:11Z</time></trkpt>
<trkpt lat="26.768137" lon="100.273457">
<time>2015-08-27T14:35:12Z</time></trkpt>
<trkpt lat="26.768007" lon="100.273287">
<time>2015-08-27T14:35:13Z</time></trkpt>
<trkpt lat="26.767917" lon="100.273177">
<time>2015-08-27T14:35:14Z</time></trkpt>
<trkpt lat="26.767897" lon="100.273157">
<time>2015-08-27T14:35:15Z</time></trkpt>
<trkpt lat="26.767847" lon="100.273107">
<time>2015-08-27T14:35:16Z</time></trkpt>
<trkpt lat="26.767777" lon="100.273037">
<time>2015-08-27T14:35:17Z</time></trkpt>
<trkpt lat="26.767717" lon="100.272997">
<time>2015-08-27T14:35:18Z</time></trkpt>
<trkpt lat="26.767687" lon="100.272977">
<time>2015-08-27T14:35:19Z</time></trkpt>
<trkpt lat="26.767627" lon="100.272947">
<time>2015-08-27T14:35:20Z</time></trkpt>
<trkpt lat="26.767557" lon="100.272917">
<time>2015-08-27T14:35:21Z</time></trkpt>
<trkpt lat="26.767527" lon="100.272897">
<time>2015-08-27T14:35:22Z</time></trkpt>
<trkpt lat="26.767457" lon="100.272877">
<time>2015-08-27T14:35:23Z</time></trkpt>
<trkpt lat="26.767347" lon="100.272857">
<time>2015-08-27T14:35:24Z</time></trkpt>
<trkpt lat="26.767187" lon="100.272827">
<time>2015-08-27T14:35:25Z</time></trkpt>
<trkpt lat="26.767037" lon="100.272797">
<time>2015-08-27T14:35:26Z</time></trkpt>
<trkpt lat="26.766547" lon="100.272707">
<time>2015-08-27T14:35:27Z</time></trkpt>
<trkpt lat="26.766427" lon="100.272687">
<time>2015-08-27T14:35:28Z</time></trkpt>
<trkpt lat="26.766337" lon="100.272677">
<time>2015-08-27T14:35:29Z</time></trkpt>
<trkpt lat="26.766247" lon="100.272667">
<time>2015-08-27T14:35:30Z</time></trkpt>
<trkpt lat="26.766137" lon="100.272657">
<time>2015-08-27T14:35:31Z</time></trkpt>
<trkpt lat="26.766107" lon="100.272657">
<time>2015-08-27T14:35:32Z</time></trkpt>
<trkpt lat="26.766027" lon="100.272657">
<time>2015-08-27T14:35:33Z</time></trkpt>
<trkpt lat="26.765987" lon="100.272657">
<time>2015-08-27T14:35:34Z</time></trkpt>
<trkpt lat="26.765897" lon="100.272667">
<time>2015-08-27T14:35:35Z</time></trkpt>
<trkpt lat="26.765777" lon="100.272687">
<time>2015-08-27T14:35:36Z</time></trkpt>
<trkpt lat="26.765667" lon="100.272707">
<time>2015-08-27T14:35:37Z</time></trkpt>
<trkpt lat="26.765567" lon="100.272727">
<time>2015-08-27T14:35:38Z</time></trkpt>
<trkpt lat="26.765427" lon="100.272767">
<time>2015-08-27T14:35:39Z</time></trkpt>
<trkpt lat="26.765227" lon="100.272827">
<time>2015-08-27T14:35:40Z</time></trkpt>
<trkpt lat="26.765137" lon="100.272847">
<time>2015-08-27T14:35:41Z</time></trkpt>
<trkpt lat="26.765057" lon="100.272887">
<time>2015-08-27T14:35:42Z</time></trkpt>
<trkpt lat="26.765007" lon="100.272907">
<time>2015-08-27T14:35:43Z</time></trkpt>
<trkpt lat="26.764927" lon="100.272947">
<time>2015-08-27T14:35:44Z</time></trkpt>
<trkpt lat="26.764877" lon="100.272977">
<time>2015-08-27T14:35:45Z</time></trkpt>
<trkpt lat="26.764817" lon="100.273007">
<time>2015-08-27T14:35:46Z</time></trkpt>
<trkpt lat="26.764737" lon="100.273077">
<time>2015-08-27T14:35:47Z</time></trkpt>
<trkpt lat="26.764717" lon="100.273097">
<time>2015-08-27T14:35:48Z</time></trkpt>
<trkpt lat="26.764657" lon="100.273157">
<time>2015-08-27T14:35:49Z</time></trkpt>
<trkpt lat="26.764597" lon="100.273247">
<time>2015-08-27T14:35:50Z</time></trkpt>
<trkpt lat="26.764537" lon="100.273347">
<time>2015-08-27T14:35:51Z</time></trkpt>
<trkpt lat="26.764497" lon="100.273437">
<time>2015-08-27T14:35:52Z</time></trkpt>
<trkpt lat="26.764457" lon="100.273547">
<time>2015-08-27T14:35:53Z</time></trkpt>
<trkpt lat="26.764427" lon="100.273646">
<time>2015-08-27T14:35:54Z</time></trkpt>
<trkpt lat="26.764276" lon="100.274246">
<time>2015-08-27T14:35:55Z</time></trkpt>
<trkpt lat="26.764176" lon="100.274635">
<time>2015-08-27T14:35:56Z</time></trkpt>
<trkpt lat="26.764136" lon="100.274755">
<time>2015-08-27T14:35:57Z</time></trkpt>
<trkpt lat="26.764076" lon="100.274905">
<time>2015-08-27T14:35:58Z</time></trkpt>
<trkpt lat="26.764025" lon="100.274995">
<time>2015-08-27T14:35:59Z</time></trkpt>
<trkpt lat="26.763965" lon="100.275085">
<time>2015-08-27T14:36:00Z</time></trkpt>
<trkpt lat="26.763885" lon="100.275175">
<time>2015-08-27T14:36:01Z</time></trkpt>
<trkpt lat="26.763785" lon="100.275245">
<time>2015-08-27T14:36:02Z</time></trkpt>
<trkpt lat="26.763665" lon="100.275335">
<time>2015-08-27T14:36:03Z</time></trkpt>
<trkpt lat="26.763395" lon="100.275504">
<time>2015-08-27T14:36:04Z</time></trkpt>
<trkpt lat="26.763245" lon="100.275594">
<time>2015-08-27T14:36:05Z</time></trkpt>
<trkpt lat="26.763245" lon="100.275594">
<time>2015-08-27T14:36:06Z</time></trkpt>
<trkpt lat="26.763145" lon="100.275604">
<time>2015-08-27T14:36:07Z</time></trkpt>
<trkpt lat="26.761924" lon="100.276443">
<time>2015-08-27T14:36:08Z</time></trkpt>
<trkpt lat="26.761714" lon="100.276563">
<time>2015-08-27T14:36:09Z</time></trkpt>
<trkpt lat="26.761564" lon="100.276633">
<time>2015-08-27T14:36:10Z</time></trkpt>
<trkpt lat="26.761464" lon="100.276673">
<time>2015-08-27T14:36:11Z</time></trkpt>
<trkpt lat="26.761364" lon="100.276703">
<time>2015-08-27T14:36:12Z</time></trkpt>
<trkpt lat="26.761264" lon="100.276723">
<time>2015-08-27T14:36:13Z</time></trkpt>
<trkpt lat="26.761154" lon="100.276733">
<time>2015-08-27T14:36:14Z</time></trkpt>
<trkpt lat="26.761034" lon="100.276723">
<time>2015-08-27T14:36:15Z</time></trkpt>
<trkpt lat="26.760844" lon="100.276693">
<time>2015-08-27T14:36:16Z</time></trkpt>
<trkpt lat="26.759554" lon="100.276443">
<time>2015-08-27T14:36:17Z</time></trkpt>
<trkpt lat="26.758805" lon="100.276284">
<time>2015-08-27T14:36:18Z</time></trkpt>
<trkpt lat="26.758625" lon="100.276244">
<time>2015-08-27T14:36:19Z</time></trkpt>
<trkpt lat="26.758425" lon="100.276174">
<time>2015-08-27T14:36:20Z</time></trkpt>
<trkpt lat="26.758245" lon="100.276094">
<time>2015-08-27T14:36:21Z</time></trkpt>
<trkpt lat="26.758025" lon="100.275984">
<time>2015-08-27T14:36:22Z</time></trkpt>
<trkpt lat="26.757875" lon="100.275874">
<time>2015-08-27T14:36:23Z</time></trkpt>
<trkpt lat="26.757715" lon="100.275754">
<time>2015-08-27T14:36:24Z</time></trkpt>
<trkpt lat="26.757475" lon="100.275535">
<time>2015-08-27T14:36:25Z</time></trkpt>
<trkpt lat="26.757326" lon="100.275365">
<time>2015-08-27T14:36:26Z</time></trkpt>
<trkpt lat="26.757266" lon="100.275285">
<time>2015-08-27T14:36:27Z</time></trkpt>
<trkpt lat="26.757166" lon="100.275155">
<time>2015-08-27T14:36:28Z</time></trkpt>
<trkpt lat="26.757036" lon="100.274955">
<time>2015-08-27T14:36:29Z</time></trkpt>
<trkpt lat="26.756627" lon="100.274316">
<time>2015-08-27T14:36:30Z</time></trkpt>
<trkpt lat="26.756477" lon="100.274096">
<time>2015-08-27T14:36:31Z</time></trkpt>
<trkpt lat="26.756387" lon="100.273976">
<time>2015-08-27T14:36:32Z</time></trkpt>
<trkpt lat="26.756287" lon="100.273856">
<time>2015-08-27T14:36:33Z</time></trkpt>
<trkpt lat="26.756197" lon="100.273767">
<time>2015-08-27T14:36:34Z</time></trkpt>
<trkpt lat="26.756087" lon="100.273687">
<time>2015-08-27T14:36:35Z</time></trkpt>
<trkpt lat="26.755987" lon="100.273617">
<time>2015-08-27T14:36:36Z</time></trkpt>
<trkpt lat="26.755867" lon="100.273557">
<time>2015-08-27T14:36:37Z</time></trkpt>
<trkpt lat="26.755708" lon="100.273487">
<time>2015-08-27T14:36:38Z</time></trkpt>
<trkpt lat="26.755308" lon="100.273357">
<time>2015-08-27T14:36:39Z</time></trkpt>
<trkpt lat="26.754128" lon="100.272967">
<time>2015-08-27T14:36:40Z</time></trkpt>
<trkpt lat="26.753598" lon="100.272798">
<time>2015-08-27T14:36:41Z</time></trkpt>
<trkpt lat="26.753398" lon="100.272728">
<time>2015-08-27T14:36:42Z</time></trkpt>
<trkpt lat="26.753188" lon="100.272648">
<time>2015-08-27T14:36:43Z</time></trkpt>
<trkpt lat="26.753009" lon="100.272568">
<time>2015-08-27T14:36:44Z</time></trkpt>
<trkpt lat="26.752839" lon="100.272478">
<time>2015-08-27T14:36:45Z</time></trkpt>
<trkpt lat="26.752689" lon="100.272378">
<time>2015-08-27T14:36:46Z</time></trkpt>
<trkpt lat="26.752519" lon="100.272258">
<time>2015-08-27T14:36:47Z</time></trkpt>
<trkpt lat="26.752069" lon="100.271899">
<time>2015-08-27T14:36:48Z</time></trkpt>
<trkpt lat="26.751859" lon="100.271739">
<time>2015-08-27T14:36:49Z</time></trkpt>
<trkpt lat="26.751859" lon="100.271739">
<time>2015-08-27T14:36:50Z</time></trkpt>
<trkpt lat="26.75205" lon="100.271459">
<time>2015-08-27T14:36:51Z</time></trkpt>
<trkpt lat="26.75223" lon="100.271259">
<time>2015-08-27T14:36:52Z</time></trkpt>
<trkpt lat="26.75233" lon="100.271129">
<time>2015-08-27T14:36:53Z</time></trkpt>
<trkpt lat="26.75239" lon="100.271049">
<time>2015-08-27T14:36:54Z</time></trkpt>
<trkpt lat="26.7524" lon="100.271029">
<time>2015-08-27T14:36:55Z</time></trkpt>
<trkpt lat="26.75241" lon="100.271019">
<time>2015-08-27T14:36:56Z</time></trkpt>
<trkpt lat="26.75241" lon="100.271009">
<time>2015-08-27T14:36:57Z</time></trkpt>
<trkpt lat="26.75241" lon="100.27098">
<time>2015-08-27T14:36:58Z</time></trkpt>
<trkpt lat="26.75241" lon="100.27098">
<time>2015-08-27T14:36:59Z</time></trkpt>
<trkpt lat="26.7524" lon="100.27095">
<time>2015-08-27T14:37:00Z</time></trkpt>
<trkpt lat="26.75239" lon="100.27092">
<time>2015-08-27T14:37:01Z</time></trkpt>
<trkpt lat="26.75238" lon="100.2709">
<time>2015-08-27T14:37:02Z</time></trkpt>
<trkpt lat="26.75236" lon="100.27088">
<time>2015-08-27T14:37:03Z</time></trkpt>
<trkpt lat="26.75231" lon="100.27083">
<time>2015-08-27T14:37:04Z</time></trkpt>
<trkpt lat="26.75226" lon="100.27079">
<time>2015-08-27T14:37:05Z</time></trkpt>
<trkpt lat="26.75223" lon="100.27077">
<time>2015-08-27T14:37:06Z</time></trkpt>
<trkpt lat="26.75223" lon="100.27077">
<time>2015-08-27T14:37:07Z</time></trkpt>
<trkpt lat="26.75223" lon="100.27074">
<time>2015-08-27T14:37:08Z</time></trkpt>
<trkpt lat="26.75224" lon="100.27072">
<time>2015-08-27T14:37:09Z</time></trkpt>
<trkpt lat="26.75226" lon="100.27071">
<time>2015-08-27T14:37:10Z</time></trkpt>
<trkpt lat="26.7523" lon="100.27069">
<time>2015-08-27T14:37:11Z</time></trkpt>
<trkpt lat="26.75235" lon="100.27067">
<time>2015-08-27T14:37:12Z</time></trkpt>
<trkpt lat="26.75239" lon="100.27064">
<time>2015-08-27T14:37:13Z</time></trkpt>
<trkpt lat="26.75242" lon="100.27059">
<time>2015-08-27T14:37:14Z</time></trkpt>
<trkpt lat="26.75244" lon="100.27054">
<time>2015-08-27T14:37:15Z</time></trkpt>
<trkpt lat="26.75243" lon="100.27046">
<time>2015-08-27T14:37:16Z</time></trkpt>
<trkpt lat="26.75241" lon="100.27035">
<time>2015-08-27T14:37:17Z</time></trkpt>
<trkpt lat="26.752371" lon="100.27022">
<time>2015-08-27T14:37:18Z</time></trkpt>
<trkpt lat="26.752321" lon="100.27006">
<time>2015-08-27T14:37:19Z</time></trkpt>
<trkpt lat="26.752311" lon="100.27001">
<time>2015-08-27T14:37:20Z</time></trkpt>
<trkpt lat="26.752301" lon="100.26997">
<time>2015-08-27T14:37:21Z</time></trkpt>
<trkpt lat="26.752301" lon="100.26993">
<time>2015-08-27T14:37:22Z</time></trkpt>
<trkpt lat="26.752311" lon="100.269901">
<time>2015-08-27T14:37:23Z</time></trkpt>
<trkpt lat="26.752311" lon="100.269881">
<time>2015-08-27T14:37:24Z</time></trkpt>
<trkpt lat="26.752321" lon="100.269861">
<time>2015-08-27T14:37:25Z</time></trkpt>
<trkpt lat="26.752341" lon="100.269831">
<time>2015-08-27T14:37:26Z</time></trkpt>
<trkpt lat="26.752361" lon="100.269801">
<time>2015-08-27T14:37:27Z</time></trkpt>
<trkpt lat="26.752391" lon="100.269781">
<time>2015-08-27T14:37:28Z</time></trkpt>
<trkpt lat="26.752421" lon="100.269761">
<time>2015-08-27T14:37:29Z</time></trkpt>
<trkpt lat="26.752481" lon="100.269731">
<time>2015-08-27T14:37:30Z</time></trkpt>
<trkpt lat="26.752481" lon="100.269731">
<time>2015-08-27T14:37:31Z</time></trkpt>
<trkpt lat="26.752451" lon="100.269721">
<time>2015-08-27T14:37:32Z</time></trkpt>
<trkpt lat="26.752431" lon="100.269701">
<time>2015-08-27T14:37:33Z</time></trkpt>
<trkpt lat="26.752401" lon="100.269691">
<time>2015-08-27T14:37:34Z</time></trkpt>
<trkpt lat="26.752371" lon="100.269661">
<time>2015-08-27T14:37:35Z</time></trkpt>
<trkpt lat="26.752351" lon="100.269621">
<time>2015-08-27T14:37:36Z</time></trkpt>
<trkpt lat="26.752311" lon="100.269561">
<time>2015-08-27T14:37:37Z</time></trkpt>
<trkpt lat="26.752281" lon="100.269521">
<time>2015-08-27T14:37:38Z</time></trkpt>
<trkpt lat="26.752261" lon="100.269481">
<time>2015-08-27T14:37:39Z</time></trkpt>
<trkpt lat="26.752251" lon="100.269451">
<time>2015-08-27T14:37:40Z</time></trkpt>
<trkpt lat="26.752231" lon="100.269411">
<time>2015-08-27T14:37:41Z</time></trkpt>
<trkpt lat="26.752211" lon="100.269371">
<time>2015-08-27T14:37:42Z</time></trkpt>
<trkpt lat="26.752181" lon="100.269271">
<time>2015-08-27T14:37:43Z</time></trkpt>
<trkpt lat="26.752282" lon="100.268951">
<time>2015-08-27T14:37:44Z</time></trkpt>
<trkpt lat="26.752302" lon="100.268702">
<time>2015-08-27T14:37:45Z</time></trkpt>
<trkpt lat="26.752332" lon="100.268522">
<time>2015-08-27T14:37:46Z</time></trkpt>
<trkpt lat="26.752422" lon="100.268222">
<time>2015-08-27T14:37:47Z</time></trkpt>
<trkpt lat="26.752572" lon="100.267892">
<time>2015-08-27T14:37:48Z</time></trkpt>
<trkpt lat="26.752602" lon="100.267752">
<time>2015-08-27T14:37:49Z</time></trkpt>
<trkpt lat="26.752563" lon="100.267213">
<time>2015-08-27T14:37:50Z</time></trkpt>
<trkpt lat="26.752503" lon="100.267023">
<time>2015-08-27T14:37:51Z</time></trkpt>
<trkpt lat="26.752423" lon="100.266863">
<time>2015-08-27T14:37:52Z</time></trkpt>
<trkpt lat="26.752313" lon="100.266683">
<time>2015-08-27T14:37:53Z</time></trkpt>
<trkpt lat="26.752054" lon="100.266144">
<time>2015-08-27T14:37:54Z</time></trkpt>
<trkpt lat="26.752004" lon="100.266054">
<time>2015-08-27T14:37:55Z</time></trkpt>
<trkpt lat="26.751944" lon="100.265994">
<time>2015-08-27T14:37:56Z</time></trkpt>
<trkpt lat="26.751874" lon="100.265944">
<time>2015-08-27T14:37:57Z</time></trkpt>
<trkpt lat="26.751814" lon="100.265934">
<time>2015-08-27T14:37:58Z</time></trkpt>
<trkpt lat="26.751434" lon="100.265844">
<time>2015-08-27T14:37:59Z</time></trkpt>
<trkpt lat="26.751344" lon="100.265804">
<time>2015-08-27T14:38:00Z</time></trkpt>
<trkpt lat="26.750934" lon="100.265534">
<time>2015-08-27T14:38:01Z</time></trkpt>
<trkpt lat="26.750844" lon="100.265504">
<time>2015-08-27T14:38:02Z</time></trkpt>
<trkpt lat="26.750554" lon="100.265524">
<time>2015-08-27T14:38:03Z</time></trkpt>
<trkpt lat="26.750474" lon="100.265494">
<time>2015-08-27T14:38:04Z</time></trkpt>
<trkpt lat="26.750454" lon="100.265484">
<time>2015-08-27T14:38:05Z</time></trkpt>
<trkpt lat="26.750384" lon="100.265414">
<time>2015-08-27T14:38:06Z</time></trkpt>
<trkpt lat="26.750344" lon="100.265314">
<time>2015-08-27T14:38:07Z</time></trkpt>
<trkpt lat="26.750334" lon="100.265075">
<time>2015-08-27T14:38:08Z</time></trkpt>
<trkpt lat="26.750325" lon="100.264615">
<time>2015-08-27T14:38:09Z</time></trkpt>
<trkpt lat="26.750295" lon="100.264345">
<time>2015-08-27T14:38:10Z</time></trkpt>
<trkpt lat="26.750265" lon="100.264015">
<time>2015-08-27T14:38:11Z</time></trkpt>
<trkpt lat="26.750255" lon="100.263985">
<time>2015-08-27T14:38:12Z</time></trkpt>
<trkpt lat="26.750225" lon="100.263945">
<time>2015-08-27T14:38:13Z</time></trkpt>
<trkpt lat="26.750175" lon="100.263895">
<time>2015-08-27T14:38:14Z</time></trkpt>
<trkpt lat="26.750015" lon="100.263825">
<time>2015-08-27T14:38:15Z</time></trkpt>
<trkpt lat="26.749925" lon="100.263775">
<time>2015-08-27T14:38:16Z</time></trkpt>
<trkpt lat="26.749625" lon="100.263725">
<time>2015-08-27T14:38:17Z</time></trkpt>
<trkpt lat="26.749295" lon="100.263666">
<time>2015-08-27T14:38:18Z</time></trkpt>
<trkpt lat="26.749195" lon="100.263626">
<time>2015-08-27T14:38:19Z</time></trkpt>
<trkpt lat="26.748895" lon="100.263436">
<time>2015-08-27T14:38:20Z</time></trkpt>
<trkpt lat="26.748716" lon="100.263296">
<time>2015-08-27T14:38:21Z</time></trkpt>
<trkpt lat="26.748676" lon="100.263206">
<time>2015-08-27T14:38:22Z</time></trkpt>
<trkpt lat="26.748686" lon="100.263126">
<time>2015-08-27T14:38:23Z</time></trkpt>
<trkpt lat="26.748746" lon="100.263046">
<time>2015-08-27T14:38:24Z</time></trkpt>
<trkpt lat="26.748896" lon="100.262936">
<time>2015-08-27T14:38:25Z</time></trkpt>
<trkpt lat="26.748946" lon="100.262876">
<time>2015-08-27T14:38:26Z</time></trkpt>
<trkpt lat="26.748976" lon="100.262786">
<time>2015-08-27T14:38:27Z</time></trkpt>
<trkpt lat="26.748986" lon="100.262676">
<time>2015-08-27T14:38:28Z</time></trkpt>
<trkpt lat="26.748976" lon="100.262566">
<time>2015-08-27T14:38:29Z</time></trkpt>
<trkpt lat="26.748896" lon="100.262346">
<time>2015-08-27T14:38:30Z</time></trkpt>
<trkpt lat="26.748676" lon="100.261907">
<time>2015-08-27T14:38:31Z</time></trkpt>
<trkpt lat="26.748417" lon="100.261387">
<time>2015-08-27T14:38:32Z</time></trkpt>
<trkpt lat="26.748247" lon="100.260927">
<time>2015-08-27T14:38:33Z</time></trkpt>
<trkpt lat="26.748157" lon="100.260647">
<time>2015-08-27T14:38:34Z</time></trkpt>
<trkpt lat="26.748007" lon="100.260457">
<time>2015-08-27T14:38:35Z</time></trkpt>
<trkpt lat="26.747867" lon="100.260218">
<time>2015-08-27T14:38:36Z</time></trkpt>
<trkpt lat="26.747787" lon="100.260128">
<time>2015-08-27T14:38:37Z</time></trkpt>
<trkpt lat="26.747567" lon="100.259958">
<time>2015-08-27T14:38:38Z</time></trkpt>
<trkpt lat="26.747357" lon="100.259688">
<time>2015-08-27T14:38:39Z</time></trkpt>
<trkpt lat="26.747217" lon="100.259408">
<time>2015-08-27T14:38:40Z</time></trkpt>
<trkpt lat="26.746968" lon="100.258948">
<time>2015-08-27T14:38:41Z</time></trkpt>
<trkpt lat="26.746888" lon="100.258688">
<time>2015-08-27T14:38:42Z</time></trkpt>
<trkpt lat="26.746838" lon="100.258558">
<time>2015-08-27T14:38:43Z</time></trkpt>
<trkpt lat="26.746748" lon="100.258458">
<time>2015-08-27T14:38:44Z</time></trkpt>
<trkpt lat="26.746638" lon="100.258399">
<time>2015-08-27T14:38:45Z</time></trkpt>
<trkpt lat="26.746518" lon="100.258359">
<time>2015-08-27T14:38:46Z</time></trkpt>
<trkpt lat="26.746168" lon="100.258289">
<time>2015-08-27T14:38:47Z</time></trkpt>
<trkpt lat="26.746078" lon="100.258239">
<time>2015-08-27T14:38:48Z</time></trkpt>
<trkpt lat="26.745938" lon="100.258119">
<time>2015-08-27T14:38:49Z</time></trkpt>
<trkpt lat="26.745548" lon="100.257909">
<time>2015-08-27T14:38:50Z</time></trkpt>
<trkpt lat="26.745368" lon="100.257739">
<time>2015-08-27T14:38:51Z</time></trkpt>
<trkpt lat="26.745328" lon="100.257629">
<time>2015-08-27T14:38:52Z</time></trkpt>
<trkpt lat="26.745138" lon="100.257309">
<time>2015-08-27T14:38:53Z</time></trkpt>
<trkpt lat="26.744799" lon="100.256939">
<time>2015-08-27T14:38:54Z</time></trkpt>
<trkpt lat="26.744689" lon="100.256769">
<time>2015-08-27T14:38:55Z</time></trkpt>
<trkpt lat="26.744629" lon="100.256709">
<time>2015-08-27T14:38:56Z</time></trkpt>
<trkpt lat="26.744229" lon="100.256339">
<time>2015-08-27T14:38:57Z</time></trkpt>
<trkpt lat="26.744049" lon="100.256219">
<time>2015-08-27T14:38:58Z</time></trkpt>
<trkpt lat="26.743719" lon="100.25605">
<time>2015-08-27T14:38:59Z</time></trkpt>
<trkpt lat="26.743369" lon="100.25595">
<time>2015-08-27T14:39:00Z</time></trkpt>
<trkpt lat="26.743039" lon="100.2559">
<time>2015-08-27T14:39:01Z</time></trkpt>
<trkpt lat="26.742929" lon="100.2559">
<time>2015-08-27T14:39:02Z</time></trkpt>
<trkpt lat="26.742519" lon="100.25596">
<time>2015-08-27T14:39:03Z</time></trkpt>
<trkpt lat="26.742109" lon="100.25595">
<time>2015-08-27T14:39:04Z</time></trkpt>
<trkpt lat="26.741739" lon="100.25586">
<time>2015-08-27T14:39:05Z</time></trkpt>
<trkpt lat="26.741199" lon="100.25568">
<time>2015-08-27T14:39:06Z</time></trkpt>
<trkpt lat="26.740829" lon="100.25566">
<time>2015-08-27T14:39:07Z</time></trkpt>
<trkpt lat="26.740579" lon="100.25568">
<time>2015-08-27T14:39:08Z</time></trkpt>
<trkpt lat="26.740479" lon="100.25567">
<time>2015-08-27T14:39:09Z</time></trkpt>
<trkpt lat="26.740329" lon="100.25564">
<time>2015-08-27T14:39:10Z</time></trkpt>
<trkpt lat="26.739969" lon="100.25556">
<time>2015-08-27T14:39:11Z</time></trkpt>
<trkpt lat="26.739879" lon="100.25551">
<time>2015-08-27T14:39:12Z</time></trkpt>
<trkpt lat="26.739779" lon="100.25548">
<time>2015-08-27T14:39:13Z</time></trkpt>
<trkpt lat="26.739669" lon="100.25541">
<time>2015-08-27T14:39:14Z</time></trkpt>
<trkpt lat="26.739609" lon="100.2553">
<time>2015-08-27T14:39:15Z</time></trkpt>
<trkpt lat="26.739579" lon="100.25518">
<time>2015-08-27T14:39:16Z</time></trkpt>
<trkpt lat="26.739519" lon="100.25453">
<time>2015-08-27T14:39:17Z</time></trkpt>
<trkpt lat="26.73948" lon="100.25426">
<time>2015-08-27T14:39:18Z</time></trkpt>
<trkpt lat="26.73936" lon="100.25372">
<time>2015-08-27T14:39:19Z</time></trkpt>
<trkpt lat="26.73922" lon="100.25318">
<time>2015-08-27T14:39:20Z</time></trkpt>
<trkpt lat="26.73907" lon="100.252771">
<time>2015-08-27T14:39:21Z</time></trkpt>
<trkpt lat="26.739" lon="100.252621">
<time>2015-08-27T14:39:22Z</time></trkpt>
<trkpt lat="26.7389" lon="100.252491">
<time>2015-08-27T14:39:23Z</time></trkpt>
<trkpt lat="26.73878" lon="100.252411">
<time>2015-08-27T14:39:24Z</time></trkpt>
<trkpt lat="26.73853" lon="100.252241">
<time>2015-08-27T14:39:25Z</time></trkpt>
<trkpt lat="26.73825" lon="100.252041">
<time>2015-08-27T14:39:26Z</time></trkpt>
<trkpt lat="26.73821" lon="100.252011">
<time>2015-08-27T14:39:27Z</time></trkpt>
<trkpt lat="26.73785" lon="100.251771">
<time>2015-08-27T14:39:28Z</time></trkpt>
<trkpt lat="26.73762" lon="100.251591">
<time>2015-08-27T14:39:29Z</time></trkpt>
<trkpt lat="26.73738" lon="100.251431">
<time>2015-08-27T14:39:30Z</time></trkpt>
<trkpt lat="26.73724" lon="100.251321">
<time>2015-08-27T14:39:31Z</time></trkpt>
<trkpt lat="26.73688" lon="100.251041">
<time>2015-08-27T14:39:32Z</time></trkpt>
<trkpt lat="26.73664" lon="100.250861">
<time>2015-08-27T14:39:33Z</time></trkpt>
<trkpt lat="26.73637" lon="100.250671">
<time>2015-08-27T14:39:34Z</time></trkpt>
<trkpt lat="26.73611" lon="100.250501">
<time>2015-08-27T14:39:35Z</time></trkpt>
<trkpt lat="26.73558" lon="100.250241">
<time>2015-08-27T14:39:36Z</time></trkpt>
<trkpt lat="26.73536" lon="100.250111">
<time>2015-08-27T14:39:37Z</time></trkpt>
<trkpt lat="26.73523" lon="100.250021">
<time>2015-08-27T14:39:38Z</time></trkpt>
<trkpt lat="26.73496" lon="100.249821">
<time>2015-08-27T14:39:39Z</time></trkpt>
<trkpt lat="26.73477" lon="100.249641">
<time>2015-08-27T14:39:40Z</time></trkpt>
<trkpt lat="26.73448" lon="100.249351">
<time>2015-08-27T14:39:41Z</time></trkpt>
<trkpt lat="26.73407" lon="100.248981">
<time>2015-08-27T14:39:42Z</time></trkpt>
<trkpt lat="26.73368" lon="100.248511">
<time>2015-08-27T14:39:43Z</time></trkpt>
<trkpt lat="26.73345" lon="100.248261">
<time>2015-08-27T14:39:44Z</time></trkpt>
<trkpt lat="26.73321" lon="100.247991">
<time>2015-08-27T14:39:45Z</time></trkpt>
<trkpt lat="26.732981" lon="100.247721">
<time>2015-08-27T14:39:46Z</time></trkpt>
<trkpt lat="26.732671" lon="100.247331">
<time>2015-08-27T14:39:47Z</time></trkpt>
<trkpt lat="26.73254" lon="100.247111">
<time>2015-08-27T14:39:48Z</time></trkpt>
<trkpt lat="26.73236" lon="100.246771">
<time>2015-08-27T14:39:49Z</time></trkpt>
<trkpt lat="26.73234" lon="100.246741">
<time>2015-08-27T14:39:50Z</time></trkpt>
<trkpt lat="26.73223" lon="100.246591">
<time>2015-08-27T14:39:51Z</time></trkpt>
<trkpt lat="26.732" lon="100.246411">
<time>2015-08-27T14:39:52Z</time></trkpt>
<trkpt lat="26.73183" lon="100.246341">
<time>2015-08-27T14:39:53Z</time></trkpt>
<trkpt lat="26.7316" lon="100.246261">
<time>2015-08-27T14:39:54Z</time></trkpt>
<trkpt lat="26.73127" lon="100.246201">
<time>2015-08-27T14:39:55Z</time></trkpt>
<trkpt lat="26.730951" lon="100.246161">
<time>2015-08-27T14:39:56Z</time></trkpt>
<trkpt lat="26.730071" lon="100.246281">
<time>2015-08-27T14:39:57Z</time></trkpt>
<trkpt lat="26.729581" lon="100.246391">
<time>2015-08-27T14:39:58Z</time></trkpt>
<trkpt lat="26.729221" lon="100.246481">
<time>2015-08-27T14:39:59Z</time></trkpt>
<trkpt lat="26.728901" lon="100.246601">
<time>2015-08-27T14:40:00Z</time></trkpt>
<trkpt lat="26.728691" lon="100.246681">
<time>2015-08-27T14:40:01Z</time></trkpt>
<trkpt lat="26.728481" lon="100.246791">
<time>2015-08-27T14:40:02Z</time></trkpt>
<trkpt lat="26.728201" lon="100.246861">
<time>2015-08-27T14:40:03Z</time></trkpt>
<trkpt lat="26.728021" lon="100.246941">
<time>2015-08-27T14:40:04Z</time></trkpt>
<trkpt lat="26.727861" lon="100.246981">
<time>2015-08-27T14:40:05Z</time></trkpt>
<trkpt lat="26.727611" lon="100.247001">
<time>2015-08-27T14:40:06Z</time></trkpt>
<trkpt lat="26.727301" lon="100.246981">
<time>2015-08-27T14:40:07Z</time></trkpt>
<trkpt lat="26.727221" lon="100.246951">
<time>2015-08-27T14:40:08Z</time></trkpt>
<trkpt lat="26.727221" lon="100.246951">
<time>2015-08-27T14:40:09Z</time></trkpt>
<trkpt lat="26.727231" lon="100.246881">
<time>2015-08-27T14:40:10Z</time></trkpt>
<trkpt lat="26.727261" lon="100.246621">
<time>2015-08-27T14:40:11Z</time></trkpt>
<trkpt lat="26.727041" lon="100.246581">
<time>2015-08-27T14:40:12Z</time></trkpt>
<trkpt lat="26.726281" lon="100.246291">
<time>2015-08-27T14:40:13Z</time></trkpt>
<trkpt lat="26.726031" lon="100.246191">
<time>2015-08-27T14:40:14Z</time></trkpt>
<trkpt lat="26.725041" lon="100.245691">
<time>2015-08-27T14:40:15Z</time></trkpt>
<trkpt lat="26.724551" lon="100.245511">
<time>2015-08-27T14:40:16Z</time></trkpt>
<trkpt lat="26.724011" lon="100.245291">
<time>2015-08-27T14:40:17Z</time></trkpt>
<trkpt lat="26.723361" lon="100.244921">
<time>2015-08-27T14:40:18Z</time></trkpt>
<trkpt lat="26.722131" lon="100.244101">
<time>2015-08-27T14:40:19Z</time></trkpt>
<trkpt lat="26.722131" lon="100.244101">
<time>2015-08-27T14:40:20Z</time></trkpt>
<trkpt lat="26.722191" lon="100.243871">
<time>2015-08-27T14:40:21Z</time></trkpt>
<trkpt lat="26.722211" lon="100.243741">
<time>2015-08-27T14:40:22Z</time></trkpt>
<trkpt lat="26.722161" lon="100.243561">
<time>2015-08-27T14:40:23Z</time></trkpt>
<trkpt lat="26.72203" lon="100.243381">
<time>2015-08-27T14:40:24Z</time></trkpt>
<trkpt lat="26.72188" lon="100.243241">
<time>2015-08-27T14:40:25Z</time></trkpt>
<trkpt lat="26.72176" lon="100.243141">
<time>2015-08-27T14:40:26Z</time></trkpt>
<trkpt lat="26.72167" lon="100.243061">
<time>2015-08-27T14:40:27Z</time></trkpt>
<trkpt lat="26.72138" lon="100.242731">
<time>2015-08-27T14:40:28Z</time></trkpt>
<trkpt lat="26.72126" lon="100.242631">
<time>2015-08-27T14:40:29Z</time></trkpt>
<trkpt lat="26.72105" lon="100.242441">
<time>2015-08-27T14:40:30Z</time></trkpt>
<trkpt lat="26.72099" lon="100.242341">
<time>2015-08-27T14:40:31Z</time></trkpt>
<trkpt lat="26.7209" lon="100.242261">
<time>2015-08-27T14:40:32Z</time></trkpt>
<trkpt lat="26.72079" lon="100.242191">
<time>2015-08-27T14:40:33Z</time></trkpt>
<trkpt lat="26.7207" lon="100.242101">
<time>2015-08-27T14:40:34Z</time></trkpt>
<trkpt lat="26.72059" lon="100.242031">
<time>2015-08-27T14:40:35Z</time></trkpt>
<trkpt lat="26.72032" lon="100.241721">
<time>2015-08-27T14:40:36Z</time></trkpt>
<trkpt lat="26.71962" lon="100.24107">
<time>2015-08-27T14:40:37Z</time></trkpt>
<trkpt lat="26.71925" lon="100.2407">
<time>2015-08-27T14:40:38Z</time></trkpt>
<trkpt lat="26.71915" lon="100.24061">
<time>2015-08-27T14:40:39Z</time></trkpt>
<trkpt lat="26.71884" lon="100.24033">
<time>2015-08-27T14:40:40Z</time></trkpt>
<trkpt lat="26.71873" lon="100.24026">
<time>2015-08-27T14:40:41Z</time></trkpt>
<trkpt lat="26.71865" lon="100.2402">
<time>2015-08-27T14:40:42Z</time></trkpt>
<trkpt lat="26.71822" lon="100.23985">
<time>2015-08-27T14:40:43Z</time></trkpt>
<trkpt lat="26.71812" lon="100.23981">
<time>2015-08-27T14:40:44Z</time></trkpt>
<trkpt lat="26.718" lon="100.23977">
<time>2015-08-27T14:40:45Z</time></trkpt>
<trkpt lat="26.71791" lon="100.23972">
<time>2015-08-27T14:40:46Z</time></trkpt>
<trkpt lat="26.7178" lon="100.23965">
<time>2015-08-27T14:40:47Z</time></trkpt>
<trkpt lat="26.71772" lon="100.23954">
<time>2015-08-27T14:40:48Z</time></trkpt>
<trkpt lat="26.71766" lon="100.23941">
<time>2015-08-27T14:40:49Z</time></trkpt>
<trkpt lat="26.717569" lon="100.23912">
<time>2015-08-27T14:40:50Z</time></trkpt>
<trkpt lat="26.717479" lon="100.23902">
<time>2015-08-27T14:40:51Z</time></trkpt>
<trkpt lat="26.717069" lon="100.23879">
<time>2015-08-27T14:40:52Z</time></trkpt>
<trkpt lat="26.716919" lon="100.23873">
<time>2015-08-27T14:40:53Z</time></trkpt>
<trkpt lat="26.716659" lon="100.23862">
<time>2015-08-27T14:40:54Z</time></trkpt>
<trkpt lat="26.716439" lon="100.2385">
<time>2015-08-27T14:40:55Z</time></trkpt>
<trkpt lat="26.716229" lon="100.2384">
<time>2015-08-27T14:40:56Z</time></trkpt>
<trkpt lat="26.716109" lon="100.23836">
<time>2015-08-27T14:40:57Z</time></trkpt>
<trkpt lat="26.715959" lon="100.23828">
<time>2015-08-27T14:40:58Z</time></trkpt>
<trkpt lat="26.715809" lon="100.23812">
<time>2015-08-27T14:40:59Z</time></trkpt>
<trkpt lat="26.715749" lon="100.238019">
<time>2015-08-27T14:41:00Z</time></trkpt>
<trkpt lat="26.715659" lon="100.237939">
<time>2015-08-27T14:41:01Z</time></trkpt>
<trkpt lat="26.715429" lon="100.237819">
<time>2015-08-27T14:41:02Z</time></trkpt>
<trkpt lat="26.715329" lon="100.237759">
<time>2015-08-27T14:41:03Z</time></trkpt>
<trkpt lat="26.715229" lon="100.237669">
<time>2015-08-27T14:41:04Z</time></trkpt>
<trkpt lat="26.714999" lon="100.237359">
<time>2015-08-27T14:41:05Z</time></trkpt>
<trkpt lat="26.714809" lon="100.237149">
<time>2015-08-27T14:41:06Z</time></trkpt>
<trkpt lat="26.714709" lon="100.237069">
<time>2015-08-27T14:41:07Z</time></trkpt>
<trkpt lat="26.714589" lon="100.237019">
<time>2015-08-27T14:41:08Z</time></trkpt>
<trkpt lat="26.714459" lon="100.237019">
<time>2015-08-27T14:41:09Z</time></trkpt>
<trkpt lat="26.714129" lon="100.236939">
<time>2015-08-27T14:41:10Z</time></trkpt>
<trkpt lat="26.714019" lon="100.236939">
<time>2015-08-27T14:41:11Z</time></trkpt>
<trkpt lat="26.713629" lon="100.236809">
<time>2015-08-27T14:41:12Z</time></trkpt>
<trkpt lat="26.713209" lon="100.236669">
<time>2015-08-27T14:41:13Z</time></trkpt>
<trkpt lat="26.712889" lon="100.236579">
<time>2015-08-27T14:41:14Z</time></trkpt>
<trkpt lat="26.712659" lon="100.236479">
<time>2015-08-27T14:41:15Z</time></trkpt>
<trkpt lat="26.711488" lon="100.236179">
<time>2015-08-27T14:41:16Z</time></trkpt>
<trkpt lat="26.711378" lon="100.236149">
<time>2015-08-27T14:41:17Z</time></trkpt>
<trkpt lat="26.709618" lon="100.236159">
<time>2015-08-27T14:41:18Z</time></trkpt>
<trkpt lat="26.709488" lon="100.236109">
<time>2015-08-27T14:41:19Z</time></trkpt>
<trkpt lat="26.709378" lon="100.236039">
<time>2015-08-27T14:41:20Z</time></trkpt>
<trkpt lat="26.709288" lon="100.235999">
<time>2015-08-27T14:41:21Z</time></trkpt>
<trkpt lat="26.709138" lon="100.235909">
<time>2015-08-27T14:41:22Z</time></trkpt>
<trkpt lat="26.708928" lon="100.235789">
<time>2015-08-27T14:41:23Z</time></trkpt>
<trkpt lat="26.708588" lon="100.235689">
<time>2015-08-27T14:41:24Z</time></trkpt>
<trkpt lat="26.708458" lon="100.235669">
<time>2015-08-27T14:41:25Z</time></trkpt>
<trkpt lat="26.708168" lon="100.235679">
<time>2015-08-27T14:41:26Z</time></trkpt>
<trkpt lat="26.708028" lon="100.235709">
<time>2015-08-27T14:41:27Z</time></trkpt>
<trkpt lat="26.707888" lon="100.235769">
<time>2015-08-27T14:41:28Z</time></trkpt>
<trkpt lat="26.707638" lon="100.235969">
<time>2015-08-27T14:41:29Z</time></trkpt>
<trkpt lat="26.707368" lon="100.236149">
<time>2015-08-27T14:41:30Z</time></trkpt>
<trkpt lat="26.707229" lon="100.236209">
<time>2015-08-27T14:41:31Z</time></trkpt>
<trkpt lat="26.707089" lon="100.236229">
<time>2015-08-27T14:41:32Z</time></trkpt>
<trkpt lat="26.706799" lon="100.236229">
<time>2015-08-27T14:41:33Z</time></trkpt>
<trkpt lat="26.706389" lon="100.236289">
<time>2015-08-27T14:41:34Z</time></trkpt>
<trkpt lat="26.706129" lon="100.236229">
<time>2015-08-27T14:41:35Z</time></trkpt>
<trkpt lat="26.705899" lon="100.236119">
<time>2015-08-27T14:41:36Z</time></trkpt>
<trkpt lat="26.705758" lon="100.236059">
<time>2015-08-27T14:41:37Z</time></trkpt>
<trkpt lat="26.705578" lon="100.236089">
<time>2015-08-27T14:41:38Z</time></trkpt>
<trkpt lat="26.705309" lon="100.236189">
<time>2015-08-27T14:41:39Z</time></trkpt>
<trkpt lat="26.705099" lon="100.236199">
<time>2015-08-27T14:41:40Z</time></trkpt>
<trkpt lat="26.704969" lon="100.236239">
<time>2015-08-27T14:41:41Z</time></trkpt>
<trkpt lat="26.704709" lon="100.236369">
<time>2015-08-27T14:41:42Z</time></trkpt>
<trkpt lat="26.704519" lon="100.236419">
<time>2015-08-27T14:41:43Z</time></trkpt>
<trkpt lat="26.704229" lon="100.236439">
<time>2015-08-27T14:41:44Z</time></trkpt>
<trkpt lat="26.704159" lon="100.236489">
<time>2015-08-27T14:41:45Z</time></trkpt>
<trkpt lat="26.704099" lon="100.236569">
<time>2015-08-27T14:41:46Z</time></trkpt>
<trkpt lat="26.703999" lon="100.236749">
<time>2015-08-27T14:41:47Z</time></trkpt>
<trkpt lat="26.703949" lon="100.236799">
<time>2015-08-27T14:41:48Z</time></trkpt>
<trkpt lat="26.703869" lon="100.236799">
<time>2015-08-27T14:41:49Z</time></trkpt>
<trkpt lat="26.703819" lon="100.236779">
<time>2015-08-27T14:41:50Z</time></trkpt>
<trkpt lat="26.703789" lon="100.236719">
<time>2015-08-27T14:41:51Z</time></trkpt>
<trkpt lat="26.703789" lon="100.236449">
<time>2015-08-27T14:41:52Z</time></trkpt>
<trkpt lat="26.703798" lon="100.235859">
<time>2015-08-27T14:41:53Z</time></trkpt>
<trkpt lat="26.703778" lon="100.235799">
<time>2015-08-27T14:41:54Z</time></trkpt>
<trkpt lat="26.703698" lon="100.235779">
<time>2015-08-27T14:41:55Z</time></trkpt>
<trkpt lat="26.703658" lon="100.235819">
<time>2015-08-27T14:41:56Z</time></trkpt>
<trkpt lat="26.703598" lon="100.235949">
<time>2015-08-27T14:41:57Z</time></trkpt>
<trkpt lat="26.703579" lon="100.236059">
<time>2015-08-27T14:41:58Z</time></trkpt>
<trkpt lat="26.703329" lon="100.236539">
<time>2015-08-27T14:41:59Z</time></trkpt>
<trkpt lat="26.703249" lon="100.236709">
<time>2015-08-27T14:42:00Z</time></trkpt>
<trkpt lat="26.703159" lon="100.236829">
<time>2015-08-27T14:42:01Z</time></trkpt>
<trkpt lat="26.702949" lon="100.237169">
<time>2015-08-27T14:42:02Z</time></trkpt>
<trkpt lat="26.702869" lon="100.237279">
<time>2015-08-27T14:42:03Z</time></trkpt>
<trkpt lat="26.702819" lon="100.237319">
<time>2015-08-27T14:42:04Z</time></trkpt>
<trkpt lat="26.702769" lon="100.237339">
<time>2015-08-27T14:42:05Z</time></trkpt>
<trkpt lat="26.702709" lon="100.237309">
<time>2015-08-27T14:42:06Z</time></trkpt>
<trkpt lat="26.702659" lon="100.237159">
<time>2015-08-27T14:42:07Z</time></trkpt>
<trkpt lat="26.702649" lon="100.237099">
<time>2015-08-27T14:42:08Z</time></trkpt>
<trkpt lat="26.702619" lon="100.236959">
<time>2015-08-27T14:42:09Z</time></trkpt>
<trkpt lat="26.702529" lon="100.236689">
<time>2015-08-27T14:42:10Z</time></trkpt>
<trkpt lat="26.702429" lon="100.236389">
<time>2015-08-27T14:42:11Z</time></trkpt>
<trkpt lat="26.702259" lon="100.236099">
<time>2015-08-27T14:42:12Z</time></trkpt>
<trkpt lat="26.702189" lon="100.236019">
<time>2015-08-27T14:42:13Z</time></trkpt>
<trkpt lat="26.702108" lon="100.235959">
<time>2015-08-27T14:42:14Z</time></trkpt>
<trkpt lat="26.702038" lon="100.235909">
<time>2015-08-27T14:42:15Z</time></trkpt>
<trkpt lat="26.701938" lon="100.235859">
<time>2015-08-27T14:42:16Z</time></trkpt>
<trkpt lat="26.701848" lon="100.235829">
<time>2015-08-27T14:42:17Z</time></trkpt>
<trkpt lat="26.701448" lon="100.235609">
<time>2015-08-27T14:42:18Z</time></trkpt>
<trkpt lat="26.701218" lon="100.235419">
<time>2015-08-27T14:42:19Z</time></trkpt>
<trkpt lat="26.701088" lon="100.235349">
<time>2015-08-27T14:42:20Z</time></trkpt>
<trkpt lat="26.700868" lon="100.235299">
<time>2015-08-27T14:42:21Z</time></trkpt>
<trkpt lat="26.700308" lon="100.235198">
<time>2015-08-27T14:42:22Z</time></trkpt>
<trkpt lat="26.700078" lon="100.235108">
<time>2015-08-27T14:42:23Z</time></trkpt>
<trkpt lat="26.699858" lon="100.234998">
<time>2015-08-27T14:42:24Z</time></trkpt>
<trkpt lat="26.699558" lon="100.234808">
<time>2015-08-27T14:42:25Z</time></trkpt>
<trkpt lat="26.699298" lon="100.234628">
<time>2015-08-27T14:42:26Z</time></trkpt>
<trkpt lat="26.698898" lon="100.234388">
<time>2015-08-27T14:42:27Z</time></trkpt>
<trkpt lat="26.698628" lon="100.234178">
<time>2015-08-27T14:42:28Z</time></trkpt>
<trkpt lat="26.698388" lon="100.233978">
<time>2015-08-27T14:42:29Z</time></trkpt>
<trkpt lat="26.698127" lon="100.233798">
<time>2015-08-27T14:42:30Z</time></trkpt>
<trkpt lat="26.698047" lon="100.233748">
<time>2015-08-27T14:42:31Z</time></trkpt>
<trkpt lat="26.697967" lon="100.233698">
<time>2015-08-27T14:42:32Z</time></trkpt>
<trkpt lat="26.697707" lon="100.233548">
<time>2015-08-27T14:42:33Z</time></trkpt>
<trkpt lat="26.697457" lon="100.233418">
<time>2015-08-27T14:42:34Z</time></trkpt>
<trkpt lat="26.697157" lon="100.233207">
<time>2015-08-27T14:42:35Z</time></trkpt>
<trkpt lat="26.696867" lon="100.233047">
<time>2015-08-27T14:42:36Z</time></trkpt>
<trkpt lat="26.696627" lon="100.232897">
<time>2015-08-27T14:42:37Z</time></trkpt>
<trkpt lat="26.696427" lon="100.232757">
<time>2015-08-27T14:42:38Z</time></trkpt>
<trkpt lat="26.696357" lon="100.232687">
<time>2015-08-27T14:42:39Z</time></trkpt>
<trkpt lat="26.696017" lon="100.232407">
<time>2015-08-27T14:42:40Z</time></trkpt>
<trkpt lat="26.695606" lon="100.232017">
<time>2015-08-27T14:42:41Z</time></trkpt>
<trkpt lat="26.695576" lon="100.231997">
<time>2015-08-27T14:42:42Z</time></trkpt>
<trkpt lat="26.695176" lon="100.231536">
<time>2015-08-27T14:42:43Z</time></trkpt>
<trkpt lat="26.694896" lon="100.231246">
<time>2015-08-27T14:42:44Z</time></trkpt>
<trkpt lat="26.694746" lon="100.231086">
<time>2015-08-27T14:42:45Z</time></trkpt>
<trkpt lat="26.694366" lon="100.230776">
<time>2015-08-27T14:42:46Z</time></trkpt>
<trkpt lat="26.694186" lon="100.230656">
<time>2015-08-27T14:42:47Z</time></trkpt>
<trkpt lat="26.694015" lon="100.230546">
<time>2015-08-27T14:42:48Z</time></trkpt>
<trkpt lat="26.693855" lon="100.230446">
<time>2015-08-27T14:42:49Z</time></trkpt>
<trkpt lat="26.693385" lon="100.230115">
<time>2015-08-27T14:42:50Z</time></trkpt>
<trkpt lat="26.693115" lon="100.229995">
<time>2015-08-27T14:42:51Z</time></trkpt>
<trkpt lat="26.692725" lon="100.229765">
<time>2015-08-27T14:42:52Z</time></trkpt>
<trkpt lat="26.692605" lon="100.229685">
<time>2015-08-27T14:42:53Z</time></trkpt>
<trkpt lat="26.692315" lon="100.229455">
<time>2015-08-27T14:42:54Z</time></trkpt>
<trkpt lat="26.691975" lon="100.229305">
<time>2015-08-27T14:42:55Z</time></trkpt>
<trkpt lat="26.691805" lon="100.229215">
<time>2015-08-27T14:42:56Z</time></trkpt>
<trkpt lat="26.691634" lon="100.229135">
<time>2015-08-27T14:42:57Z</time></trkpt>
<trkpt lat="26.691444" lon="100.229055">
<time>2015-08-27T14:42:58Z</time></trkpt>
<trkpt lat="26.690934" lon="100.228914">
<time>2015-08-27T14:42:59Z</time></trkpt>
<trkpt lat="26.690514" lon="100.228794">
<time>2015-08-27T14:43:00Z</time></trkpt>
<trkpt lat="26.690324" lon="100.228704">
<time>2015-08-27T14:43:01Z</time></trkpt>
<trkpt lat="26.690154" lon="100.228664">
<time>2015-08-27T14:43:02Z</time></trkpt>
<trkpt lat="26.689774" lon="100.228534">
<time>2015-08-27T14:43:03Z</time></trkpt>
<trkpt lat="26.689464" lon="100.228434">
<time>2015-08-27T14:43:04Z</time></trkpt>
<trkpt lat="26.688994" lon="100.228244">
<time>2015-08-27T14:43:05Z</time></trkpt>
<trkpt lat="26.688844" lon="100.228204">
<time>2015-08-27T14:43:06Z</time></trkpt>
<trkpt lat="26.688694" lon="100.228184">
<time>2015-08-27T14:43:07Z</time></trkpt>
<trkpt lat="26.688454" lon="100.228114">
<time>2015-08-27T14:43:08Z</time></trkpt>
<trkpt lat="26.688014" lon="100.227944">
<time>2015-08-27T14:43:09Z</time></trkpt>
<trkpt lat="26.687904" lon="100.227884">
<time>2015-08-27T14:43:10Z</time></trkpt>
<trkpt lat="26.687703" lon="100.227734">
<time>2015-08-27T14:43:11Z</time></trkpt>
<trkpt lat="26.687433" lon="100.227583">
<time>2015-08-27T14:43:12Z</time></trkpt>
<trkpt lat="26.687103" lon="100.227303">
<time>2015-08-27T14:43:13Z</time></trkpt>
<trkpt lat="26.686603" lon="100.226983">
<time>2015-08-27T14:43:14Z</time></trkpt>
<trkpt lat="26.686253" lon="100.226683">
<time>2015-08-27T14:43:15Z</time></trkpt>
<trkpt lat="26.685952" lon="100.226493">
<time>2015-08-27T14:43:16Z</time></trkpt>
<trkpt lat="26.685632" lon="100.226232">
<time>2015-08-27T14:43:17Z</time></trkpt>
<trkpt lat="26.685532" lon="100.226142">
<time>2015-08-27T14:43:18Z</time></trkpt>
<trkpt lat="26.685482" lon="100.226092">
<time>2015-08-27T14:43:19Z</time></trkpt>
<trkpt lat="26.685432" lon="100.226042">
<time>2015-08-27T14:43:20Z</time></trkpt>
<trkpt lat="26.685102" lon="100.225742">
<time>2015-08-27T14:43:21Z</time></trkpt>
<trkpt lat="26.684802" lon="100.225522">
<time>2015-08-27T14:43:22Z</time></trkpt>
<trkpt lat="26.684672" lon="100.225382">
<time>2015-08-27T14:43:23Z</time></trkpt>
<trkpt lat="26.684291" lon="100.225051">
<time>2015-08-27T14:43:24Z</time></trkpt>
<trkpt lat="26.684021" lon="100.224811">
<time>2015-08-27T14:43:25Z</time></trkpt>
<trkpt lat="26.683821" lon="100.224671">
<time>2015-08-27T14:43:26Z</time></trkpt>
<trkpt lat="26.683651" lon="100.224521">
<time>2015-08-27T14:43:27Z</time></trkpt>
<trkpt lat="26.683351" lon="100.224321">
<time>2015-08-27T14:43:28Z</time></trkpt>
<trkpt lat="26.68308" lon="100.22412">
<time>2015-08-27T14:43:29Z</time></trkpt>
<trkpt lat="26.68268" lon="100.22388">
<time>2015-08-27T14:43:30Z</time></trkpt>
<trkpt lat="26.68237" lon="100.22369">
<time>2015-08-27T14:43:31Z</time></trkpt>
<trkpt lat="26.68212" lon="100.22352">
<time>2015-08-27T14:43:32Z</time></trkpt>
<trkpt lat="26.68183" lon="100.22329">
<time>2015-08-27T14:43:33Z</time></trkpt>
<trkpt lat="26.681599" lon="100.223139">
<time>2015-08-27T14:43:34Z</time></trkpt>
<trkpt lat="26.681449" lon="100.223049">
<time>2015-08-27T14:43:35Z</time></trkpt>
<trkpt lat="26.681369" lon="100.222989">
<time>2015-08-27T14:43:36Z</time></trkpt>
<trkpt lat="26.681109" lon="100.222819">
<time>2015-08-27T14:43:37Z</time></trkpt>
<trkpt lat="26.680939" lon="100.222689">
<time>2015-08-27T14:43:38Z</time></trkpt>
<trkpt lat="26.680799" lon="100.222609">
<time>2015-08-27T14:43:39Z</time></trkpt>
<trkpt lat="26.680729" lon="100.222549">
<time>2015-08-27T14:43:40Z</time></trkpt>
<trkpt lat="26.680569" lon="100.222449">
<time>2015-08-27T14:43:41Z</time></trkpt>
<trkpt lat="26.679668" lon="100.221898">
<time>2015-08-27T14:43:42Z</time></trkpt>
<trkpt lat="26.679448" lon="100.221758">
<time>2015-08-27T14:43:43Z</time></trkpt>
<trkpt lat="26.679298" lon="100.221668">
<time>2015-08-27T14:43:44Z</time></trkpt>
<trkpt lat="26.679138" lon="100.221618">
<time>2015-08-27T14:43:45Z</time></trkpt>
<trkpt lat="26.678938" lon="100.221498">
<time>2015-08-27T14:43:46Z</time></trkpt>
<trkpt lat="26.678377" lon="100.221057">
<time>2015-08-27T14:43:47Z</time></trkpt>
<trkpt lat="26.678367" lon="100.221057">
<time>2015-08-27T14:43:48Z</time></trkpt>
<trkpt lat="26.678157" lon="100.220897">
<time>2015-08-27T14:43:49Z</time></trkpt>
<trkpt lat="26.677797" lon="100.220687">
<time>2015-08-27T14:43:50Z</time></trkpt>
<trkpt lat="26.677597" lon="100.220547">
<time>2015-08-27T14:43:51Z</time></trkpt>
<trkpt lat="26.677317" lon="100.220357">
<time>2015-08-27T14:43:52Z</time></trkpt>
<trkpt lat="26.677167" lon="100.220246">
<time>2015-08-27T14:43:53Z</time></trkpt>
<trkpt lat="26.677087" lon="100.220166">
<time>2015-08-27T14:43:54Z</time></trkpt>
<trkpt lat="26.676986" lon="100.220096">
<time>2015-08-27T14:43:55Z</time></trkpt>
<trkpt lat="26.676026" lon="100.219576">
<time>2015-08-27T14:43:56Z</time></trkpt>
<trkpt lat="26.675686" lon="100.219355">
<time>2015-08-27T14:43:57Z</time></trkpt>
<trkpt lat="26.675245" lon="100.219085">
<time>2015-08-27T14:43:58Z</time></trkpt>
<trkpt lat="26.674485" lon="100.218615">
<time>2015-08-27T14:43:59Z</time></trkpt>
<trkpt lat="26.674165" lon="100.218484">
<time>2015-08-27T14:44:00Z</time></trkpt>
<trkpt lat="26.673815" lon="100.218354">
<time>2015-08-27T14:44:01Z</time></trkpt>
<trkpt lat="26.672704" lon="100.217984">
<time>2015-08-27T14:44:02Z</time></trkpt>
<trkpt lat="26.671754" lon="100.217563">
<time>2015-08-27T14:44:03Z</time></trkpt>
<trkpt lat="26.671253" lon="100.217333">
<time>2015-08-27T14:44:04Z</time></trkpt>
<trkpt lat="26.670443" lon="100.217023">
<time>2015-08-27T14:44:05Z</time></trkpt>
<trkpt lat="26.669793" lon="100.216742">
<time>2015-08-27T14:44:06Z</time></trkpt>
<trkpt lat="26.669143" lon="100.216662">
<time>2015-08-27T14:44:07Z</time></trkpt>
<trkpt lat="26.668483" lon="100.216732">
<time>2015-08-27T14:44:08Z</time></trkpt>
<trkpt lat="26.667953" lon="100.216743">
<time>2015-08-27T14:44:09Z</time></trkpt>
<trkpt lat="26.667623" lon="100.216692">
<time>2015-08-27T14:44:10Z</time></trkpt>
<trkpt lat="26.667483" lon="100.216642">
<time>2015-08-27T14:44:11Z</time></trkpt>
<trkpt lat="26.667392" lon="100.216602">
<time>2015-08-27T14:44:12Z</time></trkpt>
<trkpt lat="26.667282" lon="100.216512">
<time>2015-08-27T14:44:13Z</time></trkpt>
<trkpt lat="26.667212" lon="100.216442">
<time>2015-08-27T14:44:14Z</time></trkpt>
<trkpt lat="26.667112" lon="100.216342">
<time>2015-08-27T14:44:15Z</time></trkpt>
<trkpt lat="26.666932" lon="100.216232">
<time>2015-08-27T14:44:16Z</time></trkpt>
<trkpt lat="26.666872" lon="100.216202">
<time>2015-08-27T14:44:17Z</time></trkpt>
<trkpt lat="26.666682" lon="100.216082">
<time>2015-08-27T14:44:18Z</time></trkpt>
<trkpt lat="26.666011" lon="100.215671">
<time>2015-08-27T14:44:19Z</time></trkpt>
<trkpt lat="26.665821" lon="100.215571">
<time>2015-08-27T14:44:20Z</time></trkpt>
<trkpt lat="26.665521" lon="100.215381">
<time>2015-08-27T14:44:21Z</time></trkpt>
<trkpt lat="26.665431" lon="100.215301">
<time>2015-08-27T14:44:22Z</time></trkpt>
<trkpt lat="26.665281" lon="100.21509">
<time>2015-08-27T14:44:23Z</time></trkpt>
<trkpt lat="26.6652" lon="100.21485">
<time>2015-08-27T14:44:24Z</time></trkpt>
<trkpt lat="26.66514" lon="100.21474">
<time>2015-08-27T14:44:25Z</time></trkpt>
<trkpt lat="26.66493" lon="100.21457">
<time>2015-08-27T14:44:26Z</time></trkpt>
<trkpt lat="26.66482" lon="100.21451">
<time>2015-08-27T14:44:27Z</time></trkpt>
<trkpt lat="26.66443" lon="100.21436">
<time>2015-08-27T14:44:28Z</time></trkpt>
<trkpt lat="26.66419" lon="100.214289">
<time>2015-08-27T14:44:29Z</time></trkpt>
<trkpt lat="26.6638" lon="100.214219">
<time>2015-08-27T14:44:30Z</time></trkpt>
<trkpt lat="26.66355" lon="100.214169">
<time>2015-08-27T14:44:31Z</time></trkpt>
<trkpt lat="26.663139" lon="100.213999">
<time>2015-08-27T14:44:32Z</time></trkpt>
<trkpt lat="26.662899" lon="100.213889">
<time>2015-08-27T14:44:33Z</time></trkpt>
<trkpt lat="26.662769" lon="100.213839">
<time>2015-08-27T14:44:34Z</time></trkpt>
<trkpt lat="26.662469" lon="100.213759">
<time>2015-08-27T14:44:35Z</time></trkpt>
<trkpt lat="26.662189" lon="100.213669">
<time>2015-08-27T14:44:36Z</time></trkpt>
<trkpt lat="26.661909" lon="100.213599">
<time>2015-08-27T14:44:37Z</time></trkpt>
<trkpt lat="26.661489" lon="100.213458">
<time>2015-08-27T14:44:38Z</time></trkpt>
<trkpt lat="26.661188" lon="100.213368">
<time>2015-08-27T14:44:39Z</time></trkpt>
<trkpt lat="26.660728" lon="100.213248">
<time>2015-08-27T14:44:40Z</time></trkpt>
<trkpt lat="26.660298" lon="100.213128">
<time>2015-08-27T14:44:41Z</time></trkpt>
<trkpt lat="26.660168" lon="100.213078">
<time>2015-08-27T14:44:42Z</time></trkpt>
<trkpt lat="26.660078" lon="100.212988">
<time>2015-08-27T14:44:43Z</time></trkpt>
<trkpt lat="26.659857" lon="100.212637">
<time>2015-08-27T14:44:44Z</time></trkpt>
<trkpt lat="26.659797" lon="100.212527">
<time>2015-08-27T14:44:45Z</time></trkpt>
<trkpt lat="26.659717" lon="100.212457">
<time>2015-08-27T14:44:46Z</time></trkpt>
<trkpt lat="26.659637" lon="100.212397">
<time>2015-08-27T14:44:47Z</time></trkpt>
<trkpt lat="26.659377" lon="100.212337">
<time>2015-08-27T14:44:48Z</time></trkpt>
<trkpt lat="26.659257" lon="100.212347">
<time>2015-08-27T14:44:49Z</time></trkpt>
<trkpt lat="26.659077" lon="100.212397">
<time>2015-08-27T14:44:50Z</time></trkpt>
<trkpt lat="26.659017" lon="100.212397">
<time>2015-08-27T14:44:51Z</time></trkpt>
<trkpt lat="26.659017" lon="100.212397">
<time>2015-08-27T14:44:52Z</time></trkpt>
<trkpt lat="26.659037" lon="100.212307">
<time>2015-08-27T14:44:53Z</time></trkpt>
<trkpt lat="26.659057" lon="100.212217">
<time>2015-08-27T14:44:54Z</time></trkpt>
<trkpt lat="26.659107" lon="100.211946">
<time>2015-08-27T14:44:55Z</time></trkpt>
<trkpt lat="26.659206" lon="100.211426">
<time>2015-08-27T14:44:56Z</time></trkpt>
<trkpt lat="26.659226" lon="100.211285">
<time>2015-08-27T14:44:57Z</time></trkpt>
<trkpt lat="26.659226" lon="100.211285">
<time>2015-08-27T14:44:58Z</time></trkpt>
<trkpt lat="26.653844" lon="100.209863">
<time>2015-08-27T14:44:59Z</time></trkpt>
<trkpt lat="26.653654" lon="100.209793">
<time>2015-08-27T14:45:00Z</time></trkpt>
<trkpt lat="26.653103" lon="100.209613">
<time>2015-08-27T14:45:01Z</time></trkpt>
<trkpt lat="26.652203" lon="100.209263">
<time>2015-08-27T14:45:02Z</time></trkpt>
<trkpt lat="26.651142" lon="100.208852">
<time>2015-08-27T14:45:03Z</time></trkpt>
<trkpt lat="26.651142" lon="100.208852">
<time>2015-08-27T14:45:04Z</time></trkpt>
<trkpt lat="26.651152" lon="100.208732">
<time>2015-08-27T14:45:05Z</time></trkpt>
<trkpt lat="26.651142" lon="100.208602">
<time>2015-08-27T14:45:06Z</time></trkpt>
<trkpt lat="26.651132" lon="100.208441">
<time>2015-08-27T14:45:07Z</time></trkpt>
<trkpt lat="26.651111" lon="100.208301">
<time>2015-08-27T14:45:08Z</time></trkpt>
<trkpt lat="26.651071" lon="100.208121">
<time>2015-08-27T14:45:09Z</time></trkpt>
<trkpt lat="26.651021" lon="100.207951">
<time>2015-08-27T14:45:10Z</time></trkpt>
<trkpt lat="26.650951" lon="100.20776">
<time>2015-08-27T14:45:11Z</time></trkpt>
<trkpt lat="26.65086" lon="100.20757">
<time>2015-08-27T14:45:12Z</time></trkpt>
<trkpt lat="26.65069" lon="100.20734">
<time>2015-08-27T14:45:13Z</time></trkpt>
<trkpt lat="26.65056" lon="100.2072">
<time>2015-08-27T14:45:14Z</time></trkpt>
<trkpt lat="26.65044" lon="100.207079">
<time>2015-08-27T14:45:15Z</time></trkpt>
<trkpt lat="26.65029" lon="100.206969">
<time>2015-08-27T14:45:16Z</time></trkpt>
<trkpt lat="26.650139" lon="100.206879">
<time>2015-08-27T14:45:17Z</time></trkpt>
<trkpt lat="26.649979" lon="100.206789">
<time>2015-08-27T14:45:18Z</time></trkpt>
<trkpt lat="26.649949" lon="100.206779">
<time>2015-08-27T14:45:19Z</time></trkpt>
<trkpt lat="26.649609" lon="100.206669">
<time>2015-08-27T14:45:20Z</time></trkpt>
<trkpt lat="26.649319" lon="100.206589">
<time>2015-08-27T14:45:21Z</time></trkpt>
<trkpt lat="26.649029" lon="100.206498">
<time>2015-08-27T14:45:22Z</time></trkpt>
<trkpt lat="26.648719" lon="100.206408">
<time>2015-08-27T14:45:23Z</time></trkpt>
<trkpt lat="26.648409" lon="100.206318">
<time>2015-08-27T14:45:24Z</time></trkpt>
<trkpt lat="26.648098" lon="100.206238">
<time>2015-08-27T14:45:25Z</time></trkpt>
<trkpt lat="26.647818" lon="100.206158">
<time>2015-08-27T14:45:26Z</time></trkpt>
<trkpt lat="26.645767" lon="100.205577">
<time>2015-08-27T14:45:27Z</time></trkpt>
<trkpt lat="26.644417" lon="100.205186">
<time>2015-08-27T14:45:28Z</time></trkpt>
<trkpt lat="26.642246" lon="100.204586">
<time>2015-08-27T14:45:29Z</time></trkpt>
<trkpt lat="26.639855" lon="100.203905">
<time>2015-08-27T14:45:30Z</time></trkpt>
<trkpt lat="26.639514" lon="100.203794">
<time>2015-08-27T14:45:31Z</time></trkpt>
<trkpt lat="26.638984" lon="100.203624">
<time>2015-08-27T14:45:32Z</time></trkpt>
<trkpt lat="26.638244" lon="100.203374">
<time>2015-08-27T14:45:33Z</time></trkpt>
<trkpt lat="26.637753" lon="100.203213">
<time>2015-08-27T14:45:34Z</time></trkpt>
<trkpt lat="26.637333" lon="100.203083">
<time>2015-08-27T14:45:35Z</time></trkpt>
<trkpt lat="26.636223" lon="100.202773">
<time>2015-08-27T14:45:36Z</time></trkpt>
<trkpt lat="26.636043" lon="100.202733">
<time>2015-08-27T14:45:37Z</time></trkpt>
<trkpt lat="26.635752" lon="100.202653">
<time>2015-08-27T14:45:38Z</time></trkpt>
<trkpt lat="26.635472" lon="100.202582">
<time>2015-08-27T14:45:39Z</time></trkpt>
<trkpt lat="26.635282" lon="100.202542">
<time>2015-08-27T14:45:40Z</time></trkpt>
<trkpt lat="26.635002" lon="100.202462">
<time>2015-08-27T14:45:41Z</time></trkpt>
<trkpt lat="26.634982" lon="100.202462">
<time>2015-08-27T14:45:42Z</time></trkpt>
<trkpt lat="26.634842" lon="100.202422">
<time>2015-08-27T14:45:43Z</time></trkpt>
<trkpt lat="26.634812" lon="100.202412">
<time>2015-08-27T14:45:44Z</time></trkpt>
<trkpt lat="26.634602" lon="100.202352">
<time>2015-08-27T14:45:45Z</time></trkpt>
<trkpt lat="26.633431" lon="100.201861">
<time>2015-08-27T14:45:46Z</time></trkpt>
<trkpt lat="26.633171" lon="100.201751">
<time>2015-08-27T14:45:47Z</time></trkpt>
<trkpt lat="26.632881" lon="100.201621">
<time>2015-08-27T14:45:48Z</time></trkpt>
<trkpt lat="26.63259" lon="100.201511">
<time>2015-08-27T14:45:49Z</time></trkpt>
<trkpt lat="26.63246" lon="100.201461">
<time>2015-08-27T14:45:50Z</time></trkpt>
<trkpt lat="26.63234" lon="100.201431">
<time>2015-08-27T14:45:51Z</time></trkpt>
<trkpt lat="26.63209" lon="100.20137">
<time>2015-08-27T14:45:52Z</time></trkpt>
<trkpt lat="26.63175" lon="100.2013">
<time>2015-08-27T14:45:53Z</time></trkpt>
<trkpt lat="26.629069" lon="100.200759">
<time>2015-08-27T14:45:54Z</time></trkpt>
<trkpt lat="26.628739" lon="100.200689">
<time>2015-08-27T14:45:55Z</time></trkpt>
<trkpt lat="26.628379" lon="100.200609">
<time>2015-08-27T14:45:56Z</time></trkpt>
<trkpt lat="26.628049" lon="100.200539">
<time>2015-08-27T14:45:57Z</time></trkpt>
<trkpt lat="26.627728" lon="100.200449">
<time>2015-08-27T14:45:58Z</time></trkpt>
<trkpt lat="26.627408" lon="100.200359">
<time>2015-08-27T14:45:59Z</time></trkpt>
<trkpt lat="26.627098" lon="100.200269">
<time>2015-08-27T14:46:00Z</time></trkpt>
<trkpt lat="26.626778" lon="100.200168">
<time>2015-08-27T14:46:01Z</time></trkpt>
<trkpt lat="26.626508" lon="100.200058">
<time>2015-08-27T14:46:02Z</time></trkpt>
<trkpt lat="26.626227" lon="100.199948">
<time>2015-08-27T14:46:03Z</time></trkpt>
<trkpt lat="26.625957" lon="100.199838">
<time>2015-08-27T14:46:04Z</time></trkpt>
<trkpt lat="26.625667" lon="100.199738">
<time>2015-08-27T14:46:05Z</time></trkpt>
<trkpt lat="26.625337" lon="100.199608">
<time>2015-08-27T14:46:06Z</time></trkpt>
<trkpt lat="26.624787" lon="100.199447">
<time>2015-08-27T14:46:07Z</time></trkpt>
<trkpt lat="26.624046" lon="100.199227">
<time>2015-08-27T14:46:08Z</time></trkpt>
<trkpt lat="26.623366" lon="100.199067">
<time>2015-08-27T14:46:09Z</time></trkpt>
<trkpt lat="26.623016" lon="100.198987">
<time>2015-08-27T14:46:10Z</time></trkpt>
<trkpt lat="26.622435" lon="100.198856">
<time>2015-08-27T14:46:11Z</time></trkpt>
<trkpt lat="26.621605" lon="100.198656">
<time>2015-08-27T14:46:12Z</time></trkpt>
<trkpt lat="26.621515" lon="100.198646">
<time>2015-08-27T14:46:13Z</time></trkpt>
<trkpt lat="26.621245" lon="100.198596">
<time>2015-08-27T14:46:14Z</time></trkpt>
<trkpt lat="26.620865" lon="100.198546">
<time>2015-08-27T14:46:15Z</time></trkpt>
<trkpt lat="26.620515" lon="100.198526">
<time>2015-08-27T14:46:16Z</time></trkpt>
<trkpt lat="26.620155" lon="100.198516">
<time>2015-08-27T14:46:17Z</time></trkpt>
<trkpt lat="26.619795" lon="100.198536">
<time>2015-08-27T14:46:18Z</time></trkpt>
<trkpt lat="26.619645" lon="100.198556">
<time>2015-08-27T14:46:19Z</time></trkpt>
<trkpt lat="26.619465" lon="100.198586">
<time>2015-08-27T14:46:20Z</time></trkpt>
<trkpt lat="26.619305" lon="100.198606">
<time>2015-08-27T14:46:21Z</time></trkpt>
<trkpt lat="26.619135" lon="100.198646">
<time>2015-08-27T14:46:22Z</time></trkpt>
<trkpt lat="26.618985" lon="100.198676">
<time>2015-08-27T14:46:23Z</time></trkpt>
<trkpt lat="26.618925" lon="100.198686">
<time>2015-08-27T14:46:24Z</time></trkpt>
<trkpt lat="26.618785" lon="100.198716">
<time>2015-08-27T14:46:25Z</time></trkpt>
<trkpt lat="26.618605" lon="100.198766">
<time>2015-08-27T14:46:26Z</time></trkpt>
<trkpt lat="26.618445" lon="100.198806">
<time>2015-08-27T14:46:27Z</time></trkpt>
<trkpt lat="26.618095" lon="100.198906">
<time>2015-08-27T14:46:28Z</time></trkpt>
<trkpt lat="26.617755" lon="100.199017">
<time>2015-08-27T14:46:29Z</time></trkpt>
<trkpt lat="26.617106" lon="100.199247">
<time>2015-08-27T14:46:30Z</time></trkpt>
<trkpt lat="26.616616" lon="100.199427">
<time>2015-08-27T14:46:31Z</time></trkpt>
<trkpt lat="26.616126" lon="100.199598">
<time>2015-08-27T14:46:32Z</time></trkpt>
<trkpt lat="26.615766" lon="100.199728">
<time>2015-08-27T14:46:33Z</time></trkpt>
<trkpt lat="26.615646" lon="100.199758">
<time>2015-08-27T14:46:34Z</time></trkpt>
<trkpt lat="26.615616" lon="100.199768">
<time>2015-08-27T14:46:35Z</time></trkpt>
<trkpt lat="26.615446" lon="100.199798">
<time>2015-08-27T14:46:36Z</time></trkpt>
<trkpt lat="26.615296" lon="100.199828">
<time>2015-08-27T14:46:37Z</time></trkpt>
<trkpt lat="26.615126" lon="100.199838">
<time>2015-08-27T14:46:38Z</time></trkpt>
<trkpt lat="26.614956" lon="100.199828">
<time>2015-08-27T14:46:39Z</time></trkpt>
<trkpt lat="26.614766" lon="100.199808">
<time>2015-08-27T14:46:40Z</time></trkpt>
<trkpt lat="26.614616" lon="100.199788">
<time>2015-08-27T14:46:41Z</time></trkpt>
<trkpt lat="26.614456" lon="100.199748">
<time>2015-08-27T14:46:42Z</time></trkpt>
<trkpt lat="26.614256" lon="100.199708">
<time>2015-08-27T14:46:43Z</time></trkpt>
<trkpt lat="26.614046" lon="100.199658">
<time>2015-08-27T14:46:44Z</time></trkpt>
<trkpt lat="26.613686" lon="100.199568">
<time>2015-08-27T14:46:45Z</time></trkpt>
<trkpt lat="26.613356" lon="100.199488">
<time>2015-08-27T14:46:46Z</time></trkpt>
<trkpt lat="26.613055" lon="100.199418">
<time>2015-08-27T14:46:47Z</time></trkpt>
<trkpt lat="26.612735" lon="100.199357">
<time>2015-08-27T14:46:48Z</time></trkpt>
<trkpt lat="26.612395" lon="100.199307">
<time>2015-08-27T14:46:49Z</time></trkpt>
<trkpt lat="26.612385" lon="100.199307">
<time>2015-08-27T14:46:50Z</time></trkpt>
<trkpt lat="26.612035" lon="100.199267">
<time>2015-08-27T14:46:51Z</time></trkpt>
<trkpt lat="26.611715" lon="100.199237">
<time>2015-08-27T14:46:52Z</time></trkpt>
<trkpt lat="26.611335" lon="100.199197">
<time>2015-08-27T14:46:53Z</time></trkpt>
<trkpt lat="26.610995" lon="100.199167">
<time>2015-08-27T14:46:54Z</time></trkpt>
<trkpt lat="26.610745" lon="100.199127">
<time>2015-08-27T14:46:55Z</time></trkpt>
<trkpt lat="26.610505" lon="100.199077">
<time>2015-08-27T14:46:56Z</time></trkpt>
<trkpt lat="26.610345" lon="100.199027">
<time>2015-08-27T14:46:57Z</time></trkpt>
<trkpt lat="26.610184" lon="100.198967">
<time>2015-08-27T14:46:58Z</time></trkpt>
<trkpt lat="26.610034" lon="100.198887">
<time>2015-08-27T14:46:59Z</time></trkpt>
<trkpt lat="26.609884" lon="100.198786">
<time>2015-08-27T14:47:00Z</time></trkpt>
<trkpt lat="26.609694" lon="100.198636">
<time>2015-08-27T14:47:01Z</time></trkpt>
<trkpt lat="26.608602" lon="100.197695">
<time>2015-08-27T14:47:02Z</time></trkpt>
<trkpt lat="26.608522" lon="100.197624">
<time>2015-08-27T14:47:03Z</time></trkpt>
<trkpt lat="26.608432" lon="100.197544">
<time>2015-08-27T14:47:04Z</time></trkpt>
<trkpt lat="26.608242" lon="100.197384">
<time>2015-08-27T14:47:05Z</time></trkpt>
<trkpt lat="26.608172" lon="100.197334">
<time>2015-08-27T14:47:06Z</time></trkpt>
<trkpt lat="26.607971" lon="100.197194">
<time>2015-08-27T14:47:07Z</time></trkpt>
<trkpt lat="26.607671" lon="100.197013">
<time>2015-08-27T14:47:08Z</time></trkpt>
<trkpt lat="26.60666" lon="100.196563">
<time>2015-08-27T14:47:09Z</time></trkpt>
<trkpt lat="26.60636" lon="100.196432">
<time>2015-08-27T14:47:10Z</time></trkpt>
<trkpt lat="26.60594" lon="100.196252">
<time>2015-08-27T14:47:11Z</time></trkpt>
<trkpt lat="26.605579" lon="100.196102">
<time>2015-08-27T14:47:12Z</time></trkpt>
<trkpt lat="26.604568" lon="100.195651">
<time>2015-08-27T14:47:13Z</time></trkpt>
<trkpt lat="26.603878" lon="100.19536">
<time>2015-08-27T14:47:14Z</time></trkpt>
<trkpt lat="26.602387" lon="100.194719">
<time>2015-08-27T14:47:15Z</time></trkpt>
<trkpt lat="26.601466" lon="100.194319">
<time>2015-08-27T14:47:16Z</time></trkpt>
<trkpt lat="26.600485" lon="100.193898">
<time>2015-08-27T14:47:17Z</time></trkpt>
<trkpt lat="26.600255" lon="100.193788">
<time>2015-08-27T14:47:18Z</time></trkpt>
<trkpt lat="26.598994" lon="100.193247">
<time>2015-08-27T14:47:19Z</time></trkpt>
<trkpt lat="26.598674" lon="100.193116">
<time>2015-08-27T14:47:20Z</time></trkpt>
<trkpt lat="26.598313" lon="100.192946">
<time>2015-08-27T14:47:21Z</time></trkpt>
<trkpt lat="26.598293" lon="100.192936">
<time>2015-08-27T14:47:22Z</time></trkpt>
<trkpt lat="26.597993" lon="100.192806">
<time>2015-08-27T14:47:23Z</time></trkpt>
<trkpt lat="26.597803" lon="100.192696">
<time>2015-08-27T14:47:24Z</time></trkpt>
<trkpt lat="26.597562" lon="100.192515">
<time>2015-08-27T14:47:25Z</time></trkpt>
<trkpt lat="26.597382" lon="100.192345">
<time>2015-08-27T14:47:26Z</time></trkpt>
<trkpt lat="26.597252" lon="100.192215">
<time>2015-08-27T14:47:27Z</time></trkpt>
<trkpt lat="26.597132" lon="100.192054">
<time>2015-08-27T14:47:28Z</time></trkpt>
<trkpt lat="26.597041" lon="100.191904">
<time>2015-08-27T14:47:29Z</time></trkpt>
<trkpt lat="26.596911" lon="100.191714">
<time>2015-08-27T14:47:30Z</time></trkpt>
<trkpt lat="26.596791" lon="100.191503">
<time>2015-08-27T14:47:31Z</time></trkpt>
<trkpt lat="26.59668" lon="100.191333">
<time>2015-08-27T14:47:32Z</time></trkpt>
<trkpt lat="26.59658" lon="100.191203">
<time>2015-08-27T14:47:33Z</time></trkpt>
<trkpt lat="26.59641" lon="100.191002">
<time>2015-08-27T14:47:34Z</time></trkpt>
<trkpt lat="26.596259" lon="100.190882">
<time>2015-08-27T14:47:35Z</time></trkpt>
<trkpt lat="26.596209" lon="100.190842">
<time>2015-08-27T14:47:36Z</time></trkpt>
<trkpt lat="26.595929" lon="100.190692">
<time>2015-08-27T14:47:37Z</time></trkpt>
<trkpt lat="26.595639" lon="100.190572">
<time>2015-08-27T14:47:38Z</time></trkpt>
<trkpt lat="26.595038" lon="100.190361">
<time>2015-08-27T14:47:39Z</time></trkpt>
<trkpt lat="26.594998" lon="100.190341">
<time>2015-08-27T14:47:40Z</time></trkpt>
<trkpt lat="26.593377" lon="100.18978">
<time>2015-08-27T14:47:41Z</time></trkpt>
<trkpt lat="26.592697" lon="100.18955">
<time>2015-08-27T14:47:42Z</time></trkpt>
<trkpt lat="26.591956" lon="100.189309">
<time>2015-08-27T14:47:43Z</time></trkpt>
<trkpt lat="26.591126" lon="100.189019">
<time>2015-08-27T14:47:44Z</time></trkpt>
<trkpt lat="26.590665" lon="100.188868">
<time>2015-08-27T14:47:45Z</time></trkpt>
<trkpt lat="26.590515" lon="100.188818">
<time>2015-08-27T14:47:46Z</time></trkpt>
<trkpt lat="26.589785" lon="100.188608">
<time>2015-08-27T14:47:47Z</time></trkpt>
<trkpt lat="26.589494" lon="100.188528">
<time>2015-08-27T14:47:48Z</time></trkpt>
<trkpt lat="26.588984" lon="100.188407">
<time>2015-08-27T14:47:49Z</time></trkpt>
<trkpt lat="26.588844" lon="100.188377">
<time>2015-08-27T14:47:50Z</time></trkpt>
<trkpt lat="26.588184" lon="100.188217">
<time>2015-08-27T14:47:51Z</time></trkpt>
<trkpt lat="26.587523" lon="100.188057">
<time>2015-08-27T14:47:52Z</time></trkpt>
<trkpt lat="26.586163" lon="100.187736">
<time>2015-08-27T14:47:53Z</time></trkpt>
<trkpt lat="26.585822" lon="100.187656">
<time>2015-08-27T14:47:54Z</time></trkpt>
<trkpt lat="26.585632" lon="100.187616">
<time>2015-08-27T14:47:55Z</time></trkpt>
<trkpt lat="26.585592" lon="100.187606">
<time>2015-08-27T14:47:56Z</time></trkpt>
<trkpt lat="26.585462" lon="100.187586">
<time>2015-08-27T14:47:57Z</time></trkpt>
<trkpt lat="26.585282" lon="100.187546">
<time>2015-08-27T14:47:58Z</time></trkpt>
<trkpt lat="26.585112" lon="100.187526">
<time>2015-08-27T14:47:59Z</time></trkpt>
<trkpt lat="26.584902" lon="100.187496">
<time>2015-08-27T14:48:00Z</time></trkpt>
<trkpt lat="26.584702" lon="100.187476">
<time>2015-08-27T14:48:01Z</time></trkpt>
<trkpt lat="26.584682" lon="100.187476">
<time>2015-08-27T14:48:02Z</time></trkpt>
<trkpt lat="26.584452" lon="100.187456">
<time>2015-08-27T14:48:03Z</time></trkpt>
<trkpt lat="26.584212" lon="100.187426">
<time>2015-08-27T14:48:04Z</time></trkpt>
<trkpt lat="26.583902" lon="100.187386">
<time>2015-08-27T14:48:05Z</time></trkpt>
<trkpt lat="26.583501" lon="100.187285">
<time>2015-08-27T14:48:06Z</time></trkpt>
<trkpt lat="26.583351" lon="100.187205">
<time>2015-08-27T14:48:07Z</time></trkpt>
<trkpt lat="26.583241" lon="100.187145">
<time>2015-08-27T14:48:08Z</time></trkpt>
<trkpt lat="26.583181" lon="100.187105">
<time>2015-08-27T14:48:09Z</time></trkpt>
<trkpt lat="26.583091" lon="100.187045">
<time>2015-08-27T14:48:10Z</time></trkpt>
<trkpt lat="26.583011" lon="100.186985">
<time>2015-08-27T14:48:11Z</time></trkpt>
<trkpt lat="26.582931" lon="100.186925">
<time>2015-08-27T14:48:12Z</time></trkpt>
<trkpt lat="26.58271" lon="100.186704">
<time>2015-08-27T14:48:13Z</time></trkpt>
<trkpt lat="26.581227" lon="100.185161">
<time>2015-08-27T14:48:14Z</time></trkpt>
<trkpt lat="26.580997" lon="100.184911">
<time>2015-08-27T14:48:15Z</time></trkpt>
<trkpt lat="26.580786" lon="100.18471">
<time>2015-08-27T14:48:16Z</time></trkpt>
<trkpt lat="26.580556" lon="100.18451">
<time>2015-08-27T14:48:17Z</time></trkpt>
<trkpt lat="26.580406" lon="100.18441">
<time>2015-08-27T14:48:18Z</time></trkpt>
<trkpt lat="26.580296" lon="100.18434">
<time>2015-08-27T14:48:19Z</time></trkpt>
<trkpt lat="26.579205" lon="100.183818">
<time>2015-08-27T14:48:20Z</time></trkpt>
<trkpt lat="26.578314" lon="100.183408">
<time>2015-08-27T14:48:21Z</time></trkpt>
<trkpt lat="26.578063" lon="100.183297">
<time>2015-08-27T14:48:22Z</time></trkpt>
<trkpt lat="26.577623" lon="100.183137">
<time>2015-08-27T14:48:23Z</time></trkpt>
<trkpt lat="26.576572" lon="100.182776">
<time>2015-08-27T14:48:24Z</time></trkpt>
<trkpt lat="26.57433" lon="100.181985">
<time>2015-08-27T14:48:25Z</time></trkpt>
<trkpt lat="26.57326" lon="100.181604">
<time>2015-08-27T14:48:26Z</time></trkpt>
<trkpt lat="26.57323" lon="100.181594">
<time>2015-08-27T14:48:27Z</time></trkpt>
<trkpt lat="26.572459" lon="100.181324">
<time>2015-08-27T14:48:28Z</time></trkpt>
<trkpt lat="26.569597" lon="100.180512">
<time>2015-08-27T14:48:29Z</time></trkpt>
<trkpt lat="26.567766" lon="100.180041">
<time>2015-08-27T14:48:30Z</time></trkpt>
<trkpt lat="26.567406" lon="100.179951">
<time>2015-08-27T14:48:31Z</time></trkpt>
<trkpt lat="26.567185" lon="100.179881">
<time>2015-08-27T14:48:32Z</time></trkpt>
<trkpt lat="26.567005" lon="100.179831">
<time>2015-08-27T14:48:33Z</time></trkpt>
<trkpt lat="26.566795" lon="100.17978">
<time>2015-08-27T14:48:34Z</time></trkpt>
<trkpt lat="26.566595" lon="100.17973">
<time>2015-08-27T14:48:35Z</time></trkpt>
<trkpt lat="26.566405" lon="100.17967">
<time>2015-08-27T14:48:36Z</time></trkpt>
<trkpt lat="26.566275" lon="100.17964">
<time>2015-08-27T14:48:37Z</time></trkpt>
<trkpt lat="26.566145" lon="100.17961">
<time>2015-08-27T14:48:38Z</time></trkpt>
<trkpt lat="26.566025" lon="100.17958">
<time>2015-08-27T14:48:39Z</time></trkpt>
<trkpt lat="26.565925" lon="100.17955">
<time>2015-08-27T14:48:40Z</time></trkpt>
<trkpt lat="26.565865" lon="100.17953">
<time>2015-08-27T14:48:41Z</time></trkpt>
<trkpt lat="26.565794" lon="100.17949">
<time>2015-08-27T14:48:42Z</time></trkpt>
<trkpt lat="26.565734" lon="100.17946">
<time>2015-08-27T14:48:43Z</time></trkpt>
<trkpt lat="26.565654" lon="100.1794">
<time>2015-08-27T14:48:44Z</time></trkpt>
<trkpt lat="26.565534" lon="100.1793">
<time>2015-08-27T14:48:45Z</time></trkpt>
<trkpt lat="26.565424" lon="100.179179">
<time>2015-08-27T14:48:46Z</time></trkpt>
<trkpt lat="26.565334" lon="100.179059">
<time>2015-08-27T14:48:47Z</time></trkpt>
<trkpt lat="26.565294" lon="100.179019">
<time>2015-08-27T14:48:48Z</time></trkpt>
<trkpt lat="26.565193" lon="100.178859">
<time>2015-08-27T14:48:49Z</time></trkpt>
<trkpt lat="26.565083" lon="100.178668">
<time>2015-08-27T14:48:50Z</time></trkpt>
<trkpt lat="26.564962" lon="100.178488">
<time>2015-08-27T14:48:51Z</time></trkpt>
<trkpt lat="26.564882" lon="100.178348">
<time>2015-08-27T14:48:52Z</time></trkpt>
<trkpt lat="26.564772" lon="100.178167">
<time>2015-08-27T14:48:53Z</time></trkpt>
<trkpt lat="26.564672" lon="100.178027">
<time>2015-08-27T14:48:54Z</time></trkpt>
<trkpt lat="26.564601" lon="100.177947">
<time>2015-08-27T14:48:55Z</time></trkpt>
<trkpt lat="26.564571" lon="100.177907">
<time>2015-08-27T14:48:56Z</time></trkpt>
<trkpt lat="26.564481" lon="100.177826">
<time>2015-08-27T14:48:57Z</time></trkpt>
<trkpt lat="26.564381" lon="100.177746">
<time>2015-08-27T14:48:58Z</time></trkpt>
<trkpt lat="26.564281" lon="100.177676">
<time>2015-08-27T14:48:59Z</time></trkpt>
<trkpt lat="26.564081" lon="100.177556">
<time>2015-08-27T14:49:00Z</time></trkpt>
<trkpt lat="26.56342" lon="100.177486">
<time>2015-08-27T14:49:01Z</time></trkpt>
<trkpt lat="26.56319" lon="100.177456">
<time>2015-08-27T14:49:02Z</time></trkpt>
<trkpt lat="26.56299" lon="100.177436">
<time>2015-08-27T14:49:03Z</time></trkpt>
<trkpt lat="26.56298" lon="100.177436">
<time>2015-08-27T14:49:04Z</time></trkpt>
<trkpt lat="26.56207" lon="100.177346">
<time>2015-08-27T14:49:05Z</time></trkpt>
<trkpt lat="26.56207" lon="100.177346">
<time>2015-08-27T14:49:06Z</time></trkpt>
<trkpt lat="26.56202" lon="100.177315">
<time>2015-08-27T14:49:07Z</time></trkpt>
<trkpt lat="26.56158" lon="100.177295">
<time>2015-08-27T14:49:08Z</time></trkpt>
<trkpt lat="26.560609" lon="100.177175">
<time>2015-08-27T14:49:09Z</time></trkpt>
<trkpt lat="26.559359" lon="100.177035">
<time>2015-08-27T14:49:10Z</time></trkpt>
<trkpt lat="26.559289" lon="100.177025">
<time>2015-08-27T14:49:11Z</time></trkpt>
<trkpt lat="26.558829" lon="100.176965">
<time>2015-08-27T14:49:12Z</time></trkpt>
<trkpt lat="26.557828" lon="100.176835">
<time>2015-08-27T14:49:13Z</time></trkpt>
<trkpt lat="26.557688" lon="100.176825">
<time>2015-08-27T14:49:14Z</time></trkpt>
<trkpt lat="26.556718" lon="100.176704">
<time>2015-08-27T14:49:15Z</time></trkpt>
<trkpt lat="26.556498" lon="100.176664">
<time>2015-08-27T14:49:16Z</time></trkpt>
<trkpt lat="26.556297" lon="100.176624">
<time>2015-08-27T14:49:17Z</time></trkpt>
<trkpt lat="26.555897" lon="100.176524">
<time>2015-08-27T14:49:18Z</time></trkpt>
<trkpt lat="26.555087" lon="100.176324">
<time>2015-08-27T14:49:19Z</time></trkpt>
<trkpt lat="26.554426" lon="100.176143">
<time>2015-08-27T14:49:20Z</time></trkpt>
<trkpt lat="26.554116" lon="100.176053">
<time>2015-08-27T14:49:21Z</time></trkpt>
<trkpt lat="26.554016" lon="100.176013">
<time>2015-08-27T14:49:22Z</time></trkpt>
<trkpt lat="26.553856" lon="100.175973">
<time>2015-08-27T14:49:23Z</time></trkpt>
<trkpt lat="26.553746" lon="100.175913">
<time>2015-08-27T14:49:24Z</time></trkpt>
<trkpt lat="26.553636" lon="100.175883">
<time>2015-08-27T14:49:25Z</time></trkpt>
<trkpt lat="26.552475" lon="100.175572">
<time>2015-08-27T14:49:26Z</time></trkpt>
<trkpt lat="26.548362" lon="100.17443">
<time>2015-08-27T14:49:27Z</time></trkpt>
<trkpt lat="26.547461" lon="100.174179">
<time>2015-08-27T14:49:28Z</time></trkpt>
<trkpt lat="26.547241" lon="100.174119">
<time>2015-08-27T14:49:29Z</time></trkpt>
<trkpt lat="26.546921" lon="100.174019">
<time>2015-08-27T14:49:30Z</time></trkpt>
<trkpt lat="26.546721" lon="100.173959">
<time>2015-08-27T14:49:31Z</time></trkpt>
<trkpt lat="26.546671" lon="100.173949">
<time>2015-08-27T14:49:32Z</time></trkpt>
<trkpt lat="26.54637" lon="100.173879">
<time>2015-08-27T14:49:33Z</time></trkpt>
<trkpt lat="26.5461" lon="100.173808">
<time>2015-08-27T14:49:34Z</time></trkpt>
<trkpt lat="26.54573" lon="100.173708">
<time>2015-08-27T14:49:35Z</time></trkpt>
<trkpt lat="26.54545" lon="100.173628">
<time>2015-08-27T14:49:36Z</time></trkpt>
<trkpt lat="26.54511" lon="100.173518">
<time>2015-08-27T14:49:37Z</time></trkpt>
<trkpt lat="26.544829" lon="100.173428">
<time>2015-08-27T14:49:38Z</time></trkpt>
<trkpt lat="26.544529" lon="100.173317">
<time>2015-08-27T14:49:39Z</time></trkpt>
<trkpt lat="26.544309" lon="100.173227">
<time>2015-08-27T14:49:40Z</time></trkpt>
<trkpt lat="26.544179" lon="100.173177">
<time>2015-08-27T14:49:41Z</time></trkpt>
<trkpt lat="26.543868" lon="100.173037">
<time>2015-08-27T14:49:42Z</time></trkpt>
<trkpt lat="26.543578" lon="100.172897">
<time>2015-08-27T14:49:43Z</time></trkpt>
<trkpt lat="26.543288" lon="100.172756">
<time>2015-08-27T14:49:44Z</time></trkpt>
<trkpt lat="26.542987" lon="100.172606">
<time>2015-08-27T14:49:45Z</time></trkpt>
<trkpt lat="26.542677" lon="100.172436">
<time>2015-08-27T14:49:46Z</time></trkpt>
<trkpt lat="26.542427" lon="100.172285">
<time>2015-08-27T14:49:47Z</time></trkpt>
<trkpt lat="26.542206" lon="100.172165">
<time>2015-08-27T14:49:48Z</time></trkpt>
<trkpt lat="26.541956" lon="100.172025">
<time>2015-08-27T14:49:49Z</time></trkpt>
<trkpt lat="26.541686" lon="100.171885">
<time>2015-08-27T14:49:50Z</time></trkpt>
<trkpt lat="26.541456" lon="100.171764">
<time>2015-08-27T14:49:51Z</time></trkpt>
<trkpt lat="26.541235" lon="100.171674">
<time>2015-08-27T14:49:52Z</time></trkpt>
<trkpt lat="26.541215" lon="100.171664">
<time>2015-08-27T14:49:53Z</time></trkpt>
<trkpt lat="26.540985" lon="100.171584">
<time>2015-08-27T14:49:54Z</time></trkpt>
<trkpt lat="26.540715" lon="100.171514">
<time>2015-08-27T14:49:55Z</time></trkpt>
<trkpt lat="26.540455" lon="100.171484">
<time>2015-08-27T14:49:56Z</time></trkpt>
<trkpt lat="26.540205" lon="100.171454">
<time>2015-08-27T14:49:57Z</time></trkpt>
<trkpt lat="26.539925" lon="100.171434">
<time>2015-08-27T14:49:58Z</time></trkpt>
<trkpt lat="26.539625" lon="100.171404">
<time>2015-08-27T14:49:59Z</time></trkpt>
<trkpt lat="26.539534" lon="100.171384">
<time>2015-08-27T14:50:00Z</time></trkpt>
<trkpt lat="26.539344" lon="100.171353">
<time>2015-08-27T14:50:01Z</time></trkpt>
<trkpt lat="26.538924" lon="100.171313">
<time>2015-08-27T14:50:02Z</time></trkpt>
<trkpt lat="26.538414" lon="100.171253">
<time>2015-08-27T14:50:03Z</time></trkpt>
<trkpt lat="26.538194" lon="100.171223">
<time>2015-08-27T14:50:04Z</time></trkpt>
<trkpt lat="26.536593" lon="100.171093">
<time>2015-08-27T14:50:05Z</time></trkpt>
<trkpt lat="26.535233" lon="100.170973">
<time>2015-08-27T14:50:06Z</time></trkpt>
<trkpt lat="26.533782" lon="100.170832">
<time>2015-08-27T14:50:07Z</time></trkpt>
<trkpt lat="26.532432" lon="100.170652">
<time>2015-08-27T14:50:08Z</time></trkpt>
<trkpt lat="26.532011" lon="100.170612">
<time>2015-08-27T14:50:09Z</time></trkpt>
<trkpt lat="26.531481" lon="100.170562">
<time>2015-08-27T14:50:10Z</time></trkpt>
<trkpt lat="26.530651" lon="100.170482">
<time>2015-08-27T14:50:11Z</time></trkpt>
<trkpt lat="26.52954" lon="100.170392">
<time>2015-08-27T14:50:12Z</time></trkpt>
<trkpt lat="26.52928" lon="100.170372">
<time>2015-08-27T14:50:13Z</time></trkpt>
<trkpt lat="26.52892" lon="100.170352">
<time>2015-08-27T14:50:14Z</time></trkpt>
<trkpt lat="26.52859" lon="100.170322">
<time>2015-08-27T14:50:15Z</time></trkpt>
<trkpt lat="26.52826" lon="100.170281">
<time>2015-08-27T14:50:16Z</time></trkpt>
<trkpt lat="26.52799" lon="100.170261">
<time>2015-08-27T14:50:17Z</time></trkpt>
<trkpt lat="26.52782" lon="100.170261">
<time>2015-08-27T14:50:18Z</time></trkpt>
<trkpt lat="26.52767" lon="100.170271">
<time>2015-08-27T14:50:19Z</time></trkpt>
<trkpt lat="26.52764" lon="100.170281">
<time>2015-08-27T14:50:20Z</time></trkpt>
<trkpt lat="26.52752" lon="100.170302">
<time>2015-08-27T14:50:21Z</time></trkpt>
<trkpt lat="26.52734" lon="100.170362">
<time>2015-08-27T14:50:22Z</time></trkpt>
<trkpt lat="26.52726" lon="100.170392">
<time>2015-08-27T14:50:23Z</time></trkpt>
<trkpt lat="26.5272" lon="100.170422">
<time>2015-08-27T14:50:24Z</time></trkpt>
<trkpt lat="26.52707" lon="100.170502">
<time>2015-08-27T14:50:25Z</time></trkpt>
<trkpt lat="26.52684" lon="100.170662">
<time>2015-08-27T14:50:26Z</time></trkpt>
<trkpt lat="26.526471" lon="100.170973">
<time>2015-08-27T14:50:27Z</time></trkpt>
<trkpt lat="26.526271" lon="100.171143">
<time>2015-08-27T14:50:28Z</time></trkpt>
<trkpt lat="26.525982" lon="100.171404">
<time>2015-08-27T14:50:29Z</time></trkpt>
<trkpt lat="26.525812" lon="100.171534">
<time>2015-08-27T14:50:30Z</time></trkpt>
<trkpt lat="26.525672" lon="100.171614">
<time>2015-08-27T14:50:31Z</time></trkpt>
<trkpt lat="26.525512" lon="100.171705">
<time>2015-08-27T14:50:32Z</time></trkpt>
<trkpt lat="26.525322" lon="100.171765">
<time>2015-08-27T14:50:33Z</time></trkpt>
<trkpt lat="26.525112" lon="100.171815">
<time>2015-08-27T14:50:34Z</time></trkpt>
<trkpt lat="26.524902" lon="100.171835">
<time>2015-08-27T14:50:35Z</time></trkpt>
<trkpt lat="26.524572" lon="100.171865">
<time>2015-08-27T14:50:36Z</time></trkpt>
<trkpt lat="26.522232" lon="100.171905">
<time>2015-08-27T14:50:37Z</time></trkpt>
<trkpt lat="26.522032" lon="100.171915">
<time>2015-08-27T14:50:38Z</time></trkpt>
<trkpt lat="26.521032" lon="100.171965">
<time>2015-08-27T14:50:39Z</time></trkpt>
<trkpt lat="26.520642" lon="100.171995">
<time>2015-08-27T14:50:40Z</time></trkpt>
<trkpt lat="26.520342" lon="100.172096">
<time>2015-08-27T14:50:41Z</time></trkpt>
<trkpt lat="26.520092" lon="100.172176">
<time>2015-08-27T14:50:42Z</time></trkpt>
<trkpt lat="26.520002" lon="100.172206">
<time>2015-08-27T14:50:43Z</time></trkpt>
<trkpt lat="26.519692" lon="100.172346">
<time>2015-08-27T14:50:44Z</time></trkpt>
<trkpt lat="26.519352" lon="100.172557">
<time>2015-08-27T14:50:45Z</time></trkpt>
<trkpt lat="26.519053" lon="100.172737">
<time>2015-08-27T14:50:46Z</time></trkpt>
<trkpt lat="26.518733" lon="100.172947">
<time>2015-08-27T14:50:47Z</time></trkpt>
<trkpt lat="26.518383" lon="100.173188">
<time>2015-08-27T14:50:48Z</time></trkpt>
<trkpt lat="26.518094" lon="100.173388">
<time>2015-08-27T14:50:49Z</time></trkpt>
<trkpt lat="26.517874" lon="100.173519">
<time>2015-08-27T14:50:50Z</time></trkpt>
<trkpt lat="26.517784" lon="100.173579">
<time>2015-08-27T14:50:51Z</time></trkpt>
<trkpt lat="26.517394" lon="100.173839">
<time>2015-08-27T14:50:52Z</time></trkpt>
<trkpt lat="26.517274" lon="100.173909">
<time>2015-08-27T14:50:53Z</time></trkpt>
<trkpt lat="26.517194" lon="100.17397">
<time>2015-08-27T14:50:54Z</time></trkpt>
<trkpt lat="26.517095" lon="100.17403">
<time>2015-08-27T14:50:55Z</time></trkpt>
<trkpt lat="26.516745" lon="100.17423">
<time>2015-08-27T14:50:56Z</time></trkpt>
<trkpt lat="26.516455" lon="100.1744">
<time>2015-08-27T14:50:57Z</time></trkpt>
<trkpt lat="26.516185" lon="100.174551">
<time>2015-08-27T14:50:58Z</time></trkpt>
<trkpt lat="26.515786" lon="100.174791">
<time>2015-08-27T14:50:59Z</time></trkpt>
<trkpt lat="26.515516" lon="100.174952">
<time>2015-08-27T14:51:00Z</time></trkpt>
<trkpt lat="26.515216" lon="100.175112">
<time>2015-08-27T14:51:01Z</time></trkpt>
<trkpt lat="26.514906" lon="100.175272">
<time>2015-08-27T14:51:02Z</time></trkpt>
<trkpt lat="26.514607" lon="100.175383">
<time>2015-08-27T14:51:03Z</time></trkpt>
<trkpt lat="26.514277" lon="100.175473">
<time>2015-08-27T14:51:04Z</time></trkpt>
<trkpt lat="26.513897" lon="100.175563">
<time>2015-08-27T14:51:05Z</time></trkpt>
<trkpt lat="26.513567" lon="100.175603">
<time>2015-08-27T14:51:06Z</time></trkpt>
<trkpt lat="26.513187" lon="100.175653">
<time>2015-08-27T14:51:07Z</time></trkpt>
<trkpt lat="26.512847" lon="100.175693">
<time>2015-08-27T14:51:08Z</time></trkpt>
<trkpt lat="26.512507" lon="100.175733">
<time>2015-08-27T14:51:09Z</time></trkpt>
<trkpt lat="26.512297" lon="100.175753">
<time>2015-08-27T14:51:10Z</time></trkpt>
<trkpt lat="26.512147" lon="100.175773">
<time>2015-08-27T14:51:11Z</time></trkpt>
<trkpt lat="26.511837" lon="100.175824">
<time>2015-08-27T14:51:12Z</time></trkpt>
<trkpt lat="26.511487" lon="100.175864">
<time>2015-08-27T14:51:13Z</time></trkpt>
<trkpt lat="26.511157" lon="100.175904">
<time>2015-08-27T14:51:14Z</time></trkpt>
<trkpt lat="26.510827" lon="100.175944">
<time>2015-08-27T14:51:15Z</time></trkpt>
<trkpt lat="26.510457" lon="100.175994">
<time>2015-08-27T14:51:16Z</time></trkpt>
<trkpt lat="26.510077" lon="100.176044">
<time>2015-08-27T14:51:17Z</time></trkpt>
<trkpt lat="26.509807" lon="100.176064">
<time>2015-08-27T14:51:18Z</time></trkpt>
<trkpt lat="26.509397" lon="100.176104">
<time>2015-08-27T14:51:19Z</time></trkpt>
<trkpt lat="26.509037" lon="100.176124">
<time>2015-08-27T14:51:20Z</time></trkpt>
<trkpt lat="26.508706" lon="100.176134">
<time>2015-08-27T14:51:21Z</time></trkpt>
<trkpt lat="26.508346" lon="100.176144">
<time>2015-08-27T14:51:22Z</time></trkpt>
<trkpt lat="26.507976" lon="100.176164">
<time>2015-08-27T14:51:23Z</time></trkpt>
<trkpt lat="26.507626" lon="100.176154">
<time>2015-08-27T14:51:24Z</time></trkpt>
<trkpt lat="26.507266" lon="100.176154">
<time>2015-08-27T14:51:25Z</time></trkpt>
<trkpt lat="26.507026" lon="100.176164">
<time>2015-08-27T14:51:26Z</time></trkpt>
<trkpt lat="26.506636" lon="100.176164">
<time>2015-08-27T14:51:27Z</time></trkpt>
<trkpt lat="26.506216" lon="100.176174">
<time>2015-08-27T14:51:28Z</time></trkpt>
<trkpt lat="26.505866" lon="100.176175">
<time>2015-08-27T14:51:29Z</time></trkpt>
<trkpt lat="26.505496" lon="100.176195">
<time>2015-08-27T14:51:30Z</time></trkpt>
<trkpt lat="26.505166" lon="100.176185">
<time>2015-08-27T14:51:31Z</time></trkpt>
<trkpt lat="26.504976" lon="100.176195">
<time>2015-08-27T14:51:32Z</time></trkpt>
<trkpt lat="26.504916" lon="100.176195">
<time>2015-08-27T14:51:33Z</time></trkpt>
<trkpt lat="26.504636" lon="100.176235">
<time>2015-08-27T14:51:34Z</time></trkpt>
<trkpt lat="26.504316" lon="100.176325">
<time>2015-08-27T14:51:35Z</time></trkpt>
<trkpt lat="26.503996" lon="100.176485">
<time>2015-08-27T14:51:36Z</time></trkpt>
<trkpt lat="26.503676" lon="100.176676">
<time>2015-08-27T14:51:37Z</time></trkpt>
<trkpt lat="26.503407" lon="100.176886">
<time>2015-08-27T14:51:38Z</time></trkpt>
<trkpt lat="26.503387" lon="100.176896">
<time>2015-08-27T14:51:39Z</time></trkpt>
<trkpt lat="26.503107" lon="100.177117">
<time>2015-08-27T14:51:40Z</time></trkpt>
<trkpt lat="26.502857" lon="100.177347">
<time>2015-08-27T14:51:41Z</time></trkpt>
<trkpt lat="26.502588" lon="100.177568">
<time>2015-08-27T14:51:42Z</time></trkpt>
<trkpt lat="26.502358" lon="100.177758">
<time>2015-08-27T14:51:43Z</time></trkpt>
<trkpt lat="26.502078" lon="100.177948">
<time>2015-08-27T14:51:44Z</time></trkpt>
<trkpt lat="26.502068" lon="100.177948">
<time>2015-08-27T14:51:45Z</time></trkpt>
<trkpt lat="26.501788" lon="100.178099">
<time>2015-08-27T14:51:46Z</time></trkpt>
<trkpt lat="26.501489" lon="100.178219">
<time>2015-08-27T14:51:47Z</time></trkpt>
<trkpt lat="26.501379" lon="100.178259">
<time>2015-08-27T14:51:48Z</time></trkpt>
<trkpt lat="26.501159" lon="100.178349">
<time>2015-08-27T14:51:49Z</time></trkpt>
<trkpt lat="26.500819" lon="100.178479">
<time>2015-08-27T14:51:50Z</time></trkpt>
<trkpt lat="26.500179" lon="100.17872">
<time>2015-08-27T14:51:51Z</time></trkpt>
<trkpt lat="26.500019" lon="100.17878">
<time>2015-08-27T14:51:52Z</time></trkpt>
<trkpt lat="26.499939" lon="100.17881">
<time>2015-08-27T14:51:53Z</time></trkpt>
<trkpt lat="26.499789" lon="100.17887">
<time>2015-08-27T14:51:54Z</time></trkpt>
<trkpt lat="26.49945" lon="100.179001">
<time>2015-08-27T14:51:55Z</time></trkpt>
<trkpt lat="26.4991" lon="100.179121">
<time>2015-08-27T14:51:56Z</time></trkpt>
<trkpt lat="26.49877" lon="100.179271">
<time>2015-08-27T14:51:57Z</time></trkpt>
<trkpt lat="26.49863" lon="100.179361">
<time>2015-08-27T14:51:58Z</time></trkpt>
<trkpt lat="26.49849" lon="100.179462">
<time>2015-08-27T14:51:59Z</time></trkpt>
<trkpt lat="26.49837" lon="100.179552">
<time>2015-08-27T14:52:00Z</time></trkpt>
<trkpt lat="26.49829" lon="100.179632">
<time>2015-08-27T14:52:01Z</time></trkpt>
<trkpt lat="26.498211" lon="100.179702">
<time>2015-08-27T14:52:02Z</time></trkpt>
<trkpt lat="26.498081" lon="100.179842">
<time>2015-08-27T14:52:03Z</time></trkpt>
<trkpt lat="26.497961" lon="100.179973">
<time>2015-08-27T14:52:04Z</time></trkpt>
<trkpt lat="26.497672" lon="100.180343">
<time>2015-08-27T14:52:05Z</time></trkpt>
<trkpt lat="26.497412" lon="100.180674">
<time>2015-08-27T14:52:06Z</time></trkpt>
<trkpt lat="26.497153" lon="100.181005">
<time>2015-08-27T14:52:07Z</time></trkpt>
<trkpt lat="26.496903" lon="100.181346">
<time>2015-08-27T14:52:08Z</time></trkpt>
<trkpt lat="26.496684" lon="100.181626">
<time>2015-08-27T14:52:09Z</time></trkpt>
<trkpt lat="26.496404" lon="100.181997">
<time>2015-08-27T14:52:10Z</time></trkpt>
<trkpt lat="26.496384" lon="100.182017">
<time>2015-08-27T14:52:11Z</time></trkpt>
<trkpt lat="26.496155" lon="100.182297">
<time>2015-08-27T14:52:12Z</time></trkpt>
<trkpt lat="26.495905" lon="100.182588">
<time>2015-08-27T14:52:13Z</time></trkpt>
<trkpt lat="26.495556" lon="100.182899">
<time>2015-08-27T14:52:14Z</time></trkpt>
<trkpt lat="26.495226" lon="100.183149">
<time>2015-08-27T14:52:15Z</time></trkpt>
<trkpt lat="26.494876" lon="100.18337">
<time>2015-08-27T14:52:16Z</time></trkpt>
<trkpt lat="26.494507" lon="100.18355">
<time>2015-08-27T14:52:17Z</time></trkpt>
<trkpt lat="26.494117" lon="100.18373">
<time>2015-08-27T14:52:18Z</time></trkpt>
<trkpt lat="26.493727" lon="100.183891">
<time>2015-08-27T14:52:19Z</time></trkpt>
<trkpt lat="26.493357" lon="100.184051">
<time>2015-08-27T14:52:20Z</time></trkpt>
<trkpt lat="26.492977" lon="100.184222">
<time>2015-08-27T14:52:21Z</time></trkpt>
<trkpt lat="26.492598" lon="100.184392">
<time>2015-08-27T14:52:22Z</time></trkpt>
<trkpt lat="26.492208" lon="100.184552">
<time>2015-08-27T14:52:23Z</time></trkpt>
<trkpt lat="26.491828" lon="100.184723">
<time>2015-08-27T14:52:24Z</time></trkpt>
<trkpt lat="26.491458" lon="100.184883">
<time>2015-08-27T14:52:25Z</time></trkpt>
<trkpt lat="26.491248" lon="100.184983">
<time>2015-08-27T14:52:26Z</time></trkpt>
<trkpt lat="26.491108" lon="100.185033">
<time>2015-08-27T14:52:27Z</time></trkpt>
<trkpt lat="26.490769" lon="100.185174">
<time>2015-08-27T14:52:28Z</time></trkpt>
<trkpt lat="26.490449" lon="100.185314">
<time>2015-08-27T14:52:29Z</time></trkpt>
<trkpt lat="26.490119" lon="100.185464">
<time>2015-08-27T14:52:30Z</time></trkpt>
<trkpt lat="26.489789" lon="100.185614">
<time>2015-08-27T14:52:31Z</time></trkpt>
<trkpt lat="26.489449" lon="100.185755">
<time>2015-08-27T14:52:32Z</time></trkpt>
<trkpt lat="26.489119" lon="100.185905">
<time>2015-08-27T14:52:33Z</time></trkpt>
<trkpt lat="26.48878" lon="100.186045">
<time>2015-08-27T14:52:34Z</time></trkpt>
<trkpt lat="26.48845" lon="100.186166">
<time>2015-08-27T14:52:35Z</time></trkpt>
<trkpt lat="26.4881" lon="100.186276">
<time>2015-08-27T14:52:36Z</time></trkpt>
<trkpt lat="26.48779" lon="100.186346">
<time>2015-08-27T14:52:37Z</time></trkpt>
<trkpt lat="26.4874" lon="100.186376">
<time>2015-08-27T14:52:38Z</time></trkpt>
<trkpt lat="26.48706" lon="100.186346">
<time>2015-08-27T14:52:39Z</time></trkpt>
<trkpt lat="26.486699" lon="100.186276">
<time>2015-08-27T14:52:40Z</time></trkpt>
<trkpt lat="26.486359" lon="100.186176">
<time>2015-08-27T14:52:41Z</time></trkpt>
<trkpt lat="26.485999" lon="100.186005">
<time>2015-08-27T14:52:42Z</time></trkpt>
<trkpt lat="26.485708" lon="100.185855">
<time>2015-08-27T14:52:43Z</time></trkpt>
<trkpt lat="26.485678" lon="100.185835">
<time>2015-08-27T14:52:44Z</time></trkpt>
<trkpt lat="26.485338" lon="100.185685">
<time>2015-08-27T14:52:45Z</time></trkpt>
<trkpt lat="26.484998" lon="100.185494">
<time>2015-08-27T14:52:46Z</time></trkpt>
<trkpt lat="26.484677" lon="100.185374">
<time>2015-08-27T14:52:47Z</time></trkpt>
<trkpt lat="26.484347" lon="100.185264">
<time>2015-08-27T14:52:48Z</time></trkpt>
<trkpt lat="26.484017" lon="100.185194">
<time>2015-08-27T14:52:49Z</time></trkpt>
<trkpt lat="26.483637" lon="100.185164">
<time>2015-08-27T14:52:50Z</time></trkpt>
<trkpt lat="26.483276" lon="100.185154">
<time>2015-08-27T14:52:51Z</time></trkpt>
<trkpt lat="26.482926" lon="100.185154">
<time>2015-08-27T14:52:52Z</time></trkpt>
<trkpt lat="26.482576" lon="100.185144">
<time>2015-08-27T14:52:53Z</time></trkpt>
<trkpt lat="26.482236" lon="100.185144">
<time>2015-08-27T14:52:54Z</time></trkpt>
<trkpt lat="26.481856" lon="100.185144">
<time>2015-08-27T14:52:55Z</time></trkpt>
<trkpt lat="26.481506" lon="100.185124">
<time>2015-08-27T14:52:56Z</time></trkpt>
<trkpt lat="26.481166" lon="100.185124">
<time>2015-08-27T14:52:57Z</time></trkpt>
<trkpt lat="26.480846" lon="100.185124">
<time>2015-08-27T14:52:58Z</time></trkpt>
<trkpt lat="26.480476" lon="100.185114">
<time>2015-08-27T14:52:59Z</time></trkpt>
<trkpt lat="26.480105" lon="100.185104">
<time>2015-08-27T14:53:00Z</time></trkpt>
<trkpt lat="26.479755" lon="100.185084">
<time>2015-08-27T14:53:01Z</time></trkpt>
<trkpt lat="26.479435" lon="100.185044">
<time>2015-08-27T14:53:02Z</time></trkpt>
<trkpt lat="26.479115" lon="100.184983">
<time>2015-08-27T14:53:03Z</time></trkpt>
<trkpt lat="26.478845" lon="100.184933">
<time>2015-08-27T14:53:04Z</time></trkpt>
<trkpt lat="26.478465" lon="100.184883">
<time>2015-08-27T14:53:05Z</time></trkpt>
<trkpt lat="26.478144" lon="100.184813">
<time>2015-08-27T14:53:06Z</time></trkpt>
<trkpt lat="26.477824" lon="100.184773">
<time>2015-08-27T14:53:07Z</time></trkpt>
<trkpt lat="26.477514" lon="100.184733">
<time>2015-08-27T14:53:08Z</time></trkpt>
<trkpt lat="26.477204" lon="100.184663">
<time>2015-08-27T14:53:09Z</time></trkpt>
<trkpt lat="26.476894" lon="100.184553">
<time>2015-08-27T14:53:10Z</time></trkpt>
<trkpt lat="26.476583" lon="100.184412">
<time>2015-08-27T14:53:11Z</time></trkpt>
<trkpt lat="26.476303" lon="100.184272">
<time>2015-08-27T14:53:12Z</time></trkpt>
<trkpt lat="26.476012" lon="100.184072">
<time>2015-08-27T14:53:13Z</time></trkpt>
<trkpt lat="26.475762" lon="100.183901">
<time>2015-08-27T14:53:14Z</time></trkpt>
<trkpt lat="26.475532" lon="100.183751">
<time>2015-08-27T14:53:15Z</time></trkpt>
<trkpt lat="26.475231" lon="100.183531">
<time>2015-08-27T14:53:16Z</time></trkpt>
<trkpt lat="26.474941" lon="100.18333">
<time>2015-08-27T14:53:17Z</time></trkpt>
<trkpt lat="26.47466" lon="100.18312">
<time>2015-08-27T14:53:18Z</time></trkpt>
<trkpt lat="26.47443" lon="100.182919">
<time>2015-08-27T14:53:19Z</time></trkpt>
<trkpt lat="26.474199" lon="100.182679">
<time>2015-08-27T14:53:20Z</time></trkpt>
<trkpt lat="26.474019" lon="100.182408">
<time>2015-08-27T14:53:21Z</time></trkpt>
<trkpt lat="26.473808" lon="100.182098">
<time>2015-08-27T14:53:22Z</time></trkpt>
<trkpt lat="26.473598" lon="100.181837">
<time>2015-08-27T14:53:23Z</time></trkpt>
<trkpt lat="26.473337" lon="100.181557">
<time>2015-08-27T14:53:24Z</time></trkpt>
<trkpt lat="26.473107" lon="100.181376">
<time>2015-08-27T14:53:25Z</time></trkpt>
<trkpt lat="26.472826" lon="100.181176">
<time>2015-08-27T14:53:26Z</time></trkpt>
<trkpt lat="26.472516" lon="100.180965">
<time>2015-08-27T14:53:27Z</time></trkpt>
<trkpt lat="26.472225" lon="100.180775">
<time>2015-08-27T14:53:28Z</time></trkpt>
<trkpt lat="26.471915" lon="100.180565">
<time>2015-08-27T14:53:29Z</time></trkpt>
<trkpt lat="26.471664" lon="100.180384">
<time>2015-08-27T14:53:30Z</time></trkpt>
<trkpt lat="26.471324" lon="100.180164">
<time>2015-08-27T14:53:31Z</time></trkpt>
<trkpt lat="26.471043" lon="100.179963">
<time>2015-08-27T14:53:32Z</time></trkpt>
<trkpt lat="26.470753" lon="100.179743">
<time>2015-08-27T14:53:33Z</time></trkpt>
<trkpt lat="26.470543" lon="100.179562">
<time>2015-08-27T14:53:34Z</time></trkpt>
<trkpt lat="26.470272" lon="100.179292">
<time>2015-08-27T14:53:35Z</time></trkpt>
<trkpt lat="26.470041" lon="100.179001">
<time>2015-08-27T14:53:36Z</time></trkpt>
<trkpt lat="26.469831" lon="100.178721">
<time>2015-08-27T14:53:37Z</time></trkpt>
<trkpt lat="26.46961" lon="100.17843">
<time>2015-08-27T14:53:38Z</time></trkpt>
<trkpt lat="26.46938" lon="100.17813">
<time>2015-08-27T14:53:39Z</time></trkpt>
<trkpt lat="26.469109" lon="100.177779">
<time>2015-08-27T14:53:40Z</time></trkpt>
<trkpt lat="26.468878" lon="100.177458">
<time>2015-08-27T14:53:41Z</time></trkpt>
<trkpt lat="26.468658" lon="100.177168">
<time>2015-08-27T14:53:42Z</time></trkpt>
<trkpt lat="26.468427" lon="100.176867">
<time>2015-08-27T14:53:43Z</time></trkpt>
<trkpt lat="26.468226" lon="100.176626">
<time>2015-08-27T14:53:44Z</time></trkpt>
<trkpt lat="26.468036" lon="100.176336">
<time>2015-08-27T14:53:45Z</time></trkpt>
<trkpt lat="26.467865" lon="100.176045">
<time>2015-08-27T14:53:46Z</time></trkpt>
<trkpt lat="26.467714" lon="100.175704">
<time>2015-08-27T14:53:47Z</time></trkpt>
<trkpt lat="26.467594" lon="100.175394">
<time>2015-08-27T14:53:48Z</time></trkpt>
<trkpt lat="26.467493" lon="100.175063">
<time>2015-08-27T14:53:49Z</time></trkpt>
<trkpt lat="26.467383" lon="100.174783">
<time>2015-08-27T14:53:50Z</time></trkpt>
<trkpt lat="26.467282" lon="100.174452">
<time>2015-08-27T14:53:51Z</time></trkpt>
<trkpt lat="26.467181" lon="100.174171">
<time>2015-08-27T14:53:52Z</time></trkpt>
<trkpt lat="26.467091" lon="100.173881">
<time>2015-08-27T14:53:53Z</time></trkpt>
<trkpt lat="26.46699" lon="100.17354">
<time>2015-08-27T14:53:54Z</time></trkpt>
<trkpt lat="26.46688" lon="100.173199">
<time>2015-08-27T14:53:55Z</time></trkpt>
<trkpt lat="26.466789" lon="100.172929">
<time>2015-08-27T14:53:56Z</time></trkpt>
<trkpt lat="26.466668" lon="100.172658">
<time>2015-08-27T14:53:57Z</time></trkpt>
<trkpt lat="26.466628" lon="100.172588">
<time>2015-08-27T14:53:58Z</time></trkpt>
<trkpt lat="26.466538" lon="100.172418">
<time>2015-08-27T14:53:59Z</time></trkpt>
<trkpt lat="26.466368" lon="100.172217">
<time>2015-08-27T14:54:00Z</time></trkpt>
<trkpt lat="26.466117" lon="100.171997">
<time>2015-08-27T14:54:01Z</time></trkpt>
<trkpt lat="26.465887" lon="100.171856">
<time>2015-08-27T14:54:02Z</time></trkpt>
<trkpt lat="26.465676" lon="100.171686">
<time>2015-08-27T14:54:03Z</time></trkpt>
<trkpt lat="26.465386" lon="100.171526">
<time>2015-08-27T14:54:04Z</time></trkpt>
<trkpt lat="26.465126" lon="100.171355">
<time>2015-08-27T14:54:05Z</time></trkpt>
<trkpt lat="26.464895" lon="100.171185">
<time>2015-08-27T14:54:06Z</time></trkpt>
<trkpt lat="26.464635" lon="100.171025">
<time>2015-08-27T14:54:07Z</time></trkpt>
<trkpt lat="26.464344" lon="100.170834">
<time>2015-08-27T14:54:08Z</time></trkpt>
<trkpt lat="26.464064" lon="100.170654">
<time>2015-08-27T14:54:09Z</time></trkpt>
<trkpt lat="26.463783" lon="100.170474">
<time>2015-08-27T14:54:10Z</time></trkpt>
<trkpt lat="26.463523" lon="100.170313">
<time>2015-08-27T14:54:11Z</time></trkpt>
<trkpt lat="26.463213" lon="100.170103">
<time>2015-08-27T14:54:12Z</time></trkpt>
<trkpt lat="26.462942" lon="100.169922">
<time>2015-08-27T14:54:13Z</time></trkpt>
<trkpt lat="26.462672" lon="100.169742">
<time>2015-08-27T14:54:14Z</time></trkpt>
<trkpt lat="26.462391" lon="100.169552">
<time>2015-08-27T14:54:15Z</time></trkpt>
<trkpt lat="26.462091" lon="100.169361">
<time>2015-08-27T14:54:16Z</time></trkpt>
<trkpt lat="26.46181" lon="100.169191">
<time>2015-08-27T14:54:17Z</time></trkpt>
<trkpt lat="26.46161" lon="100.169051">
<time>2015-08-27T14:54:18Z</time></trkpt>
<trkpt lat="26.4614" lon="100.16892">
<time>2015-08-27T14:54:19Z</time></trkpt>
<trkpt lat="26.46121" lon="100.16881">
<time>2015-08-27T14:54:20Z</time></trkpt>
<trkpt lat="26.461019" lon="100.16866">
<time>2015-08-27T14:54:21Z</time></trkpt>
<trkpt lat="26.460839" lon="100.168509">
<time>2015-08-27T14:54:22Z</time></trkpt>
<trkpt lat="26.460588" lon="100.168279">
<time>2015-08-27T14:54:23Z</time></trkpt>
<trkpt lat="26.460408" lon="100.168079">
<time>2015-08-27T14:54:24Z</time></trkpt>
<trkpt lat="26.460207" lon="100.167778">
<time>2015-08-27T14:54:25Z</time></trkpt>
<trkpt lat="26.460017" lon="100.167487">
<time>2015-08-27T14:54:26Z</time></trkpt>
<trkpt lat="26.459846" lon="100.167247">
<time>2015-08-27T14:54:27Z</time></trkpt>
<trkpt lat="26.459706" lon="100.167016">
<time>2015-08-27T14:54:28Z</time></trkpt>
<trkpt lat="26.459495" lon="100.166696">
<time>2015-08-27T14:54:29Z</time></trkpt>
<trkpt lat="26.459304" lon="100.166425">
<time>2015-08-27T14:54:30Z</time></trkpt>
<trkpt lat="26.459124" lon="100.166144">
<time>2015-08-27T14:54:31Z</time></trkpt>
<trkpt lat="26.458923" lon="100.165824">
<time>2015-08-27T14:54:32Z</time></trkpt>
<trkpt lat="26.458733" lon="100.165523">
<time>2015-08-27T14:54:33Z</time></trkpt>
<trkpt lat="26.458562" lon="100.165253">
<time>2015-08-27T14:54:34Z</time></trkpt>
<trkpt lat="26.458391" lon="100.165012">
<time>2015-08-27T14:54:35Z</time></trkpt>
<trkpt lat="26.458211" lon="100.164822">
<time>2015-08-27T14:54:36Z</time></trkpt>
<trkpt lat="26.457901" lon="100.164571">
<time>2015-08-27T14:54:37Z</time></trkpt>
<trkpt lat="26.45777" lon="100.164501">
<time>2015-08-27T14:54:38Z</time></trkpt>
<trkpt lat="26.45767" lon="100.164451">
<time>2015-08-27T14:54:39Z</time></trkpt>
<trkpt lat="26.45739" lon="100.164351">
<time>2015-08-27T14:54:40Z</time></trkpt>
<trkpt lat="26.45718" lon="100.164291">
<time>2015-08-27T14:54:41Z</time></trkpt>
<trkpt lat="26.45693" lon="100.164281">
<time>2015-08-27T14:54:42Z</time></trkpt>
<trkpt lat="26.45663" lon="100.164271">
<time>2015-08-27T14:54:43Z</time></trkpt>
<trkpt lat="26.456299" lon="100.164241">
<time>2015-08-27T14:54:44Z</time></trkpt>
<trkpt lat="26.455979" lon="100.164231">
<time>2015-08-27T14:54:45Z</time></trkpt>
<trkpt lat="26.455669" lon="100.16421">
<time>2015-08-27T14:54:46Z</time></trkpt>
<trkpt lat="26.455259" lon="100.164211">
<time>2015-08-27T14:54:47Z</time></trkpt>
<trkpt lat="26.454969" lon="100.16416">
<time>2015-08-27T14:54:48Z</time></trkpt>
<trkpt lat="26.454659" lon="100.16407">
<time>2015-08-27T14:54:49Z</time></trkpt>
<trkpt lat="26.454438" lon="100.16395">
<time>2015-08-27T14:54:50Z</time></trkpt>
<trkpt lat="26.454178" lon="100.16378">
<time>2015-08-27T14:54:51Z</time></trkpt>
<trkpt lat="26.453957" lon="100.163619">
<time>2015-08-27T14:54:52Z</time></trkpt>
<trkpt lat="26.453737" lon="100.163479">
<time>2015-08-27T14:54:53Z</time></trkpt>
<trkpt lat="26.453567" lon="100.163359">
<time>2015-08-27T14:54:54Z</time></trkpt>
<trkpt lat="26.453367" lon="100.163218">
<time>2015-08-27T14:54:55Z</time></trkpt>
<trkpt lat="26.453186" lon="100.163088">
<time>2015-08-27T14:54:56Z</time></trkpt>
<trkpt lat="26.453046" lon="100.162988">
<time>2015-08-27T14:54:57Z</time></trkpt>
<trkpt lat="26.452846" lon="100.162848">
<time>2015-08-27T14:54:58Z</time></trkpt>
<trkpt lat="26.452685" lon="100.162727">
<time>2015-08-27T14:54:59Z</time></trkpt>
<trkpt lat="26.452525" lon="100.162617">
<time>2015-08-27T14:55:00Z</time></trkpt>
<trkpt lat="26.452345" lon="100.162487">
<time>2015-08-27T14:55:01Z</time></trkpt>
<trkpt lat="26.452225" lon="100.162407">
<time>2015-08-27T14:55:02Z</time></trkpt>
<trkpt lat="26.451724" lon="100.162056">
<time>2015-08-27T14:55:03Z</time></trkpt>
<trkpt lat="26.451443" lon="100.161846">
<time>2015-08-27T14:55:04Z</time></trkpt>
<trkpt lat="26.451223" lon="100.161695">
<time>2015-08-27T14:55:05Z</time></trkpt>
<trkpt lat="26.451003" lon="100.161545">
<time>2015-08-27T14:55:06Z</time></trkpt>
<trkpt lat="26.450802" lon="100.161395">
<time>2015-08-27T14:55:07Z</time></trkpt>
<trkpt lat="26.450542" lon="100.161214">
<time>2015-08-27T14:55:08Z</time></trkpt>
<trkpt lat="26.450352" lon="100.161084">
<time>2015-08-27T14:55:09Z</time></trkpt>
<trkpt lat="26.450191" lon="100.160944">
<time>2015-08-27T14:55:10Z</time></trkpt>
<trkpt lat="26.450041" lon="100.160804">
<time>2015-08-27T14:55:11Z</time></trkpt>
<trkpt lat="26.44984" lon="100.160583">
<time>2015-08-27T14:55:12Z</time></trkpt>
<trkpt lat="26.44963" lon="100.160343">
<time>2015-08-27T14:55:13Z</time></trkpt>
<trkpt lat="26.44945" lon="100.160132">
<time>2015-08-27T14:55:14Z</time></trkpt>
<trkpt lat="26.449269" lon="100.159912">
<time>2015-08-27T14:55:15Z</time></trkpt>
<trkpt lat="26.449109" lon="100.159731">
<time>2015-08-27T14:55:16Z</time></trkpt>
<trkpt lat="26.448898" lon="100.159511">
<time>2015-08-27T14:55:17Z</time></trkpt>
<trkpt lat="26.448708" lon="100.159341">
<time>2015-08-27T14:55:18Z</time></trkpt>
<trkpt lat="26.448487" lon="100.15918">
<time>2015-08-27T14:55:19Z</time></trkpt>
<trkpt lat="26.448227" lon="100.15906">
<time>2015-08-27T14:55:20Z</time></trkpt>
<trkpt lat="26.447967" lon="100.15898">
<time>2015-08-27T14:55:21Z</time></trkpt>
<trkpt lat="26.447687" lon="100.15898">
<time>2015-08-27T14:55:22Z</time></trkpt>
<trkpt lat="26.447427" lon="100.15899">
<time>2015-08-27T14:55:23Z</time></trkpt>
<trkpt lat="26.447147" lon="100.15905">
<time>2015-08-27T14:55:24Z</time></trkpt>
<trkpt lat="26.446907" lon="100.15914">
<time>2015-08-27T14:55:25Z</time></trkpt>
<trkpt lat="26.446697" lon="100.15923">
<time>2015-08-27T14:55:26Z</time></trkpt>
<trkpt lat="26.446517" lon="100.15929">
<time>2015-08-27T14:55:27Z</time></trkpt>
<trkpt lat="26.446367" lon="100.159351">
<time>2015-08-27T14:55:28Z</time></trkpt>
<trkpt lat="26.446247" lon="100.159401">
<time>2015-08-27T14:55:29Z</time></trkpt>
<trkpt lat="26.446137" lon="100.159431">
<time>2015-08-27T14:55:30Z</time></trkpt>
<trkpt lat="26.446047" lon="100.159481">
<time>2015-08-27T14:55:31Z</time></trkpt>
<trkpt lat="26.445947" lon="100.159521">
<time>2015-08-27T14:55:32Z</time></trkpt>
<trkpt lat="26.445837" lon="100.159571">
<time>2015-08-27T14:55:33Z</time></trkpt>
<trkpt lat="26.445727" lon="100.159611">
<time>2015-08-27T14:55:34Z</time></trkpt>
<trkpt lat="26.445567" lon="100.159681">
<time>2015-08-27T14:55:35Z</time></trkpt>
<trkpt lat="26.445427" lon="100.159721">
<time>2015-08-27T14:55:36Z</time></trkpt>
<trkpt lat="26.445327" lon="100.159761">
<time>2015-08-27T14:55:37Z</time></trkpt>
<trkpt lat="26.445228" lon="100.159812">
<time>2015-08-27T14:55:38Z</time></trkpt>
<trkpt lat="26.445078" lon="100.159872">
<time>2015-08-27T14:55:39Z</time></trkpt>
<trkpt lat="26.444918" lon="100.159932">
<time>2015-08-27T14:55:40Z</time></trkpt>
<trkpt lat="26.444738" lon="100.160012">
<time>2015-08-27T14:55:41Z</time></trkpt>
<trkpt lat="26.444528" lon="100.160122">
<time>2015-08-27T14:55:42Z</time></trkpt>
<trkpt lat="26.444338" lon="100.160232">
<time>2015-08-27T14:55:43Z</time></trkpt>
<trkpt lat="26.444108" lon="100.160383">
<time>2015-08-27T14:55:44Z</time></trkpt>
<trkpt lat="26.443928" lon="100.160523">
<time>2015-08-27T14:55:45Z</time></trkpt>
<trkpt lat="26.443719" lon="100.160683">
<time>2015-08-27T14:55:46Z</time></trkpt>
<trkpt lat="26.443499" lon="100.160844">
<time>2015-08-27T14:55:47Z</time></trkpt>
<trkpt lat="26.443289" lon="100.161024">
<time>2015-08-27T14:55:48Z</time></trkpt>
<trkpt lat="26.443149" lon="100.161164">
<time>2015-08-27T14:55:49Z</time></trkpt>
<trkpt lat="26.443059" lon="100.161255">
<time>2015-08-27T14:55:50Z</time></trkpt>
<trkpt lat="26.44296" lon="100.161355">
<time>2015-08-27T14:55:51Z</time></trkpt>
<trkpt lat="26.44288" lon="100.161445">
<time>2015-08-27T14:55:52Z</time></trkpt>
<trkpt lat="26.44279" lon="100.161565">
<time>2015-08-27T14:55:53Z</time></trkpt>
<trkpt lat="26.44266" lon="100.161726">
<time>2015-08-27T14:55:54Z</time></trkpt>
<trkpt lat="26.442541" lon="100.161916">
<time>2015-08-27T14:55:55Z</time></trkpt>
<trkpt lat="26.442451" lon="100.162106">
<time>2015-08-27T14:55:56Z</time></trkpt>
<trkpt lat="26.442381" lon="100.162287">
<time>2015-08-27T14:55:57Z</time></trkpt>
<trkpt lat="26.442301" lon="100.162467">
<time>2015-08-27T14:55:58Z</time></trkpt>
<trkpt lat="26.442202" lon="100.162658">
<time>2015-08-27T14:55:59Z</time></trkpt>
<trkpt lat="26.442132" lon="100.162748">
<time>2015-08-27T14:56:00Z</time></trkpt>
<trkpt lat="26.442062" lon="100.162838">
<time>2015-08-27T14:56:01Z</time></trkpt>
<trkpt lat="26.441902" lon="100.162998">
<time>2015-08-27T14:56:02Z</time></trkpt>
<trkpt lat="26.441673" lon="100.163229">
<time>2015-08-27T14:56:03Z</time></trkpt>
<trkpt lat="26.441413" lon="100.163489">
<time>2015-08-27T14:56:04Z</time></trkpt>
<trkpt lat="26.441233" lon="100.16367">
<time>2015-08-27T14:56:05Z</time></trkpt>
<trkpt lat="26.441074" lon="100.16377">
<time>2015-08-27T14:56:06Z</time></trkpt>
<trkpt lat="26.440934" lon="100.16384">
<time>2015-08-27T14:56:07Z</time></trkpt>
<trkpt lat="26.440774" lon="100.16388">
<time>2015-08-27T14:56:08Z</time></trkpt>
<trkpt lat="26.440614" lon="100.16389">
<time>2015-08-27T14:56:09Z</time></trkpt>
<trkpt lat="26.440414" lon="100.1639">
<time>2015-08-27T14:56:10Z</time></trkpt>
<trkpt lat="26.440163" lon="100.1639">
<time>2015-08-27T14:56:11Z</time></trkpt>
<trkpt lat="26.439903" lon="100.1639">
<time>2015-08-27T14:56:12Z</time></trkpt>
<trkpt lat="26.439683" lon="100.16397">
<time>2015-08-27T14:56:13Z</time></trkpt>
<trkpt lat="26.439573" lon="100.164031">
<time>2015-08-27T14:56:14Z</time></trkpt>
<trkpt lat="26.439464" lon="100.164111">
<time>2015-08-27T14:56:15Z</time></trkpt>
<trkpt lat="26.439394" lon="100.164201">
<time>2015-08-27T14:56:16Z</time></trkpt>
<trkpt lat="26.439324" lon="100.164331">
<time>2015-08-27T14:56:17Z</time></trkpt>
<trkpt lat="26.439264" lon="100.164451">
<time>2015-08-27T14:56:18Z</time></trkpt>
<trkpt lat="26.439214" lon="100.164582">
<time>2015-08-27T14:56:19Z</time></trkpt>
<trkpt lat="26.439135" lon="100.164812">
<time>2015-08-27T14:56:20Z</time></trkpt>
<trkpt lat="26.439045" lon="100.165063">
<time>2015-08-27T14:56:21Z</time></trkpt>
<trkpt lat="26.438956" lon="100.165313">
<time>2015-08-27T14:56:22Z</time></trkpt>
<trkpt lat="26.438836" lon="100.165604">
<time>2015-08-27T14:56:23Z</time></trkpt>
<trkpt lat="26.438707" lon="100.165874">
<time>2015-08-27T14:56:24Z</time></trkpt>
<trkpt lat="26.438567" lon="100.166145">
<time>2015-08-27T14:56:25Z</time></trkpt>
<trkpt lat="26.438398" lon="100.166396">
<time>2015-08-27T14:56:26Z</time></trkpt>
<trkpt lat="26.438238" lon="100.166616">
<time>2015-08-27T14:56:27Z</time></trkpt>
<trkpt lat="26.438048" lon="100.166887">
<time>2015-08-27T14:56:28Z</time></trkpt>
<trkpt lat="26.437909" lon="100.167097">
<time>2015-08-27T14:56:29Z</time></trkpt>
<trkpt lat="26.437789" lon="100.167307">
<time>2015-08-27T14:56:30Z</time></trkpt>
<trkpt lat="26.437739" lon="100.167418">
<time>2015-08-27T14:56:31Z</time></trkpt>
<trkpt lat="26.437709" lon="100.167538">
<time>2015-08-27T14:56:32Z</time></trkpt>
<trkpt lat="26.4377" lon="100.167658">
<time>2015-08-27T14:56:33Z</time></trkpt>
<trkpt lat="26.43771" lon="100.167778">
<time>2015-08-27T14:56:34Z</time></trkpt>
<trkpt lat="26.43773" lon="100.167909">
<time>2015-08-27T14:56:35Z</time></trkpt>
<trkpt lat="26.43776" lon="100.168039">
<time>2015-08-27T14:56:36Z</time></trkpt>
<trkpt lat="26.437801" lon="100.168219">
<time>2015-08-27T14:56:37Z</time></trkpt>
<trkpt lat="26.437811" lon="100.16832">
<time>2015-08-27T14:56:38Z</time></trkpt>
<trkpt lat="26.437821" lon="100.1684">
<time>2015-08-27T14:56:39Z</time></trkpt>
<trkpt lat="26.437811" lon="100.16848">
<time>2015-08-27T14:56:40Z</time></trkpt>
<trkpt lat="26.437801" lon="100.16857">
<time>2015-08-27T14:56:41Z</time></trkpt>
<trkpt lat="26.437782" lon="100.16863">
<time>2015-08-27T14:56:42Z</time></trkpt>
<trkpt lat="26.437742" lon="100.16872">
<time>2015-08-27T14:56:43Z</time></trkpt>
<trkpt lat="26.437652" lon="100.168911">
<time>2015-08-27T14:56:44Z</time></trkpt>
<trkpt lat="26.437502" lon="100.169151">
<time>2015-08-27T14:56:45Z</time></trkpt>
<trkpt lat="26.437363" lon="100.169352">
<time>2015-08-27T14:56:46Z</time></trkpt>
<trkpt lat="26.437293" lon="100.169442">
<time>2015-08-27T14:56:47Z</time></trkpt>
<trkpt lat="26.437243" lon="100.169512">
<time>2015-08-27T14:56:48Z</time></trkpt>
<trkpt lat="26.437173" lon="100.169562">
<time>2015-08-27T14:56:49Z</time></trkpt>
<trkpt lat="26.437123" lon="100.169592">
<time>2015-08-27T14:56:50Z</time></trkpt>
<trkpt lat="26.437053" lon="100.169622">
<time>2015-08-27T14:56:51Z</time></trkpt>
<trkpt lat="26.436943" lon="100.169652">
<time>2015-08-27T14:56:52Z</time></trkpt>
<trkpt lat="26.436853" lon="100.169652">
<time>2015-08-27T14:56:53Z</time></trkpt>
<trkpt lat="26.436713" lon="100.169632">
<time>2015-08-27T14:56:54Z</time></trkpt>
<trkpt lat="26.436503" lon="100.169582">
<time>2015-08-27T14:56:55Z</time></trkpt>
<trkpt lat="26.436403" lon="100.169572">
<time>2015-08-27T14:56:56Z</time></trkpt>
<trkpt lat="26.436333" lon="100.169562">
<time>2015-08-27T14:56:57Z</time></trkpt>
<trkpt lat="26.436243" lon="100.169572">
<time>2015-08-27T14:56:58Z</time></trkpt>
<trkpt lat="26.436163" lon="100.169602">
<time>2015-08-27T14:56:59Z</time></trkpt>
<trkpt lat="26.436093" lon="100.169642">
<time>2015-08-27T14:57:00Z</time></trkpt>
<trkpt lat="26.436013" lon="100.169733">
<time>2015-08-27T14:57:01Z</time></trkpt>
<trkpt lat="26.435953" lon="100.169823">
<time>2015-08-27T14:57:02Z</time></trkpt>
<trkpt lat="26.435883" lon="100.169943">
<time>2015-08-27T14:57:03Z</time></trkpt>
<trkpt lat="26.435854" lon="100.170063">
<time>2015-08-27T14:57:04Z</time></trkpt>
<trkpt lat="26.435814" lon="100.170204">
<time>2015-08-27T14:57:05Z</time></trkpt>
<trkpt lat="26.435784" lon="100.170344">
<time>2015-08-27T14:57:06Z</time></trkpt>
<trkpt lat="26.435764" lon="100.170464">
<time>2015-08-27T14:57:07Z</time></trkpt>
<trkpt lat="26.435755" lon="100.170665">
<time>2015-08-27T14:57:08Z</time></trkpt>
<trkpt lat="26.435755" lon="100.170775">
<time>2015-08-27T14:57:09Z</time></trkpt>
<trkpt lat="26.435745" lon="100.170985">
<time>2015-08-27T14:57:10Z</time></trkpt>
<trkpt lat="26.435736" lon="100.171146">
<time>2015-08-27T14:57:11Z</time></trkpt>
<trkpt lat="26.435716" lon="100.171256">
<time>2015-08-27T14:57:12Z</time></trkpt>
<trkpt lat="26.435686" lon="100.171386">
<time>2015-08-27T14:57:13Z</time></trkpt>
<trkpt lat="26.435656" lon="100.171466">
<time>2015-08-27T14:57:14Z</time></trkpt>
<trkpt lat="26.435626" lon="100.171547">
<time>2015-08-27T14:57:15Z</time></trkpt>
<trkpt lat="26.435576" lon="100.171657">
<time>2015-08-27T14:57:16Z</time></trkpt>
<trkpt lat="26.435537" lon="100.171727">
<time>2015-08-27T14:57:17Z</time></trkpt>
<trkpt lat="26.435457" lon="100.171827">
<time>2015-08-27T14:57:18Z</time></trkpt>
<trkpt lat="26.435137" lon="100.172138">
<time>2015-08-27T14:57:19Z</time></trkpt>
<trkpt lat="26.435027" lon="100.172248">
<time>2015-08-27T14:57:20Z</time></trkpt>
<trkpt lat="26.434908" lon="100.172378">
<time>2015-08-27T14:57:21Z</time></trkpt>
<trkpt lat="26.434828" lon="100.172468">
<time>2015-08-27T14:57:22Z</time></trkpt>
<trkpt lat="26.434758" lon="100.172569">
<time>2015-08-27T14:57:23Z</time></trkpt>
<trkpt lat="26.434648" lon="100.172749">
<time>2015-08-27T14:57:24Z</time></trkpt>
<trkpt lat="26.434569" lon="100.17296">
<time>2015-08-27T14:57:25Z</time></trkpt>
<trkpt lat="26.434529" lon="100.17308">
<time>2015-08-27T14:57:26Z</time></trkpt>
<trkpt lat="26.434479" lon="100.17326">
<time>2015-08-27T14:57:27Z</time></trkpt>
<trkpt lat="26.4344" lon="100.173641">
<time>2015-08-27T14:57:28Z</time></trkpt>
<trkpt lat="26.43433" lon="100.173952">
<time>2015-08-27T14:57:29Z</time></trkpt>
<trkpt lat="26.434241" lon="100.174262">
<time>2015-08-27T14:57:30Z</time></trkpt>
<trkpt lat="26.434122" lon="100.174613">
<time>2015-08-27T14:57:31Z</time></trkpt>
<trkpt lat="26.433823" lon="100.175585">
<time>2015-08-27T14:57:32Z</time></trkpt>
<trkpt lat="26.433694" lon="100.175916">
<time>2015-08-27T14:57:33Z</time></trkpt>
<trkpt lat="26.433554" lon="100.176236">
<time>2015-08-27T14:57:34Z</time></trkpt>
<trkpt lat="26.432877" lon="100.177639">
<time>2015-08-27T14:57:35Z</time></trkpt>
<trkpt lat="26.432757" lon="100.17789">
<time>2015-08-27T14:57:36Z</time></trkpt>
<trkpt lat="26.432349" lon="100.178732">
<time>2015-08-27T14:57:37Z</time></trkpt>
<trkpt lat="26.432239" lon="100.178972">
<time>2015-08-27T14:57:38Z</time></trkpt>
<trkpt lat="26.43208" lon="100.179303">
<time>2015-08-27T14:57:39Z</time></trkpt>
<trkpt lat="26.43193" lon="100.179624">
<time>2015-08-27T14:57:40Z</time></trkpt>
<trkpt lat="26.431731" lon="100.180024">
<time>2015-08-27T14:57:41Z</time></trkpt>
<trkpt lat="26.431551" lon="100.180405">
<time>2015-08-27T14:57:42Z</time></trkpt>
<trkpt lat="26.431392" lon="100.180746">
<time>2015-08-27T14:57:43Z</time></trkpt>
<trkpt lat="26.431233" lon="100.181057">
<time>2015-08-27T14:57:44Z</time></trkpt>
<trkpt lat="26.431113" lon="100.181307">
<time>2015-08-27T14:57:45Z</time></trkpt>
<trkpt lat="26.431063" lon="100.181427">
<time>2015-08-27T14:57:46Z</time></trkpt>
<trkpt lat="26.430894" lon="100.181738">
<time>2015-08-27T14:57:47Z</time></trkpt>
<trkpt lat="26.430804" lon="100.181968">
<time>2015-08-27T14:57:48Z</time></trkpt>
<trkpt lat="26.430625" lon="100.182329">
<time>2015-08-27T14:57:49Z</time></trkpt>
<trkpt lat="26.430505" lon="100.1826">
<time>2015-08-27T14:57:50Z</time></trkpt>
<trkpt lat="26.430346" lon="100.18293">
<time>2015-08-27T14:57:51Z</time></trkpt>
<trkpt lat="26.430136" lon="100.183241">
<time>2015-08-27T14:57:52Z</time></trkpt>
<trkpt lat="26.429927" lon="100.183502">
<time>2015-08-27T14:57:53Z</time></trkpt>
<trkpt lat="26.429667" lon="100.183762">
<time>2015-08-27T14:57:54Z</time></trkpt>
<trkpt lat="26.429437" lon="100.183973">
<time>2015-08-27T14:57:55Z</time></trkpt>
<trkpt lat="26.429208" lon="100.184193">
<time>2015-08-27T14:57:56Z</time></trkpt>
<trkpt lat="26.428998" lon="100.184373">
<time>2015-08-27T14:57:57Z</time></trkpt>
<trkpt lat="26.428818" lon="100.184524">
<time>2015-08-27T14:57:58Z</time></trkpt>
<trkpt lat="26.428598" lon="100.184704">
<time>2015-08-27T14:57:59Z</time></trkpt>
<trkpt lat="26.428388" lon="100.184844">
<time>2015-08-27T14:58:00Z</time></trkpt>
<trkpt lat="26.428169" lon="100.184985">
<time>2015-08-27T14:58:01Z</time></trkpt>
<trkpt lat="26.427939" lon="100.185095">
<time>2015-08-27T14:58:02Z</time></trkpt>
<trkpt lat="26.427749" lon="100.185195">
<time>2015-08-27T14:58:03Z</time></trkpt>
<trkpt lat="26.427529" lon="100.185285">
<time>2015-08-27T14:58:04Z</time></trkpt>
<trkpt lat="26.427319" lon="100.185325">
<time>2015-08-27T14:58:05Z</time></trkpt>
<trkpt lat="26.427189" lon="100.185335">
<time>2015-08-27T14:58:06Z</time></trkpt>
<trkpt lat="26.427059" lon="100.185345">
<time>2015-08-27T14:58:07Z</time></trkpt>
<trkpt lat="26.426809" lon="100.185366">
<time>2015-08-27T14:58:08Z</time></trkpt>
<trkpt lat="26.426509" lon="100.185356">
<time>2015-08-27T14:58:09Z</time></trkpt>
<trkpt lat="26.426279" lon="100.185345">
<time>2015-08-27T14:58:10Z</time></trkpt>
<trkpt lat="26.425968" lon="100.185335">
<time>2015-08-27T14:58:11Z</time></trkpt>
<trkpt lat="26.425668" lon="100.185285">
<time>2015-08-27T14:58:12Z</time></trkpt>
<trkpt lat="26.425378" lon="100.185205">
<time>2015-08-27T14:58:13Z</time></trkpt>
<trkpt lat="26.425068" lon="100.185095">
<time>2015-08-27T14:58:14Z</time></trkpt>
<trkpt lat="26.424727" lon="100.184975">
<time>2015-08-27T14:58:15Z</time></trkpt>
<trkpt lat="26.424357" lon="100.184845">
<time>2015-08-27T14:58:16Z</time></trkpt>
<trkpt lat="26.423977" lon="100.184714">
<time>2015-08-27T14:58:17Z</time></trkpt>
<trkpt lat="26.423606" lon="100.184574">
<time>2015-08-27T14:58:18Z</time></trkpt>
<trkpt lat="26.423236" lon="100.184454">
<time>2015-08-27T14:58:19Z</time></trkpt>
<trkpt lat="26.422936" lon="100.184344">
<time>2015-08-27T14:58:20Z</time></trkpt>
<trkpt lat="26.422585" lon="100.184213">
<time>2015-08-27T14:58:21Z</time></trkpt>
<trkpt lat="26.422285" lon="100.184103">
<time>2015-08-27T14:58:22Z</time></trkpt>
<trkpt lat="26.421975" lon="100.183993">
<time>2015-08-27T14:58:23Z</time></trkpt>
<trkpt lat="26.421734" lon="100.183913">
<time>2015-08-27T14:58:24Z</time></trkpt>
<trkpt lat="26.421434" lon="100.183873">
<time>2015-08-27T14:58:25Z</time></trkpt>
<trkpt lat="26.421134" lon="100.183893">
<time>2015-08-27T14:58:26Z</time></trkpt>
<trkpt lat="26.420864" lon="100.183953">
<time>2015-08-27T14:58:27Z</time></trkpt>
<trkpt lat="26.420614" lon="100.184063">
<time>2015-08-27T14:58:28Z</time></trkpt>
<trkpt lat="26.420374" lon="100.184173">
<time>2015-08-27T14:58:29Z</time></trkpt>
<trkpt lat="26.420134" lon="100.184283">
<time>2015-08-27T14:58:30Z</time></trkpt>
<trkpt lat="26.419905" lon="100.184414">
<time>2015-08-27T14:58:31Z</time></trkpt>
<trkpt lat="26.419655" lon="100.184514">
<time>2015-08-27T14:58:32Z</time></trkpt>
<trkpt lat="26.419435" lon="100.184634">
<time>2015-08-27T14:58:33Z</time></trkpt>
<trkpt lat="26.419205" lon="100.184744">
<time>2015-08-27T14:58:34Z</time></trkpt>
<trkpt lat="26.418965" lon="100.184855">
<time>2015-08-27T14:58:35Z</time></trkpt>
<trkpt lat="26.418745" lon="100.184965">
<time>2015-08-27T14:58:36Z</time></trkpt>
<trkpt lat="26.418705" lon="100.184985">
<time>2015-08-27T14:58:37Z</time></trkpt>
<trkpt lat="26.418515" lon="100.185075">
<time>2015-08-27T14:58:38Z</time></trkpt>
<trkpt lat="26.418335" lon="100.185205">
<time>2015-08-27T14:58:39Z</time></trkpt>
<trkpt lat="26.418176" lon="100.185346">
<time>2015-08-27T14:58:40Z</time></trkpt>
<trkpt lat="26.418026" lon="100.185516">
<time>2015-08-27T14:58:41Z</time></trkpt>
<trkpt lat="26.417866" lon="100.185757">
<time>2015-08-27T14:58:42Z</time></trkpt>
<trkpt lat="26.417717" lon="100.186007">
<time>2015-08-27T14:58:43Z</time></trkpt>
<trkpt lat="26.417587" lon="100.186238">
<time>2015-08-27T14:58:44Z</time></trkpt>
<trkpt lat="26.417457" lon="100.186488">
<time>2015-08-27T14:58:45Z</time></trkpt>
<trkpt lat="26.417328" lon="100.186708">
<time>2015-08-27T14:58:46Z</time></trkpt>
<trkpt lat="26.417248" lon="100.186809">
<time>2015-08-27T14:58:47Z</time></trkpt>
<trkpt lat="26.417148" lon="100.186909">
<time>2015-08-27T14:58:48Z</time></trkpt>
<trkpt lat="26.416938" lon="100.187059">
<time>2015-08-27T14:58:49Z</time></trkpt>
<trkpt lat="26.416828" lon="100.187119">
<time>2015-08-27T14:58:50Z</time></trkpt>
<trkpt lat="26.416688" lon="100.187189">
<time>2015-08-27T14:58:51Z</time></trkpt>
<trkpt lat="26.416408" lon="100.18729">
<time>2015-08-27T14:58:52Z</time></trkpt>
<trkpt lat="26.416139" lon="100.18739">
<time>2015-08-27T14:58:53Z</time></trkpt>
<trkpt lat="26.415919" lon="100.18747">
<time>2015-08-27T14:58:54Z</time></trkpt>
<trkpt lat="26.415789" lon="100.18751">
<time>2015-08-27T14:58:55Z</time></trkpt>
<trkpt lat="26.415669" lon="100.18755">
<time>2015-08-27T14:58:56Z</time></trkpt>
<trkpt lat="26.415569" lon="100.18758">
<time>2015-08-27T14:58:57Z</time></trkpt>
<trkpt lat="26.415469" lon="100.1876">
<time>2015-08-27T14:58:58Z</time></trkpt>
<trkpt lat="26.415379" lon="100.18761">
<time>2015-08-27T14:58:59Z</time></trkpt>
<trkpt lat="26.415249" lon="100.18761">
<time>2015-08-27T14:59:00Z</time></trkpt>
<trkpt lat="26.415139" lon="100.18759">
<time>2015-08-27T14:59:01Z</time></trkpt>
<trkpt lat="26.415119" lon="100.18759">
<time>2015-08-27T14:59:02Z</time></trkpt>
<trkpt lat="26.415008" lon="100.18756">
<time>2015-08-27T14:59:03Z</time></trkpt>
<trkpt lat="26.414928" lon="100.18753">
<time>2015-08-27T14:59:04Z</time></trkpt>
<trkpt lat="26.414838" lon="100.18749">
<time>2015-08-27T14:59:05Z</time></trkpt>
<trkpt lat="26.414708" lon="100.18741">
<time>2015-08-27T14:59:06Z</time></trkpt>
<trkpt lat="26.414558" lon="100.18732">
<time>2015-08-27T14:59:07Z</time></trkpt>
<trkpt lat="26.414267" lon="100.187129">
<time>2015-08-27T14:59:08Z</time></trkpt>
<trkpt lat="26.414037" lon="100.186969">
<time>2015-08-27T14:59:09Z</time></trkpt>
<trkpt lat="26.413977" lon="100.186939">
<time>2015-08-27T14:59:10Z</time></trkpt>
<trkpt lat="26.413877" lon="100.186859">
<time>2015-08-27T14:59:11Z</time></trkpt>
<trkpt lat="26.413416" lon="100.186548">
<time>2015-08-27T14:59:12Z</time></trkpt>
<trkpt lat="26.413136" lon="100.186328">
<time>2015-08-27T14:59:13Z</time></trkpt>
<trkpt lat="26.412795" lon="100.186067">
<time>2015-08-27T14:59:14Z</time></trkpt>
<trkpt lat="26.412534" lon="100.185857">
<time>2015-08-27T14:59:15Z</time></trkpt>
<trkpt lat="26.412234" lon="100.185626">
<time>2015-08-27T14:59:16Z</time></trkpt>
<trkpt lat="26.412014" lon="100.185466">
<time>2015-08-27T14:59:17Z</time></trkpt>
<trkpt lat="26.411953" lon="100.185426">
<time>2015-08-27T14:59:18Z</time></trkpt>
<trkpt lat="26.411703" lon="100.185266">
<time>2015-08-27T14:59:19Z</time></trkpt>
<trkpt lat="26.411563" lon="100.185186">
<time>2015-08-27T14:59:20Z</time></trkpt>
<trkpt lat="26.411473" lon="100.185155">
<time>2015-08-27T14:59:21Z</time></trkpt>
<trkpt lat="26.411393" lon="100.185125">
<time>2015-08-27T14:59:22Z</time></trkpt>
<trkpt lat="26.411323" lon="100.185115">
<time>2015-08-27T14:59:23Z</time></trkpt>
<trkpt lat="26.411293" lon="100.185115">
<time>2015-08-27T14:59:24Z</time></trkpt>
<trkpt lat="26.411223" lon="100.185125">
<time>2015-08-27T14:59:25Z</time></trkpt>
<trkpt lat="26.411123" lon="100.185145">
<time>2015-08-27T14:59:26Z</time></trkpt>
<trkpt lat="26.411043" lon="100.185176">
<time>2015-08-27T14:59:27Z</time></trkpt>
<trkpt lat="26.410983" lon="100.185216">
<time>2015-08-27T14:59:28Z</time></trkpt>
<trkpt lat="26.410913" lon="100.185276">
<time>2015-08-27T14:59:29Z</time></trkpt>
<trkpt lat="26.410833" lon="100.185366">
<time>2015-08-27T14:59:30Z</time></trkpt>
<trkpt lat="26.410713" lon="100.185516">
<time>2015-08-27T14:59:31Z</time></trkpt>
<trkpt lat="26.410534" lon="100.185787">
<time>2015-08-27T14:59:32Z</time></trkpt>
<trkpt lat="26.410434" lon="100.185967">
<time>2015-08-27T14:59:33Z</time></trkpt>
<trkpt lat="26.410265" lon="100.186378">
<time>2015-08-27T14:59:34Z</time></trkpt>
<trkpt lat="26.410225" lon="100.186468">
<time>2015-08-27T14:59:35Z</time></trkpt>
<trkpt lat="26.410125" lon="100.186789">
<time>2015-08-27T14:59:36Z</time></trkpt>
<trkpt lat="26.410056" lon="100.187039">
<time>2015-08-27T14:59:37Z</time></trkpt>
<trkpt lat="26.410016" lon="100.18715">
<time>2015-08-27T14:59:38Z</time></trkpt>
<trkpt lat="26.409926" lon="100.18737">
<time>2015-08-27T14:59:39Z</time></trkpt>
<trkpt lat="26.409826" lon="100.18755">
<time>2015-08-27T14:59:40Z</time></trkpt>
<trkpt lat="26.409707" lon="100.187721">
<time>2015-08-27T14:59:41Z</time></trkpt>
<trkpt lat="26.409607" lon="100.187841">
<time>2015-08-27T14:59:42Z</time></trkpt>
<trkpt lat="26.409497" lon="100.187941">
<time>2015-08-27T14:59:43Z</time></trkpt>
<trkpt lat="26.409377" lon="100.188041">
<time>2015-08-27T14:59:44Z</time></trkpt>
<trkpt lat="26.409277" lon="100.188121">
<time>2015-08-27T14:59:45Z</time></trkpt>
<trkpt lat="26.409107" lon="100.188242">
<time>2015-08-27T14:59:46Z</time></trkpt>
<trkpt lat="26.408988" lon="100.188312">
<time>2015-08-27T14:59:47Z</time></trkpt>
<trkpt lat="26.408868" lon="100.188392">
<time>2015-08-27T14:59:48Z</time></trkpt>
<trkpt lat="26.408698" lon="100.188492">
<time>2015-08-27T14:59:49Z</time></trkpt>
<trkpt lat="26.408538" lon="100.188592">
<time>2015-08-27T14:59:50Z</time></trkpt>
<trkpt lat="26.408288" lon="100.188743">
<time>2015-08-27T14:59:51Z</time></trkpt>
<trkpt lat="26.408128" lon="100.188833">
<time>2015-08-27T14:59:52Z</time></trkpt>
<trkpt lat="26.407988" lon="100.188893">
<time>2015-08-27T14:59:53Z</time></trkpt>
<trkpt lat="26.407908" lon="100.188933">
<time>2015-08-27T14:59:54Z</time></trkpt>
<trkpt lat="26.407728" lon="100.189003">
<time>2015-08-27T14:59:55Z</time></trkpt>
<trkpt lat="26.407588" lon="100.189043">
<time>2015-08-27T14:59:56Z</time></trkpt>
<trkpt lat="26.407388" lon="100.189093">
<time>2015-08-27T14:59:57Z</time></trkpt>
<trkpt lat="26.407188" lon="100.189123">
<time>2015-08-27T14:59:58Z</time></trkpt>
<trkpt lat="26.406888" lon="100.189164">
<time>2015-08-27T14:59:59Z</time></trkpt>
<trkpt lat="26.406518" lon="100.189204">
<time>2015-08-27T15:00:00Z</time></trkpt>
<trkpt lat="26.406218" lon="100.189244">
<time>2015-08-27T15:00:01Z</time></trkpt>
<trkpt lat="26.405898" lon="100.189284">
<time>2015-08-27T15:00:02Z</time></trkpt>
<trkpt lat="26.405528" lon="100.189324">
<time>2015-08-27T15:00:03Z</time></trkpt>
<trkpt lat="26.405168" lon="100.189364">
<time>2015-08-27T15:00:04Z</time></trkpt>
<trkpt lat="26.404848" lon="100.189404">
<time>2015-08-27T15:00:05Z</time></trkpt>
<trkpt lat="26.404758" lon="100.189414">
<time>2015-08-27T15:00:06Z</time></trkpt>
<trkpt lat="26.404488" lon="100.189444">
<time>2015-08-27T15:00:07Z</time></trkpt>
<trkpt lat="26.404308" lon="100.189484">
<time>2015-08-27T15:00:08Z</time></trkpt>
<trkpt lat="26.404098" lon="100.189524">
<time>2015-08-27T15:00:09Z</time></trkpt>
<trkpt lat="26.403778" lon="100.189635">
<time>2015-08-27T15:00:10Z</time></trkpt>
<trkpt lat="26.403488" lon="100.189765">
<time>2015-08-27T15:00:11Z</time></trkpt>
<trkpt lat="26.403128" lon="100.189965">
<time>2015-08-27T15:00:12Z</time></trkpt>
<trkpt lat="26.402838" lon="100.190146">
<time>2015-08-27T15:00:13Z</time></trkpt>
<trkpt lat="26.402509" lon="100.190336">
<time>2015-08-27T15:00:14Z</time></trkpt>
<trkpt lat="26.402209" lon="100.190516">
<time>2015-08-27T15:00:15Z</time></trkpt>
<trkpt lat="26.401909" lon="100.190697">
<time>2015-08-27T15:00:16Z</time></trkpt>
<trkpt lat="26.401729" lon="100.190807">
<time>2015-08-27T15:00:17Z</time></trkpt>
<trkpt lat="26.401589" lon="100.190897">
<time>2015-08-27T15:00:18Z</time></trkpt>
<trkpt lat="26.401319" lon="100.191108">
<time>2015-08-27T15:00:19Z</time></trkpt>
<trkpt lat="26.40109" lon="100.191308">
<time>2015-08-27T15:00:20Z</time></trkpt>
<trkpt lat="26.40099" lon="100.191408">
<time>2015-08-27T15:00:21Z</time></trkpt>
<trkpt lat="26.40081" lon="100.191598">
<time>2015-08-27T15:00:22Z</time></trkpt>
<trkpt lat="26.40064" lon="100.191779">
<time>2015-08-27T15:00:23Z</time></trkpt>
<trkpt lat="26.400411" lon="100.191999">
<time>2015-08-27T15:00:24Z</time></trkpt>
<trkpt lat="26.400191" lon="100.19224">
<time>2015-08-27T15:00:25Z</time></trkpt>
<trkpt lat="26.400061" lon="100.19237">
<time>2015-08-27T15:00:26Z</time></trkpt>
<trkpt lat="26.400051" lon="100.19238">
<time>2015-08-27T15:00:27Z</time></trkpt>
<trkpt lat="26.399971" lon="100.19245">
<time>2015-08-27T15:00:28Z</time></trkpt>
<trkpt lat="26.399861" lon="100.19254">
<time>2015-08-27T15:00:29Z</time></trkpt>
<trkpt lat="26.399741" lon="100.19263">
<time>2015-08-27T15:00:30Z</time></trkpt>
<trkpt lat="26.399612" lon="100.192731">
<time>2015-08-27T15:00:31Z</time></trkpt>
<trkpt lat="26.399472" lon="100.192811">
<time>2015-08-27T15:00:32Z</time></trkpt>
<trkpt lat="26.399312" lon="100.192901">
<time>2015-08-27T15:00:33Z</time></trkpt>
<trkpt lat="26.397123" lon="100.193963">
<time>2015-08-27T15:00:34Z</time></trkpt>
<trkpt lat="26.396863" lon="100.194083">
<time>2015-08-27T15:00:35Z</time></trkpt>
<trkpt lat="26.396663" lon="100.194163">
<time>2015-08-27T15:00:36Z</time></trkpt>
<trkpt lat="26.396513" lon="100.194214">
<time>2015-08-27T15:00:37Z</time></trkpt>
<trkpt lat="26.396393" lon="100.194224">
<time>2015-08-27T15:00:38Z</time></trkpt>
<trkpt lat="26.396243" lon="100.194244">
<time>2015-08-27T15:00:39Z</time></trkpt>
<trkpt lat="26.396113" lon="100.194234">
<time>2015-08-27T15:00:40Z</time></trkpt>
<trkpt lat="26.395943" lon="100.194224">
<time>2015-08-27T15:00:41Z</time></trkpt>
<trkpt lat="26.395743" lon="100.194204">
<time>2015-08-27T15:00:42Z</time></trkpt>
<trkpt lat="26.395552" lon="100.194173">
<time>2015-08-27T15:00:43Z</time></trkpt>
<trkpt lat="26.395362" lon="100.194153">
<time>2015-08-27T15:00:44Z</time></trkpt>
<trkpt lat="26.395082" lon="100.194123">
<time>2015-08-27T15:00:45Z</time></trkpt>
<trkpt lat="26.394972" lon="100.194123">
<time>2015-08-27T15:00:46Z</time></trkpt>
<trkpt lat="26.394842" lon="100.194123">
<time>2015-08-27T15:00:47Z</time></trkpt>
<trkpt lat="26.394782" lon="100.194133">
<time>2015-08-27T15:00:48Z</time></trkpt>
<trkpt lat="26.394682" lon="100.194153">
<time>2015-08-27T15:00:49Z</time></trkpt>
<trkpt lat="26.394582" lon="100.194194">
<time>2015-08-27T15:00:50Z</time></trkpt>
<trkpt lat="26.394512" lon="100.194234">
<time>2015-08-27T15:00:51Z</time></trkpt>
<trkpt lat="26.394442" lon="100.194284">
<time>2015-08-27T15:00:52Z</time></trkpt>
<trkpt lat="26.394362" lon="100.194354">
<time>2015-08-27T15:00:53Z</time></trkpt>
<trkpt lat="26.394322" lon="100.194384">
<time>2015-08-27T15:00:54Z</time></trkpt>
<trkpt lat="26.394222" lon="100.194494">
<time>2015-08-27T15:00:55Z</time></trkpt>
<trkpt lat="26.394063" lon="100.194674">
<time>2015-08-27T15:00:56Z</time></trkpt>
<trkpt lat="26.393913" lon="100.194845">
<time>2015-08-27T15:00:57Z</time></trkpt>
<trkpt lat="26.393733" lon="100.195055">
<time>2015-08-27T15:00:58Z</time></trkpt>
<trkpt lat="26.393474" lon="100.195356">
<time>2015-08-27T15:00:59Z</time></trkpt>
<trkpt lat="26.393274" lon="100.195586">
<time>2015-08-27T15:01:00Z</time></trkpt>
<trkpt lat="26.393074" lon="100.195827">
<time>2015-08-27T15:01:01Z</time></trkpt>
<trkpt lat="26.392884" lon="100.196047">
<time>2015-08-27T15:01:02Z</time></trkpt>
<trkpt lat="26.392795" lon="100.196137">
<time>2015-08-27T15:01:03Z</time></trkpt>
<trkpt lat="26.392725" lon="100.196197">
<time>2015-08-27T15:01:04Z</time></trkpt>
<trkpt lat="26.392635" lon="100.196277">
<time>2015-08-27T15:01:05Z</time></trkpt>
<trkpt lat="26.392535" lon="100.196338">
<time>2015-08-27T15:01:06Z</time></trkpt>
<trkpt lat="26.392435" lon="100.196388">
<time>2015-08-27T15:01:07Z</time></trkpt>
<trkpt lat="26.392315" lon="100.196438">
<time>2015-08-27T15:01:08Z</time></trkpt>
<trkpt lat="26.392235" lon="100.196458">
<time>2015-08-27T15:01:09Z</time></trkpt>
<trkpt lat="26.392155" lon="100.196468">
<time>2015-08-27T15:01:10Z</time></trkpt>
<trkpt lat="26.392065" lon="100.196478">
<time>2015-08-27T15:01:11Z</time></trkpt>
<trkpt lat="26.391945" lon="100.196468">
<time>2015-08-27T15:01:12Z</time></trkpt>
<trkpt lat="26.391795" lon="100.196448">
<time>2015-08-27T15:01:13Z</time></trkpt>
<trkpt lat="26.391655" lon="100.196408">
<time>2015-08-27T15:01:14Z</time></trkpt>
<trkpt lat="26.391504" lon="100.196358">
<time>2015-08-27T15:01:15Z</time></trkpt>
<trkpt lat="26.391164" lon="100.196237">
<time>2015-08-27T15:01:16Z</time></trkpt>
<trkpt lat="26.390884" lon="100.196147">
<time>2015-08-27T15:01:17Z</time></trkpt>
<trkpt lat="26.390584" lon="100.196057">
<time>2015-08-27T15:01:18Z</time></trkpt>
<trkpt lat="26.390293" lon="100.195957">
<time>2015-08-27T15:01:19Z</time></trkpt>
<trkpt lat="26.389953" lon="100.195857">
<time>2015-08-27T15:01:20Z</time></trkpt>
<trkpt lat="26.389693" lon="100.195767">
<time>2015-08-27T15:01:21Z</time></trkpt>
<trkpt lat="26.389382" lon="100.195666">
<time>2015-08-27T15:01:22Z</time></trkpt>
<trkpt lat="26.389082" lon="100.195566">
<time>2015-08-27T15:01:23Z</time></trkpt>
<trkpt lat="26.388882" lon="100.195496">
<time>2015-08-27T15:01:24Z</time></trkpt>
<trkpt lat="26.388712" lon="100.195446">
<time>2015-08-27T15:01:25Z</time></trkpt>
<trkpt lat="26.388542" lon="100.195416">
<time>2015-08-27T15:01:26Z</time></trkpt>
<trkpt lat="26.388452" lon="100.195406">
<time>2015-08-27T15:01:27Z</time></trkpt>
<trkpt lat="26.388362" lon="100.195406">
<time>2015-08-27T15:01:28Z</time></trkpt>
<trkpt lat="26.388262" lon="100.195416">
<time>2015-08-27T15:01:29Z</time></trkpt>
<trkpt lat="26.388162" lon="100.195436">
<time>2015-08-27T15:01:30Z</time></trkpt>
<trkpt lat="26.388042" lon="100.195476">
<time>2015-08-27T15:01:31Z</time></trkpt>
<trkpt lat="26.387932" lon="100.195526">
<time>2015-08-27T15:01:32Z</time></trkpt>
<trkpt lat="26.387792" lon="100.195606">
<time>2015-08-27T15:01:33Z</time></trkpt>
<trkpt lat="26.387652" lon="100.195686">
<time>2015-08-27T15:01:34Z</time></trkpt>
<trkpt lat="26.387502" lon="100.195797">
<time>2015-08-27T15:01:35Z</time></trkpt>
<trkpt lat="26.387402" lon="100.195867">
<time>2015-08-27T15:01:36Z</time></trkpt>
<trkpt lat="26.387222" lon="100.195987">
<time>2015-08-27T15:01:37Z</time></trkpt>
<trkpt lat="26.387022" lon="100.196117">
<time>2015-08-27T15:01:38Z</time></trkpt>
<trkpt lat="26.386832" lon="100.196238">
<time>2015-08-27T15:01:39Z</time></trkpt>
<trkpt lat="26.386732" lon="100.196288">
<time>2015-08-27T15:01:40Z</time></trkpt>
<trkpt lat="26.386632" lon="100.196328">
<time>2015-08-27T15:01:41Z</time></trkpt>
<trkpt lat="26.386552" lon="100.196358">
<time>2015-08-27T15:01:42Z</time></trkpt>
<trkpt lat="26.386452" lon="100.196378">
<time>2015-08-27T15:01:43Z</time></trkpt>
<trkpt lat="26.386342" lon="100.196388">
<time>2015-08-27T15:01:44Z</time></trkpt>
<trkpt lat="26.386252" lon="100.196398">
<time>2015-08-27T15:01:45Z</time></trkpt>
<trkpt lat="26.386152" lon="100.196378">
<time>2015-08-27T15:01:46Z</time></trkpt>
<trkpt lat="26.386062" lon="100.196358">
<time>2015-08-27T15:01:47Z</time></trkpt>
<trkpt lat="26.385962" lon="100.196328">
<time>2015-08-27T15:01:48Z</time></trkpt>
<trkpt lat="26.385882" lon="100.196288">
<time>2015-08-27T15:01:49Z</time></trkpt>
<trkpt lat="26.385792" lon="100.196238">
<time>2015-08-27T15:01:50Z</time></trkpt>
<trkpt lat="26.385702" lon="100.196167">
<time>2015-08-27T15:01:51Z</time></trkpt>
<trkpt lat="26.385632" lon="100.196107">
<time>2015-08-27T15:01:52Z</time></trkpt>
<trkpt lat="26.385561" lon="100.196027">
<time>2015-08-27T15:01:53Z</time></trkpt>
<trkpt lat="26.385511" lon="100.195957">
<time>2015-08-27T15:01:54Z</time></trkpt>
<trkpt lat="26.385411" lon="100.195807">
<time>2015-08-27T15:01:55Z</time></trkpt>
<trkpt lat="26.385331" lon="100.195667">
<time>2015-08-27T15:01:56Z</time></trkpt>
<trkpt lat="26.38526" lon="100.195506">
<time>2015-08-27T15:01:57Z</time></trkpt>
<trkpt lat="26.38525" lon="100.195476">
<time>2015-08-27T15:01:58Z</time></trkpt>
<trkpt lat="26.3852" lon="100.195376">
<time>2015-08-27T15:01:59Z</time></trkpt>
<trkpt lat="26.38516" lon="100.195266">
<time>2015-08-27T15:02:00Z</time></trkpt>
<trkpt lat="26.38512" lon="100.195156">
<time>2015-08-27T15:02:01Z</time></trkpt>
<trkpt lat="26.38509" lon="100.195045">
<time>2015-08-27T15:02:02Z</time></trkpt>
<trkpt lat="26.385069" lon="100.194935">
<time>2015-08-27T15:02:03Z</time></trkpt>
<trkpt lat="26.385039" lon="100.194795">
<time>2015-08-27T15:02:04Z</time></trkpt>
<trkpt lat="26.385029" lon="100.194685">
<time>2015-08-27T15:02:05Z</time></trkpt>
<trkpt lat="26.385009" lon="100.194414">
<time>2015-08-27T15:02:06Z</time></trkpt>
<trkpt lat="26.384998" lon="100.194254">
<time>2015-08-27T15:02:07Z</time></trkpt>
<trkpt lat="26.385008" lon="100.194104">
<time>2015-08-27T15:02:08Z</time></trkpt>
<trkpt lat="26.385018" lon="100.193953">
<time>2015-08-27T15:02:09Z</time></trkpt>
<trkpt lat="26.385067" lon="100.193763">
<time>2015-08-27T15:02:10Z</time></trkpt>
<trkpt lat="26.385087" lon="100.193693">
<time>2015-08-27T15:02:11Z</time></trkpt>
<trkpt lat="26.385137" lon="100.193563">
<time>2015-08-27T15:02:12Z</time></trkpt>
<trkpt lat="26.385237" lon="100.193282">
<time>2015-08-27T15:02:13Z</time></trkpt>
<trkpt lat="26.385287" lon="100.193162">
<time>2015-08-27T15:02:14Z</time></trkpt>
<trkpt lat="26.385326" lon="100.193002">
<time>2015-08-27T15:02:15Z</time></trkpt>
<trkpt lat="26.385356" lon="100.192851">
<time>2015-08-27T15:02:16Z</time></trkpt>
<trkpt lat="26.385366" lon="100.192671">
<time>2015-08-27T15:02:17Z</time></trkpt>
<trkpt lat="26.385366" lon="100.192611">
<time>2015-08-27T15:02:18Z</time></trkpt>
<trkpt lat="26.385365" lon="100.192521">
<time>2015-08-27T15:02:19Z</time></trkpt>
<trkpt lat="26.385345" lon="100.19235">
<time>2015-08-27T15:02:20Z</time></trkpt>
<trkpt lat="26.385295" lon="100.19217">
<time>2015-08-27T15:02:21Z</time></trkpt>
<trkpt lat="26.385235" lon="100.19202">
<time>2015-08-27T15:02:22Z</time></trkpt>
<trkpt lat="26.385184" lon="100.191929">
<time>2015-08-27T15:02:23Z</time></trkpt>
<trkpt lat="26.385114" lon="100.191809">
<time>2015-08-27T15:02:24Z</time></trkpt>
<trkpt lat="26.385044" lon="100.191719">
<time>2015-08-27T15:02:25Z</time></trkpt>
<trkpt lat="26.384934" lon="100.191599">
<time>2015-08-27T15:02:26Z</time></trkpt>
<trkpt lat="26.384703" lon="100.191398">
<time>2015-08-27T15:02:27Z</time></trkpt>
<trkpt lat="26.384693" lon="100.191388">
<time>2015-08-27T15:02:28Z</time></trkpt>
<trkpt lat="26.384483" lon="100.191208">
<time>2015-08-27T15:02:29Z</time></trkpt>
<trkpt lat="26.384292" lon="100.191038">
<time>2015-08-27T15:02:30Z</time></trkpt>
<trkpt lat="26.384092" lon="100.190867">
<time>2015-08-27T15:02:31Z</time></trkpt>
<trkpt lat="26.383872" lon="100.190687">
<time>2015-08-27T15:02:32Z</time></trkpt>
<trkpt lat="26.383651" lon="100.190497">
<time>2015-08-27T15:02:33Z</time></trkpt>
<trkpt lat="26.383451" lon="100.190326">
<time>2015-08-27T15:02:34Z</time></trkpt>
<trkpt lat="26.38324" lon="100.190146">
<time>2015-08-27T15:02:35Z</time></trkpt>
<trkpt lat="26.3831" lon="100.190036">
<time>2015-08-27T15:02:36Z</time></trkpt>
<trkpt lat="26.38296" lon="100.189946">
<time>2015-08-27T15:02:37Z</time></trkpt>
<trkpt lat="26.38286" lon="100.189896">
<time>2015-08-27T15:02:38Z</time></trkpt>
<trkpt lat="26.38279" lon="100.189866">
<time>2015-08-27T15:02:39Z</time></trkpt>
<trkpt lat="26.3825" lon="100.189775">
<time>2015-08-27T15:02:40Z</time></trkpt>
<trkpt lat="26.3822" lon="100.189926">
<time>2015-08-27T15:02:41Z</time></trkpt>
<trkpt lat="26.38202" lon="100.190056">
<time>2015-08-27T15:02:42Z</time></trkpt>
<trkpt lat="26.38181" lon="100.190226">
<time>2015-08-27T15:02:43Z</time></trkpt>
<trkpt lat="26.38158" lon="100.190427">
<time>2015-08-27T15:02:44Z</time></trkpt>
<trkpt lat="26.38142" lon="100.190577">
<time>2015-08-27T15:02:45Z</time></trkpt>
<trkpt lat="26.380212" lon="100.191669">
<time>2015-08-27T15:02:46Z</time></trkpt>
<trkpt lat="26.379253" lon="100.192521">
<time>2015-08-27T15:02:47Z</time></trkpt>
<trkpt lat="26.37251" lon="100.198582">
<time>2015-08-27T15:02:48Z</time></trkpt>
<trkpt lat="26.371951" lon="100.199083">
<time>2015-08-27T15:02:49Z</time></trkpt>
<trkpt lat="26.371671" lon="100.199333">
<time>2015-08-27T15:02:50Z</time></trkpt>
<trkpt lat="26.371401" lon="100.199574">
<time>2015-08-27T15:02:51Z</time></trkpt>
<trkpt lat="26.371091" lon="100.199844">
<time>2015-08-27T15:02:52Z</time></trkpt>
<trkpt lat="26.370912" lon="100.200015">
<time>2015-08-27T15:02:53Z</time></trkpt>
<trkpt lat="26.370762" lon="100.200145">
<time>2015-08-27T15:02:54Z</time></trkpt>
<trkpt lat="26.370632" lon="100.200235">
<time>2015-08-27T15:02:55Z</time></trkpt>
<trkpt lat="26.370462" lon="100.200325">
<time>2015-08-27T15:02:56Z</time></trkpt>
<trkpt lat="26.370332" lon="100.200365">
<time>2015-08-27T15:02:57Z</time></trkpt>
<trkpt lat="26.370172" lon="100.200405">
<time>2015-08-27T15:02:58Z</time></trkpt>
<trkpt lat="26.368651" lon="100.200536">
<time>2015-08-27T15:02:59Z</time></trkpt>
<trkpt lat="26.368341" lon="100.200576">
<time>2015-08-27T15:03:00Z</time></trkpt>
<trkpt lat="26.368031" lon="100.200636">
<time>2015-08-27T15:03:01Z</time></trkpt>
<trkpt lat="26.367721" lon="100.200696">
<time>2015-08-27T15:03:02Z</time></trkpt>
<trkpt lat="26.367271" lon="100.200806">
<time>2015-08-27T15:03:03Z</time></trkpt>
<trkpt lat="26.367011" lon="100.200886">
<time>2015-08-27T15:03:04Z</time></trkpt>
<trkpt lat="26.366681" lon="100.200986">
<time>2015-08-27T15:03:05Z</time></trkpt>
<trkpt lat="26.366431" lon="100.201047">
<time>2015-08-27T15:03:06Z</time></trkpt>
<trkpt lat="26.366081" lon="100.201147">
<time>2015-08-27T15:03:07Z</time></trkpt>
<trkpt lat="26.365701" lon="100.201247">
<time>2015-08-27T15:03:08Z</time></trkpt>
<trkpt lat="26.365181" lon="100.201357">
<time>2015-08-27T15:03:09Z</time></trkpt>
<trkpt lat="26.363201" lon="100.201678">
<time>2015-08-27T15:03:10Z</time></trkpt>
<trkpt lat="26.363081" lon="100.201698">
<time>2015-08-27T15:03:11Z</time></trkpt>
<trkpt lat="26.362821" lon="100.201748">
<time>2015-08-27T15:03:12Z</time></trkpt>
<trkpt lat="26.362821" lon="100.201748">
<time>2015-08-27T15:03:13Z</time></trkpt>
<trkpt lat="26.362791" lon="100.201738">
<time>2015-08-27T15:03:14Z</time></trkpt>
<trkpt lat="26.362721" lon="100.201758">
<time>2015-08-27T15:03:15Z</time></trkpt>
<trkpt lat="26.362661" lon="100.201768">
<time>2015-08-27T15:03:16Z</time></trkpt>
<trkpt lat="26.362631" lon="100.201788">
<time>2015-08-27T15:03:17Z</time></trkpt>
<trkpt lat="26.36056" lon="100.202109">
<time>2015-08-27T15:03:18Z</time></trkpt>
<trkpt lat="26.3591" lon="100.202339">
<time>2015-08-27T15:03:19Z</time></trkpt>
<trkpt lat="26.35864" lon="100.202409">
<time>2015-08-27T15:03:20Z</time></trkpt>
<trkpt lat="26.35829" lon="100.202459">
<time>2015-08-27T15:03:21Z</time></trkpt>
<trkpt lat="26.35745" lon="100.202609">
<time>2015-08-27T15:03:22Z</time></trkpt>
<trkpt lat="26.35632" lon="100.2028">
<time>2015-08-27T15:03:23Z</time></trkpt>
<trkpt lat="26.354449" lon="100.2031">
<time>2015-08-27T15:03:24Z</time></trkpt>
<trkpt lat="26.353289" lon="100.203291">
<time>2015-08-27T15:03:25Z</time></trkpt>
<trkpt lat="26.350778" lon="100.203711">
<time>2015-08-27T15:03:26Z</time></trkpt>
<trkpt lat="26.349958" lon="100.203852">
<time>2015-08-27T15:03:27Z</time></trkpt>
<trkpt lat="26.348188" lon="100.204142">
<time>2015-08-27T15:03:28Z</time></trkpt>
<trkpt lat="26.346217" lon="100.204473">
<time>2015-08-27T15:03:29Z</time></trkpt>
<trkpt lat="26.345807" lon="100.204553">
<time>2015-08-27T15:03:30Z</time></trkpt>
<trkpt lat="26.345417" lon="100.204613">
<time>2015-08-27T15:03:31Z</time></trkpt>
<trkpt lat="26.345037" lon="100.204673">
<time>2015-08-27T15:03:32Z</time></trkpt>
<trkpt lat="26.344657" lon="100.204733">
<time>2015-08-27T15:03:33Z</time></trkpt>
<trkpt lat="26.344287" lon="100.204783">
<time>2015-08-27T15:03:34Z</time></trkpt>
<trkpt lat="26.344117" lon="100.204793">
<time>2015-08-27T15:03:35Z</time></trkpt>
<trkpt lat="26.343927" lon="100.204803">
<time>2015-08-27T15:03:36Z</time></trkpt>
<trkpt lat="26.343597" lon="100.204823">
<time>2015-08-27T15:03:37Z</time></trkpt>
<trkpt lat="26.343397" lon="100.204813">
<time>2015-08-27T15:03:38Z</time></trkpt>
<trkpt lat="26.343237" lon="100.204803">
<time>2015-08-27T15:03:39Z</time></trkpt>
<trkpt lat="26.338864" lon="100.204473">
<time>2015-08-27T15:03:40Z</time></trkpt>
<trkpt lat="26.338304" lon="100.204423">
<time>2015-08-27T15:03:41Z</time></trkpt>
<trkpt lat="26.338044" lon="100.204403">
<time>2015-08-27T15:03:42Z</time></trkpt>
<trkpt lat="26.337843" lon="100.204373">
<time>2015-08-27T15:03:43Z</time></trkpt>
<trkpt lat="26.337673" lon="100.204343">
<time>2015-08-27T15:03:44Z</time></trkpt>
<trkpt lat="26.337523" lon="100.204303">
<time>2015-08-27T15:03:45Z</time></trkpt>
<trkpt lat="26.337393" lon="100.204253">
<time>2015-08-27T15:03:46Z</time></trkpt>
<trkpt lat="26.337223" lon="100.204183">
<time>2015-08-27T15:03:47Z</time></trkpt>
<trkpt lat="26.337033" lon="100.204072">
<time>2015-08-27T15:03:48Z</time></trkpt>
<trkpt lat="26.336792" lon="100.203922">
<time>2015-08-27T15:03:49Z</time></trkpt>
<trkpt lat="26.33517" lon="100.20279">
<time>2015-08-27T15:03:50Z</time></trkpt>
<trkpt lat="26.333347" lon="100.201508">
<time>2015-08-27T15:03:51Z</time></trkpt>
<trkpt lat="26.332986" lon="100.201258">
<time>2015-08-27T15:03:52Z</time></trkpt>
<trkpt lat="26.332876" lon="100.201178">
<time>2015-08-27T15:03:53Z</time></trkpt>
<trkpt lat="26.332025" lon="100.200587">
<time>2015-08-27T15:03:54Z</time></trkpt>
<trkpt lat="26.331744" lon="100.200406">
<time>2015-08-27T15:03:55Z</time></trkpt>
<trkpt lat="26.331574" lon="100.200276">
<time>2015-08-27T15:03:56Z</time></trkpt>
<trkpt lat="26.331344" lon="100.200056">
<time>2015-08-27T15:03:57Z</time></trkpt>
<trkpt lat="26.331203" lon="100.199885">
<time>2015-08-27T15:03:58Z</time></trkpt>
<trkpt lat="26.331093" lon="100.199715">
<time>2015-08-27T15:03:59Z</time></trkpt>
<trkpt lat="26.330933" lon="100.199425">
<time>2015-08-27T15:04:00Z</time></trkpt>
<trkpt lat="26.330762" lon="100.199044">
<time>2015-08-27T15:04:01Z</time></trkpt>
<trkpt lat="26.330641" lon="100.198753">
<time>2015-08-27T15:04:02Z</time></trkpt>
<trkpt lat="26.330521" lon="100.198483">
<time>2015-08-27T15:04:03Z</time></trkpt>
<trkpt lat="26.3303" lon="100.197992">
<time>2015-08-27T15:04:04Z</time></trkpt>
<trkpt lat="26.330019" lon="100.197331">
<time>2015-08-27T15:04:05Z</time></trkpt>
<trkpt lat="26.329748" lon="100.19672">
<time>2015-08-27T15:04:06Z</time></trkpt>
<trkpt lat="26.329487" lon="100.196139">
<time>2015-08-27T15:04:07Z</time></trkpt>
<trkpt lat="26.329256" lon="100.195608">
<time>2015-08-27T15:04:08Z</time></trkpt>
<trkpt lat="26.328914" lon="100.194816">
<time>2015-08-27T15:04:09Z</time></trkpt>
<trkpt lat="26.328583" lon="100.194055">
<time>2015-08-27T15:04:10Z</time></trkpt>
<trkpt lat="26.328291" lon="100.193404">
<time>2015-08-27T15:04:11Z</time></trkpt>
<trkpt lat="26.32799" lon="100.192732">
<time>2015-08-27T15:04:12Z</time></trkpt>
<trkpt lat="26.327679" lon="100.192011">
<time>2015-08-27T15:04:13Z</time></trkpt>
<trkpt lat="26.327488" lon="100.19158">
<time>2015-08-27T15:04:14Z</time></trkpt>
<trkpt lat="26.327317" lon="100.19127">
<time>2015-08-27T15:04:15Z</time></trkpt>
<trkpt lat="26.327097" lon="100.190929">
<time>2015-08-27T15:04:16Z</time></trkpt>
<trkpt lat="26.326916" lon="100.190679">
<time>2015-08-27T15:04:17Z</time></trkpt>
<trkpt lat="26.326696" lon="100.190398">
<time>2015-08-27T15:04:18Z</time></trkpt>
<trkpt lat="26.326375" lon="100.190047">
<time>2015-08-27T15:04:19Z</time></trkpt>
<trkpt lat="26.326014" lon="100.189717">
<time>2015-08-27T15:04:20Z</time></trkpt>
<trkpt lat="26.325653" lon="100.189366">
<time>2015-08-27T15:04:21Z</time></trkpt>
<trkpt lat="26.325312" lon="100.189035">
<time>2015-08-27T15:04:22Z</time></trkpt>
<trkpt lat="26.324962" lon="100.188705">
<time>2015-08-27T15:04:23Z</time></trkpt>
<trkpt lat="26.324581" lon="100.188334">
<time>2015-08-27T15:04:24Z</time></trkpt>
<trkpt lat="26.32412" lon="100.187873">
<time>2015-08-27T15:04:25Z</time></trkpt>
<trkpt lat="26.323669" lon="100.187452">
<time>2015-08-27T15:04:26Z</time></trkpt>
<trkpt lat="26.323138" lon="100.186941">
<time>2015-08-27T15:04:27Z</time></trkpt>
<trkpt lat="26.322496" lon="100.18632">
<time>2015-08-27T15:04:28Z</time></trkpt>
<trkpt lat="26.321855" lon="100.185699">
<time>2015-08-27T15:04:29Z</time></trkpt>
<trkpt lat="26.321304" lon="100.185178">
<time>2015-08-27T15:04:30Z</time></trkpt>
<trkpt lat="26.320662" lon="100.184557">
<time>2015-08-27T15:04:31Z</time></trkpt>
<trkpt lat="26.320392" lon="100.184296">
<time>2015-08-27T15:04:32Z</time></trkpt>
<trkpt lat="26.320021" lon="100.183935">
<time>2015-08-27T15:04:33Z</time></trkpt>
<trkpt lat="26.31954" lon="100.183484">
<time>2015-08-27T15:04:34Z</time></trkpt>
<trkpt lat="26.319259" lon="100.183214">
<time>2015-08-27T15:04:35Z</time></trkpt>
<trkpt lat="26.319069" lon="100.183034">
<time>2015-08-27T15:04:36Z</time></trkpt>
<trkpt lat="26.318878" lon="100.182873">
<time>2015-08-27T15:04:37Z</time></trkpt>
<trkpt lat="26.318588" lon="100.182623">
<time>2015-08-27T15:04:38Z</time></trkpt>
<trkpt lat="26.318006" lon="100.182132">
<time>2015-08-27T15:04:39Z</time></trkpt>
<trkpt lat="26.317505" lon="100.181711">
<time>2015-08-27T15:04:40Z</time></trkpt>
<trkpt lat="26.317145" lon="100.1814">
<time>2015-08-27T15:04:41Z</time></trkpt>
<trkpt lat="26.316804" lon="100.18112">
<time>2015-08-27T15:04:42Z</time></trkpt>
<trkpt lat="26.316143" lon="100.180558">
<time>2015-08-27T15:04:43Z</time></trkpt>
<trkpt lat="26.315481" lon="100.180007">
<time>2015-08-27T15:04:44Z</time></trkpt>
<trkpt lat="26.31479" lon="100.179416">
<time>2015-08-27T15:04:45Z</time></trkpt>
<trkpt lat="26.314259" lon="100.178985">
<time>2015-08-27T15:04:46Z</time></trkpt>
<trkpt lat="26.314109" lon="100.178875">
<time>2015-08-27T15:04:47Z</time></trkpt>
<trkpt lat="26.313958" lon="100.178775">
<time>2015-08-27T15:04:48Z</time></trkpt>
<trkpt lat="26.313738" lon="100.178665">
<time>2015-08-27T15:04:49Z</time></trkpt>
<trkpt lat="26.313538" lon="100.178574">
<time>2015-08-27T15:04:50Z</time></trkpt>
<trkpt lat="26.313287" lon="100.178484">
<time>2015-08-27T15:04:51Z</time></trkpt>
<trkpt lat="26.312897" lon="100.178364">
<time>2015-08-27T15:04:52Z</time></trkpt>
<trkpt lat="26.312477" lon="100.178234">
<time>2015-08-27T15:04:53Z</time></trkpt>
<trkpt lat="26.311976" lon="100.178083">
<time>2015-08-27T15:04:54Z</time></trkpt>
<trkpt lat="26.311505" lon="100.177933">
<time>2015-08-27T15:04:55Z</time></trkpt>
<trkpt lat="26.311005" lon="100.177773">
<time>2015-08-27T15:04:56Z</time></trkpt>
<trkpt lat="26.310735" lon="100.177693">
<time>2015-08-27T15:04:57Z</time></trkpt>
<trkpt lat="26.310494" lon="100.177602">
<time>2015-08-27T15:04:58Z</time></trkpt>
<trkpt lat="26.310274" lon="100.177512">
<time>2015-08-27T15:04:59Z</time></trkpt>
<trkpt lat="26.309964" lon="100.177382">
<time>2015-08-27T15:05:00Z</time></trkpt>
<trkpt lat="26.309493" lon="100.177162">
<time>2015-08-27T15:05:01Z</time></trkpt>
<trkpt lat="26.308812" lon="100.176831">
<time>2015-08-27T15:05:02Z</time></trkpt>
<trkpt lat="26.308161" lon="100.17652">
<time>2015-08-27T15:05:03Z</time></trkpt>
<trkpt lat="26.307851" lon="100.17637">
<time>2015-08-27T15:05:04Z</time></trkpt>
<trkpt lat="26.30728" lon="100.176109">
<time>2015-08-27T15:05:05Z</time></trkpt>
<trkpt lat="26.30725" lon="100.176089">
<time>2015-08-27T15:05:06Z</time></trkpt>
<trkpt lat="26.306779" lon="100.175869">
<time>2015-08-27T15:05:07Z</time></trkpt>
<trkpt lat="26.306649" lon="100.175819">
<time>2015-08-27T15:05:08Z</time></trkpt>
<trkpt lat="26.306519" lon="100.175789">
<time>2015-08-27T15:05:09Z</time></trkpt>
<trkpt lat="26.306369" lon="100.175769">
<time>2015-08-27T15:05:10Z</time></trkpt>
<trkpt lat="26.306249" lon="100.175789">
<time>2015-08-27T15:05:11Z</time></trkpt>
<trkpt lat="26.306159" lon="100.175819">
<time>2015-08-27T15:05:12Z</time></trkpt>
<trkpt lat="26.306019" lon="100.175929">
<time>2015-08-27T15:05:13Z</time></trkpt>
<trkpt lat="26.305859" lon="100.176099">
<time>2015-08-27T15:05:14Z</time></trkpt>
<trkpt lat="26.305679" lon="100.17629">
<time>2015-08-27T15:05:15Z</time></trkpt>
<trkpt lat="26.30557" lon="100.17638">
<time>2015-08-27T15:05:16Z</time></trkpt>
<trkpt lat="26.30548" lon="100.17643">
<time>2015-08-27T15:05:17Z</time></trkpt>
<trkpt lat="26.30537" lon="100.17647">
<time>2015-08-27T15:05:18Z</time></trkpt>
<trkpt lat="26.30529" lon="100.17649">
<time>2015-08-27T15:05:19Z</time></trkpt>
<trkpt lat="26.30514" lon="100.1765">
<time>2015-08-27T15:05:20Z</time></trkpt>
<trkpt lat="26.304989" lon="100.17648">
<time>2015-08-27T15:05:21Z</time></trkpt>
<trkpt lat="26.304739" lon="100.17644">
<time>2015-08-27T15:05:22Z</time></trkpt>
<trkpt lat="26.304459" lon="100.17639">
<time>2015-08-27T15:05:23Z</time></trkpt>
<trkpt lat="26.304239" lon="100.17635">
<time>2015-08-27T15:05:24Z</time></trkpt>
<trkpt lat="26.303919" lon="100.17627">
<time>2015-08-27T15:05:25Z</time></trkpt>
<trkpt lat="26.303728" lon="100.17621">
<time>2015-08-27T15:05:26Z</time></trkpt>
<trkpt lat="26.303558" lon="100.17614">
<time>2015-08-27T15:05:27Z</time></trkpt>
<trkpt lat="26.303288" lon="100.176009">
<time>2015-08-27T15:05:28Z</time></trkpt>
<trkpt lat="26.302987" lon="100.175849">
<time>2015-08-27T15:05:29Z</time></trkpt>
<trkpt lat="26.302527" lon="100.175619">
<time>2015-08-27T15:05:30Z</time></trkpt>
<trkpt lat="26.302066" lon="100.175368">
<time>2015-08-27T15:05:31Z</time></trkpt>
<trkpt lat="26.301615" lon="100.175148">
<time>2015-08-27T15:05:32Z</time></trkpt>
<trkpt lat="26.301255" lon="100.174967">
<time>2015-08-27T15:05:33Z</time></trkpt>
<trkpt lat="26.300994" lon="100.174857">
<time>2015-08-27T15:05:34Z</time></trkpt>
<trkpt lat="26.300844" lon="100.174797">
<time>2015-08-27T15:05:35Z</time></trkpt>
<trkpt lat="26.300604" lon="100.174717">
<time>2015-08-27T15:05:36Z</time></trkpt>
<trkpt lat="26.300424" lon="100.174667">
<time>2015-08-27T15:05:37Z</time></trkpt>
<trkpt lat="26.300143" lon="100.174606">
<time>2015-08-27T15:05:38Z</time></trkpt>
<trkpt lat="26.299783" lon="100.174556">
<time>2015-08-27T15:05:39Z</time></trkpt>
<trkpt lat="26.299413" lon="100.174536">
<time>2015-08-27T15:05:40Z</time></trkpt>
<trkpt lat="26.299103" lon="100.174546">
<time>2015-08-27T15:05:41Z</time></trkpt>
<trkpt lat="26.298373" lon="100.174586">
<time>2015-08-27T15:05:42Z</time></trkpt>
<trkpt lat="26.297582" lon="100.174627">
<time>2015-08-27T15:05:43Z</time></trkpt>
<trkpt lat="26.297092" lon="100.174657">
<time>2015-08-27T15:05:44Z</time></trkpt>
<trkpt lat="26.296692" lon="100.174697">
<time>2015-08-27T15:05:45Z</time></trkpt>
<trkpt lat="26.296322" lon="100.174767">
<time>2015-08-27T15:05:46Z</time></trkpt>
<trkpt lat="26.296032" lon="100.174847">
<time>2015-08-27T15:05:47Z</time></trkpt>
<trkpt lat="26.295772" lon="100.174937">
<time>2015-08-27T15:05:48Z</time></trkpt>
<trkpt lat="26.295512" lon="100.175037">
<time>2015-08-27T15:05:49Z</time></trkpt>
<trkpt lat="26.295262" lon="100.175128">
<time>2015-08-27T15:05:50Z</time></trkpt>
<trkpt lat="26.295012" lon="100.175228">
<time>2015-08-27T15:05:51Z</time></trkpt>
<trkpt lat="26.294732" lon="100.175328">
<time>2015-08-27T15:05:52Z</time></trkpt>
<trkpt lat="26.294452" lon="100.175428">
<time>2015-08-27T15:05:53Z</time></trkpt>
<trkpt lat="26.294162" lon="100.175519">
<time>2015-08-27T15:05:54Z</time></trkpt>
<trkpt lat="26.293852" lon="100.175599">
<time>2015-08-27T15:05:55Z</time></trkpt>
<trkpt lat="26.293542" lon="100.175679">
<time>2015-08-27T15:05:56Z</time></trkpt>
<trkpt lat="26.293222" lon="100.175749">
<time>2015-08-27T15:05:57Z</time></trkpt>
<trkpt lat="26.292562" lon="100.175859">
<time>2015-08-27T15:05:58Z</time></trkpt>
<trkpt lat="26.291472" lon="100.17605">
<time>2015-08-27T15:05:59Z</time></trkpt>
<trkpt lat="26.290712" lon="100.17618">
<time>2015-08-27T15:06:00Z</time></trkpt>
<trkpt lat="26.289991" lon="100.1763">
<time>2015-08-27T15:06:01Z</time></trkpt>
<trkpt lat="26.289311" lon="100.176431">
<time>2015-08-27T15:06:02Z</time></trkpt>
<trkpt lat="26.288991" lon="100.176471">
<time>2015-08-27T15:06:03Z</time></trkpt>
<trkpt lat="26.288861" lon="100.176471">
<time>2015-08-27T15:06:04Z</time></trkpt>
<trkpt lat="26.288711" lon="100.176461">
<time>2015-08-27T15:06:05Z</time></trkpt>
<trkpt lat="26.288401" lon="100.176431">
<time>2015-08-27T15:06:06Z</time></trkpt>
<trkpt lat="26.28803" lon="100.17635">
<time>2015-08-27T15:06:07Z</time></trkpt>
<trkpt lat="26.28766" lon="100.17625">
<time>2015-08-27T15:06:08Z</time></trkpt>
<trkpt lat="26.286799" lon="100.17601">
<time>2015-08-27T15:06:09Z</time></trkpt>
<trkpt lat="26.286158" lon="100.175839">
<time>2015-08-27T15:06:10Z</time></trkpt>
<trkpt lat="26.285868" lon="100.175789">
<time>2015-08-27T15:06:11Z</time></trkpt>
<trkpt lat="26.285618" lon="100.175769">
<time>2015-08-27T15:06:12Z</time></trkpt>
<trkpt lat="26.285328" lon="100.175779">
<time>2015-08-27T15:06:13Z</time></trkpt>
<trkpt lat="26.284988" lon="100.175839">
<time>2015-08-27T15:06:14Z</time></trkpt>
<trkpt lat="26.284668" lon="100.17593">
<time>2015-08-27T15:06:15Z</time></trkpt>
<trkpt lat="26.284368" lon="100.17602">
<time>2015-08-27T15:06:16Z</time></trkpt>
<trkpt lat="26.283198" lon="100.176401">
<time>2015-08-27T15:06:17Z</time></trkpt>
<trkpt lat="26.282018" lon="100.176781">
<time>2015-08-27T15:06:18Z</time></trkpt>
<trkpt lat="26.281098" lon="100.177072">
<time>2015-08-27T15:06:19Z</time></trkpt>
<trkpt lat="26.280128" lon="100.177383">
<time>2015-08-27T15:06:20Z</time></trkpt>
<trkpt lat="26.279628" lon="100.177543">
<time>2015-08-27T15:06:21Z</time></trkpt>
<trkpt lat="26.279138" lon="100.177693">
<time>2015-08-27T15:06:22Z</time></trkpt>
<trkpt lat="26.278788" lon="100.177804">
<time>2015-08-27T15:06:23Z</time></trkpt>
<trkpt lat="26.278438" lon="100.177914">
<time>2015-08-27T15:06:24Z</time></trkpt>
<trkpt lat="26.278088" lon="100.178014">
<time>2015-08-27T15:06:25Z</time></trkpt>
<trkpt lat="26.277768" lon="100.178084">
<time>2015-08-27T15:06:26Z</time></trkpt>
<trkpt lat="26.277458" lon="100.178164">
<time>2015-08-27T15:06:27Z</time></trkpt>
<trkpt lat="26.277088" lon="100.178225">
<time>2015-08-27T15:06:28Z</time></trkpt>
<trkpt lat="26.276338" lon="100.178365">
<time>2015-08-27T15:06:29Z</time></trkpt>
<trkpt lat="26.275678" lon="100.178485">
<time>2015-08-27T15:06:30Z</time></trkpt>
<trkpt lat="26.275248" lon="100.178535">
<time>2015-08-27T15:06:31Z</time></trkpt>
<trkpt lat="26.274817" lon="100.178545">
<time>2015-08-27T15:06:32Z</time></trkpt>
<trkpt lat="26.274517" lon="100.178535">
<time>2015-08-27T15:06:33Z</time></trkpt>
<trkpt lat="26.273997" lon="100.178495">
<time>2015-08-27T15:06:34Z</time></trkpt>
<trkpt lat="26.273427" lon="100.178455">
<time>2015-08-27T15:06:35Z</time></trkpt>
<trkpt lat="26.273186" lon="100.178435">
<time>2015-08-27T15:06:36Z</time></trkpt>
<trkpt lat="26.273016" lon="100.178425">
<time>2015-08-27T15:06:37Z</time></trkpt>
<trkpt lat="26.272966" lon="100.178415">
<time>2015-08-27T15:06:38Z</time></trkpt>
<trkpt lat="26.272846" lon="100.178415">
<time>2015-08-27T15:06:39Z</time></trkpt>
<trkpt lat="26.272766" lon="100.178415">
<time>2015-08-27T15:06:40Z</time></trkpt>
<trkpt lat="26.272686" lon="100.178405">
<time>2015-08-27T15:06:41Z</time></trkpt>
<trkpt lat="26.272566" lon="100.178395">
<time>2015-08-27T15:06:42Z</time></trkpt>
<trkpt lat="26.272366" lon="100.178375">
<time>2015-08-27T15:06:43Z</time></trkpt>
<trkpt lat="26.271976" lon="100.178345">
<time>2015-08-27T15:06:44Z</time></trkpt>
<trkpt lat="26.271625" lon="100.178325">
<time>2015-08-27T15:06:45Z</time></trkpt>
<trkpt lat="26.271335" lon="100.178305">
<time>2015-08-27T15:06:46Z</time></trkpt>
<trkpt lat="26.271035" lon="100.178285">
<time>2015-08-27T15:06:47Z</time></trkpt>
<trkpt lat="26.270905" lon="100.178275">
<time>2015-08-27T15:06:48Z</time></trkpt>
<trkpt lat="26.270745" lon="100.178265">
<time>2015-08-27T15:06:49Z</time></trkpt>
<trkpt lat="26.270445" lon="100.178255">
<time>2015-08-27T15:06:50Z</time></trkpt>
<trkpt lat="26.270124" lon="100.178245">
<time>2015-08-27T15:06:51Z</time></trkpt>
<trkpt lat="26.270004" lon="100.178235">
<time>2015-08-27T15:06:52Z</time></trkpt>
<trkpt lat="26.269744" lon="100.178225">
<time>2015-08-27T15:06:53Z</time></trkpt>
<trkpt lat="26.269434" lon="100.178205">
<time>2015-08-27T15:06:54Z</time></trkpt>
<trkpt lat="26.269134" lon="100.178185">
<time>2015-08-27T15:06:55Z</time></trkpt>
<trkpt lat="26.268804" lon="100.178165">
<time>2015-08-27T15:06:56Z</time></trkpt>
<trkpt lat="26.268463" lon="100.178145">
<time>2015-08-27T15:06:57Z</time></trkpt>
<trkpt lat="26.268133" lon="100.178115">
<time>2015-08-27T15:06:58Z</time></trkpt>
<trkpt lat="26.267823" lon="100.178105">
<time>2015-08-27T15:06:59Z</time></trkpt>
<trkpt lat="26.267583" lon="100.178095">
<time>2015-08-27T15:07:00Z</time></trkpt>
<trkpt lat="26.267463" lon="100.178095">
<time>2015-08-27T15:07:01Z</time></trkpt>
<trkpt lat="26.267383" lon="100.178095">
<time>2015-08-27T15:07:02Z</time></trkpt>
<trkpt lat="26.267233" lon="100.178105">
<time>2015-08-27T15:07:03Z</time></trkpt>
<trkpt lat="26.267042" lon="100.178115">
<time>2015-08-27T15:07:04Z</time></trkpt>
<trkpt lat="26.266852" lon="100.178145">
<time>2015-08-27T15:07:05Z</time></trkpt>
<trkpt lat="26.266702" lon="100.178165">
<time>2015-08-27T15:07:06Z</time></trkpt>
<trkpt lat="26.266532" lon="100.178195">
<time>2015-08-27T15:07:07Z</time></trkpt>
<trkpt lat="26.266342" lon="100.178235">
<time>2015-08-27T15:07:08Z</time></trkpt>
<trkpt lat="26.266012" lon="100.178325">
<time>2015-08-27T15:07:09Z</time></trkpt>
<trkpt lat="26.265702" lon="100.178405">
<time>2015-08-27T15:07:10Z</time></trkpt>
<trkpt lat="26.265412" lon="100.178495">
<time>2015-08-27T15:07:11Z</time></trkpt>
<trkpt lat="26.265232" lon="100.178536">
<time>2015-08-27T15:07:12Z</time></trkpt>
<trkpt lat="26.265122" lon="100.178566">
<time>2015-08-27T15:07:13Z</time></trkpt>
<trkpt lat="26.265042" lon="100.178566">
<time>2015-08-27T15:07:14Z</time></trkpt>
<trkpt lat="26.264962" lon="100.178576">
<time>2015-08-27T15:07:15Z</time></trkpt>
<trkpt lat="26.264862" lon="100.178566">
<time>2015-08-27T15:07:16Z</time></trkpt>
<trkpt lat="26.264742" lon="100.178556">
<time>2015-08-27T15:07:17Z</time></trkpt>
<trkpt lat="26.264652" lon="100.178536">
<time>2015-08-27T15:07:18Z</time></trkpt>
<trkpt lat="26.264562" lon="100.178506">
<time>2015-08-27T15:07:19Z</time></trkpt>
<trkpt lat="26.264462" lon="100.178465">
<time>2015-08-27T15:07:20Z</time></trkpt>
<trkpt lat="26.264321" lon="100.178405">
<time>2015-08-27T15:07:21Z</time></trkpt>
<trkpt lat="26.264051" lon="100.178285">
<time>2015-08-27T15:07:22Z</time></trkpt>
<trkpt lat="26.263901" lon="100.178235">
<time>2015-08-27T15:07:23Z</time></trkpt>
<trkpt lat="26.263711" lon="100.178145">
<time>2015-08-27T15:07:24Z</time></trkpt>
<trkpt lat="26.26339" lon="100.178015">
<time>2015-08-27T15:07:25Z</time></trkpt>
<trkpt lat="26.26303" lon="100.177864">
<time>2015-08-27T15:07:26Z</time></trkpt>
<trkpt lat="26.262739" lon="100.177744">
<time>2015-08-27T15:07:27Z</time></trkpt>
<trkpt lat="26.262379" lon="100.177594">
<time>2015-08-27T15:07:28Z</time></trkpt>
<trkpt lat="26.262099" lon="100.177473">
<time>2015-08-27T15:07:29Z</time></trkpt>
<trkpt lat="26.261788" lon="100.177343">
<time>2015-08-27T15:07:30Z</time></trkpt>
<trkpt lat="26.261628" lon="100.177273">
<time>2015-08-27T15:07:31Z</time></trkpt>
<trkpt lat="26.261468" lon="100.177203">
<time>2015-08-27T15:07:32Z</time></trkpt>
<trkpt lat="26.261327" lon="100.177143">
<time>2015-08-27T15:07:33Z</time></trkpt>
<trkpt lat="26.261217" lon="100.177073">
<time>2015-08-27T15:07:34Z</time></trkpt>
<trkpt lat="26.261127" lon="100.177023">
<time>2015-08-27T15:07:35Z</time></trkpt>
<trkpt lat="26.261077" lon="100.176972">
<time>2015-08-27T15:07:36Z</time></trkpt>
<trkpt lat="26.260957" lon="100.176882">
<time>2015-08-27T15:07:37Z</time></trkpt>
<trkpt lat="26.260897" lon="100.176812">
<time>2015-08-27T15:07:38Z</time></trkpt>
<trkpt lat="26.260636" lon="100.176501">
<time>2015-08-27T15:07:39Z</time></trkpt>
<trkpt lat="26.260485" lon="100.176301">
<time>2015-08-27T15:07:40Z</time></trkpt>
<trkpt lat="26.260295" lon="100.176051">
<time>2015-08-27T15:07:41Z</time></trkpt>
<trkpt lat="26.260134" lon="100.17583">
<time>2015-08-27T15:07:42Z</time></trkpt>
<trkpt lat="26.259914" lon="100.175529">
<time>2015-08-27T15:07:43Z</time></trkpt>
<trkpt lat="26.259783" lon="100.175369">
<time>2015-08-27T15:07:44Z</time></trkpt>
<trkpt lat="26.259653" lon="100.175219">
<time>2015-08-27T15:07:45Z</time></trkpt>
<trkpt lat="26.259553" lon="100.175109">
<time>2015-08-27T15:07:46Z</time></trkpt>
<trkpt lat="26.259412" lon="100.174978">
<time>2015-08-27T15:07:47Z</time></trkpt>
<trkpt lat="26.259292" lon="100.174868">
<time>2015-08-27T15:07:48Z</time></trkpt>
<trkpt lat="26.259222" lon="100.174798">
<time>2015-08-27T15:07:49Z</time></trkpt>
<trkpt lat="26.259021" lon="100.174607">
<time>2015-08-27T15:07:50Z</time></trkpt>
<trkpt lat="26.258761" lon="100.174377">
<time>2015-08-27T15:07:51Z</time></trkpt>
<trkpt lat="26.258611" lon="100.174247">
<time>2015-08-27T15:07:52Z</time></trkpt>
<trkpt lat="26.25848" lon="100.174137">
<time>2015-08-27T15:07:53Z</time></trkpt>
<trkpt lat="26.25835" lon="100.174026">
<time>2015-08-27T15:07:54Z</time></trkpt>
<trkpt lat="26.25824" lon="100.173946">
<time>2015-08-27T15:07:55Z</time></trkpt>
<trkpt lat="26.258009" lon="100.173766">
<time>2015-08-27T15:07:56Z</time></trkpt>
<trkpt lat="26.257739" lon="100.173565">
<time>2015-08-27T15:07:57Z</time></trkpt>
<trkpt lat="26.257528" lon="100.173415">
<time>2015-08-27T15:07:58Z</time></trkpt>
<trkpt lat="26.257248" lon="100.173225">
<time>2015-08-27T15:07:59Z</time></trkpt>
<trkpt lat="26.256967" lon="100.173044">
<time>2015-08-27T15:08:00Z</time></trkpt>
<trkpt lat="26.256707" lon="100.172884">
<time>2015-08-27T15:08:01Z</time></trkpt>
<trkpt lat="26.256577" lon="100.172804">
<time>2015-08-27T15:08:02Z</time></trkpt>
<trkpt lat="26.256446" lon="100.172734">
<time>2015-08-27T15:08:03Z</time></trkpt>
<trkpt lat="26.256306" lon="100.172663">
<time>2015-08-27T15:08:04Z</time></trkpt>
<trkpt lat="26.256196" lon="100.172613">
<time>2015-08-27T15:08:05Z</time></trkpt>
<trkpt lat="26.256066" lon="100.172553">
<time>2015-08-27T15:08:06Z</time></trkpt>
<trkpt lat="26.256016" lon="100.172533">
<time>2015-08-27T15:08:07Z</time></trkpt>
<trkpt lat="26.255946" lon="100.172513">
<time>2015-08-27T15:08:08Z</time></trkpt>
<trkpt lat="26.255836" lon="100.172473">
<time>2015-08-27T15:08:09Z</time></trkpt>
<trkpt lat="26.255675" lon="100.172423">
<time>2015-08-27T15:08:10Z</time></trkpt>
<trkpt lat="26.255435" lon="100.172363">
<time>2015-08-27T15:08:11Z</time></trkpt>
<trkpt lat="26.255215" lon="100.172313">
<time>2015-08-27T15:08:12Z</time></trkpt>
<trkpt lat="26.254875" lon="100.172253">
<time>2015-08-27T15:08:13Z</time></trkpt>
<trkpt lat="26.254404" lon="100.172162">
<time>2015-08-27T15:08:14Z</time></trkpt>
<trkpt lat="26.254354" lon="100.172152">
<time>2015-08-27T15:08:15Z</time></trkpt>
<trkpt lat="26.253764" lon="100.172042">
<time>2015-08-27T15:08:16Z</time></trkpt>
<trkpt lat="26.253483" lon="100.172002">
<time>2015-08-27T15:08:17Z</time></trkpt>
<trkpt lat="26.253303" lon="100.171982">
<time>2015-08-27T15:08:18Z</time></trkpt>
<trkpt lat="26.253203" lon="100.171982">
<time>2015-08-27T15:08:19Z</time></trkpt>
<trkpt lat="26.252863" lon="100.171962">
<time>2015-08-27T15:08:20Z</time></trkpt>
<trkpt lat="26.252633" lon="100.171952">
<time>2015-08-27T15:08:21Z</time></trkpt>
<trkpt lat="26.252213" lon="100.171972">
<time>2015-08-27T15:08:22Z</time></trkpt>
<trkpt lat="26.251873" lon="100.171992">
<time>2015-08-27T15:08:23Z</time></trkpt>
<trkpt lat="26.251502" lon="100.172012">
<time>2015-08-27T15:08:24Z</time></trkpt>
<trkpt lat="26.251292" lon="100.172022">
<time>2015-08-27T15:08:25Z</time></trkpt>
<trkpt lat="26.251142" lon="100.172032">
<time>2015-08-27T15:08:26Z</time></trkpt>
<trkpt lat="26.250782" lon="100.172052">
<time>2015-08-27T15:08:27Z</time></trkpt>
<trkpt lat="26.250602" lon="100.172062">
<time>2015-08-27T15:08:28Z</time></trkpt>
<trkpt lat="26.250472" lon="100.172082">
<time>2015-08-27T15:08:29Z</time></trkpt>
<trkpt lat="26.250392" lon="100.172082">
<time>2015-08-27T15:08:30Z</time></trkpt>
<trkpt lat="26.250012" lon="100.172133">
<time>2015-08-27T15:08:31Z</time></trkpt>
<trkpt lat="26.249662" lon="100.172173">
<time>2015-08-27T15:08:32Z</time></trkpt>
<trkpt lat="26.249251" lon="100.172213">
<time>2015-08-27T15:08:33Z</time></trkpt>
<trkpt lat="26.248871" lon="100.172263">
<time>2015-08-27T15:08:34Z</time></trkpt>
<trkpt lat="26.248481" lon="100.172323">
<time>2015-08-27T15:08:35Z</time></trkpt>
<trkpt lat="26.248111" lon="100.172363">
<time>2015-08-27T15:08:36Z</time></trkpt>
<trkpt lat="26.248001" lon="100.172383">
<time>2015-08-27T15:08:37Z</time></trkpt>
<trkpt lat="26.247891" lon="100.172393">
<time>2015-08-27T15:08:38Z</time></trkpt>
<trkpt lat="26.247791" lon="100.172403">
<time>2015-08-27T15:08:39Z</time></trkpt>
<trkpt lat="26.247711" lon="100.172413">
<time>2015-08-27T15:08:40Z</time></trkpt>
<trkpt lat="26.247671" lon="100.172413">
<time>2015-08-27T15:08:41Z</time></trkpt>
<trkpt lat="26.247631" lon="100.172413">
<time>2015-08-27T15:08:42Z</time></trkpt>
<trkpt lat="26.247561" lon="100.172423">
<time>2015-08-27T15:08:43Z</time></trkpt>
<trkpt lat="26.247491" lon="100.172413">
<time>2015-08-27T15:08:44Z</time></trkpt>
<trkpt lat="26.247431" lon="100.172413">
<time>2015-08-27T15:08:45Z</time></trkpt>
<trkpt lat="26.247261" lon="100.172393">
<time>2015-08-27T15:08:46Z</time></trkpt>
<trkpt lat="26.24704" lon="100.172333">
<time>2015-08-27T15:08:47Z</time></trkpt>
<trkpt lat="26.24689" lon="100.172273">
<time>2015-08-27T15:08:48Z</time></trkpt>
<trkpt lat="26.24672" lon="100.172193">
<time>2015-08-27T15:08:49Z</time></trkpt>
<trkpt lat="26.246429" lon="100.172012">
<time>2015-08-27T15:08:50Z</time></trkpt>
<trkpt lat="26.246169" lon="100.171852">
<time>2015-08-27T15:08:51Z</time></trkpt>
<trkpt lat="26.246039" lon="100.171782">
<time>2015-08-27T15:08:52Z</time></trkpt>
<trkpt lat="26.245838" lon="100.171652">
<time>2015-08-27T15:08:53Z</time></trkpt>
<trkpt lat="26.245568" lon="100.171471">
<time>2015-08-27T15:08:54Z</time></trkpt>
<trkpt lat="26.245308" lon="100.171311">
<time>2015-08-27T15:08:55Z</time></trkpt>
<trkpt lat="26.245067" lon="100.171151">
<time>2015-08-27T15:08:56Z</time></trkpt>
<trkpt lat="26.244857" lon="100.17101">
<time>2015-08-27T15:08:57Z</time></trkpt>
<trkpt lat="26.244797" lon="100.17097">
<time>2015-08-27T15:08:58Z</time></trkpt>
<trkpt lat="26.244746" lon="100.17092">
<time>2015-08-27T15:08:59Z</time></trkpt>
<trkpt lat="26.244696" lon="100.17087">
<time>2015-08-27T15:09:00Z</time></trkpt>
<trkpt lat="26.244646" lon="100.1708">
<time>2015-08-27T15:09:01Z</time></trkpt>
<trkpt lat="26.244616" lon="100.17074">
<time>2015-08-27T15:09:02Z</time></trkpt>
<trkpt lat="26.244586" lon="100.17069">
<time>2015-08-27T15:09:03Z</time></trkpt>
<trkpt lat="26.244566" lon="100.170629">
<time>2015-08-27T15:09:04Z</time></trkpt>
<trkpt lat="26.244546" lon="100.170549">
<time>2015-08-27T15:09:05Z</time></trkpt>
<trkpt lat="26.244515" lon="100.170389">
<time>2015-08-27T15:09:06Z</time></trkpt>
<trkpt lat="26.244515" lon="100.170249">
<time>2015-08-27T15:09:07Z</time></trkpt>
<trkpt lat="26.244545" lon="100.170008">
<time>2015-08-27T15:09:08Z</time></trkpt>
<trkpt lat="26.244554" lon="100.169928">
<time>2015-08-27T15:09:09Z</time></trkpt>
<trkpt lat="26.244554" lon="100.169848">
<time>2015-08-27T15:09:10Z</time></trkpt>
<trkpt lat="26.244544" lon="100.169778">
<time>2015-08-27T15:09:11Z</time></trkpt>
<trkpt lat="26.244504" lon="100.169667">
<time>2015-08-27T15:09:12Z</time></trkpt>
<trkpt lat="26.244464" lon="100.169607">
<time>2015-08-27T15:09:13Z</time></trkpt>
<trkpt lat="26.244404" lon="100.169547">
<time>2015-08-27T15:09:14Z</time></trkpt>
<trkpt lat="26.244334" lon="100.169507">
<time>2015-08-27T15:09:15Z</time></trkpt>
<trkpt lat="26.244253" lon="100.169487">
<time>2015-08-27T15:09:16Z</time></trkpt>
<trkpt lat="26.244163" lon="100.169487">
<time>2015-08-27T15:09:17Z</time></trkpt>
<trkpt lat="26.244083" lon="100.169507">
<time>2015-08-27T15:09:18Z</time></trkpt>
<trkpt lat="26.243993" lon="100.169557">
<time>2015-08-27T15:09:19Z</time></trkpt>
<trkpt lat="26.243924" lon="100.169637">
<time>2015-08-27T15:09:20Z</time></trkpt>
<trkpt lat="26.243814" lon="100.169778">
<time>2015-08-27T15:09:21Z</time></trkpt>
<trkpt lat="26.243714" lon="100.169928">
<time>2015-08-27T15:09:22Z</time></trkpt>
<trkpt lat="26.243654" lon="100.169998">
<time>2015-08-27T15:09:23Z</time></trkpt>
<trkpt lat="26.243594" lon="100.170058">
<time>2015-08-27T15:09:24Z</time></trkpt>
<trkpt lat="26.243504" lon="100.170118">
<time>2015-08-27T15:09:25Z</time></trkpt>
<trkpt lat="26.243404" lon="100.170158">
<time>2015-08-27T15:09:26Z</time></trkpt>
<trkpt lat="26.243344" lon="100.170179">
<time>2015-08-27T15:09:27Z</time></trkpt>
<trkpt lat="26.243284" lon="100.170189">
<time>2015-08-27T15:09:28Z</time></trkpt>
<trkpt lat="26.243214" lon="100.170179">
<time>2015-08-27T15:09:29Z</time></trkpt>
<trkpt lat="26.243134" lon="100.170169">
<time>2015-08-27T15:09:30Z</time></trkpt>
<trkpt lat="26.243084" lon="100.170148">
<time>2015-08-27T15:09:31Z</time></trkpt>
<trkpt lat="26.243044" lon="100.170128">
<time>2015-08-27T15:09:32Z</time></trkpt>
<trkpt lat="26.242984" lon="100.170098">
<time>2015-08-27T15:09:33Z</time></trkpt>
<trkpt lat="26.242934" lon="100.170058">
<time>2015-08-27T15:09:34Z</time></trkpt>
<trkpt lat="26.242834" lon="100.169948">
<time>2015-08-27T15:09:35Z</time></trkpt>
<trkpt lat="26.242763" lon="100.169848">
<time>2015-08-27T15:09:36Z</time></trkpt>
<trkpt lat="26.242683" lon="100.169738">
<time>2015-08-27T15:09:37Z</time></trkpt>
<trkpt lat="26.242613" lon="100.169637">
<time>2015-08-27T15:09:38Z</time></trkpt>
<trkpt lat="26.242543" lon="100.169557">
<time>2015-08-27T15:09:39Z</time></trkpt>
<trkpt lat="26.242462" lon="100.169487">
<time>2015-08-27T15:09:40Z</time></trkpt>
<trkpt lat="26.242362" lon="100.169417">
<time>2015-08-27T15:09:41Z</time></trkpt>
<trkpt lat="26.242272" lon="100.169397">
<time>2015-08-27T15:09:42Z</time></trkpt>
<trkpt lat="26.242202" lon="100.169377">
<time>2015-08-27T15:09:43Z</time></trkpt>
<trkpt lat="26.242152" lon="100.169377">
<time>2015-08-27T15:09:44Z</time></trkpt>
<trkpt lat="26.242072" lon="100.169387">
<time>2015-08-27T15:09:45Z</time></trkpt>
<trkpt lat="26.241962" lon="100.169417">
<time>2015-08-27T15:09:46Z</time></trkpt>
<trkpt lat="26.241862" lon="100.169477">
<time>2015-08-27T15:09:47Z</time></trkpt>
<trkpt lat="26.241732" lon="100.169587">
<time>2015-08-27T15:09:48Z</time></trkpt>
<trkpt lat="26.241532" lon="100.169798">
<time>2015-08-27T15:09:49Z</time></trkpt>
<trkpt lat="26.241403" lon="100.169938">
<time>2015-08-27T15:09:50Z</time></trkpt>
<trkpt lat="26.241243" lon="100.170108">
<time>2015-08-27T15:09:51Z</time></trkpt>
<trkpt lat="26.241103" lon="100.170249">
<time>2015-08-27T15:09:52Z</time></trkpt>
<trkpt lat="26.240953" lon="100.170389">
<time>2015-08-27T15:09:53Z</time></trkpt>
<trkpt lat="26.240833" lon="100.170509">
<time>2015-08-27T15:09:54Z</time></trkpt>
<trkpt lat="26.240743" lon="100.170569">
<time>2015-08-27T15:09:55Z</time></trkpt>
<trkpt lat="26.240684" lon="100.17062">
<time>2015-08-27T15:09:56Z</time></trkpt>
<trkpt lat="26.240574" lon="100.17068">
<time>2015-08-27T15:09:57Z</time></trkpt>
<trkpt lat="26.240474" lon="100.17071">
<time>2015-08-27T15:09:58Z</time></trkpt>
<trkpt lat="26.240414" lon="100.17071">
<time>2015-08-27T15:09:59Z</time></trkpt>
<trkpt lat="26.240374" lon="100.17071">
<time>2015-08-27T15:10:00Z</time></trkpt>
<trkpt lat="26.240313" lon="100.1707">
<time>2015-08-27T15:10:01Z</time></trkpt>
<trkpt lat="26.240263" lon="100.17069">
<time>2015-08-27T15:10:02Z</time></trkpt>
<trkpt lat="26.240213" lon="100.17067">
<time>2015-08-27T15:10:03Z</time></trkpt>
<trkpt lat="26.240153" lon="100.17062">
<time>2015-08-27T15:10:04Z</time></trkpt>
<trkpt lat="26.240103" lon="100.170579">
<time>2015-08-27T15:10:05Z</time></trkpt>
<trkpt lat="26.240053" lon="100.170509">
<time>2015-08-27T15:10:06Z</time></trkpt>
<trkpt lat="26.240023" lon="100.170449">
<time>2015-08-27T15:10:07Z</time></trkpt>
<trkpt lat="26.240003" lon="100.170389">
<time>2015-08-27T15:10:08Z</time></trkpt>
<trkpt lat="26.239983" lon="100.170319">
<time>2015-08-27T15:10:09Z</time></trkpt>
<trkpt lat="26.239972" lon="100.170259">
<time>2015-08-27T15:10:10Z</time></trkpt>
<trkpt lat="26.239962" lon="100.170149">
<time>2015-08-27T15:10:11Z</time></trkpt>
<trkpt lat="26.239962" lon="100.170048">
<time>2015-08-27T15:10:12Z</time></trkpt>
<trkpt lat="26.239972" lon="100.169838">
<time>2015-08-27T15:10:13Z</time></trkpt>
<trkpt lat="26.239971" lon="100.169658">
<time>2015-08-27T15:10:14Z</time></trkpt>
<trkpt lat="26.239971" lon="100.169477">
<time>2015-08-27T15:10:15Z</time></trkpt>
<trkpt lat="26.239981" lon="100.169237">
<time>2015-08-27T15:10:16Z</time></trkpt>
<trkpt lat="26.23998" lon="100.169136">
<time>2015-08-27T15:10:17Z</time></trkpt>
<trkpt lat="26.23999" lon="100.169036">
<time>2015-08-27T15:10:18Z</time></trkpt>
<trkpt lat="26.23998" lon="100.168926">
<time>2015-08-27T15:10:19Z</time></trkpt>
<trkpt lat="26.23998" lon="100.168806">
<time>2015-08-27T15:10:20Z</time></trkpt>
<trkpt lat="26.239959" lon="100.168585">
<time>2015-08-27T15:10:21Z</time></trkpt>
<trkpt lat="26.239929" lon="100.168385">
<time>2015-08-27T15:10:22Z</time></trkpt>
<trkpt lat="26.239898" lon="100.168174">
<time>2015-08-27T15:10:23Z</time></trkpt>
<trkpt lat="26.239868" lon="100.167954">
<time>2015-08-27T15:10:24Z</time></trkpt>
<trkpt lat="26.239838" lon="100.167764">
<time>2015-08-27T15:10:25Z</time></trkpt>
<trkpt lat="26.239797" lon="100.167573">
<time>2015-08-27T15:10:26Z</time></trkpt>
<trkpt lat="26.239777" lon="100.167453">
<time>2015-08-27T15:10:27Z</time></trkpt>
<trkpt lat="26.239747" lon="100.167323">
<time>2015-08-27T15:10:28Z</time></trkpt>
<trkpt lat="26.239706" lon="100.167122">
<time>2015-08-27T15:10:29Z</time></trkpt>
<trkpt lat="26.239676" lon="100.167022">
<time>2015-08-27T15:10:30Z</time></trkpt>
<trkpt lat="26.239646" lon="100.166932">
<time>2015-08-27T15:10:31Z</time></trkpt>
<trkpt lat="26.239616" lon="100.166872">
<time>2015-08-27T15:10:32Z</time></trkpt>
<trkpt lat="26.239586" lon="100.166832">
<time>2015-08-27T15:10:33Z</time></trkpt>
<trkpt lat="26.239526" lon="100.166771">
<time>2015-08-27T15:10:34Z</time></trkpt>
<trkpt lat="26.239445" lon="100.166721">
<time>2015-08-27T15:10:35Z</time></trkpt>
<trkpt lat="26.239365" lon="100.166711">
<time>2015-08-27T15:10:36Z</time></trkpt>
<trkpt lat="26.239285" lon="100.166721">
<time>2015-08-27T15:10:37Z</time></trkpt>
<trkpt lat="26.239205" lon="100.166761">
<time>2015-08-27T15:10:38Z</time></trkpt>
<trkpt lat="26.239146" lon="100.166822">
<time>2015-08-27T15:10:39Z</time></trkpt>
<trkpt lat="26.239096" lon="100.166902">
<time>2015-08-27T15:10:40Z</time></trkpt>
<trkpt lat="26.239066" lon="100.166992">
<time>2015-08-27T15:10:41Z</time></trkpt>
<trkpt lat="26.239046" lon="100.167092">
<time>2015-08-27T15:10:42Z</time></trkpt>
<trkpt lat="26.239026" lon="100.167273">
<time>2015-08-27T15:10:43Z</time></trkpt>
<trkpt lat="26.239016" lon="100.167383">
<time>2015-08-27T15:10:44Z</time></trkpt>
<trkpt lat="26.238987" lon="100.167483">
<time>2015-08-27T15:10:45Z</time></trkpt>
<trkpt lat="26.238947" lon="100.167603">
<time>2015-08-27T15:10:46Z</time></trkpt>
<trkpt lat="26.238897" lon="100.167673">
<time>2015-08-27T15:10:47Z</time></trkpt>
<trkpt lat="26.238857" lon="100.167733">
<time>2015-08-27T15:10:48Z</time></trkpt>
<trkpt lat="26.238817" lon="100.167774">
<time>2015-08-27T15:10:49Z</time></trkpt>
<trkpt lat="26.238767" lon="100.167814">
<time>2015-08-27T15:10:50Z</time></trkpt>
<trkpt lat="26.238717" lon="100.167844">
<time>2015-08-27T15:10:51Z</time></trkpt>
<trkpt lat="26.238667" lon="100.167864">
<time>2015-08-27T15:10:52Z</time></trkpt>
<trkpt lat="26.238607" lon="100.167884">
<time>2015-08-27T15:10:53Z</time></trkpt>
<trkpt lat="26.238517" lon="100.167904">
<time>2015-08-27T15:10:54Z</time></trkpt>
<trkpt lat="26.238417" lon="100.167914">
<time>2015-08-27T15:10:55Z</time></trkpt>
<trkpt lat="26.238337" lon="100.167924">
<time>2015-08-27T15:10:56Z</time></trkpt>
<trkpt lat="26.238117" lon="100.167924">
<time>2015-08-27T15:10:57Z</time></trkpt>
<trkpt lat="26.237937" lon="100.167924">
<time>2015-08-27T15:10:58Z</time></trkpt>
<trkpt lat="26.237797" lon="100.167914">
<time>2015-08-27T15:10:59Z</time></trkpt>
<trkpt lat="26.237707" lon="100.167904">
<time>2015-08-27T15:11:00Z</time></trkpt>
<trkpt lat="26.237577" lon="100.167874">
<time>2015-08-27T15:11:01Z</time></trkpt>
<trkpt lat="26.237456" lon="100.167844">
<time>2015-08-27T15:11:02Z</time></trkpt>
<trkpt lat="26.237276" lon="100.167784">
<time>2015-08-27T15:11:03Z</time></trkpt>
<trkpt lat="26.237156" lon="100.167734">
<time>2015-08-27T15:11:04Z</time></trkpt>
<trkpt lat="26.237026" lon="100.167673">
<time>2015-08-27T15:11:05Z</time></trkpt>
<trkpt lat="26.236806" lon="100.167593">
<time>2015-08-27T15:11:06Z</time></trkpt>
<trkpt lat="26.236575" lon="100.167463">
<time>2015-08-27T15:11:07Z</time></trkpt>
<trkpt lat="26.236365" lon="100.167353">
<time>2015-08-27T15:11:08Z</time></trkpt>
<trkpt lat="26.236155" lon="100.167253">
<time>2015-08-27T15:11:09Z</time></trkpt>
<trkpt lat="26.235954" lon="100.167142">
<time>2015-08-27T15:11:10Z</time></trkpt>
<trkpt lat="26.235694" lon="100.167022">
<time>2015-08-27T15:11:11Z</time></trkpt>
<trkpt lat="26.235484" lon="100.166912">
<time>2015-08-27T15:11:12Z</time></trkpt>
<trkpt lat="26.235273" lon="100.166812">
<time>2015-08-27T15:11:13Z</time></trkpt>
<trkpt lat="26.235053" lon="100.166701">
<time>2015-08-27T15:11:14Z</time></trkpt>
<trkpt lat="26.234803" lon="100.166591">
<time>2015-08-27T15:11:15Z</time></trkpt>
<trkpt lat="26.234562" lon="100.166471">
<time>2015-08-27T15:11:16Z</time></trkpt>
<trkpt lat="26.234332" lon="100.166371">
<time>2015-08-27T15:11:17Z</time></trkpt>
<trkpt lat="26.234142" lon="100.166281">
<time>2015-08-27T15:11:18Z</time></trkpt>
<trkpt lat="26.233851" lon="100.16615">
<time>2015-08-27T15:11:19Z</time></trkpt>
<trkpt lat="26.233551" lon="100.16602">
<time>2015-08-27T15:11:20Z</time></trkpt>
<trkpt lat="26.23329" lon="100.16591">
<time>2015-08-27T15:11:21Z</time></trkpt>
<trkpt lat="26.23307" lon="100.16581">
<time>2015-08-27T15:11:22Z</time></trkpt>
<trkpt lat="26.23291" lon="100.165729">
<time>2015-08-27T15:11:23Z</time></trkpt>
<trkpt lat="26.23282" lon="100.165679">
<time>2015-08-27T15:11:24Z</time></trkpt>
<trkpt lat="26.23275" lon="100.165629">
<time>2015-08-27T15:11:25Z</time></trkpt>
<trkpt lat="26.232679" lon="100.165569">
<time>2015-08-27T15:11:26Z</time></trkpt>
<trkpt lat="26.232599" lon="100.165479">
<time>2015-08-27T15:11:27Z</time></trkpt>
<trkpt lat="26.232549" lon="100.165409">
<time>2015-08-27T15:11:28Z</time></trkpt>
<trkpt lat="26.232499" lon="100.165329">
<time>2015-08-27T15:11:29Z</time></trkpt>
<trkpt lat="26.232449" lon="100.165238">
<time>2015-08-27T15:11:30Z</time></trkpt>
<trkpt lat="26.232418" lon="100.165158">
<time>2015-08-27T15:11:31Z</time></trkpt>
<trkpt lat="26.232388" lon="100.165048">
<time>2015-08-27T15:11:32Z</time></trkpt>
<trkpt lat="26.232368" lon="100.164928">
<time>2015-08-27T15:11:33Z</time></trkpt>
<trkpt lat="26.232368" lon="100.164807">
<time>2015-08-27T15:11:34Z</time></trkpt>
<trkpt lat="26.232368" lon="100.164707">
<time>2015-08-27T15:11:35Z</time></trkpt>
<trkpt lat="26.232377" lon="100.164607">
<time>2015-08-27T15:11:36Z</time></trkpt>
<trkpt lat="26.232397" lon="100.164507">
<time>2015-08-27T15:11:37Z</time></trkpt>
<trkpt lat="26.232467" lon="100.164246">
<time>2015-08-27T15:11:38Z</time></trkpt>
<trkpt lat="26.232527" lon="100.164066">
<time>2015-08-27T15:11:39Z</time></trkpt>
<trkpt lat="26.232576" lon="100.163886">
<time>2015-08-27T15:11:40Z</time></trkpt>
<trkpt lat="26.232656" lon="100.163645">
<time>2015-08-27T15:11:41Z</time></trkpt>
<trkpt lat="26.232725" lon="100.163425">
<time>2015-08-27T15:11:42Z</time></trkpt>
<trkpt lat="26.232805" lon="100.163124">
<time>2015-08-27T15:11:43Z</time></trkpt>
<trkpt lat="26.232825" lon="100.163054">
<time>2015-08-27T15:11:44Z</time></trkpt>
<trkpt lat="26.232835" lon="100.162994">
<time>2015-08-27T15:11:45Z</time></trkpt>
<trkpt lat="26.232854" lon="100.162873">
<time>2015-08-27T15:11:46Z</time></trkpt>
<trkpt lat="26.232844" lon="100.162763">
<time>2015-08-27T15:11:47Z</time></trkpt>
<trkpt lat="26.232834" lon="100.162683">
<time>2015-08-27T15:11:48Z</time></trkpt>
<trkpt lat="26.232804" lon="100.162603">
<time>2015-08-27T15:11:49Z</time></trkpt>
<trkpt lat="26.232774" lon="100.162533">
<time>2015-08-27T15:11:50Z</time></trkpt>
<trkpt lat="26.232744" lon="100.162493">
<time>2015-08-27T15:11:51Z</time></trkpt>
<trkpt lat="26.232673" lon="100.162392">
<time>2015-08-27T15:11:52Z</time></trkpt>
<trkpt lat="26.232603" lon="100.162322">
<time>2015-08-27T15:11:53Z</time></trkpt>
<trkpt lat="26.232553" lon="100.162272">
<time>2015-08-27T15:11:54Z</time></trkpt>
<trkpt lat="26.232413" lon="100.162152">
<time>2015-08-27T15:11:55Z</time></trkpt>
<trkpt lat="26.232192" lon="100.161962">
<time>2015-08-27T15:11:56Z</time></trkpt>
<trkpt lat="26.231992" lon="100.161801">
<time>2015-08-27T15:11:57Z</time></trkpt>
<trkpt lat="26.231782" lon="100.161631">
<time>2015-08-27T15:11:58Z</time></trkpt>
<trkpt lat="26.231631" lon="100.161511">
<time>2015-08-27T15:11:59Z</time></trkpt>
<trkpt lat="26.231441" lon="100.1614">
<time>2015-08-27T15:12:00Z</time></trkpt>
<trkpt lat="26.231351" lon="100.16133">
<time>2015-08-27T15:12:01Z</time></trkpt>
<trkpt lat="26.231271" lon="100.16128">
<time>2015-08-27T15:12:02Z</time></trkpt>
<trkpt lat="26.23119" lon="100.16125">
<time>2015-08-27T15:12:03Z</time></trkpt>
<trkpt lat="26.23112" lon="100.16122">
<time>2015-08-27T15:12:04Z</time></trkpt>
<trkpt lat="26.23106" lon="100.16121">
<time>2015-08-27T15:12:05Z</time></trkpt>
<trkpt lat="26.23101" lon="100.1612">
<time>2015-08-27T15:12:06Z</time></trkpt>
<trkpt lat="26.23096" lon="100.1612">
<time>2015-08-27T15:12:07Z</time></trkpt>
<trkpt lat="26.23088" lon="100.16121">
<time>2015-08-27T15:12:08Z</time></trkpt>
<trkpt lat="26.2308" lon="100.16123">
<time>2015-08-27T15:12:09Z</time></trkpt>
<trkpt lat="26.23071" lon="100.16127">
<time>2015-08-27T15:12:10Z</time></trkpt>
<trkpt lat="26.230361" lon="100.161591">
<time>2015-08-27T15:12:11Z</time></trkpt>
<trkpt lat="26.230321" lon="100.161651">
<time>2015-08-27T15:12:12Z</time></trkpt>
<trkpt lat="26.230231" lon="100.161771">
<time>2015-08-27T15:12:13Z</time></trkpt>
<trkpt lat="26.230101" lon="100.161942">
<time>2015-08-27T15:12:14Z</time></trkpt>
<trkpt lat="26.230021" lon="100.162032">
<time>2015-08-27T15:12:15Z</time></trkpt>
<trkpt lat="26.229931" lon="100.162142">
<time>2015-08-27T15:12:16Z</time></trkpt>
<trkpt lat="26.229822" lon="100.162242">
<time>2015-08-27T15:12:17Z</time></trkpt>
<trkpt lat="26.229752" lon="100.162312">
<time>2015-08-27T15:12:18Z</time></trkpt>
<trkpt lat="26.229532" lon="100.162493">
<time>2015-08-27T15:12:19Z</time></trkpt>
<trkpt lat="26.229332" lon="100.162663">
<time>2015-08-27T15:12:20Z</time></trkpt>
<trkpt lat="26.229122" lon="100.162843">
<time>2015-08-27T15:12:21Z</time></trkpt>
<trkpt lat="26.228972" lon="100.162964">
<time>2015-08-27T15:12:22Z</time></trkpt>
<trkpt lat="26.228872" lon="100.163024">
<time>2015-08-27T15:12:23Z</time></trkpt>
<trkpt lat="26.228782" lon="100.163064">
<time>2015-08-27T15:12:24Z</time></trkpt>
<trkpt lat="26.228692" lon="100.163084">
<time>2015-08-27T15:12:25Z</time></trkpt>
<trkpt lat="26.228602" lon="100.163084">
<time>2015-08-27T15:12:26Z</time></trkpt>
<trkpt lat="26.228522" lon="100.163054">
<time>2015-08-27T15:12:27Z</time></trkpt>
<trkpt lat="26.228452" lon="100.163004">
<time>2015-08-27T15:12:28Z</time></trkpt>
<trkpt lat="26.228382" lon="100.162924">
<time>2015-08-27T15:12:29Z</time></trkpt>
<trkpt lat="26.228332" lon="100.162843">
<time>2015-08-27T15:12:30Z</time></trkpt>
<trkpt lat="26.228271" lon="100.162673">
<time>2015-08-27T15:12:31Z</time></trkpt>
<trkpt lat="26.228251" lon="100.162573">
<time>2015-08-27T15:12:32Z</time></trkpt>
<trkpt lat="26.228221" lon="100.162473">
<time>2015-08-27T15:12:33Z</time></trkpt>
<trkpt lat="26.228191" lon="100.162383">
<time>2015-08-27T15:12:34Z</time></trkpt>
<trkpt lat="26.228141" lon="100.162312">
<time>2015-08-27T15:12:35Z</time></trkpt>
<trkpt lat="26.228081" lon="100.162272">
<time>2015-08-27T15:12:36Z</time></trkpt>
<trkpt lat="26.22802" lon="100.162242">
<time>2015-08-27T15:12:37Z</time></trkpt>
<trkpt lat="26.22799" lon="100.162232">
<time>2015-08-27T15:12:38Z</time></trkpt>
<trkpt lat="26.22791" lon="100.162212">
<time>2015-08-27T15:12:39Z</time></trkpt>
<trkpt lat="26.22783" lon="100.162212">
<time>2015-08-27T15:12:40Z</time></trkpt>
<trkpt lat="26.22775" lon="100.162262">
<time>2015-08-27T15:12:41Z</time></trkpt>
<trkpt lat="26.22769" lon="100.162322">
<time>2015-08-27T15:12:42Z</time></trkpt>
<trkpt lat="26.227641" lon="100.162403">
<time>2015-08-27T15:12:43Z</time></trkpt>
<trkpt lat="26.227601" lon="100.162503">
<time>2015-08-27T15:12:44Z</time></trkpt>
<trkpt lat="26.227571" lon="100.162643">
<time>2015-08-27T15:12:45Z</time></trkpt>
<trkpt lat="26.227551" lon="100.162753">
<time>2015-08-27T15:12:46Z</time></trkpt>
<trkpt lat="26.227511" lon="100.162884">
<time>2015-08-27T15:12:47Z</time></trkpt>
<trkpt lat="26.227482" lon="100.163014">
<time>2015-08-27T15:12:48Z</time></trkpt>
<trkpt lat="26.227452" lon="100.163094">
<time>2015-08-27T15:12:49Z</time></trkpt>
<trkpt lat="26.227392" lon="100.163204">
<time>2015-08-27T15:12:50Z</time></trkpt>
<trkpt lat="26.227352" lon="100.163304">
<time>2015-08-27T15:12:51Z</time></trkpt>
<trkpt lat="26.227272" lon="100.163405">
<time>2015-08-27T15:12:52Z</time></trkpt>
<trkpt lat="26.227212" lon="100.163485">
<time>2015-08-27T15:12:53Z</time></trkpt>
<trkpt lat="26.227122" lon="100.163585">
<time>2015-08-27T15:12:54Z</time></trkpt>
<trkpt lat="26.227053" lon="100.163645">
<time>2015-08-27T15:12:55Z</time></trkpt>
<trkpt lat="26.226913" lon="100.163765">
<time>2015-08-27T15:12:56Z</time></trkpt>
<trkpt lat="26.226743" lon="100.163906">
<time>2015-08-27T15:12:57Z</time></trkpt>
<trkpt lat="26.226593" lon="100.164026">
<time>2015-08-27T15:12:58Z</time></trkpt>
<trkpt lat="26.226393" lon="100.164196">
<time>2015-08-27T15:12:59Z</time></trkpt>
<trkpt lat="26.226213" lon="100.164347">
<time>2015-08-27T15:13:00Z</time></trkpt>
<trkpt lat="26.226043" lon="100.164457">
<time>2015-08-27T15:13:01Z</time></trkpt>
<trkpt lat="26.225933" lon="100.164507">
<time>2015-08-27T15:13:02Z</time></trkpt>
<trkpt lat="26.225833" lon="100.164537">
<time>2015-08-27T15:13:03Z</time></trkpt>
<trkpt lat="26.225783" lon="100.164557">
<time>2015-08-27T15:13:04Z</time></trkpt>
<trkpt lat="26.225694" lon="100.164597">
<time>2015-08-27T15:13:05Z</time></trkpt>
<trkpt lat="26.225603" lon="100.164617">
<time>2015-08-27T15:13:06Z</time></trkpt>
<trkpt lat="26.225533" lon="100.164617">
<time>2015-08-27T15:13:07Z</time></trkpt>
<trkpt lat="26.225483" lon="100.164607">
<time>2015-08-27T15:13:08Z</time></trkpt>
<trkpt lat="26.225393" lon="100.164587">
<time>2015-08-27T15:13:09Z</time></trkpt>
<trkpt lat="26.225263" lon="100.164537">
<time>2015-08-27T15:13:10Z</time></trkpt>
<trkpt lat="26.225133" lon="100.164467">
<time>2015-08-27T15:13:11Z</time></trkpt>
<trkpt lat="26.225033" lon="100.164397">
<time>2015-08-27T15:13:12Z</time></trkpt>
<trkpt lat="26.224973" lon="100.164337">
<time>2015-08-27T15:13:13Z</time></trkpt>
<trkpt lat="26.224912" lon="100.164277">
<time>2015-08-27T15:13:14Z</time></trkpt>
<trkpt lat="26.224862" lon="100.164216">
<time>2015-08-27T15:13:15Z</time></trkpt>
<trkpt lat="26.224812" lon="100.164136">
<time>2015-08-27T15:13:16Z</time></trkpt>
<trkpt lat="26.224772" lon="100.164076">
<time>2015-08-27T15:13:17Z</time></trkpt>
<trkpt lat="26.224732" lon="100.163986">
<time>2015-08-27T15:13:18Z</time></trkpt>
<trkpt lat="26.224692" lon="100.163886">
<time>2015-08-27T15:13:19Z</time></trkpt>
<trkpt lat="26.224681" lon="100.163826">
<time>2015-08-27T15:13:20Z</time></trkpt>
<trkpt lat="26.224641" lon="100.163675">
<time>2015-08-27T15:13:21Z</time></trkpt>
<trkpt lat="26.224621" lon="100.163525">
<time>2015-08-27T15:13:22Z</time></trkpt>
<trkpt lat="26.224601" lon="100.163395">
<time>2015-08-27T15:13:23Z</time></trkpt>
<trkpt lat="26.22458" lon="100.163325">
<time>2015-08-27T15:13:24Z</time></trkpt>
<trkpt lat="26.22457" lon="100.163264">
<time>2015-08-27T15:13:25Z</time></trkpt>
<trkpt lat="26.22454" lon="100.163174">
<time>2015-08-27T15:13:26Z</time></trkpt>
<trkpt lat="26.22452" lon="100.163114">
<time>2015-08-27T15:13:27Z</time></trkpt>
<trkpt lat="26.22449" lon="100.163064">
<time>2015-08-27T15:13:28Z</time></trkpt>
<trkpt lat="26.22444" lon="100.162994">
<time>2015-08-27T15:13:29Z</time></trkpt>
<trkpt lat="26.22438" lon="100.162924">
<time>2015-08-27T15:13:30Z</time></trkpt>
<trkpt lat="26.224319" lon="100.162874">
<time>2015-08-27T15:13:31Z</time></trkpt>
<trkpt lat="26.224219" lon="100.162824">
<time>2015-08-27T15:13:32Z</time></trkpt>
<trkpt lat="26.224119" lon="100.162783">
<time>2015-08-27T15:13:33Z</time></trkpt>
<trkpt lat="26.224039" lon="100.162763">
<time>2015-08-27T15:13:34Z</time></trkpt>
<trkpt lat="26.223919" lon="100.162733">
<time>2015-08-27T15:13:35Z</time></trkpt>
<trkpt lat="26.223659" lon="100.162693">
<time>2015-08-27T15:13:36Z</time></trkpt>
<trkpt lat="26.223449" lon="100.162663">
<time>2015-08-27T15:13:37Z</time></trkpt>
<trkpt lat="26.223248" lon="100.162633">
<time>2015-08-27T15:13:38Z</time></trkpt>
<trkpt lat="26.223028" lon="100.162593">
<time>2015-08-27T15:13:39Z</time></trkpt>
<trkpt lat="26.222788" lon="100.162553">
<time>2015-08-27T15:13:40Z</time></trkpt>
<trkpt lat="26.222608" lon="100.162513">
<time>2015-08-27T15:13:41Z</time></trkpt>
<trkpt lat="26.222478" lon="100.162483">
<time>2015-08-27T15:13:42Z</time></trkpt>
<trkpt lat="26.222368" lon="100.162453">
<time>2015-08-27T15:13:43Z</time></trkpt>
<trkpt lat="26.222137" lon="100.162363">
<time>2015-08-27T15:13:44Z</time></trkpt>
<trkpt lat="26.221957" lon="100.162272">
<time>2015-08-27T15:13:45Z</time></trkpt>
<trkpt lat="26.221817" lon="100.162192">
<time>2015-08-27T15:13:46Z</time></trkpt>
<trkpt lat="26.221687" lon="100.162112">
<time>2015-08-27T15:13:47Z</time></trkpt>
<trkpt lat="26.221586" lon="100.162042">
<time>2015-08-27T15:13:48Z</time></trkpt>
<trkpt lat="26.221356" lon="100.161882">
<time>2015-08-27T15:13:49Z</time></trkpt>
<trkpt lat="26.221125" lon="100.161721">
<time>2015-08-27T15:13:50Z</time></trkpt>
<trkpt lat="26.220875" lon="100.161541">
<time>2015-08-27T15:13:51Z</time></trkpt>
<trkpt lat="26.220735" lon="100.161431">
<time>2015-08-27T15:13:52Z</time></trkpt>
<trkpt lat="26.220624" lon="100.161361">
<time>2015-08-27T15:13:53Z</time></trkpt>
<trkpt lat="26.220484" lon="100.16126">
<time>2015-08-27T15:13:54Z</time></trkpt>
<trkpt lat="26.220354" lon="100.16118">
<time>2015-08-27T15:13:55Z</time></trkpt>
<trkpt lat="26.220254" lon="100.16112">
<time>2015-08-27T15:13:56Z</time></trkpt>
<trkpt lat="26.220094" lon="100.16103">
<time>2015-08-27T15:13:57Z</time></trkpt>
<trkpt lat="26.219963" lon="100.16096">
<time>2015-08-27T15:13:58Z</time></trkpt>
<trkpt lat="26.219823" lon="100.1609">
<time>2015-08-27T15:13:59Z</time></trkpt>
<trkpt lat="26.219673" lon="100.16084">
<time>2015-08-27T15:14:00Z</time></trkpt>
<trkpt lat="26.219593" lon="100.160809">
<time>2015-08-27T15:14:01Z</time></trkpt>
<trkpt lat="26.219503" lon="100.160769">
<time>2015-08-27T15:14:02Z</time></trkpt>
<trkpt lat="26.219353" lon="100.160729">
<time>2015-08-27T15:14:03Z</time></trkpt>
<trkpt lat="26.219182" lon="100.160669">
<time>2015-08-27T15:14:04Z</time></trkpt>
<trkpt lat="26.218852" lon="100.160579">
<time>2015-08-27T15:14:05Z</time></trkpt>
<trkpt lat="26.218502" lon="100.160479">
<time>2015-08-27T15:14:06Z</time></trkpt>
<trkpt lat="26.218171" lon="100.160389">
<time>2015-08-27T15:14:07Z</time></trkpt>
<trkpt lat="26.217841" lon="100.160288">
<time>2015-08-27T15:14:08Z</time></trkpt>
<trkpt lat="26.21749" lon="100.160178">
<time>2015-08-27T15:14:09Z</time></trkpt>
<trkpt lat="26.21713" lon="100.160068">
<time>2015-08-27T15:14:10Z</time></trkpt>
<trkpt lat="26.21679" lon="100.159968">
<time>2015-08-27T15:14:11Z</time></trkpt>
<trkpt lat="26.216469" lon="100.159858">
<time>2015-08-27T15:14:12Z</time></trkpt>
<trkpt lat="26.216249" lon="100.159787">
<time>2015-08-27T15:14:13Z</time></trkpt>
<trkpt lat="26.216119" lon="100.159747">
<time>2015-08-27T15:14:14Z</time></trkpt>
<trkpt lat="26.215788" lon="100.159637">
<time>2015-08-27T15:14:15Z</time></trkpt>
<trkpt lat="26.215498" lon="100.159537">
<time>2015-08-27T15:14:16Z</time></trkpt>
<trkpt lat="26.215178" lon="100.159427">
<time>2015-08-27T15:14:17Z</time></trkpt>
<trkpt lat="26.215027" lon="100.159377">
<time>2015-08-27T15:14:18Z</time></trkpt>
<trkpt lat="26.214837" lon="100.159316">
<time>2015-08-27T15:14:19Z</time></trkpt>
<trkpt lat="26.214787" lon="100.159306">
<time>2015-08-27T15:14:20Z</time></trkpt>
<trkpt lat="26.214717" lon="100.159296">
<time>2015-08-27T15:14:21Z</time></trkpt>
<trkpt lat="26.214597" lon="100.159276">
<time>2015-08-27T15:14:22Z</time></trkpt>
<trkpt lat="26.214527" lon="100.159266">
<time>2015-08-27T15:14:23Z</time></trkpt>
<trkpt lat="26.214437" lon="100.159266">
<time>2015-08-27T15:14:24Z</time></trkpt>
<trkpt lat="26.214287" lon="100.159266">
<time>2015-08-27T15:14:25Z</time></trkpt>
<trkpt lat="26.214147" lon="100.159276">
<time>2015-08-27T15:14:26Z</time></trkpt>
<trkpt lat="26.213997" lon="100.159296">
<time>2015-08-27T15:14:27Z</time></trkpt>
<trkpt lat="26.213867" lon="100.159327">
<time>2015-08-27T15:14:28Z</time></trkpt>
<trkpt lat="26.213707" lon="100.159377">
<time>2015-08-27T15:14:29Z</time></trkpt>
<trkpt lat="26.213407" lon="100.159467">
<time>2015-08-27T15:14:30Z</time></trkpt>
<trkpt lat="26.213367" lon="100.159487">
<time>2015-08-27T15:14:31Z</time></trkpt>
<trkpt lat="26.213257" lon="100.159507">
<time>2015-08-27T15:14:32Z</time></trkpt>
<trkpt lat="26.213097" lon="100.159547">
<time>2015-08-27T15:14:33Z</time></trkpt>
<trkpt lat="26.212937" lon="100.159577">
<time>2015-08-27T15:14:34Z</time></trkpt>
<trkpt lat="26.212787" lon="100.159607">
<time>2015-08-27T15:14:35Z</time></trkpt>
<trkpt lat="26.212466" lon="100.159637">
<time>2015-08-27T15:14:36Z</time></trkpt>
<trkpt lat="26.212266" lon="100.159647">
<time>2015-08-27T15:14:37Z</time></trkpt>
<trkpt lat="26.212096" lon="100.159647">
<time>2015-08-27T15:14:38Z</time></trkpt>
<trkpt lat="26.211866" lon="100.159627">
<time>2015-08-27T15:14:39Z</time></trkpt>
<trkpt lat="26.211726" lon="100.159617">
<time>2015-08-27T15:14:40Z</time></trkpt>
<trkpt lat="26.211376" lon="100.159557">
<time>2015-08-27T15:14:41Z</time></trkpt>
<trkpt lat="26.211075" lon="100.159497">
<time>2015-08-27T15:14:42Z</time></trkpt>
<trkpt lat="26.210785" lon="100.159457">
<time>2015-08-27T15:14:43Z</time></trkpt>
<trkpt lat="26.210565" lon="100.159427">
<time>2015-08-27T15:14:44Z</time></trkpt>
<trkpt lat="26.210345" lon="100.159397">
<time>2015-08-27T15:14:45Z</time></trkpt>
<trkpt lat="26.210135" lon="100.159367">
<time>2015-08-27T15:14:46Z</time></trkpt>
<trkpt lat="26.209904" lon="100.159317">
<time>2015-08-27T15:14:47Z</time></trkpt>
<trkpt lat="26.209774" lon="100.159277">
<time>2015-08-27T15:14:48Z</time></trkpt>
<trkpt lat="26.209694" lon="100.159246">
<time>2015-08-27T15:14:49Z</time></trkpt>
<trkpt lat="26.209574" lon="100.159196">
<time>2015-08-27T15:14:50Z</time></trkpt>
<trkpt lat="26.209494" lon="100.159156">
<time>2015-08-27T15:14:51Z</time></trkpt>
<trkpt lat="26.209434" lon="100.159106">
<time>2015-08-27T15:14:52Z</time></trkpt>
<trkpt lat="26.209404" lon="100.159076">
<time>2015-08-27T15:14:53Z</time></trkpt>
<trkpt lat="26.209343" lon="100.158996">
<time>2015-08-27T15:14:54Z</time></trkpt>
<trkpt lat="26.209303" lon="100.158916">
<time>2015-08-27T15:14:55Z</time></trkpt>
<trkpt lat="26.209233" lon="100.158715">
<time>2015-08-27T15:14:56Z</time></trkpt>
<trkpt lat="26.209172" lon="100.158435">
<time>2015-08-27T15:14:57Z</time></trkpt>
<trkpt lat="26.209092" lon="100.158074">
<time>2015-08-27T15:14:58Z</time></trkpt>
<trkpt lat="26.209031" lon="100.157804">
<time>2015-08-27T15:14:59Z</time></trkpt>
<trkpt lat="26.20895" lon="100.157483">
<time>2015-08-27T15:15:00Z</time></trkpt>
<trkpt lat="26.20891" lon="100.157292">
<time>2015-08-27T15:15:01Z</time></trkpt>
<trkpt lat="26.20889" lon="100.157202">
<time>2015-08-27T15:15:02Z</time></trkpt>
<trkpt lat="26.20885" lon="100.157102">
<time>2015-08-27T15:15:03Z</time></trkpt>
<trkpt lat="26.20882" lon="100.157042">
<time>2015-08-27T15:15:04Z</time></trkpt>
<trkpt lat="26.208779" lon="100.156962">
<time>2015-08-27T15:15:05Z</time></trkpt>
<trkpt lat="26.208739" lon="100.156912">
<time>2015-08-27T15:15:06Z</time></trkpt>
<trkpt lat="26.208649" lon="100.156842">
<time>2015-08-27T15:15:07Z</time></trkpt>
<trkpt lat="26.208579" lon="100.156801">
<time>2015-08-27T15:15:08Z</time></trkpt>
<trkpt lat="26.208499" lon="100.156771">
<time>2015-08-27T15:15:09Z</time></trkpt>
<trkpt lat="26.208429" lon="100.156761">
<time>2015-08-27T15:15:10Z</time></trkpt>
<trkpt lat="26.208389" lon="100.156771">
<time>2015-08-27T15:15:11Z</time></trkpt>
<trkpt lat="26.208339" lon="100.156771">
<time>2015-08-27T15:15:12Z</time></trkpt>
<trkpt lat="26.208259" lon="100.156791">
<time>2015-08-27T15:15:13Z</time></trkpt>
<trkpt lat="26.208189" lon="100.156822">
<time>2015-08-27T15:15:14Z</time></trkpt>
<trkpt lat="26.208129" lon="100.156872">
<time>2015-08-27T15:15:15Z</time></trkpt>
<trkpt lat="26.208079" lon="100.156922">
<time>2015-08-27T15:15:16Z</time></trkpt>
<trkpt lat="26.208039" lon="100.156962">
<time>2015-08-27T15:15:17Z</time></trkpt>
<trkpt lat="26.207999" lon="100.157022">
<time>2015-08-27T15:15:18Z</time></trkpt>
<trkpt lat="26.207969" lon="100.157082">
<time>2015-08-27T15:15:19Z</time></trkpt>
<trkpt lat="26.207879" lon="100.157242">
<time>2015-08-27T15:15:20Z</time></trkpt>
<trkpt lat="26.20779" lon="100.157413">
<time>2015-08-27T15:15:21Z</time></trkpt>
<trkpt lat="26.20768" lon="100.157623">
<time>2015-08-27T15:15:22Z</time></trkpt>
<trkpt lat="26.20755" lon="100.157884">
<time>2015-08-27T15:15:23Z</time></trkpt>
<trkpt lat="26.20747" lon="100.158024">
<time>2015-08-27T15:15:24Z</time></trkpt>
<trkpt lat="26.207411" lon="100.158124">
<time>2015-08-27T15:15:25Z</time></trkpt>
<trkpt lat="26.207291" lon="100.158265">
<time>2015-08-27T15:15:26Z</time></trkpt>
<trkpt lat="26.207221" lon="100.158325">
<time>2015-08-27T15:15:27Z</time></trkpt>
<trkpt lat="26.207081" lon="100.158425">
<time>2015-08-27T15:15:28Z</time></trkpt>
<trkpt lat="26.206981" lon="100.158485">
<time>2015-08-27T15:15:29Z</time></trkpt>
<trkpt lat="26.206841" lon="100.158565">
<time>2015-08-27T15:15:30Z</time></trkpt>
<trkpt lat="26.206751" lon="100.158615">
<time>2015-08-27T15:15:31Z</time></trkpt>
<trkpt lat="26.206601" lon="100.158685">
<time>2015-08-27T15:15:32Z</time></trkpt>
<trkpt lat="26.206511" lon="100.158715">
<time>2015-08-27T15:15:33Z</time></trkpt>
<trkpt lat="26.206341" lon="100.158756">
<time>2015-08-27T15:15:34Z</time></trkpt>
<trkpt lat="26.206201" lon="100.158766">
<time>2015-08-27T15:15:35Z</time></trkpt>
<trkpt lat="26.206101" lon="100.158776">
<time>2015-08-27T15:15:36Z</time></trkpt>
<trkpt lat="26.206011" lon="100.158776">
<time>2015-08-27T15:15:37Z</time></trkpt>
<trkpt lat="26.205881" lon="100.158776">
<time>2015-08-27T15:15:38Z</time></trkpt>
<trkpt lat="26.205621" lon="100.158746">
<time>2015-08-27T15:15:39Z</time></trkpt>
<trkpt lat="26.205491" lon="100.158726">
<time>2015-08-27T15:15:40Z</time></trkpt>
<trkpt lat="26.20537" lon="100.158705">
<time>2015-08-27T15:15:41Z</time></trkpt>
<trkpt lat="26.20522" lon="100.158665">
<time>2015-08-27T15:15:42Z</time></trkpt>
<trkpt lat="26.20515" lon="100.158635">
<time>2015-08-27T15:15:43Z</time></trkpt>
<trkpt lat="26.2051" lon="100.158595">
<time>2015-08-27T15:15:44Z</time></trkpt>
<trkpt lat="26.20503" lon="100.158555">
<time>2015-08-27T15:15:45Z</time></trkpt>
<trkpt lat="26.20498" lon="100.158505">
<time>2015-08-27T15:15:46Z</time></trkpt>
<trkpt lat="26.20493" lon="100.158445">
<time>2015-08-27T15:15:47Z</time></trkpt>
<trkpt lat="26.20486" lon="100.158365">
<time>2015-08-27T15:15:48Z</time></trkpt>
<trkpt lat="26.204819" lon="100.158295">
<time>2015-08-27T15:15:49Z</time></trkpt>
<trkpt lat="26.204789" lon="100.158224">
<time>2015-08-27T15:15:50Z</time></trkpt>
<trkpt lat="26.204769" lon="100.158144">
<time>2015-08-27T15:15:51Z</time></trkpt>
<trkpt lat="26.204739" lon="100.158044">
<time>2015-08-27T15:15:52Z</time></trkpt>
<trkpt lat="26.204729" lon="100.157934">
<time>2015-08-27T15:15:53Z</time></trkpt>
<trkpt lat="26.204719" lon="100.157874">
<time>2015-08-27T15:15:54Z</time></trkpt>
<trkpt lat="26.204718" lon="100.157733">
<time>2015-08-27T15:15:55Z</time></trkpt>
<trkpt lat="26.204738" lon="100.157573">
<time>2015-08-27T15:15:56Z</time></trkpt>
<trkpt lat="26.204758" lon="100.157413">
<time>2015-08-27T15:15:57Z</time></trkpt>
<trkpt lat="26.204777" lon="100.157273">
<time>2015-08-27T15:15:58Z</time></trkpt>
<trkpt lat="26.204807" lon="100.157132">
<time>2015-08-27T15:15:59Z</time></trkpt>
<trkpt lat="26.204847" lon="100.157002">
<time>2015-08-27T15:16:00Z</time></trkpt>
<trkpt lat="26.204907" lon="100.156842">
<time>2015-08-27T15:16:01Z</time></trkpt>
<trkpt lat="26.205036" lon="100.156551">
<time>2015-08-27T15:16:02Z</time></trkpt>
<trkpt lat="26.205076" lon="100.156441">
<time>2015-08-27T15:16:03Z</time></trkpt>
<trkpt lat="26.205096" lon="100.156351">
<time>2015-08-27T15:16:04Z</time></trkpt>
<trkpt lat="26.205106" lon="100.15627">
<time>2015-08-27T15:16:05Z</time></trkpt>
<trkpt lat="26.205096" lon="100.15618">
<time>2015-08-27T15:16:06Z</time></trkpt>
<trkpt lat="26.205076" lon="100.15609">
<time>2015-08-27T15:16:07Z</time></trkpt>
<trkpt lat="26.205035" lon="100.15602">
<time>2015-08-27T15:16:08Z</time></trkpt>
<trkpt lat="26.205025" lon="100.15599">
<time>2015-08-27T15:16:09Z</time></trkpt>
<trkpt lat="26.204835" lon="100.155729">
<time>2015-08-27T15:16:10Z</time></trkpt>
<trkpt lat="26.204775" lon="100.155639">
<time>2015-08-27T15:16:11Z</time></trkpt>
<trkpt lat="26.204754" lon="100.155569">
<time>2015-08-27T15:16:12Z</time></trkpt>
<trkpt lat="26.204724" lon="100.155489">
<time>2015-08-27T15:16:13Z</time></trkpt>
<trkpt lat="26.204714" lon="100.155409">
<time>2015-08-27T15:16:14Z</time></trkpt>
<trkpt lat="26.204704" lon="100.155359">
<time>2015-08-27T15:16:15Z</time></trkpt>
<trkpt lat="26.204704" lon="100.155268">
<time>2015-08-27T15:16:16Z</time></trkpt>
<trkpt lat="26.204724" lon="100.155128">
<time>2015-08-27T15:16:17Z</time></trkpt>
<trkpt lat="26.204773" lon="100.154858">
<time>2015-08-27T15:16:18Z</time></trkpt>
<trkpt lat="26.204783" lon="100.154747">
<time>2015-08-27T15:16:19Z</time></trkpt>
<trkpt lat="26.204803" lon="100.154627">
<time>2015-08-27T15:16:20Z</time></trkpt>
<trkpt lat="26.204822" lon="100.154447">
<time>2015-08-27T15:16:21Z</time></trkpt>
<trkpt lat="26.204822" lon="100.154317">
<time>2015-08-27T15:16:22Z</time></trkpt>
<trkpt lat="26.204822" lon="100.154206">
<time>2015-08-27T15:16:23Z</time></trkpt>
<trkpt lat="26.204812" lon="100.154036">
<time>2015-08-27T15:16:24Z</time></trkpt>
<trkpt lat="26.204801" lon="100.153906">
<time>2015-08-27T15:16:25Z</time></trkpt>
<trkpt lat="26.204781" lon="100.153796">
<time>2015-08-27T15:16:26Z</time></trkpt>
<trkpt lat="26.204751" lon="100.153575">
<time>2015-08-27T15:16:27Z</time></trkpt>
<trkpt lat="26.20472" lon="100.153375">
<time>2015-08-27T15:16:28Z</time></trkpt>
<trkpt lat="26.20468" lon="100.153174">
<time>2015-08-27T15:16:29Z</time></trkpt>
<trkpt lat="26.20462" lon="100.152994">
<time>2015-08-27T15:16:30Z</time></trkpt>
<trkpt lat="26.204569" lon="100.152854">
<time>2015-08-27T15:16:31Z</time></trkpt>
<trkpt lat="26.204539" lon="100.152763">
<time>2015-08-27T15:16:32Z</time></trkpt>
<trkpt lat="26.204489" lon="100.152663">
<time>2015-08-27T15:16:33Z</time></trkpt>
<trkpt lat="26.204419" lon="100.152533">
<time>2015-08-27T15:16:34Z</time></trkpt>
<trkpt lat="26.204359" lon="100.152443">
<time>2015-08-27T15:16:35Z</time></trkpt>
<trkpt lat="26.204298" lon="100.152343">
<time>2015-08-27T15:16:36Z</time></trkpt>
<trkpt lat="26.204238" lon="100.152262">
<time>2015-08-27T15:16:37Z</time></trkpt>
<trkpt lat="26.204118" lon="100.152132">
<time>2015-08-27T15:16:38Z</time></trkpt>
<trkpt lat="26.204048" lon="100.152062">
<time>2015-08-27T15:16:39Z</time></trkpt>
<trkpt lat="26.203958" lon="100.151982">
<time>2015-08-27T15:16:40Z</time></trkpt>
<trkpt lat="26.203797" lon="100.151862">
<time>2015-08-27T15:16:41Z</time></trkpt>
<trkpt lat="26.203717" lon="100.151802">
<time>2015-08-27T15:16:42Z</time></trkpt>
<trkpt lat="26.203647" lon="100.151772">
<time>2015-08-27T15:16:43Z</time></trkpt>
<trkpt lat="26.203547" lon="100.151731">
<time>2015-08-27T15:16:44Z</time></trkpt>
<trkpt lat="26.203467" lon="100.151711">
<time>2015-08-27T15:16:45Z</time></trkpt>
<trkpt lat="26.203377" lon="100.151701">
<time>2015-08-27T15:16:46Z</time></trkpt>
<trkpt lat="26.203257" lon="100.151721">
<time>2015-08-27T15:16:47Z</time></trkpt>
<trkpt lat="26.203197" lon="100.151741">
<time>2015-08-27T15:16:48Z</time></trkpt>
<trkpt lat="26.203147" lon="100.151762">
<time>2015-08-27T15:16:49Z</time></trkpt>
<trkpt lat="26.203107" lon="100.151782">
<time>2015-08-27T15:16:50Z</time></trkpt>
<trkpt lat="26.203047" lon="100.151822">
<time>2015-08-27T15:16:51Z</time></trkpt>
<trkpt lat="26.202957" lon="100.151892">
<time>2015-08-27T15:16:52Z</time></trkpt>
<trkpt lat="26.202867" lon="100.151992">
<time>2015-08-27T15:16:53Z</time></trkpt>
<trkpt lat="26.202807" lon="100.152082">
<time>2015-08-27T15:16:54Z</time></trkpt>
<trkpt lat="26.202717" lon="100.152232">
<time>2015-08-27T15:16:55Z</time></trkpt>
<trkpt lat="26.202627" lon="100.152353">
<time>2015-08-27T15:16:56Z</time></trkpt>
<trkpt lat="26.202567" lon="100.152433">
<time>2015-08-27T15:16:57Z</time></trkpt>
<trkpt lat="26.202468" lon="100.152523">
<time>2015-08-27T15:16:58Z</time></trkpt>
<trkpt lat="26.202358" lon="100.152603">
<time>2015-08-27T15:16:59Z</time></trkpt>
<trkpt lat="26.202298" lon="100.152633">
<time>2015-08-27T15:17:00Z</time></trkpt>
<trkpt lat="26.202188" lon="100.152683">
<time>2015-08-27T15:17:01Z</time></trkpt>
<trkpt lat="26.202088" lon="100.152713">
<time>2015-08-27T15:17:02Z</time></trkpt>
<trkpt lat="26.201838" lon="100.152784">
<time>2015-08-27T15:17:03Z</time></trkpt>
<trkpt lat="26.201648" lon="100.152834">
<time>2015-08-27T15:17:04Z</time></trkpt>
<trkpt lat="26.201528" lon="100.152884">
<time>2015-08-27T15:17:05Z</time></trkpt>
<trkpt lat="26.201378" lon="100.152954">
<time>2015-08-27T15:17:06Z</time></trkpt>
<trkpt lat="26.201238" lon="100.153024">
<time>2015-08-27T15:17:07Z</time></trkpt>
<trkpt lat="26.201108" lon="100.153114">
<time>2015-08-27T15:17:08Z</time></trkpt>
<trkpt lat="26.200968" lon="100.153224">
<time>2015-08-27T15:17:09Z</time></trkpt>
<trkpt lat="26.200698" lon="100.153425">
<time>2015-08-27T15:17:10Z</time></trkpt>
<trkpt lat="26.200418" lon="100.153625">
<time>2015-08-27T15:17:11Z</time></trkpt>
<trkpt lat="26.200138" lon="100.153816">
<time>2015-08-27T15:17:12Z</time></trkpt>
<trkpt lat="26.199959" lon="100.153926">
<time>2015-08-27T15:17:13Z</time></trkpt>
<trkpt lat="26.199829" lon="100.154006">
<time>2015-08-27T15:17:14Z</time></trkpt>
<trkpt lat="26.199529" lon="100.154176">
<time>2015-08-27T15:17:15Z</time></trkpt>
<trkpt lat="26.199209" lon="100.154377">
<time>2015-08-27T15:17:16Z</time></trkpt>
<trkpt lat="26.198949" lon="100.154527">
<time>2015-08-27T15:17:17Z</time></trkpt>
<trkpt lat="26.198799" lon="100.154627">
<time>2015-08-27T15:17:18Z</time></trkpt>
<trkpt lat="26.198669" lon="100.154718">
<time>2015-08-27T15:17:19Z</time></trkpt>
<trkpt lat="26.198569" lon="100.154828">
<time>2015-08-27T15:17:20Z</time></trkpt>
<trkpt lat="26.198509" lon="100.154878">
<time>2015-08-27T15:17:21Z</time></trkpt>
<trkpt lat="26.19839" lon="100.155038">
<time>2015-08-27T15:17:22Z</time></trkpt>
<trkpt lat="26.19828" lon="100.155198">
<time>2015-08-27T15:17:23Z</time></trkpt>
<trkpt lat="26.19817" lon="100.155389">
<time>2015-08-27T15:17:24Z</time></trkpt>
<trkpt lat="26.19798" lon="100.155689">
<time>2015-08-27T15:17:25Z</time></trkpt>
<trkpt lat="26.197801" lon="100.15599">
<time>2015-08-27T15:17:26Z</time></trkpt>
<trkpt lat="26.197631" lon="100.156261">
<time>2015-08-27T15:17:27Z</time></trkpt>
<trkpt lat="26.197531" lon="100.156401">
<time>2015-08-27T15:17:28Z</time></trkpt>
<trkpt lat="26.197472" lon="100.156471">
<time>2015-08-27T15:17:29Z</time></trkpt>
<trkpt lat="26.197402" lon="100.156521">
<time>2015-08-27T15:17:30Z</time></trkpt>
<trkpt lat="26.197322" lon="100.156561">
<time>2015-08-27T15:17:31Z</time></trkpt>
<trkpt lat="26.197252" lon="100.156591">
<time>2015-08-27T15:17:32Z</time></trkpt>
<trkpt lat="26.197172" lon="100.156591">
<time>2015-08-27T15:17:33Z</time></trkpt>
<trkpt lat="26.197102" lon="100.156581">
<time>2015-08-27T15:17:34Z</time></trkpt>
<trkpt lat="26.197041" lon="100.156561">
<time>2015-08-27T15:17:35Z</time></trkpt>
<trkpt lat="26.197021" lon="100.156551">
<time>2015-08-27T15:17:36Z</time></trkpt>
<trkpt lat="26.196961" lon="100.156521">
<time>2015-08-27T15:17:37Z</time></trkpt>
<trkpt lat="26.196911" lon="100.156481">
<time>2015-08-27T15:17:38Z</time></trkpt>
<trkpt lat="26.196801" lon="100.156381">
<time>2015-08-27T15:17:39Z</time></trkpt>
<trkpt lat="26.196691" lon="100.156251">
<time>2015-08-27T15:17:40Z</time></trkpt>
<trkpt lat="26.196631" lon="100.156191">
<time>2015-08-27T15:17:41Z</time></trkpt>
<trkpt lat="26.19655" lon="100.15609">
<time>2015-08-27T15:17:42Z</time></trkpt>
<trkpt lat="26.19649" lon="100.156">
<time>2015-08-27T15:17:43Z</time></trkpt>
<trkpt lat="26.19642" lon="100.15589">
<time>2015-08-27T15:17:44Z</time></trkpt>
<trkpt lat="26.19636" lon="100.15578">
<time>2015-08-27T15:17:45Z</time></trkpt>
<trkpt lat="26.196309" lon="100.155669">
<time>2015-08-27T15:17:46Z</time></trkpt>
<trkpt lat="26.196279" lon="100.155589">
<time>2015-08-27T15:17:47Z</time></trkpt>
<trkpt lat="26.196249" lon="100.155519">
<time>2015-08-27T15:17:48Z</time></trkpt>
<trkpt lat="26.196219" lon="100.155389">
<time>2015-08-27T15:17:49Z</time></trkpt>
<trkpt lat="26.196189" lon="100.155229">
<time>2015-08-27T15:17:50Z</time></trkpt>
<trkpt lat="26.196178" lon="100.155098">
<time>2015-08-27T15:17:51Z</time></trkpt>
<trkpt lat="26.196168" lon="100.154938">
<time>2015-08-27T15:17:52Z</time></trkpt>
<trkpt lat="26.196168" lon="100.154828">
<time>2015-08-27T15:17:53Z</time></trkpt>
<trkpt lat="26.196177" lon="100.154587">
<time>2015-08-27T15:17:54Z</time></trkpt>
<trkpt lat="26.196177" lon="100.154277">
<time>2015-08-27T15:17:55Z</time></trkpt>
<trkpt lat="26.196186" lon="100.153996">
<time>2015-08-27T15:17:56Z</time></trkpt>
<trkpt lat="26.196206" lon="100.153706">
<time>2015-08-27T15:17:57Z</time></trkpt>
<trkpt lat="26.196235" lon="100.153395">
<time>2015-08-27T15:17:58Z</time></trkpt>
<trkpt lat="26.196275" lon="100.153104">
<time>2015-08-27T15:17:59Z</time></trkpt>
<trkpt lat="26.196334" lon="100.152724">
<time>2015-08-27T15:18:00Z</time></trkpt>
<trkpt lat="26.196374" lon="100.152453">
<time>2015-08-27T15:18:01Z</time></trkpt>
<trkpt lat="26.196403" lon="100.152233">
<time>2015-08-27T15:18:02Z</time></trkpt>
<trkpt lat="26.196453" lon="100.151922">
<time>2015-08-27T15:18:03Z</time></trkpt>
<trkpt lat="26.196483" lon="100.151712">
<time>2015-08-27T15:18:04Z</time></trkpt>
<trkpt lat="26.196512" lon="100.151531">
<time>2015-08-27T15:18:05Z</time></trkpt>
<trkpt lat="26.196552" lon="100.151261">
<time>2015-08-27T15:18:06Z</time></trkpt>
<trkpt lat="26.196591" lon="100.15101">
<time>2015-08-27T15:18:07Z</time></trkpt>
<trkpt lat="26.196621" lon="100.15075">
<time>2015-08-27T15:18:08Z</time></trkpt>
<trkpt lat="26.196651" lon="100.150499">
<time>2015-08-27T15:18:09Z</time></trkpt>
<trkpt lat="26.19668" lon="100.150259">
<time>2015-08-27T15:18:10Z</time></trkpt>
<trkpt lat="26.19671" lon="100.149998">
<time>2015-08-27T15:18:11Z</time></trkpt>
<trkpt lat="26.196709" lon="100.149878">
<time>2015-08-27T15:18:12Z</time></trkpt>
<trkpt lat="26.196709" lon="100.149778">
<time>2015-08-27T15:18:13Z</time></trkpt>
<trkpt lat="26.196699" lon="100.149688">
<time>2015-08-27T15:18:14Z</time></trkpt>
<trkpt lat="26.196689" lon="100.149597">
<time>2015-08-27T15:18:15Z</time></trkpt>
<trkpt lat="26.196659" lon="100.149507">
<time>2015-08-27T15:18:16Z</time></trkpt>
<trkpt lat="26.196639" lon="100.149447">
<time>2015-08-27T15:18:17Z</time></trkpt>
<trkpt lat="26.196589" lon="100.149357">
<time>2015-08-27T15:18:18Z</time></trkpt>
<trkpt lat="26.196518" lon="100.149247">
<time>2015-08-27T15:18:19Z</time></trkpt>
<trkpt lat="26.196458" lon="100.149187">
<time>2015-08-27T15:18:20Z</time></trkpt>
<trkpt lat="26.196408" lon="100.149137">
<time>2015-08-27T15:18:21Z</time></trkpt>
<trkpt lat="26.196348" lon="100.149086">
<time>2015-08-27T15:18:22Z</time></trkpt>
<trkpt lat="26.196278" lon="100.149046">
<time>2015-08-27T15:18:23Z</time></trkpt>
<trkpt lat="26.196097" lon="100.148936">
<time>2015-08-27T15:18:24Z</time></trkpt>
<trkpt lat="26.195967" lon="100.148876">
<time>2015-08-27T15:18:25Z</time></trkpt>
<trkpt lat="26.195887" lon="100.148846">
<time>2015-08-27T15:18:26Z</time></trkpt>
<trkpt lat="26.195797" lon="100.148806">
<time>2015-08-27T15:18:27Z</time></trkpt>
<trkpt lat="26.195697" lon="100.148796">
<time>2015-08-27T15:18:28Z</time></trkpt>
<trkpt lat="26.195607" lon="100.148786">
<time>2015-08-27T15:18:29Z</time></trkpt>
<trkpt lat="26.195497" lon="100.148796">
<time>2015-08-27T15:18:30Z</time></trkpt>
<trkpt lat="26.195427" lon="100.148816">
<time>2015-08-27T15:18:31Z</time></trkpt>
<trkpt lat="26.195387" lon="100.148836">
<time>2015-08-27T15:18:32Z</time></trkpt>
<trkpt lat="26.195337" lon="100.148856">
<time>2015-08-27T15:18:33Z</time></trkpt>
<trkpt lat="26.195287" lon="100.148886">
<time>2015-08-27T15:18:34Z</time></trkpt>
<trkpt lat="26.195257" lon="100.148906">
<time>2015-08-27T15:18:35Z</time></trkpt>
<trkpt lat="26.195207" lon="100.148936">
<time>2015-08-27T15:18:36Z</time></trkpt>
<trkpt lat="26.195147" lon="100.148986">
<time>2015-08-27T15:18:37Z</time></trkpt>
<trkpt lat="26.195027" lon="100.149097">
<time>2015-08-27T15:18:38Z</time></trkpt>
<trkpt lat="26.194857" lon="100.149247">
<time>2015-08-27T15:18:39Z</time></trkpt>
<trkpt lat="26.194687" lon="100.149417">
<time>2015-08-27T15:18:40Z</time></trkpt>
<trkpt lat="26.194518" lon="100.149588">
<time>2015-08-27T15:18:41Z</time></trkpt>
<trkpt lat="26.194358" lon="100.149738">
<time>2015-08-27T15:18:42Z</time></trkpt>
<trkpt lat="26.194198" lon="100.149888">
<time>2015-08-27T15:18:43Z</time></trkpt>
<trkpt lat="26.194028" lon="100.150028">
<time>2015-08-27T15:18:44Z</time></trkpt>
<trkpt lat="26.193908" lon="100.150139">
<time>2015-08-27T15:18:45Z</time></trkpt>
<trkpt lat="26.193748" lon="100.150279">
<time>2015-08-27T15:18:46Z</time></trkpt>
<trkpt lat="26.193658" lon="100.150359">
<time>2015-08-27T15:18:47Z</time></trkpt>
<trkpt lat="26.193568" lon="100.150419">
<time>2015-08-27T15:18:48Z</time></trkpt>
<trkpt lat="26.193488" lon="100.150459">
<time>2015-08-27T15:18:49Z</time></trkpt>
<trkpt lat="26.193408" lon="100.150479">
<time>2015-08-27T15:18:50Z</time></trkpt>
<trkpt lat="26.193308" lon="100.150479">
<time>2015-08-27T15:18:51Z</time></trkpt>
<trkpt lat="26.193238" lon="100.150449">
<time>2015-08-27T15:18:52Z</time></trkpt>
<trkpt lat="26.193178" lon="100.150409">
<time>2015-08-27T15:18:53Z</time></trkpt>
<trkpt lat="26.193128" lon="100.150369">
<time>2015-08-27T15:18:54Z</time></trkpt>
<trkpt lat="26.193008" lon="100.150249">
<time>2015-08-27T15:18:55Z</time></trkpt>
<trkpt lat="26.192948" lon="100.150199">
<time>2015-08-27T15:18:56Z</time></trkpt>
<trkpt lat="26.192878" lon="100.150149">
<time>2015-08-27T15:18:57Z</time></trkpt>
<trkpt lat="26.192787" lon="100.150129">
<time>2015-08-27T15:18:58Z</time></trkpt>
<trkpt lat="26.192697" lon="100.150129">
<time>2015-08-27T15:18:59Z</time></trkpt>
<trkpt lat="26.192607" lon="100.150159">
<time>2015-08-27T15:19:00Z</time></trkpt>
<trkpt lat="26.192537" lon="100.150209">
<time>2015-08-27T15:19:01Z</time></trkpt>
<trkpt lat="26.192488" lon="100.150249">
<time>2015-08-27T15:19:02Z</time></trkpt>
<trkpt lat="26.192388" lon="100.150349">
<time>2015-08-27T15:19:03Z</time></trkpt>
<trkpt lat="26.192318" lon="100.150419">
<time>2015-08-27T15:19:04Z</time></trkpt>
<trkpt lat="26.192128" lon="100.15061">
<time>2015-08-27T15:19:05Z</time></trkpt>
<trkpt lat="26.191948" lon="100.15079">
<time>2015-08-27T15:19:06Z</time></trkpt>
<trkpt lat="26.191778" lon="100.15095">
<time>2015-08-27T15:19:07Z</time></trkpt>
<trkpt lat="26.191688" lon="100.15104">
<time>2015-08-27T15:19:08Z</time></trkpt>
<trkpt lat="26.191608" lon="100.151111">
<time>2015-08-27T15:19:09Z</time></trkpt>
<trkpt lat="26.191519" lon="100.151171">
<time>2015-08-27T15:19:10Z</time></trkpt>
<trkpt lat="26.191439" lon="100.151211">
<time>2015-08-27T15:19:11Z</time></trkpt>
<trkpt lat="26.191339" lon="100.151231">
<time>2015-08-27T15:19:12Z</time></trkpt>
<trkpt lat="26.191258" lon="100.151231">
<time>2015-08-27T15:19:13Z</time></trkpt>
<trkpt lat="26.191168" lon="100.151211">
<time>2015-08-27T15:19:14Z</time></trkpt>
<trkpt lat="26.191098" lon="100.151171">
<time>2015-08-27T15:19:15Z</time></trkpt>
<trkpt lat="26.191028" lon="100.151111">
<time>2015-08-27T15:19:16Z</time></trkpt>
<trkpt lat="26.190948" lon="100.15102">
<time>2015-08-27T15:19:17Z</time></trkpt>
<trkpt lat="26.190868" lon="100.15089">
<time>2015-08-27T15:19:18Z</time></trkpt>
<trkpt lat="26.190777" lon="100.15072">
<time>2015-08-27T15:19:19Z</time></trkpt>
<trkpt lat="26.190637" lon="100.150479">
<time>2015-08-27T15:19:20Z</time></trkpt>
<trkpt lat="26.190486" lon="100.150259">
<time>2015-08-27T15:19:21Z</time></trkpt>
<trkpt lat="26.190356" lon="100.150079">
<time>2015-08-27T15:19:22Z</time></trkpt>
<trkpt lat="26.190246" lon="100.149948">
<time>2015-08-27T15:19:23Z</time></trkpt>
<trkpt lat="26.190135" lon="100.149878">
<time>2015-08-27T15:19:24Z</time></trkpt>
<trkpt lat="26.190055" lon="100.149838">
<time>2015-08-27T15:19:25Z</time></trkpt>
<trkpt lat="26.190005" lon="100.149828">
<time>2015-08-27T15:19:26Z</time></trkpt>
<trkpt lat="26.189935" lon="100.149828">
<time>2015-08-27T15:19:27Z</time></trkpt>
<trkpt lat="26.189865" lon="100.149838">
<time>2015-08-27T15:19:28Z</time></trkpt>
<trkpt lat="26.189785" lon="100.149888">
<time>2015-08-27T15:19:29Z</time></trkpt>
<trkpt lat="26.189725" lon="100.149938">
<time>2015-08-27T15:19:30Z</time></trkpt>
<trkpt lat="26.189645" lon="100.150069">
<time>2015-08-27T15:19:31Z</time></trkpt>
<trkpt lat="26.189626" lon="100.150209">
<time>2015-08-27T15:19:32Z</time></trkpt>
<trkpt lat="26.189626" lon="100.150469">
<time>2015-08-27T15:19:33Z</time></trkpt>
<trkpt lat="26.189627" lon="100.15072">
<time>2015-08-27T15:19:34Z</time></trkpt>
<trkpt lat="26.189617" lon="100.15083">
<time>2015-08-27T15:19:35Z</time></trkpt>
<trkpt lat="26.189607" lon="100.15091">
<time>2015-08-27T15:19:36Z</time></trkpt>
<trkpt lat="26.189567" lon="100.15105">
<time>2015-08-27T15:19:37Z</time></trkpt>
<trkpt lat="26.189527" lon="100.151141">
<time>2015-08-27T15:19:38Z</time></trkpt>
<trkpt lat="26.189398" lon="100.151391">
<time>2015-08-27T15:19:39Z</time></trkpt>
<trkpt lat="26.189268" lon="100.151602">
<time>2015-08-27T15:19:40Z</time></trkpt>
<trkpt lat="26.189118" lon="100.151812">
<time>2015-08-27T15:19:41Z</time></trkpt>
<trkpt lat="26.188998" lon="100.151982">
<time>2015-08-27T15:19:42Z</time></trkpt>
<trkpt lat="26.188869" lon="100.152173">
<time>2015-08-27T15:19:43Z</time></trkpt>
<trkpt lat="26.188749" lon="100.152323">
<time>2015-08-27T15:19:44Z</time></trkpt>
<trkpt lat="26.188669" lon="100.152393">
<time>2015-08-27T15:19:45Z</time></trkpt>
<trkpt lat="26.188579" lon="100.152473">
<time>2015-08-27T15:19:46Z</time></trkpt>
<trkpt lat="26.188479" lon="100.152543">
<time>2015-08-27T15:19:47Z</time></trkpt>
<trkpt lat="26.188379" lon="100.152594">
<time>2015-08-27T15:19:48Z</time></trkpt>
<trkpt lat="26.188259" lon="100.152634">
<time>2015-08-27T15:19:49Z</time></trkpt>
<trkpt lat="26.188089" lon="100.152654">
<time>2015-08-27T15:19:50Z</time></trkpt>
<trkpt lat="26.187979" lon="100.152644">
<time>2015-08-27T15:19:51Z</time></trkpt>
<trkpt lat="26.187829" lon="100.152614">
<time>2015-08-27T15:19:52Z</time></trkpt>
<trkpt lat="26.187699" lon="100.152543">
<time>2015-08-27T15:19:53Z</time></trkpt>
<trkpt lat="26.187568" lon="100.152473">
<time>2015-08-27T15:19:54Z</time></trkpt>
<trkpt lat="26.187448" lon="100.152393">
<time>2015-08-27T15:19:55Z</time></trkpt>
<trkpt lat="26.187248" lon="100.152243">
<time>2015-08-27T15:19:56Z</time></trkpt>
<trkpt lat="26.187087" lon="100.152123">
<time>2015-08-27T15:19:57Z</time></trkpt>
<trkpt lat="26.186947" lon="100.152032">
<time>2015-08-27T15:19:58Z</time></trkpt>
<trkpt lat="26.186897" lon="100.151992">
<time>2015-08-27T15:19:59Z</time></trkpt>
<trkpt lat="26.186807" lon="100.151952">
<time>2015-08-27T15:20:00Z</time></trkpt>
<trkpt lat="26.186707" lon="100.151922">
<time>2015-08-27T15:20:01Z</time></trkpt>
<trkpt lat="26.186637" lon="100.151922">
<time>2015-08-27T15:20:02Z</time></trkpt>
<trkpt lat="26.186567" lon="100.151932">
<time>2015-08-27T15:20:03Z</time></trkpt>
<trkpt lat="26.186487" lon="100.151952">
<time>2015-08-27T15:20:04Z</time></trkpt>
<trkpt lat="26.186387" lon="100.152022">
<time>2015-08-27T15:20:05Z</time></trkpt>
<trkpt lat="26.186267" lon="100.152133">
<time>2015-08-27T15:20:06Z</time></trkpt>
<trkpt lat="26.186077" lon="100.152333">
<time>2015-08-27T15:20:07Z</time></trkpt>
<trkpt lat="26.185917" lon="100.152513">
<time>2015-08-27T15:20:08Z</time></trkpt>
<trkpt lat="26.185768" lon="100.152684">
<time>2015-08-27T15:20:09Z</time></trkpt>
<trkpt lat="26.185648" lon="100.152824">
<time>2015-08-27T15:20:10Z</time></trkpt>
<trkpt lat="26.185598" lon="100.152904">
<time>2015-08-27T15:20:11Z</time></trkpt>
<trkpt lat="26.185568" lon="100.153004">
<time>2015-08-27T15:20:12Z</time></trkpt>
<trkpt lat="26.185548" lon="100.153095">
<time>2015-08-27T15:20:13Z</time></trkpt>
<trkpt lat="26.185568" lon="100.153225">
<time>2015-08-27T15:20:14Z</time></trkpt>
<trkpt lat="26.185639" lon="100.153365">
<time>2015-08-27T15:20:15Z</time></trkpt>
<trkpt lat="26.185749" lon="100.153576">
<time>2015-08-27T15:20:16Z</time></trkpt>
<trkpt lat="26.185819" lon="100.153716">
<time>2015-08-27T15:20:17Z</time></trkpt>
<trkpt lat="26.18589" lon="100.153906">
<time>2015-08-27T15:20:18Z</time></trkpt>
<trkpt lat="26.18593" lon="100.154057">
<time>2015-08-27T15:20:19Z</time></trkpt>
<trkpt lat="26.18595" lon="100.154137">
<time>2015-08-27T15:20:20Z</time></trkpt>
<trkpt lat="26.185971" lon="100.154257">
<time>2015-08-27T15:20:21Z</time></trkpt>
<trkpt lat="26.185971" lon="100.154347">
<time>2015-08-27T15:20:22Z</time></trkpt>
<trkpt lat="26.185981" lon="100.154437">
<time>2015-08-27T15:20:23Z</time></trkpt>
<trkpt lat="26.185981" lon="100.154598">
<time>2015-08-27T15:20:24Z</time></trkpt>
<trkpt lat="26.185972" lon="100.154868">
<time>2015-08-27T15:20:25Z</time></trkpt>
<trkpt lat="26.185952" lon="100.155119">
<time>2015-08-27T15:20:26Z</time></trkpt>
<trkpt lat="26.185942" lon="100.155339">
<time>2015-08-27T15:20:27Z</time></trkpt>
<trkpt lat="26.185943" lon="100.15563">
<time>2015-08-27T15:20:28Z</time></trkpt>
<trkpt lat="26.185943" lon="100.15586">
<time>2015-08-27T15:20:29Z</time></trkpt>
<trkpt lat="26.185954" lon="100.156131">
<time>2015-08-27T15:20:30Z</time></trkpt>
<trkpt lat="26.185944" lon="100.156241">
<time>2015-08-27T15:20:31Z</time></trkpt>
<trkpt lat="26.185944" lon="100.156281">
<time>2015-08-27T15:20:32Z</time></trkpt>
<trkpt lat="26.185934" lon="100.156331">
<time>2015-08-27T15:20:33Z</time></trkpt>
<trkpt lat="26.185924" lon="100.156381">
<time>2015-08-27T15:20:34Z</time></trkpt>
<trkpt lat="26.185904" lon="100.156441">
<time>2015-08-27T15:20:35Z</time></trkpt>
<trkpt lat="26.185884" lon="100.156481">
<time>2015-08-27T15:20:36Z</time></trkpt>
<trkpt lat="26.185875" lon="100.156511">
<time>2015-08-27T15:20:37Z</time></trkpt>
<trkpt lat="26.185805" lon="100.156602">
<time>2015-08-27T15:20:38Z</time></trkpt>
<trkpt lat="26.185725" lon="100.156682">
<time>2015-08-27T15:20:39Z</time></trkpt>
<trkpt lat="26.185645" lon="100.156712">
<time>2015-08-27T15:20:40Z</time></trkpt>
<trkpt lat="26.185465" lon="100.156782">
<time>2015-08-27T15:20:41Z</time></trkpt>
<trkpt lat="26.185375" lon="100.156812">
<time>2015-08-27T15:20:42Z</time></trkpt>
<trkpt lat="26.185305" lon="100.156842">
<time>2015-08-27T15:20:43Z</time></trkpt>
<trkpt lat="26.185235" lon="100.156882">
<time>2015-08-27T15:20:44Z</time></trkpt>
<trkpt lat="26.185125" lon="100.156942">
<time>2015-08-27T15:20:45Z</time></trkpt>
<trkpt lat="26.185055" lon="100.157013">
<time>2015-08-27T15:20:46Z</time></trkpt>
<trkpt lat="26.184995" lon="100.157063">
<time>2015-08-27T15:20:47Z</time></trkpt>
<trkpt lat="26.184925" lon="100.157153">
<time>2015-08-27T15:20:48Z</time></trkpt>
<trkpt lat="26.184855" lon="100.157243">
<time>2015-08-27T15:20:49Z</time></trkpt>
<trkpt lat="26.184745" lon="100.157403">
<time>2015-08-27T15:20:50Z</time></trkpt>
<trkpt lat="26.184566" lon="100.157684">
<time>2015-08-27T15:20:51Z</time></trkpt>
<trkpt lat="26.184436" lon="100.157884">
<time>2015-08-27T15:20:52Z</time></trkpt>
<trkpt lat="26.184306" lon="100.158085">
<time>2015-08-27T15:20:53Z</time></trkpt>
<trkpt lat="26.184157" lon="100.158305">
<time>2015-08-27T15:20:54Z</time></trkpt>
<trkpt lat="26.184037" lon="100.158486">
<time>2015-08-27T15:20:55Z</time></trkpt>
<trkpt lat="26.183907" lon="100.158676">
<time>2015-08-27T15:20:56Z</time></trkpt>
<trkpt lat="26.183827" lon="100.158776">
<time>2015-08-27T15:20:57Z</time></trkpt>
<trkpt lat="26.183767" lon="100.158846">
<time>2015-08-27T15:20:58Z</time></trkpt>
<trkpt lat="26.183598" lon="100.158977">
<time>2015-08-27T15:20:59Z</time></trkpt>
<trkpt lat="26.183558" lon="100.158997">
<time>2015-08-27T15:21:00Z</time></trkpt>
<trkpt lat="26.183508" lon="100.159007">
<time>2015-08-27T15:21:01Z</time></trkpt>
<trkpt lat="26.183458" lon="100.159007">
<time>2015-08-27T15:21:02Z</time></trkpt>
<trkpt lat="26.183428" lon="100.158997">
<time>2015-08-27T15:21:03Z</time></trkpt>
<trkpt lat="26.183407" lon="100.158997">
<time>2015-08-27T15:21:04Z</time></trkpt>
<trkpt lat="26.183387" lon="100.158967">
<time>2015-08-27T15:21:05Z</time></trkpt>
<trkpt lat="26.183357" lon="100.158926">
<time>2015-08-27T15:21:06Z</time></trkpt>
<trkpt lat="26.183307" lon="100.158866">
<time>2015-08-27T15:21:07Z</time></trkpt>
<trkpt lat="26.183257" lon="100.158816">
<time>2015-08-27T15:21:08Z</time></trkpt>
<trkpt lat="26.183207" lon="100.158736">
<time>2015-08-27T15:21:09Z</time></trkpt>
<trkpt lat="26.183167" lon="100.158626">
<time>2015-08-27T15:21:10Z</time></trkpt>
<trkpt lat="26.183086" lon="100.158345">
<time>2015-08-27T15:21:11Z</time></trkpt>
<trkpt lat="26.183036" lon="100.158145">
<time>2015-08-27T15:21:12Z</time></trkpt>
<trkpt lat="26.183005" lon="100.158035">
<time>2015-08-27T15:21:13Z</time></trkpt>
<trkpt lat="26.182955" lon="100.157944">
<time>2015-08-27T15:21:14Z</time></trkpt>
<trkpt lat="26.182855" lon="100.157804">
<time>2015-08-27T15:21:15Z</time></trkpt>
<trkpt lat="26.182745" lon="100.157684">
<time>2015-08-27T15:21:16Z</time></trkpt>
<trkpt lat="26.182654" lon="100.157614">
<time>2015-08-27T15:21:17Z</time></trkpt>
<trkpt lat="26.182564" lon="100.157564">
<time>2015-08-27T15:21:18Z</time></trkpt>
<trkpt lat="26.182384" lon="100.157484">
<time>2015-08-27T15:21:19Z</time></trkpt>
<trkpt lat="26.182194" lon="100.157393">
<time>2015-08-27T15:21:20Z</time></trkpt>
<trkpt lat="26.182054" lon="100.157313">
<time>2015-08-27T15:21:21Z</time></trkpt>
<trkpt lat="26.181943" lon="100.157243">
<time>2015-08-27T15:21:22Z</time></trkpt>
<trkpt lat="26.181773" lon="100.157113">
<time>2015-08-27T15:21:23Z</time></trkpt>
<trkpt lat="26.181613" lon="100.156973">
<time>2015-08-27T15:21:24Z</time></trkpt>
<trkpt lat="26.181492" lon="100.156892">
<time>2015-08-27T15:21:25Z</time></trkpt>
<trkpt lat="26.181412" lon="100.156872">
<time>2015-08-27T15:21:26Z</time></trkpt>
<trkpt lat="26.181312" lon="100.156882">
<time>2015-08-27T15:21:27Z</time></trkpt>
<trkpt lat="26.181232" lon="100.156922">
<time>2015-08-27T15:21:28Z</time></trkpt>
<trkpt lat="26.181172" lon="100.156973">
<time>2015-08-27T15:21:29Z</time></trkpt>
<trkpt lat="26.181103" lon="100.157083">
<time>2015-08-27T15:21:30Z</time></trkpt>
<trkpt lat="26.181013" lon="100.157273">
<time>2015-08-27T15:21:31Z</time></trkpt>
<trkpt lat="26.180913" lon="100.157504">
<time>2015-08-27T15:21:32Z</time></trkpt>
<trkpt lat="26.180794" lon="100.157774">
<time>2015-08-27T15:21:33Z</time></trkpt>
<trkpt lat="26.180704" lon="100.157975">
<time>2015-08-27T15:21:34Z</time></trkpt>
<trkpt lat="26.180584" lon="100.158245">
<time>2015-08-27T15:21:35Z</time></trkpt>
<trkpt lat="26.180475" lon="100.158456">
<time>2015-08-27T15:21:36Z</time></trkpt>
<trkpt lat="26.180365" lon="100.158646">
<time>2015-08-27T15:21:37Z</time></trkpt>
<trkpt lat="26.180265" lon="100.158826">
<time>2015-08-27T15:21:38Z</time></trkpt>
<trkpt lat="26.180145" lon="100.159007">
<time>2015-08-27T15:21:39Z</time></trkpt>
<trkpt lat="26.180056" lon="100.159127">
<time>2015-08-27T15:21:40Z</time></trkpt>
<trkpt lat="26.179936" lon="100.159287">
<time>2015-08-27T15:21:41Z</time></trkpt>
<trkpt lat="26.179816" lon="100.159418">
<time>2015-08-27T15:21:42Z</time></trkpt>
<trkpt lat="26.179686" lon="100.159548">
<time>2015-08-27T15:21:43Z</time></trkpt>
<trkpt lat="26.179536" lon="100.159648">
<time>2015-08-27T15:21:44Z</time></trkpt>
<trkpt lat="26.179356" lon="100.159728">
<time>2015-08-27T15:21:45Z</time></trkpt>
<trkpt lat="26.179156" lon="100.159778">
<time>2015-08-27T15:21:46Z</time></trkpt>
<trkpt lat="26.178926" lon="100.159838">
<time>2015-08-27T15:21:47Z</time></trkpt>
<trkpt lat="26.178686" lon="100.159889">
<time>2015-08-27T15:21:48Z</time></trkpt>
<trkpt lat="26.178426" lon="100.159939">
<time>2015-08-27T15:21:49Z</time></trkpt>
<trkpt lat="26.178146" lon="100.160009">
<time>2015-08-27T15:21:50Z</time></trkpt>
<trkpt lat="26.177846" lon="100.160089">
<time>2015-08-27T15:21:51Z</time></trkpt>
<trkpt lat="26.177546" lon="100.160179">
<time>2015-08-27T15:21:52Z</time></trkpt>
<trkpt lat="26.177216" lon="100.160309">
<time>2015-08-27T15:21:53Z</time></trkpt>
<trkpt lat="26.176896" lon="100.16043">
<time>2015-08-27T15:21:54Z</time></trkpt>
<trkpt lat="26.176566" lon="100.16055">
<time>2015-08-27T15:21:55Z</time></trkpt>
<trkpt lat="26.176216" lon="100.16068">
<time>2015-08-27T15:21:56Z</time></trkpt>
<trkpt lat="26.175896" lon="100.160791">
<time>2015-08-27T15:21:57Z</time></trkpt>
<trkpt lat="26.175566" lon="100.160921">
<time>2015-08-27T15:21:58Z</time></trkpt>
<trkpt lat="26.175246" lon="100.161041">
<time>2015-08-27T15:21:59Z</time></trkpt>
<trkpt lat="26.174916" lon="100.161161">
<time>2015-08-27T15:22:00Z</time></trkpt>
<trkpt lat="26.174586" lon="100.161292">
<time>2015-08-27T15:22:01Z</time></trkpt>
<trkpt lat="26.174306" lon="100.161392">
<time>2015-08-27T15:22:02Z</time></trkpt>
<trkpt lat="26.174056" lon="100.161482">
<time>2015-08-27T15:22:03Z</time></trkpt>
<trkpt lat="26.173796" lon="100.161592">
<time>2015-08-27T15:22:04Z</time></trkpt>
<trkpt lat="26.173566" lon="100.161662">
<time>2015-08-27T15:22:05Z</time></trkpt>
<trkpt lat="26.173396" lon="100.161692">
<time>2015-08-27T15:22:06Z</time></trkpt>
<trkpt lat="26.173306" lon="100.161692">
<time>2015-08-27T15:22:07Z</time></trkpt>
<trkpt lat="26.173166" lon="100.161662">
<time>2015-08-27T15:22:08Z</time></trkpt>
<trkpt lat="26.173056" lon="100.161622">
<time>2015-08-27T15:22:09Z</time></trkpt>
<trkpt lat="26.172946" lon="100.161552">
<time>2015-08-27T15:22:10Z</time></trkpt>
<trkpt lat="26.172845" lon="100.161462">
<time>2015-08-27T15:22:11Z</time></trkpt>
<trkpt lat="26.172655" lon="100.161262">
<time>2015-08-27T15:22:12Z</time></trkpt>
<trkpt lat="26.172474" lon="100.161061">
<time>2015-08-27T15:22:13Z</time></trkpt>
<trkpt lat="26.172334" lon="100.160901">
<time>2015-08-27T15:22:14Z</time></trkpt>
<trkpt lat="26.172214" lon="100.160761">
<time>2015-08-27T15:22:15Z</time></trkpt>
<trkpt lat="26.172093" lon="100.16059">
<time>2015-08-27T15:22:16Z</time></trkpt>
<trkpt lat="26.172033" lon="100.16047">
<time>2015-08-27T15:22:17Z</time></trkpt>
<trkpt lat="26.171993" lon="100.16036">
<time>2015-08-27T15:22:18Z</time></trkpt>
<trkpt lat="26.171963" lon="100.160219">
<time>2015-08-27T15:22:19Z</time></trkpt>
<trkpt lat="26.171952" lon="100.160069">
<time>2015-08-27T15:22:20Z</time></trkpt>
<trkpt lat="26.171932" lon="100.159829">
<time>2015-08-27T15:22:21Z</time></trkpt>
<trkpt lat="26.171901" lon="100.159648">
<time>2015-08-27T15:22:22Z</time></trkpt>
<trkpt lat="26.171881" lon="100.159488">
<time>2015-08-27T15:22:23Z</time></trkpt>
<trkpt lat="26.1718" lon="100.159137">
<time>2015-08-27T15:22:24Z</time></trkpt>
<trkpt lat="26.171388" lon="100.157905">
<time>2015-08-27T15:22:25Z</time></trkpt>
<trkpt lat="26.171338" lon="100.157804">
<time>2015-08-27T15:22:26Z</time></trkpt>
<trkpt lat="26.171278" lon="100.157724">
<time>2015-08-27T15:22:27Z</time></trkpt>
<trkpt lat="26.171217" lon="100.157654">
<time>2015-08-27T15:22:28Z</time></trkpt>
<trkpt lat="26.171147" lon="100.157584">
<time>2015-08-27T15:22:29Z</time></trkpt>
<trkpt lat="26.171057" lon="100.157524">
<time>2015-08-27T15:22:30Z</time></trkpt>
<trkpt lat="26.170967" lon="100.157484">
<time>2015-08-27T15:22:31Z</time></trkpt>
<trkpt lat="26.170877" lon="100.157454">
<time>2015-08-27T15:22:32Z</time></trkpt>
<trkpt lat="26.170797" lon="100.157434">
<time>2015-08-27T15:22:33Z</time></trkpt>
<trkpt lat="26.170717" lon="100.157434">
<time>2015-08-27T15:22:34Z</time></trkpt>
<trkpt lat="26.170617" lon="100.157444">
<time>2015-08-27T15:22:35Z</time></trkpt>
<trkpt lat="26.170517" lon="100.157454">
<time>2015-08-27T15:22:36Z</time></trkpt>
<trkpt lat="26.170417" lon="100.157484">
<time>2015-08-27T15:22:37Z</time></trkpt>
<trkpt lat="26.170267" lon="100.157524">
<time>2015-08-27T15:22:38Z</time></trkpt>
<trkpt lat="26.170167" lon="100.157564">
<time>2015-08-27T15:22:39Z</time></trkpt>
<trkpt lat="26.168817" lon="100.158005">
<time>2015-08-27T15:22:40Z</time></trkpt>
<trkpt lat="26.167846" lon="100.158296">
<time>2015-08-27T15:22:41Z</time></trkpt>
<trkpt lat="26.167586" lon="100.158346">
<time>2015-08-27T15:22:42Z</time></trkpt>
<trkpt lat="26.167236" lon="100.158376">
<time>2015-08-27T15:22:43Z</time></trkpt>
<trkpt lat="26.166686" lon="100.158396">
<time>2015-08-27T15:22:44Z</time></trkpt>
<trkpt lat="26.166426" lon="100.158436">
<time>2015-08-27T15:22:45Z</time></trkpt>
<trkpt lat="26.166126" lon="100.158506">
<time>2015-08-27T15:22:46Z</time></trkpt>
<trkpt lat="26.165736" lon="100.158646">
<time>2015-08-27T15:22:47Z</time></trkpt>
<trkpt lat="26.165576" lon="100.158686">
<time>2015-08-27T15:22:48Z</time></trkpt>
<trkpt lat="26.165406" lon="100.158727">
<time>2015-08-27T15:22:49Z</time></trkpt>
<trkpt lat="26.165236" lon="100.158727">
<time>2015-08-27T15:22:50Z</time></trkpt>
<trkpt lat="26.165005" lon="100.158686">
<time>2015-08-27T15:22:51Z</time></trkpt>
<trkpt lat="26.164715" lon="100.158626">
<time>2015-08-27T15:22:52Z</time></trkpt>
<trkpt lat="26.164365" lon="100.158576">
<time>2015-08-27T15:22:53Z</time></trkpt>
<trkpt lat="26.164094" lon="100.158546">
<time>2015-08-27T15:22:54Z</time></trkpt>
<trkpt lat="26.163914" lon="100.158536">
<time>2015-08-27T15:22:55Z</time></trkpt>
<trkpt lat="26.163744" lon="100.158546">
<time>2015-08-27T15:22:56Z</time></trkpt>
<trkpt lat="26.163544" lon="100.158606">
<time>2015-08-27T15:22:57Z</time></trkpt>
<trkpt lat="26.163274" lon="100.158697">
<time>2015-08-27T15:22:58Z</time></trkpt>
<trkpt lat="26.162804" lon="100.158907">
<time>2015-08-27T15:22:59Z</time></trkpt>
<trkpt lat="26.162384" lon="100.159097">
<time>2015-08-27T15:23:00Z</time></trkpt>
<trkpt lat="26.162184" lon="100.159178">
<time>2015-08-27T15:23:01Z</time></trkpt>
<trkpt lat="26.161984" lon="100.159258">
<time>2015-08-27T15:23:02Z</time></trkpt>
<trkpt lat="26.161704" lon="100.159338">
<time>2015-08-27T15:23:03Z</time></trkpt>
<trkpt lat="26.161534" lon="100.159368">
<time>2015-08-27T15:23:04Z</time></trkpt>
<trkpt lat="26.161294" lon="100.159398">
<time>2015-08-27T15:23:05Z</time></trkpt>
<trkpt lat="26.161054" lon="100.159378">
<time>2015-08-27T15:23:06Z</time></trkpt>
<trkpt lat="26.160724" lon="100.159328">
<time>2015-08-27T15:23:07Z</time></trkpt>
<trkpt lat="26.159863" lon="100.159208">
<time>2015-08-27T15:23:08Z</time></trkpt>
<trkpt lat="26.158191" lon="100.158937">
<time>2015-08-27T15:23:09Z</time></trkpt>
<trkpt lat="26.15646" lon="100.158677">
<time>2015-08-27T15:23:10Z</time></trkpt>
<trkpt lat="26.155319" lon="100.158506">
<time>2015-08-27T15:23:11Z</time></trkpt>
<trkpt lat="26.155029" lon="100.158496">
<time>2015-08-27T15:23:12Z</time></trkpt>
<trkpt lat="26.154849" lon="100.158516">
<time>2015-08-27T15:23:13Z</time></trkpt>
<trkpt lat="26.154669" lon="100.158566">
<time>2015-08-27T15:23:14Z</time></trkpt>
<trkpt lat="26.154459" lon="100.158667">
<time>2015-08-27T15:23:15Z</time></trkpt>
<trkpt lat="26.154219" lon="100.158797">
<time>2015-08-27T15:23:16Z</time></trkpt>
<trkpt lat="26.153969" lon="100.158977">
<time>2015-08-27T15:23:17Z</time></trkpt>
<trkpt lat="26.153699" lon="100.159148">
<time>2015-08-27T15:23:18Z</time></trkpt>
<trkpt lat="26.15263" lon="100.159899">
<time>2015-08-27T15:23:19Z</time></trkpt>
<trkpt lat="26.15215" lon="100.1602">
<time>2015-08-27T15:23:20Z</time></trkpt>
<trkpt lat="26.15195" lon="100.16033">
<time>2015-08-27T15:23:21Z</time></trkpt>
<trkpt lat="26.15181" lon="100.16043">
<time>2015-08-27T15:23:22Z</time></trkpt>
<trkpt lat="26.15162" lon="100.160531">
<time>2015-08-27T15:23:23Z</time></trkpt>
<trkpt lat="26.15123" lon="100.160771">
<time>2015-08-27T15:23:24Z</time></trkpt>
<trkpt lat="26.150881" lon="100.161002">
<time>2015-08-27T15:23:25Z</time></trkpt>
<trkpt lat="26.150671" lon="100.161132">
<time>2015-08-27T15:23:26Z</time></trkpt>
<trkpt lat="26.150431" lon="100.161292">
<time>2015-08-27T15:23:27Z</time></trkpt>
<trkpt lat="26.150181" lon="100.161412">
<time>2015-08-27T15:23:28Z</time></trkpt>
<trkpt lat="26.149851" lon="100.161573">
<time>2015-08-27T15:23:29Z</time></trkpt>
<trkpt lat="26.149601" lon="100.161673">
<time>2015-08-27T15:23:30Z</time></trkpt>
<trkpt lat="26.149401" lon="100.161733">
<time>2015-08-27T15:23:31Z</time></trkpt>
<trkpt lat="26.149051" lon="100.161843">
<time>2015-08-27T15:23:32Z</time></trkpt>
<trkpt lat="26.148721" lon="100.161934">
<time>2015-08-27T15:23:33Z</time></trkpt>
<trkpt lat="26.148491" lon="100.162004">
<time>2015-08-27T15:23:34Z</time></trkpt>
<trkpt lat="26.148211" lon="100.162114">
<time>2015-08-27T15:23:35Z</time></trkpt>
<trkpt lat="26.148001" lon="100.162204">
<time>2015-08-27T15:23:36Z</time></trkpt>
<trkpt lat="26.147801" lon="100.162314">
<time>2015-08-27T15:23:37Z</time></trkpt>
<trkpt lat="26.147431" lon="100.162535">
<time>2015-08-27T15:23:38Z</time></trkpt>
<trkpt lat="26.147081" lon="100.162775">
<time>2015-08-27T15:23:39Z</time></trkpt>
<trkpt lat="26.146702" lon="100.163026">
<time>2015-08-27T15:23:40Z</time></trkpt>
<trkpt lat="26.146412" lon="100.163226">
<time>2015-08-27T15:23:41Z</time></trkpt>
<trkpt lat="26.146162" lon="100.163397">
<time>2015-08-27T15:23:42Z</time></trkpt>
<trkpt lat="26.146032" lon="100.163487">
<time>2015-08-27T15:23:43Z</time></trkpt>
<trkpt lat="26.145832" lon="100.163617">
<time>2015-08-27T15:23:44Z</time></trkpt>
<trkpt lat="26.145532" lon="100.163828">
<time>2015-08-27T15:23:45Z</time></trkpt>
<trkpt lat="26.145183" lon="100.164068">
<time>2015-08-27T15:23:46Z</time></trkpt>
<trkpt lat="26.145023" lon="100.164178">
<time>2015-08-27T15:23:47Z</time></trkpt>
<trkpt lat="26.144923" lon="100.164259">
<time>2015-08-27T15:23:48Z</time></trkpt>
<trkpt lat="26.144743" lon="100.164419">
<time>2015-08-27T15:23:49Z</time></trkpt>
<trkpt lat="26.144533" lon="100.164619">
<time>2015-08-27T15:23:50Z</time></trkpt>
<trkpt lat="26.144453" lon="100.1647">
<time>2015-08-27T15:23:51Z</time></trkpt>
<trkpt lat="26.144333" lon="100.16483">
<time>2015-08-27T15:23:52Z</time></trkpt>
<trkpt lat="26.144204" lon="100.16499">
<time>2015-08-27T15:23:53Z</time></trkpt>
<trkpt lat="26.144094" lon="100.16513">
<time>2015-08-27T15:23:54Z</time></trkpt>
<trkpt lat="26.143974" lon="100.165291">
<time>2015-08-27T15:23:55Z</time></trkpt>
<trkpt lat="26.143844" lon="100.165461">
<time>2015-08-27T15:23:56Z</time></trkpt>
<trkpt lat="26.143685" lon="100.165652">
<time>2015-08-27T15:23:57Z</time></trkpt>
<trkpt lat="26.143515" lon="100.165872">
<time>2015-08-27T15:23:58Z</time></trkpt>
<trkpt lat="26.143405" lon="100.166002">
<time>2015-08-27T15:23:59Z</time></trkpt>
<trkpt lat="26.143265" lon="100.166143">
<time>2015-08-27T15:24:00Z</time></trkpt>
<trkpt lat="26.143195" lon="100.166223">
<time>2015-08-27T15:24:01Z</time></trkpt>
<trkpt lat="26.143085" lon="100.166313">
<time>2015-08-27T15:24:02Z</time></trkpt>
<trkpt lat="26.142965" lon="100.166403">
<time>2015-08-27T15:24:03Z</time></trkpt>
<trkpt lat="26.142816" lon="100.166493">
<time>2015-08-27T15:24:04Z</time></trkpt>
<trkpt lat="26.142626" lon="100.166594">
<time>2015-08-27T15:24:05Z</time></trkpt>
<trkpt lat="26.142396" lon="100.166714">
<time>2015-08-27T15:24:06Z</time></trkpt>
<trkpt lat="26.142086" lon="100.166874">
<time>2015-08-27T15:24:07Z</time></trkpt>
<trkpt lat="26.141806" lon="100.167024">
<time>2015-08-27T15:24:08Z</time></trkpt>
<trkpt lat="26.141586" lon="100.167145">
<time>2015-08-27T15:24:09Z</time></trkpt>
<trkpt lat="26.141346" lon="100.167265">
<time>2015-08-27T15:24:10Z</time></trkpt>
<trkpt lat="26.141106" lon="100.167375">
<time>2015-08-27T15:24:11Z</time></trkpt>
<trkpt lat="26.140796" lon="100.167465">
<time>2015-08-27T15:24:12Z</time></trkpt>
<trkpt lat="26.140706" lon="100.167485">
<time>2015-08-27T15:24:13Z</time></trkpt>
<trkpt lat="26.140366" lon="100.167526">
<time>2015-08-27T15:24:14Z</time></trkpt>
<trkpt lat="26.139716" lon="100.167566">
<time>2015-08-27T15:24:15Z</time></trkpt>
<trkpt lat="26.139355" lon="100.167576">
<time>2015-08-27T15:24:16Z</time></trkpt>
<trkpt lat="26.139245" lon="100.167586">
<time>2015-08-27T15:24:17Z</time></trkpt>
<trkpt lat="26.138985" lon="100.167616">
<time>2015-08-27T15:24:18Z</time></trkpt>
<trkpt lat="26.138665" lon="100.167626">
<time>2015-08-27T15:24:19Z</time></trkpt>
<trkpt lat="26.138535" lon="100.167636">
<time>2015-08-27T15:24:20Z</time></trkpt>
<trkpt lat="26.138225" lon="100.167666">
<time>2015-08-27T15:24:21Z</time></trkpt>
<trkpt lat="26.138005" lon="100.167676">
<time>2015-08-27T15:24:22Z</time></trkpt>
<trkpt lat="26.136834" lon="100.167756">
<time>2015-08-27T15:24:23Z</time></trkpt>
<trkpt lat="26.135423" lon="100.167866">
<time>2015-08-27T15:24:24Z</time></trkpt>
<trkpt lat="26.134163" lon="100.167937">
<time>2015-08-27T15:24:25Z</time></trkpt>
<trkpt lat="26.133953" lon="100.167967">
<time>2015-08-27T15:24:26Z</time></trkpt>
<trkpt lat="26.133813" lon="100.168007">
<time>2015-08-27T15:24:27Z</time></trkpt>
<trkpt lat="26.133743" lon="100.168037">
<time>2015-08-27T15:24:28Z</time></trkpt>
<trkpt lat="26.133633" lon="100.168077">
<time>2015-08-27T15:24:29Z</time></trkpt>
<trkpt lat="26.133523" lon="100.168147">
<time>2015-08-27T15:24:30Z</time></trkpt>
<trkpt lat="26.133413" lon="100.168237">
<time>2015-08-27T15:24:31Z</time></trkpt>
<trkpt lat="26.133323" lon="100.168307">
<time>2015-08-27T15:24:32Z</time></trkpt>
<trkpt lat="26.133093" lon="100.168488">
<time>2015-08-27T15:24:33Z</time></trkpt>
<trkpt lat="26.132843" lon="100.168718">
<time>2015-08-27T15:24:34Z</time></trkpt>
<trkpt lat="26.132643" lon="100.168889">
<time>2015-08-27T15:24:35Z</time></trkpt>
<trkpt lat="26.132573" lon="100.168949">
<time>2015-08-27T15:24:36Z</time></trkpt>
<trkpt lat="26.132514" lon="100.169009">
<time>2015-08-27T15:24:37Z</time></trkpt>
<trkpt lat="26.132374" lon="100.169179">
<time>2015-08-27T15:24:38Z</time></trkpt>
<trkpt lat="26.132304" lon="100.169259">
<time>2015-08-27T15:24:39Z</time></trkpt>
<trkpt lat="26.132214" lon="100.16939">
<time>2015-08-27T15:24:40Z</time></trkpt>
<trkpt lat="26.132104" lon="100.16958">
<time>2015-08-27T15:24:41Z</time></trkpt>
<trkpt lat="26.132045" lon="100.16969">
<time>2015-08-27T15:24:42Z</time></trkpt>
<trkpt lat="26.131955" lon="100.169841">
<time>2015-08-27T15:24:43Z</time></trkpt>
<trkpt lat="26.131905" lon="100.169931">
<time>2015-08-27T15:24:44Z</time></trkpt>
<trkpt lat="26.131845" lon="100.170011">
<time>2015-08-27T15:24:45Z</time></trkpt>
<trkpt lat="26.131775" lon="100.170101">
<time>2015-08-27T15:24:46Z</time></trkpt>
<trkpt lat="26.131735" lon="100.170151">
<time>2015-08-27T15:24:47Z</time></trkpt>
<trkpt lat="26.131675" lon="100.170211">
<time>2015-08-27T15:24:48Z</time></trkpt>
<trkpt lat="26.131645" lon="100.170242">
<time>2015-08-27T15:24:49Z</time></trkpt>
<trkpt lat="26.131615" lon="100.170262">
<time>2015-08-27T15:24:50Z</time></trkpt>
<trkpt lat="26.131585" lon="100.170282">
<time>2015-08-27T15:24:51Z</time></trkpt>
<trkpt lat="26.131545" lon="100.170302">
<time>2015-08-27T15:24:52Z</time></trkpt>
<trkpt lat="26.131475" lon="100.170342">
<time>2015-08-27T15:24:53Z</time></trkpt>
<trkpt lat="26.131415" lon="100.170352">
<time>2015-08-27T15:24:54Z</time></trkpt>
<trkpt lat="26.131385" lon="100.170362">
<time>2015-08-27T15:24:55Z</time></trkpt>
<trkpt lat="26.131315" lon="100.170362">
<time>2015-08-27T15:24:56Z</time></trkpt>
<trkpt lat="26.131295" lon="100.170362">
<time>2015-08-27T15:24:57Z</time></trkpt>
<trkpt lat="26.131265" lon="100.170362">
<time>2015-08-27T15:24:58Z</time></trkpt>
<trkpt lat="26.131205" lon="100.170352">
<time>2015-08-27T15:24:59Z</time></trkpt>
<trkpt lat="26.131165" lon="100.170332">
<time>2015-08-27T15:25:00Z</time></trkpt>
<trkpt lat="26.131115" lon="100.170322">
<time>2015-08-27T15:25:01Z</time></trkpt>
<trkpt lat="26.131035" lon="100.170282">
<time>2015-08-27T15:25:02Z</time></trkpt>
<trkpt lat="26.130905" lon="100.170232">
<time>2015-08-27T15:25:03Z</time></trkpt>
<trkpt lat="26.130855" lon="100.170211">
<time>2015-08-27T15:25:04Z</time></trkpt>
<trkpt lat="26.130684" lon="100.170071">
<time>2015-08-27T15:25:05Z</time></trkpt>
<trkpt lat="26.130624" lon="100.170021">
<time>2015-08-27T15:25:06Z</time></trkpt>
<trkpt lat="26.130444" lon="100.169891">
<time>2015-08-27T15:25:07Z</time></trkpt>
<trkpt lat="26.130233" lon="100.16974">
<time>2015-08-27T15:25:08Z</time></trkpt>
<trkpt lat="26.129512" lon="100.169209">
<time>2015-08-27T15:25:09Z</time></trkpt>
<trkpt lat="26.128901" lon="100.168778">
<time>2015-08-27T15:25:10Z</time></trkpt>
<trkpt lat="26.127598" lon="100.167857">
<time>2015-08-27T15:25:11Z</time></trkpt>
<trkpt lat="26.127207" lon="100.167596">
<time>2015-08-27T15:25:12Z</time></trkpt>
<trkpt lat="26.126907" lon="100.167386">
<time>2015-08-27T15:25:13Z</time></trkpt>
<trkpt lat="26.126676" lon="100.167215">
<time>2015-08-27T15:25:14Z</time></trkpt>
<trkpt lat="26.126506" lon="100.167085">
<time>2015-08-27T15:25:15Z</time></trkpt>
<trkpt lat="26.126075" lon="100.166724">
<time>2015-08-27T15:25:16Z</time></trkpt>
<trkpt lat="26.125935" lon="100.166614">
<time>2015-08-27T15:25:17Z</time></trkpt>
<trkpt lat="26.125804" lon="100.166514">
<time>2015-08-27T15:25:18Z</time></trkpt>
<trkpt lat="26.125644" lon="100.166353">
<time>2015-08-27T15:25:19Z</time></trkpt>
<trkpt lat="26.125373" lon="100.166153">
<time>2015-08-27T15:25:20Z</time></trkpt>
<trkpt lat="26.125273" lon="100.166073">
<time>2015-08-27T15:25:21Z</time></trkpt>
<trkpt lat="26.125173" lon="100.165993">
<time>2015-08-27T15:25:22Z</time></trkpt>
<trkpt lat="26.124953" lon="100.165802">
<time>2015-08-27T15:25:23Z</time></trkpt>
<trkpt lat="26.124882" lon="100.165742">
<time>2015-08-27T15:25:24Z</time></trkpt>
<trkpt lat="26.124822" lon="100.165692">
<time>2015-08-27T15:25:25Z</time></trkpt>
<trkpt lat="26.124812" lon="100.165682">
<time>2015-08-27T15:25:26Z</time></trkpt>
<trkpt lat="26.124772" lon="100.165652">
<time>2015-08-27T15:25:27Z</time></trkpt>
<trkpt lat="26.124712" lon="100.165602">
<time>2015-08-27T15:25:28Z</time></trkpt>
<trkpt lat="26.124632" lon="100.165552">
<time>2015-08-27T15:25:29Z</time></trkpt>
<trkpt lat="26.124612" lon="100.165542">
<time>2015-08-27T15:25:30Z</time></trkpt>
<trkpt lat="26.124542" lon="100.165502">
<time>2015-08-27T15:25:31Z</time></trkpt>
<trkpt lat="26.124482" lon="100.165482">
<time>2015-08-27T15:25:32Z</time></trkpt>
<trkpt lat="26.124452" lon="100.165462">
<time>2015-08-27T15:25:33Z</time></trkpt>
<trkpt lat="26.124392" lon="100.165452">
<time>2015-08-27T15:25:34Z</time></trkpt>
<trkpt lat="26.124361" lon="100.165442">
<time>2015-08-27T15:25:35Z</time></trkpt>
<trkpt lat="26.124351" lon="100.165432">
<time>2015-08-27T15:25:36Z</time></trkpt>
<trkpt lat="26.124261" lon="100.165422">
<time>2015-08-27T15:25:37Z</time></trkpt>
<trkpt lat="26.123931" lon="100.165371">
<time>2015-08-27T15:25:38Z</time></trkpt>
<trkpt lat="26.123781" lon="100.165361">
<time>2015-08-27T15:25:39Z</time></trkpt>
<trkpt lat="26.123701" lon="100.165351">
<time>2015-08-27T15:25:40Z</time></trkpt>
<trkpt lat="26.123681" lon="100.165351">
<time>2015-08-27T15:25:41Z</time></trkpt>
<trkpt lat="26.123621" lon="100.165351">
<time>2015-08-27T15:25:42Z</time></trkpt>
<trkpt lat="26.123601" lon="100.165351">
<time>2015-08-27T15:25:43Z</time></trkpt>
<trkpt lat="26.123471" lon="100.165351">
<time>2015-08-27T15:25:44Z</time></trkpt>
<trkpt lat="26.123411" lon="100.165351">
<time>2015-08-27T15:25:45Z</time></trkpt>
<trkpt lat="26.123341" lon="100.165341">
<time>2015-08-27T15:25:46Z</time></trkpt>
<trkpt lat="26.123291" lon="100.165341">
<time>2015-08-27T15:25:47Z</time></trkpt>
<trkpt lat="26.12315" lon="100.165341">
<time>2015-08-27T15:25:48Z</time></trkpt>
<trkpt lat="26.12297" lon="100.165341">
<time>2015-08-27T15:25:49Z</time></trkpt>
<trkpt lat="26.12296" lon="100.165341">
<time>2015-08-27T15:25:50Z</time></trkpt>
<trkpt lat="26.12295" lon="100.165341">
<time>2015-08-27T15:25:51Z</time></trkpt>
<trkpt lat="26.12294" lon="100.165341">
<time>2015-08-27T15:25:52Z</time></trkpt>
<trkpt lat="26.12292" lon="100.165341">
<time>2015-08-27T15:25:53Z</time></trkpt>
<trkpt lat="26.12291" lon="100.165341">
<time>2015-08-27T15:25:54Z</time></trkpt>
<trkpt lat="26.1229" lon="100.165341">
<time>2015-08-27T15:25:55Z</time></trkpt>
<trkpt lat="26.12289" lon="100.165341">
<time>2015-08-27T15:25:56Z</time></trkpt>
<trkpt lat="26.12288" lon="100.165341">
<time>2015-08-27T15:25:57Z</time></trkpt>
<trkpt lat="26.12287" lon="100.165341">
<time>2015-08-27T15:25:58Z</time></trkpt>
<trkpt lat="26.12285" lon="100.165341">
<time>2015-08-27T15:25:59Z</time></trkpt>
<trkpt lat="26.12284" lon="100.165341">
<time>2015-08-27T15:26:00Z</time></trkpt>
<trkpt lat="26.12283" lon="100.165341">
<time>2015-08-27T15:26:01Z</time></trkpt>
<trkpt lat="26.12282" lon="100.165341">
<time>2015-08-27T15:26:02Z</time></trkpt>
<trkpt lat="26.12281" lon="100.165341">
<time>2015-08-27T15:26:03Z</time></trkpt>
<trkpt lat="26.1228" lon="100.165341">
<time>2015-08-27T15:26:04Z</time></trkpt>
<trkpt lat="26.12279" lon="100.165341">
<time>2015-08-27T15:26:05Z</time></trkpt>
<trkpt lat="26.12277" lon="100.165341">
<time>2015-08-27T15:26:06Z</time></trkpt>
<trkpt lat="26.12276" lon="100.165341">
<time>2015-08-27T15:26:07Z</time></trkpt>
<trkpt lat="26.12275" lon="100.165341">
<time>2015-08-27T15:26:08Z</time></trkpt>
<trkpt lat="26.12274" lon="100.165341">
<time>2015-08-27T15:26:09Z</time></trkpt>
<trkpt lat="26.12269" lon="100.165341">
<time>2015-08-27T15:26:10Z</time></trkpt>
<trkpt lat="26.12265" lon="100.165341">
<time>2015-08-27T15:26:11Z</time></trkpt>
<trkpt lat="26.12262" lon="100.165341">
<time>2015-08-27T15:26:12Z</time></trkpt>
<trkpt lat="26.1226" lon="100.165331">
<time>2015-08-27T15:26:13Z</time></trkpt>
<trkpt lat="26.12256" lon="100.165331">
<time>2015-08-27T15:26:14Z</time></trkpt>
<trkpt lat="26.12251" lon="100.165331">
<time>2015-08-27T15:26:15Z</time></trkpt>
<trkpt lat="26.12243" lon="100.165321">
<time>2015-08-27T15:26:16Z</time></trkpt>
<trkpt lat="26.12239" lon="100.165321">
<time>2015-08-27T15:26:17Z</time></trkpt>
<trkpt lat="26.12237" lon="100.165321">
<time>2015-08-27T15:26:18Z</time></trkpt>
<trkpt lat="26.12235" lon="100.165321">
<time>2015-08-27T15:26:19Z</time></trkpt>
<trkpt lat="26.12233" lon="100.165321">
<time>2015-08-27T15:26:20Z</time></trkpt>
<trkpt lat="26.12229" lon="100.165321">
<time>2015-08-27T15:26:21Z</time></trkpt>
<trkpt lat="26.12226" lon="100.165311">
<time>2015-08-27T15:26:22Z</time></trkpt>
<trkpt lat="26.12216" lon="100.165311">
<time>2015-08-27T15:26:23Z</time></trkpt>
<trkpt lat="26.12214" lon="100.165311">
<time>2015-08-27T15:26:24Z</time></trkpt>
<trkpt lat="26.1219" lon="100.165301">
<time>2015-08-27T15:26:25Z</time></trkpt>
<trkpt lat="26.12188" lon="100.165301">
<time>2015-08-27T15:26:26Z</time></trkpt>
<trkpt lat="26.12185" lon="100.165301">
<time>2015-08-27T15:26:27Z</time></trkpt>
<trkpt lat="26.12184" lon="100.165301">
<time>2015-08-27T15:26:28Z</time></trkpt>
<trkpt lat="26.12181" lon="100.165301">
<time>2015-08-27T15:26:29Z</time></trkpt>
<trkpt lat="26.12178" lon="100.165301">
<time>2015-08-27T15:26:30Z</time></trkpt>
<trkpt lat="26.121739" lon="100.165301">
<time>2015-08-27T15:26:31Z</time></trkpt>
<trkpt lat="26.121669" lon="100.165301">
<time>2015-08-27T15:26:32Z</time></trkpt>
<trkpt lat="26.121549" lon="100.165301">
<time>2015-08-27T15:26:33Z</time></trkpt>
<trkpt lat="26.121239" lon="100.165291">
<time>2015-08-27T15:26:34Z</time></trkpt>
<trkpt lat="26.121219" lon="100.165291">
<time>2015-08-27T15:26:35Z</time></trkpt>
<trkpt lat="26.121159" lon="100.165291">
<time>2015-08-27T15:26:36Z</time></trkpt>
<trkpt lat="26.121099" lon="100.165291">
<time>2015-08-27T15:26:37Z</time></trkpt>
<trkpt lat="26.121039" lon="100.165291">
<time>2015-08-27T15:26:38Z</time></trkpt>
<trkpt lat="26.120969" lon="100.165291">
<time>2015-08-27T15:26:39Z</time></trkpt>
<trkpt lat="26.120919" lon="100.165281">
<time>2015-08-27T15:26:40Z</time></trkpt>
<trkpt lat="26.120879" lon="100.165281">
<time>2015-08-27T15:26:41Z</time></trkpt>
<trkpt lat="26.120769" lon="100.165281">
<time>2015-08-27T15:26:42Z</time></trkpt>
<trkpt lat="26.120719" lon="100.165281">
<time>2015-08-27T15:26:43Z</time></trkpt>
<trkpt lat="26.120679" lon="100.165281">
<time>2015-08-27T15:26:44Z</time></trkpt>
<trkpt lat="26.120659" lon="100.165281">
<time>2015-08-27T15:26:45Z</time></trkpt>
<trkpt lat="26.120529" lon="100.165271">
<time>2015-08-27T15:26:46Z</time></trkpt>
<trkpt lat="26.120519" lon="100.165271">
<time>2015-08-27T15:26:47Z</time></trkpt>
<trkpt lat="26.120509" lon="100.165271">
<time>2015-08-27T15:26:48Z</time></trkpt>
<trkpt lat="26.120499" lon="100.165271">
<time>2015-08-27T15:26:49Z</time></trkpt>
<trkpt lat="26.120489" lon="100.165271">
<time>2015-08-27T15:26:50Z</time></trkpt>
<trkpt lat="26.120479" lon="100.165271">
<time>2015-08-27T15:26:51Z</time></trkpt>
<trkpt lat="26.120469" lon="100.165271">
<time>2015-08-27T15:26:52Z</time></trkpt>
<trkpt lat="26.120459" lon="100.165271">
<time>2015-08-27T15:26:53Z</time></trkpt>
<trkpt lat="26.120449" lon="100.165271">
<time>2015-08-27T15:26:54Z</time></trkpt>
<trkpt lat="26.120439" lon="100.165271">
<time>2015-08-27T15:26:55Z</time></trkpt>
<trkpt lat="26.120429" lon="100.165271">
<time>2015-08-27T15:26:56Z</time></trkpt>
<trkpt lat="26.120419" lon="100.165271">
<time>2015-08-27T15:26:57Z</time></trkpt>
<trkpt lat="26.120409" lon="100.165271">
<time>2015-08-27T15:26:58Z</time></trkpt>
<trkpt lat="26.120399" lon="100.165271">
<time>2015-08-27T15:26:59Z</time></trkpt>
<trkpt lat="26.120389" lon="100.165271">
<time>2015-08-27T15:27:00Z</time></trkpt>
<trkpt lat="26.120379" lon="100.165271">
<time>2015-08-27T15:27:01Z</time></trkpt>
<trkpt lat="26.120369" lon="100.165271">
<time>2015-08-27T15:27:02Z</time></trkpt>
<trkpt lat="26.120359" lon="100.165271">
<time>2015-08-27T15:27:03Z</time></trkpt>
<trkpt lat="26.120348" lon="100.165271">
<time>2015-08-27T15:27:04Z</time></trkpt>
<trkpt lat="26.120338" lon="100.165271">
<time>2015-08-27T15:27:05Z</time></trkpt>
<trkpt lat="26.120328" lon="100.165271">
<time>2015-08-27T15:27:06Z</time></trkpt>
<trkpt lat="26.120318" lon="100.165271">
<time>2015-08-27T15:27:07Z</time></trkpt>
<trkpt lat="26.120308" lon="100.165271">
<time>2015-08-27T15:27:08Z</time></trkpt>
<trkpt lat="26.120298" lon="100.165271">
<time>2015-08-27T15:27:09Z</time></trkpt>
<trkpt lat="26.120288" lon="100.165271">
<time>2015-08-27T15:27:10Z</time></trkpt>
<trkpt lat="26.120278" lon="100.165271">
<time>2015-08-27T15:27:11Z</time></trkpt>
<trkpt lat="26.120268" lon="100.165271">
<time>2015-08-27T15:27:12Z</time></trkpt>
<trkpt lat="26.120258" lon="100.165271">
<time>2015-08-27T15:27:13Z</time></trkpt>
<trkpt lat="26.120248" lon="100.165271">
<time>2015-08-27T15:27:14Z</time></trkpt>
<trkpt lat="26.120238" lon="100.165271">
<time>2015-08-27T15:27:15Z</time></trkpt>
<trkpt lat="26.120238" lon="100.165261">
<time>2015-08-27T15:27:16Z</time></trkpt>
<trkpt lat="26.120228" lon="100.165261">
<time>2015-08-27T15:27:17Z</time></trkpt>
<trkpt lat="26.120218" lon="100.165261">
<time>2015-08-27T15:27:18Z</time></trkpt>
<trkpt lat="26.120198" lon="100.165261">
<time>2015-08-27T15:27:19Z</time></trkpt>
<trkpt lat="26.120178" lon="100.165261">
<time>2015-08-27T15:27:20Z</time></trkpt>
<trkpt lat="26.120168" lon="100.165261">
<time>2015-08-27T15:27:21Z</time></trkpt>
<trkpt lat="26.120158" lon="100.165261">
<time>2015-08-27T15:27:22Z</time></trkpt>
<trkpt lat="26.120138" lon="100.165261">
<time>2015-08-27T15:27:23Z</time></trkpt>
<trkpt lat="26.120128" lon="100.165261">
<time>2015-08-27T15:27:24Z</time></trkpt>
<trkpt lat="26.120108" lon="100.165261">
<time>2015-08-27T15:27:25Z</time></trkpt>
<trkpt lat="26.120098" lon="100.165261">
<time>2015-08-27T15:27:26Z</time></trkpt>
<trkpt lat="26.120088" lon="100.165261">
<time>2015-08-27T15:27:27Z</time></trkpt>
<trkpt lat="26.120078" lon="100.165261">
<time>2015-08-27T15:27:28Z</time></trkpt>
<trkpt lat="26.120068" lon="100.165261">
<time>2015-08-27T15:27:29Z</time></trkpt>
<trkpt lat="26.120058" lon="100.165261">
<time>2015-08-27T15:27:30Z</time></trkpt>
<trkpt lat="26.120048" lon="100.165261">
<time>2015-08-27T15:27:31Z</time></trkpt>
<trkpt lat="26.120038" lon="100.165261">
<time>2015-08-27T15:27:32Z</time></trkpt>
<trkpt lat="26.120028" lon="100.165261">
<time>2015-08-27T15:27:33Z</time></trkpt>
<trkpt lat="26.120008" lon="100.165251">
<time>2015-08-27T15:27:34Z</time></trkpt>
<trkpt lat="26.119988" lon="100.165251">
<time>2015-08-27T15:27:35Z</time></trkpt>
<trkpt lat="26.119948" lon="100.165251">
<time>2015-08-27T15:27:36Z</time></trkpt>
<trkpt lat="26.119888" lon="100.165241">
<time>2015-08-27T15:27:37Z</time></trkpt>
<trkpt lat="26.119868" lon="100.165241">
<time>2015-08-27T15:27:38Z</time></trkpt>
<trkpt lat="26.119828" lon="100.165231">
<time>2015-08-27T15:27:39Z</time></trkpt>
<trkpt lat="26.119788" lon="100.165231">
<time>2015-08-27T15:27:40Z</time></trkpt>
<trkpt lat="26.119778" lon="100.165231">
<time>2015-08-27T15:27:41Z</time></trkpt>
<trkpt lat="26.119768" lon="100.165221">
<time>2015-08-27T15:27:42Z</time></trkpt>
<trkpt lat="26.119758" lon="100.165221">
<time>2015-08-27T15:27:43Z</time></trkpt>
<trkpt lat="26.119748" lon="100.165221">
<time>2015-08-27T15:27:44Z</time></trkpt>
<trkpt lat="26.119738" lon="100.165211">
<time>2015-08-27T15:27:45Z</time></trkpt>
<trkpt lat="26.119728" lon="100.165211">
<time>2015-08-27T15:27:46Z</time></trkpt>
<trkpt lat="26.119718" lon="100.165211">
<time>2015-08-27T15:27:47Z</time></trkpt>
<trkpt lat="26.119708" lon="100.165211">
<time>2015-08-27T15:27:48Z</time></trkpt>
<trkpt lat="26.119708" lon="100.165201">
<time>2015-08-27T15:27:49Z</time></trkpt>
<trkpt lat="26.119698" lon="100.165201">
<time>2015-08-27T15:27:50Z</time></trkpt>
<trkpt lat="26.119688" lon="100.165201">
<time>2015-08-27T15:27:51Z</time></trkpt>
<trkpt lat="26.119678" lon="100.165201">
<time>2015-08-27T15:27:52Z</time></trkpt>
<trkpt lat="26.119668" lon="100.165191">
<time>2015-08-27T15:27:53Z</time></trkpt>
<trkpt lat="26.119658" lon="100.165191">
<time>2015-08-27T15:27:54Z</time></trkpt>
<trkpt lat="26.119638" lon="100.165181">
<time>2015-08-27T15:27:55Z</time></trkpt>
<trkpt lat="26.119628" lon="100.165181">
<time>2015-08-27T15:27:56Z</time></trkpt>
<trkpt lat="26.119618" lon="100.165171">
<time>2015-08-27T15:27:57Z</time></trkpt>
<trkpt lat="26.119608" lon="100.165171">
<time>2015-08-27T15:27:58Z</time></trkpt>
<trkpt lat="26.119598" lon="100.165161">
<time>2015-08-27T15:27:59Z</time></trkpt>
<trkpt lat="26.119588" lon="100.165161">
<time>2015-08-27T15:28:00Z</time></trkpt>
<trkpt lat="26.119578" lon="100.165161">
<time>2015-08-27T15:28:01Z</time></trkpt>
<trkpt lat="26.119568" lon="100.165151">
<time>2015-08-27T15:28:02Z</time></trkpt>
<trkpt lat="26.119558" lon="100.165151">
<time>2015-08-27T15:28:03Z</time></trkpt>
<trkpt lat="26.119548" lon="100.165141">
<time>2015-08-27T15:28:04Z</time></trkpt>
<trkpt lat="26.119538" lon="100.165141">
<time>2015-08-27T15:28:05Z</time></trkpt>
<trkpt lat="26.119538" lon="100.165131">
<time>2015-08-27T15:28:06Z</time></trkpt>
<trkpt lat="26.119528" lon="100.165131">
<time>2015-08-27T15:28:07Z</time></trkpt>
<trkpt lat="26.119518" lon="100.165131">
<time>2015-08-27T15:28:08Z</time></trkpt>
<trkpt lat="26.119518" lon="100.165121">
<time>2015-08-27T15:28:09Z</time></trkpt>
<trkpt lat="26.119508" lon="100.165121">
<time>2015-08-27T15:28:10Z</time></trkpt>
<trkpt lat="26.119498" lon="100.165111">
<time>2015-08-27T15:28:11Z</time></trkpt>
<trkpt lat="26.119488" lon="100.165111">
<time>2015-08-27T15:28:12Z</time></trkpt>
<trkpt lat="26.119478" lon="100.165101">
<time>2015-08-27T15:28:13Z</time></trkpt>
<trkpt lat="26.119468" lon="100.165101">
<time>2015-08-27T15:28:14Z</time></trkpt>
<trkpt lat="26.119468" lon="100.165091">
<time>2015-08-27T15:28:15Z</time></trkpt>
<trkpt lat="26.119458" lon="100.165091">
<time>2015-08-27T15:28:16Z</time></trkpt>
<trkpt lat="26.119448" lon="100.165091">
<time>2015-08-27T15:28:17Z</time></trkpt>
<trkpt lat="26.119448" lon="100.165081">
<time>2015-08-27T15:28:18Z</time></trkpt>
<trkpt lat="26.119438" lon="100.165071">
<time>2015-08-27T15:28:19Z</time></trkpt>
<trkpt lat="26.119428" lon="100.165071">
<time>2015-08-27T15:28:20Z</time></trkpt>
<trkpt lat="26.119417" lon="100.165061">
<time>2015-08-27T15:28:21Z</time></trkpt>
<trkpt lat="26.119407" lon="100.165061">
<time>2015-08-27T15:28:22Z</time></trkpt>
<trkpt lat="26.119397" lon="100.165051">
<time>2015-08-27T15:28:23Z</time></trkpt>
<trkpt lat="26.119387" lon="100.165041">
<time>2015-08-27T15:28:24Z</time></trkpt>
<trkpt lat="26.119377" lon="100.165031">
<time>2015-08-27T15:28:25Z</time></trkpt>
<trkpt lat="26.119367" lon="100.165031">
<time>2015-08-27T15:28:26Z</time></trkpt>
<trkpt lat="26.119367" lon="100.165021">
<time>2015-08-27T15:28:27Z</time></trkpt>
<trkpt lat="26.119357" lon="100.165021">
<time>2015-08-27T15:28:28Z</time></trkpt>
<trkpt lat="26.119347" lon="100.165011">
<time>2015-08-27T15:28:29Z</time></trkpt>
<trkpt lat="26.119337" lon="100.165001">
<time>2015-08-27T15:28:30Z</time></trkpt>
<trkpt lat="26.119327" lon="100.165001">
<time>2015-08-27T15:28:31Z</time></trkpt>
<trkpt lat="26.119317" lon="100.164991">
<time>2015-08-27T15:28:32Z</time></trkpt>
<trkpt lat="26.119317" lon="100.164981">
<time>2015-08-27T15:28:33Z</time></trkpt>
<trkpt lat="26.119307" lon="100.164981">
<time>2015-08-27T15:28:34Z</time></trkpt>
<trkpt lat="26.119297" lon="100.164971">
<time>2015-08-27T15:28:35Z</time></trkpt>
<trkpt lat="26.119297" lon="100.164961">
<time>2015-08-27T15:28:36Z</time></trkpt>
<trkpt lat="26.119287" lon="100.164961">
<time>2015-08-27T15:28:37Z</time></trkpt>
<trkpt lat="26.119277" lon="100.164951">
<time>2015-08-27T15:28:38Z</time></trkpt>
<trkpt lat="26.119267" lon="100.164941">
<time>2015-08-27T15:28:39Z</time></trkpt>
<trkpt lat="26.119267" lon="100.164931">
<time>2015-08-27T15:28:40Z</time></trkpt>
<trkpt lat="26.119257" lon="100.164931">
<time>2015-08-27T15:28:41Z</time></trkpt>
<trkpt lat="26.119257" lon="100.164921">
<time>2015-08-27T15:28:42Z</time></trkpt>
<trkpt lat="26.119237" lon="100.164911">
<time>2015-08-27T15:28:43Z</time></trkpt>
<trkpt lat="26.119137" lon="100.1648">
<time>2015-08-27T15:28:44Z</time></trkpt>
<trkpt lat="26.119087" lon="100.16475">
<time>2015-08-27T15:28:45Z</time></trkpt>
<trkpt lat="26.119047" lon="100.16471">
<time>2015-08-27T15:28:46Z</time></trkpt>
<trkpt lat="26.118916" lon="100.16455">
<time>2015-08-27T15:28:47Z</time></trkpt>
<trkpt lat="26.118856" lon="100.16449">
<time>2015-08-27T15:28:48Z</time></trkpt>
<trkpt lat="26.118756" lon="100.164369">
<time>2015-08-27T15:28:49Z</time></trkpt>
<trkpt lat="26.118736" lon="100.164339">
<time>2015-08-27T15:28:50Z</time></trkpt>
<trkpt lat="26.118676" lon="100.164269">
<time>2015-08-27T15:28:51Z</time></trkpt>
<trkpt lat="26.118595" lon="100.164169">
<time>2015-08-27T15:28:52Z</time></trkpt>
<trkpt lat="26.118565" lon="100.164129">
<time>2015-08-27T15:28:53Z</time></trkpt>
<trkpt lat="26.118465" lon="100.164019">
<time>2015-08-27T15:28:54Z</time></trkpt>
<trkpt lat="26.118355" lon="100.163888">
<time>2015-08-27T15:28:55Z</time></trkpt>
<trkpt lat="26.118314" lon="100.163838">
<time>2015-08-27T15:28:56Z</time></trkpt>
<trkpt lat="26.118274" lon="100.163798">
<time>2015-08-27T15:28:57Z</time></trkpt>
<trkpt lat="26.118244" lon="100.163768">
<time>2015-08-27T15:28:58Z</time></trkpt>
<trkpt lat="26.118164" lon="100.163688">
<time>2015-08-27T15:28:59Z</time></trkpt>
<trkpt lat="26.118104" lon="100.163628">
<time>2015-08-27T15:29:00Z</time></trkpt>
<trkpt lat="26.118094" lon="100.163628">
<time>2015-08-27T15:29:01Z</time></trkpt>
<trkpt lat="26.118034" lon="100.163568">
<time>2015-08-27T15:29:02Z</time></trkpt>
<trkpt lat="26.117974" lon="100.163518">
<time>2015-08-27T15:29:03Z</time></trkpt>
<trkpt lat="26.117893" lon="100.163448">
<time>2015-08-27T15:29:04Z</time></trkpt>
<trkpt lat="26.117853" lon="100.163407">
<time>2015-08-27T15:29:05Z</time></trkpt>
<trkpt lat="26.117803" lon="100.163377">
<time>2015-08-27T15:29:06Z</time></trkpt>
<trkpt lat="26.117773" lon="100.163357">
<time>2015-08-27T15:29:07Z</time></trkpt>
<trkpt lat="26.117703" lon="100.163307">
<time>2015-08-27T15:29:08Z</time></trkpt>
<trkpt lat="26.117653" lon="100.163277">
<time>2015-08-27T15:29:09Z</time></trkpt>
<trkpt lat="26.117553" lon="100.163217">
<time>2015-08-27T15:29:10Z</time></trkpt>
<trkpt lat="26.117463" lon="100.163167">
<time>2015-08-27T15:29:11Z</time></trkpt>
<trkpt lat="26.117383" lon="100.163127">
<time>2015-08-27T15:29:12Z</time></trkpt>
<trkpt lat="26.117322" lon="100.163097">
<time>2015-08-27T15:29:13Z</time></trkpt>
<trkpt lat="26.117292" lon="100.163077">
<time>2015-08-27T15:29:14Z</time></trkpt>
<trkpt lat="26.117212" lon="100.163047">
<time>2015-08-27T15:29:15Z</time></trkpt>
<trkpt lat="26.117102" lon="100.163007">
<time>2015-08-27T15:29:16Z</time></trkpt>
<trkpt lat="26.117042" lon="100.162987">
<time>2015-08-27T15:29:17Z</time></trkpt>
<trkpt lat="26.116982" lon="100.162967">
<time>2015-08-27T15:29:18Z</time></trkpt>
<trkpt lat="26.116882" lon="100.162937">
<time>2015-08-27T15:29:19Z</time></trkpt>
<trkpt lat="26.116782" lon="100.162906">
<time>2015-08-27T15:29:20Z</time></trkpt>
<trkpt lat="26.116732" lon="100.162886">
<time>2015-08-27T15:29:21Z</time></trkpt>
<trkpt lat="26.116672" lon="100.162866">
<time>2015-08-27T15:29:22Z</time></trkpt>
<trkpt lat="26.116581" lon="100.162836">
<time>2015-08-27T15:29:23Z</time></trkpt>
<trkpt lat="26.116511" lon="100.162816">
<time>2015-08-27T15:29:24Z</time></trkpt>
<trkpt lat="26.116481" lon="100.162806">
<time>2015-08-27T15:29:25Z</time></trkpt>
<trkpt lat="26.116421" lon="100.162786">
<time>2015-08-27T15:29:26Z</time></trkpt>
<trkpt lat="26.116001" lon="100.162666">
<time>2015-08-27T15:29:27Z</time></trkpt>
<trkpt lat="26.115851" lon="100.162626">
<time>2015-08-27T15:29:28Z</time></trkpt>
<trkpt lat="26.115811" lon="100.162616">
<time>2015-08-27T15:29:29Z</time></trkpt>
<trkpt lat="26.11572" lon="100.162576">
<time>2015-08-27T15:29:30Z</time></trkpt>
<trkpt lat="26.11562" lon="100.162546">
<time>2015-08-27T15:29:31Z</time></trkpt>
<trkpt lat="26.1155" lon="100.162506">
<time>2015-08-27T15:29:32Z</time></trkpt>
<trkpt lat="26.11536" lon="100.162466">
<time>2015-08-27T15:29:33Z</time></trkpt>
<trkpt lat="26.11517" lon="100.162405">
<time>2015-08-27T15:29:34Z</time></trkpt>
<trkpt lat="26.114999" lon="100.162355">
<time>2015-08-27T15:29:35Z</time></trkpt>
<trkpt lat="26.114909" lon="100.162325">
<time>2015-08-27T15:29:36Z</time></trkpt>
<trkpt lat="26.114829" lon="100.162295">
<time>2015-08-27T15:29:37Z</time></trkpt>
<trkpt lat="26.114749" lon="100.162255">
<time>2015-08-27T15:29:38Z</time></trkpt>
<trkpt lat="26.114689" lon="100.162225">
<time>2015-08-27T15:29:39Z</time></trkpt>
<trkpt lat="26.114649" lon="100.162195">
<time>2015-08-27T15:29:40Z</time></trkpt>
<trkpt lat="26.114579" lon="100.162145">
<time>2015-08-27T15:29:41Z</time></trkpt>
<trkpt lat="26.114469" lon="100.162055">
<time>2015-08-27T15:29:42Z</time></trkpt>
<trkpt lat="26.114378" lon="100.161955">
<time>2015-08-27T15:29:43Z</time></trkpt>
<trkpt lat="26.114278" lon="100.161804">
<time>2015-08-27T15:29:44Z</time></trkpt>
<trkpt lat="26.114158" lon="100.161624">
<time>2015-08-27T15:29:45Z</time></trkpt>
<trkpt lat="26.113927" lon="100.161253">
<time>2015-08-27T15:29:46Z</time></trkpt>
<trkpt lat="26.113846" lon="100.161113">
<time>2015-08-27T15:29:47Z</time></trkpt>
<trkpt lat="26.113676" lon="100.160882">
<time>2015-08-27T15:29:48Z</time></trkpt>
<trkpt lat="26.113606" lon="100.160812">
<time>2015-08-27T15:29:49Z</time></trkpt>
<trkpt lat="26.113546" lon="100.160762">
<time>2015-08-27T15:29:50Z</time></trkpt>
<trkpt lat="26.113485" lon="100.160732">
<time>2015-08-27T15:29:51Z</time></trkpt>
<trkpt lat="26.113405" lon="100.160692">
<time>2015-08-27T15:29:52Z</time></trkpt>
<trkpt lat="26.113315" lon="100.160662">
<time>2015-08-27T15:29:53Z</time></trkpt>
<trkpt lat="26.113235" lon="100.160642">
<time>2015-08-27T15:29:54Z</time></trkpt>
<trkpt lat="26.113145" lon="100.160642">
<time>2015-08-27T15:29:55Z</time></trkpt>
<trkpt lat="26.113065" lon="100.160652">
<time>2015-08-27T15:29:56Z</time></trkpt>
<trkpt lat="26.112985" lon="100.160672">
<time>2015-08-27T15:29:57Z</time></trkpt>
<trkpt lat="26.112925" lon="100.160692">
<time>2015-08-27T15:29:58Z</time></trkpt>
<trkpt lat="26.112835" lon="100.160732">
<time>2015-08-27T15:29:59Z</time></trkpt>
<trkpt lat="26.112775" lon="100.160782">
<time>2015-08-27T15:30:00Z</time></trkpt>
<trkpt lat="26.112685" lon="100.160862">
<time>2015-08-27T15:30:01Z</time></trkpt>
<trkpt lat="26.112625" lon="100.160932">
<time>2015-08-27T15:30:02Z</time></trkpt>
<trkpt lat="26.112575" lon="100.161033">
<time>2015-08-27T15:30:03Z</time></trkpt>
<trkpt lat="26.112536" lon="100.161113">
<time>2015-08-27T15:30:04Z</time></trkpt>
<trkpt lat="26.112506" lon="100.161203">
<time>2015-08-27T15:30:05Z</time></trkpt>
<trkpt lat="26.112426" lon="100.161504">
<time>2015-08-27T15:30:06Z</time></trkpt>
<trkpt lat="26.112376" lon="100.161654">
<time>2015-08-27T15:30:07Z</time></trkpt>
<trkpt lat="26.112327" lon="100.161804">
<time>2015-08-27T15:30:08Z</time></trkpt>
<trkpt lat="26.112227" lon="100.161985">
<time>2015-08-27T15:30:09Z</time></trkpt>
<trkpt lat="26.112157" lon="100.162105">
<time>2015-08-27T15:30:10Z</time></trkpt>
<trkpt lat="26.111997" lon="100.162345">
<time>2015-08-27T15:30:11Z</time></trkpt>
<trkpt lat="26.111838" lon="100.162556">
<time>2015-08-27T15:30:12Z</time></trkpt>
<trkpt lat="26.111658" lon="100.162786">
<time>2015-08-27T15:30:13Z</time></trkpt>
<trkpt lat="26.111498" lon="100.163017">
<time>2015-08-27T15:30:14Z</time></trkpt>
<trkpt lat="26.111459" lon="100.163097">
<time>2015-08-27T15:30:15Z</time></trkpt>
<trkpt lat="26.111409" lon="100.163187">
<time>2015-08-27T15:30:16Z</time></trkpt>
<trkpt lat="26.111369" lon="100.163287">
<time>2015-08-27T15:30:17Z</time></trkpt>
<trkpt lat="26.111349" lon="100.163378">
<time>2015-08-27T15:30:18Z</time></trkpt>
<trkpt lat="26.111329" lon="100.163488">
<time>2015-08-27T15:30:19Z</time></trkpt>
<trkpt lat="26.111319" lon="100.163638">
<time>2015-08-27T15:30:20Z</time></trkpt>
<trkpt lat="26.11132" lon="100.163798">
<time>2015-08-27T15:30:21Z</time></trkpt>
<trkpt lat="26.11132" lon="100.163919">
<time>2015-08-27T15:30:22Z</time></trkpt>
<trkpt lat="26.11133" lon="100.164029">
<time>2015-08-27T15:30:23Z</time></trkpt>
<trkpt lat="26.111341" lon="100.164279">
<time>2015-08-27T15:30:24Z</time></trkpt>
<trkpt lat="26.111361" lon="100.16463">
<time>2015-08-27T15:30:25Z</time></trkpt>
<trkpt lat="26.111382" lon="100.164981">
<time>2015-08-27T15:30:26Z</time></trkpt>
<trkpt lat="26.111413" lon="100.165452">
<time>2015-08-27T15:30:27Z</time></trkpt>
<trkpt lat="26.111433" lon="100.165763">
<time>2015-08-27T15:30:28Z</time></trkpt>
<trkpt lat="26.111464" lon="100.166234">
<time>2015-08-27T15:30:29Z</time></trkpt>
<trkpt lat="26.111485" lon="100.166524">
<time>2015-08-27T15:30:30Z</time></trkpt>
<trkpt lat="26.111495" lon="100.166735">
<time>2015-08-27T15:30:31Z</time></trkpt>
<trkpt lat="26.111506" lon="100.166825">
<time>2015-08-27T15:30:32Z</time></trkpt>
<trkpt lat="26.111496" lon="100.166895">
<time>2015-08-27T15:30:33Z</time></trkpt>
<trkpt lat="26.111486" lon="100.167035">
<time>2015-08-27T15:30:34Z</time></trkpt>
<trkpt lat="26.111466" lon="100.167156">
<time>2015-08-27T15:30:35Z</time></trkpt>
<trkpt lat="26.111446" lon="100.167236">
<time>2015-08-27T15:30:36Z</time></trkpt>
<trkpt lat="26.111406" lon="100.167336">
<time>2015-08-27T15:30:37Z</time></trkpt>
<trkpt lat="26.111357" lon="100.167436">
<time>2015-08-27T15:30:38Z</time></trkpt>
<trkpt lat="26.111307" lon="100.167506">
<time>2015-08-27T15:30:39Z</time></trkpt>
<trkpt lat="26.111237" lon="100.167606">
<time>2015-08-27T15:30:40Z</time></trkpt>
<trkpt lat="26.111147" lon="100.167697">
<time>2015-08-27T15:30:41Z</time></trkpt>
<trkpt lat="26.111067" lon="100.167757">
<time>2015-08-27T15:30:42Z</time></trkpt>
<trkpt lat="26.111007" lon="100.167797">
<time>2015-08-27T15:30:43Z</time></trkpt>
<trkpt lat="26.110917" lon="100.167847">
<time>2015-08-27T15:30:44Z</time></trkpt>
<trkpt lat="26.110737" lon="100.167927">
<time>2015-08-27T15:30:45Z</time></trkpt>
<trkpt lat="26.110357" lon="100.168088">
<time>2015-08-27T15:30:46Z</time></trkpt>
<trkpt lat="26.107297" lon="100.16932">
<time>2015-08-27T15:30:47Z</time></trkpt>
<trkpt lat="26.107067" lon="100.1694">
<time>2015-08-27T15:30:48Z</time></trkpt>
<trkpt lat="26.106897" lon="100.169471">
<time>2015-08-27T15:30:49Z</time></trkpt>
<trkpt lat="26.106817" lon="100.169511">
<time>2015-08-27T15:30:50Z</time></trkpt>
<trkpt lat="26.106687" lon="100.169571">
<time>2015-08-27T15:30:51Z</time></trkpt>
<trkpt lat="26.106578" lon="100.169641">
<time>2015-08-27T15:30:52Z</time></trkpt>
<trkpt lat="26.106418" lon="100.169731">
<time>2015-08-27T15:30:53Z</time></trkpt>
<trkpt lat="26.106128" lon="100.169962">
<time>2015-08-27T15:30:54Z</time></trkpt>
<trkpt lat="26.10411" lon="100.171685">
<time>2015-08-27T15:30:55Z</time></trkpt>
<trkpt lat="26.10398" lon="100.171796">
<time>2015-08-27T15:30:56Z</time></trkpt>
<trkpt lat="26.10382" lon="100.171926">
<time>2015-08-27T15:30:57Z</time></trkpt>
<trkpt lat="26.10372" lon="100.172006">
<time>2015-08-27T15:30:58Z</time></trkpt>
<trkpt lat="26.10362" lon="100.172066">
<time>2015-08-27T15:30:59Z</time></trkpt>
<trkpt lat="26.10352" lon="100.172126">
<time>2015-08-27T15:31:00Z</time></trkpt>
<trkpt lat="26.10345" lon="100.172156">
<time>2015-08-27T15:31:01Z</time></trkpt>
<trkpt lat="26.10337" lon="100.172186">
<time>2015-08-27T15:31:02Z</time></trkpt>
<trkpt lat="26.10332" lon="100.172206">
<time>2015-08-27T15:31:03Z</time></trkpt>
<trkpt lat="26.10317" lon="100.172246">
<time>2015-08-27T15:31:04Z</time></trkpt>
<trkpt lat="26.10308" lon="100.172256">
<time>2015-08-27T15:31:05Z</time></trkpt>
<trkpt lat="26.10307" lon="100.172256">
<time>2015-08-27T15:31:06Z</time></trkpt>
<trkpt lat="26.10299" lon="100.172267">
<time>2015-08-27T15:31:07Z</time></trkpt>
<trkpt lat="26.1029" lon="100.172267">
<time>2015-08-27T15:31:08Z</time></trkpt>
<trkpt lat="26.10281" lon="100.172267">
<time>2015-08-27T15:31:09Z</time></trkpt>
<trkpt lat="26.10266" lon="100.172257">
<time>2015-08-27T15:31:10Z</time></trkpt>
<trkpt lat="26.10254" lon="100.172236">
<time>2015-08-27T15:31:11Z</time></trkpt>
<trkpt lat="26.10233" lon="100.172216">
<time>2015-08-27T15:31:12Z</time></trkpt>
<trkpt lat="26.099677" lon="100.171766">
<time>2015-08-27T15:31:13Z</time></trkpt>
<trkpt lat="26.099617" lon="100.171746">
<time>2015-08-27T15:31:14Z</time></trkpt>
<trkpt lat="26.099317" lon="100.171695">
<time>2015-08-27T15:31:15Z</time></trkpt>
<trkpt lat="26.099206" lon="100.171665">
<time>2015-08-27T15:31:16Z</time></trkpt>
<trkpt lat="26.099106" lon="100.171635">
<time>2015-08-27T15:31:17Z</time></trkpt>
<trkpt lat="26.099016" lon="100.171605">
<time>2015-08-27T15:31:18Z</time></trkpt>
<trkpt lat="26.098876" lon="100.171545">
<time>2015-08-27T15:31:19Z</time></trkpt>
<trkpt lat="26.098806" lon="100.171495">
<time>2015-08-27T15:31:20Z</time></trkpt>
<trkpt lat="26.098726" lon="100.171455">
<time>2015-08-27T15:31:21Z</time></trkpt>
<trkpt lat="26.098646" lon="100.171405">
<time>2015-08-27T15:31:22Z</time></trkpt>
<trkpt lat="26.098445" lon="100.171234">
<time>2015-08-27T15:31:23Z</time></trkpt>
<trkpt lat="26.096471" lon="100.169621">
<time>2015-08-27T15:31:24Z</time></trkpt>
<trkpt lat="26.096441" lon="100.169601">
<time>2015-08-27T15:31:25Z</time></trkpt>
<trkpt lat="26.09632" lon="100.169511">
<time>2015-08-27T15:31:26Z</time></trkpt>
<trkpt lat="26.09624" lon="100.169451">
<time>2015-08-27T15:31:27Z</time></trkpt>
<trkpt lat="26.09613" lon="100.169381">
<time>2015-08-27T15:31:28Z</time></trkpt>
<trkpt lat="26.09606" lon="100.16933">
<time>2015-08-27T15:31:29Z</time></trkpt>
<trkpt lat="26.096" lon="100.16929">
<time>2015-08-27T15:31:30Z</time></trkpt>
<trkpt lat="26.095138" lon="100.168779">
<time>2015-08-27T15:31:31Z</time></trkpt>
<trkpt lat="26.093946" lon="100.168068">
<time>2015-08-27T15:31:32Z</time></trkpt>
<trkpt lat="26.092964" lon="100.167497">
<time>2015-08-27T15:31:33Z</time></trkpt>
<trkpt lat="26.092113" lon="100.166986">
<time>2015-08-27T15:31:34Z</time></trkpt>
<trkpt lat="26.092083" lon="100.166966">
<time>2015-08-27T15:31:35Z</time></trkpt>
<trkpt lat="26.092043" lon="100.166936">
<time>2015-08-27T15:31:36Z</time></trkpt>
<trkpt lat="26.092013" lon="100.166926">
<time>2015-08-27T15:31:37Z</time></trkpt>
<trkpt lat="26.091983" lon="100.166895">
<time>2015-08-27T15:31:38Z</time></trkpt>
<trkpt lat="26.091842" lon="100.166805">
<time>2015-08-27T15:31:39Z</time></trkpt>
<trkpt lat="26.091702" lon="100.166685">
<time>2015-08-27T15:31:40Z</time></trkpt>
<trkpt lat="26.091612" lon="100.166585">
<time>2015-08-27T15:31:41Z</time></trkpt>
<trkpt lat="26.091511" lon="100.166445">
<time>2015-08-27T15:31:42Z</time></trkpt>
<trkpt lat="26.091311" lon="100.166094">
<time>2015-08-27T15:31:43Z</time></trkpt>
<trkpt lat="26.090798" lon="100.165142">
<time>2015-08-27T15:31:44Z</time></trkpt>
<trkpt lat="26.090567" lon="100.164721">
<time>2015-08-27T15:31:45Z</time></trkpt>
<trkpt lat="26.090457" lon="100.164531">
<time>2015-08-27T15:31:46Z</time></trkpt>
<trkpt lat="26.090337" lon="100.16436">
<time>2015-08-27T15:31:47Z</time></trkpt>
<trkpt lat="26.090276" lon="100.16428">
<time>2015-08-27T15:31:48Z</time></trkpt>
<trkpt lat="26.090156" lon="100.16414">
<time>2015-08-27T15:31:49Z</time></trkpt>
<trkpt lat="26.090036" lon="100.164029">
<time>2015-08-27T15:31:50Z</time></trkpt>
<trkpt lat="26.089875" lon="100.163899">
<time>2015-08-27T15:31:51Z</time></trkpt>
<trkpt lat="26.089645" lon="100.163759">
<time>2015-08-27T15:31:52Z</time></trkpt>
<trkpt lat="26.089154" lon="100.163478">
<time>2015-08-27T15:31:53Z</time></trkpt>
<trkpt lat="26.088974" lon="100.163358">
<time>2015-08-27T15:31:54Z</time></trkpt>
<trkpt lat="26.088383" lon="100.162967">
<time>2015-08-27T15:31:55Z</time></trkpt>
<trkpt lat="26.085998" lon="100.161544">
<time>2015-08-27T15:31:56Z</time></trkpt>
<trkpt lat="26.085508" lon="100.161234">
<time>2015-08-27T15:31:57Z</time></trkpt>
<trkpt lat="26.084676" lon="100.160602">
<time>2015-08-27T15:31:58Z</time></trkpt>
<trkpt lat="26.084385" lon="100.160412">
<time>2015-08-27T15:31:59Z</time></trkpt>
<trkpt lat="26.084195" lon="100.160322">
<time>2015-08-27T15:32:00Z</time></trkpt>
<trkpt lat="26.083764" lon="100.160152">
<time>2015-08-27T15:32:01Z</time></trkpt>
<trkpt lat="26.083524" lon="100.160081">
<time>2015-08-27T15:32:02Z</time></trkpt>
<trkpt lat="26.083354" lon="100.160021">
<time>2015-08-27T15:32:03Z</time></trkpt>
<trkpt lat="26.083224" lon="100.159981">
<time>2015-08-27T15:32:04Z</time></trkpt>
<trkpt lat="26.083114" lon="100.159941">
<time>2015-08-27T15:32:05Z</time></trkpt>
<trkpt lat="26.082943" lon="100.159871">
<time>2015-08-27T15:32:06Z</time></trkpt>
<trkpt lat="26.082863" lon="100.159831">
<time>2015-08-27T15:32:07Z</time></trkpt>
<trkpt lat="26.082723" lon="100.159761">
<time>2015-08-27T15:32:08Z</time></trkpt>
<trkpt lat="26.082583" lon="100.159671">
<time>2015-08-27T15:32:09Z</time></trkpt>
<trkpt lat="26.08121" lon="100.158699">
<time>2015-08-27T15:32:10Z</time></trkpt>
<trkpt lat="26.080879" lon="100.158468">
<time>2015-08-27T15:32:11Z</time></trkpt>
<trkpt lat="26.080649" lon="100.158328">
<time>2015-08-27T15:32:12Z</time></trkpt>
<trkpt lat="26.080419" lon="100.158228">
<time>2015-08-27T15:32:13Z</time></trkpt>
<trkpt lat="26.079227" lon="100.157797">
<time>2015-08-27T15:32:14Z</time></trkpt>
<trkpt lat="26.079067" lon="100.157727">
<time>2015-08-27T15:32:15Z</time></trkpt>
<trkpt lat="26.078967" lon="100.157667">
<time>2015-08-27T15:32:16Z</time></trkpt>
<trkpt lat="26.078886" lon="100.157596">
<time>2015-08-27T15:32:17Z</time></trkpt>
<trkpt lat="26.078786" lon="100.157476">
<time>2015-08-27T15:32:18Z</time></trkpt>
<trkpt lat="26.078736" lon="100.157386">
<time>2015-08-27T15:32:19Z</time></trkpt>
<trkpt lat="26.078686" lon="100.157266">
<time>2015-08-27T15:32:20Z</time></trkpt>
<trkpt lat="26.078665" lon="100.157105">
<time>2015-08-27T15:32:21Z</time></trkpt>
<trkpt lat="26.078665" lon="100.156985">
<time>2015-08-27T15:32:22Z</time></trkpt>
<trkpt lat="26.078695" lon="100.156835">
<time>2015-08-27T15:32:23Z</time></trkpt>
<trkpt lat="26.079492" lon="100.154881">
<time>2015-08-27T15:32:24Z</time></trkpt>
<trkpt lat="26.079512" lon="100.154711">
<time>2015-08-27T15:32:25Z</time></trkpt>
<trkpt lat="26.079501" lon="100.15458">
<time>2015-08-27T15:32:26Z</time></trkpt>
<trkpt lat="26.079461" lon="100.15443">
<time>2015-08-27T15:32:27Z</time></trkpt>
<trkpt lat="26.079411" lon="100.15431">
<time>2015-08-27T15:32:28Z</time></trkpt>
<trkpt lat="26.079351" lon="100.15422">
<time>2015-08-27T15:32:29Z</time></trkpt>
<trkpt lat="26.075381" lon="100.150352">
<time>2015-08-27T15:32:30Z</time></trkpt>
<trkpt lat="26.07491" lon="100.149731">
<time>2015-08-27T15:32:31Z</time></trkpt>
<trkpt lat="26.073856" lon="100.147917">
<time>2015-08-27T15:32:32Z</time></trkpt>
<trkpt lat="26.073725" lon="100.147497">
<time>2015-08-27T15:32:33Z</time></trkpt>
<trkpt lat="26.073694" lon="100.146986">
<time>2015-08-27T15:32:34Z</time></trkpt>
<trkpt lat="26.073702" lon="100.145693">
<time>2015-08-27T15:32:35Z</time></trkpt>
<trkpt lat="26.073682" lon="100.145413">
<time>2015-08-27T15:32:36Z</time></trkpt>
<trkpt lat="26.073621" lon="100.145192">
<time>2015-08-27T15:32:37Z</time></trkpt>
<trkpt lat="26.072657" lon="100.143109">
<time>2015-08-27T15:32:38Z</time></trkpt>
<trkpt lat="26.072506" lon="100.142628">
<time>2015-08-27T15:32:39Z</time></trkpt>
<trkpt lat="26.072183" lon="100.140774">
<time>2015-08-27T15:32:40Z</time></trkpt>
<trkpt lat="26.072002" lon="100.140324">
<time>2015-08-27T15:32:41Z</time></trkpt>
<trkpt lat="26.071069" lon="100.138811">
<time>2015-08-27T15:32:42Z</time></trkpt>
<trkpt lat="26.070648" lon="100.1381">
<time>2015-08-27T15:32:43Z</time></trkpt>
<trkpt lat="26.070447" lon="100.137639">
<time>2015-08-27T15:32:44Z</time></trkpt>
<trkpt lat="26.070076" lon="100.136708">
<time>2015-08-27T15:32:45Z</time></trkpt>
<trkpt lat="26.067284" lon="100.129707">
<time>2015-08-27T15:32:46Z</time></trkpt>
<trkpt lat="26.067124" lon="100.129336">
<time>2015-08-27T15:32:47Z</time></trkpt>
<trkpt lat="26.066953" lon="100.129056">
<time>2015-08-27T15:32:48Z</time></trkpt>
<trkpt lat="26.066763" lon="100.128846">
<time>2015-08-27T15:32:49Z</time></trkpt>
<trkpt lat="26.066583" lon="100.128716">
<time>2015-08-27T15:32:50Z</time></trkpt>
<trkpt lat="26.066262" lon="100.128565">
<time>2015-08-27T15:32:51Z</time></trkpt>
<trkpt lat="26.065091" lon="100.128185">
<time>2015-08-27T15:32:52Z</time></trkpt>
<trkpt lat="26.0646" lon="100.127965">
<time>2015-08-27T15:32:53Z</time></trkpt>
<trkpt lat="26.06415" lon="100.127704">
<time>2015-08-27T15:32:54Z</time></trkpt>
<trkpt lat="26.063559" lon="100.127254">
<time>2015-08-27T15:32:55Z</time></trkpt>
<trkpt lat="26.062367" lon="100.126192">
<time>2015-08-27T15:32:56Z</time></trkpt>
<trkpt lat="26.061646" lon="100.125572">
<time>2015-08-27T15:32:57Z</time></trkpt>
<trkpt lat="26.061355" lon="100.125311">
<time>2015-08-27T15:32:58Z</time></trkpt>
<trkpt lat="26.061025" lon="100.125021">
<time>2015-08-27T15:32:59Z</time></trkpt>
<trkpt lat="26.059011" lon="100.123229">
<time>2015-08-27T15:33:00Z</time></trkpt>
<trkpt lat="26.05841" lon="100.122418">
<time>2015-08-27T15:33:01Z</time></trkpt>
<trkpt lat="26.057287" lon="100.120436">
<time>2015-08-27T15:33:02Z</time></trkpt>
<trkpt lat="26.057107" lon="100.120155">
<time>2015-08-27T15:33:03Z</time></trkpt>
<trkpt lat="26.056947" lon="100.119945">
<time>2015-08-27T15:33:04Z</time></trkpt>
<trkpt lat="26.056736" lon="100.119745">
<time>2015-08-27T15:33:05Z</time></trkpt>
<trkpt lat="26.056506" lon="100.119585">
<time>2015-08-27T15:33:06Z</time></trkpt>
<trkpt lat="26.056206" lon="100.119445">
<time>2015-08-27T15:33:07Z</time></trkpt>
<trkpt lat="26.055915" lon="100.119374">
<time>2015-08-27T15:33:08Z</time></trkpt>
<trkpt lat="26.055555" lon="100.119364">
<time>2015-08-27T15:33:09Z</time></trkpt>
<trkpt lat="26.053704" lon="100.119435">
<time>2015-08-27T15:33:10Z</time></trkpt>
<trkpt lat="26.053013" lon="100.119535">
<time>2015-08-27T15:33:11Z</time></trkpt>
<trkpt lat="26.051753" lon="100.120035">
<time>2015-08-27T15:33:12Z</time></trkpt>
<trkpt lat="26.051403" lon="100.120195">
<time>2015-08-27T15:33:13Z</time></trkpt>
<trkpt lat="26.051233" lon="100.120256">
<time>2015-08-27T15:33:14Z</time></trkpt>
<trkpt lat="26.051043" lon="100.120296">
<time>2015-08-27T15:33:15Z</time></trkpt>
<trkpt lat="26.050863" lon="100.120306">
<time>2015-08-27T15:33:16Z</time></trkpt>
<trkpt lat="26.050562" lon="100.120256">
<time>2015-08-27T15:33:17Z</time></trkpt>
<trkpt lat="26.04845" lon="100.119655">
<time>2015-08-27T15:33:18Z</time></trkpt>
<trkpt lat="26.04824" lon="100.119605">
<time>2015-08-27T15:33:19Z</time></trkpt>
<trkpt lat="26.04814" lon="100.119595">
<time>2015-08-27T15:33:20Z</time></trkpt>
<trkpt lat="26.04802" lon="100.119595">
<time>2015-08-27T15:33:21Z</time></trkpt>
<trkpt lat="26.04783" lon="100.119625">
<time>2015-08-27T15:33:22Z</time></trkpt>
<trkpt lat="26.04769" lon="100.119665">
<time>2015-08-27T15:33:23Z</time></trkpt>
<trkpt lat="26.04754" lon="100.119735">
<time>2015-08-27T15:33:24Z</time></trkpt>
<trkpt lat="26.04745" lon="100.119805">
<time>2015-08-27T15:33:25Z</time></trkpt>
<trkpt lat="26.04731" lon="100.119935">
<time>2015-08-27T15:33:26Z</time></trkpt>
<trkpt lat="26.04718" lon="100.120075">
<time>2015-08-27T15:33:27Z</time></trkpt>
<trkpt lat="26.046041" lon="100.121487">
<time>2015-08-27T15:33:28Z</time></trkpt>
<trkpt lat="26.045881" lon="100.121657">
<time>2015-08-27T15:33:29Z</time></trkpt>
<trkpt lat="26.045731" lon="100.121757">
<time>2015-08-27T15:33:30Z</time></trkpt>
<trkpt lat="26.045571" lon="100.121837">
<time>2015-08-27T15:33:31Z</time></trkpt>
<trkpt lat="26.04537" lon="100.121887">
<time>2015-08-27T15:33:32Z</time></trkpt>
<trkpt lat="26.04504" lon="100.121938">
<time>2015-08-27T15:33:33Z</time></trkpt>
<trkpt lat="26.04424" lon="100.122058">
<time>2015-08-27T15:33:34Z</time></trkpt>
<trkpt lat="26.04392" lon="100.122088">
<time>2015-08-27T15:33:35Z</time></trkpt>
<trkpt lat="26.043589" lon="100.122108">
<time>2015-08-27T15:33:36Z</time></trkpt>
<trkpt lat="26.042509" lon="100.122158">
<time>2015-08-27T15:33:37Z</time></trkpt>
<trkpt lat="26.042249" lon="100.122158">
<time>2015-08-27T15:33:38Z</time></trkpt>
<trkpt lat="26.042068" lon="100.122138">
<time>2015-08-27T15:33:39Z</time></trkpt>
<trkpt lat="26.041898" lon="100.122068">
<time>2015-08-27T15:33:40Z</time></trkpt>
<trkpt lat="26.041748" lon="100.121988">
<time>2015-08-27T15:33:41Z</time></trkpt>
<trkpt lat="26.041638" lon="100.121888">
<time>2015-08-27T15:33:42Z</time></trkpt>
<trkpt lat="26.041528" lon="100.121777">
<time>2015-08-27T15:33:43Z</time></trkpt>
<trkpt lat="26.041437" lon="100.121627">
<time>2015-08-27T15:33:44Z</time></trkpt>
<trkpt lat="26.041387" lon="100.121517">
<time>2015-08-27T15:33:45Z</time></trkpt>
<trkpt lat="26.041357" lon="100.121397">
<time>2015-08-27T15:33:46Z</time></trkpt>
<trkpt lat="26.041327" lon="100.121197">
<time>2015-08-27T15:33:47Z</time></trkpt>
<trkpt lat="26.041327" lon="100.120977">
<time>2015-08-27T15:33:48Z</time></trkpt>
<trkpt lat="26.041347" lon="100.120866">
<time>2015-08-27T15:33:49Z</time></trkpt>
<trkpt lat="26.041377" lon="100.120746">
<time>2015-08-27T15:33:50Z</time></trkpt>
<trkpt lat="26.041436" lon="100.120616">
<time>2015-08-27T15:33:51Z</time></trkpt>
<trkpt lat="26.041516" lon="100.120476">
<time>2015-08-27T15:33:52Z</time></trkpt>
<trkpt lat="26.041616" lon="100.120346">
<time>2015-08-27T15:33:53Z</time></trkpt>
<trkpt lat="26.042416" lon="100.119455">
<time>2015-08-27T15:33:54Z</time></trkpt>
<trkpt lat="26.042466" lon="100.119375">
<time>2015-08-27T15:33:55Z</time></trkpt>
<trkpt lat="26.042506" lon="100.119285">
<time>2015-08-27T15:33:56Z</time></trkpt>
<trkpt lat="26.042526" lon="100.119215">
<time>2015-08-27T15:33:57Z</time></trkpt>
<trkpt lat="26.042546" lon="100.119105">
<time>2015-08-27T15:33:58Z</time></trkpt>
<trkpt lat="26.042536" lon="100.118914">
<time>2015-08-27T15:33:59Z</time></trkpt>
<trkpt lat="26.042094" lon="100.117373">
<time>2015-08-27T15:34:00Z</time></trkpt>
<trkpt lat="26.042024" lon="100.117173">
<time>2015-08-27T15:34:01Z</time></trkpt>
<trkpt lat="26.041984" lon="100.117052">
<time>2015-08-27T15:34:02Z</time></trkpt>
<trkpt lat="26.041904" lon="100.116942">
<time>2015-08-27T15:34:03Z</time></trkpt>
<trkpt lat="26.041793" lon="100.116832">
<time>2015-08-27T15:34:04Z</time></trkpt>
<trkpt lat="26.041703" lon="100.116782">
<time>2015-08-27T15:34:05Z</time></trkpt>
<trkpt lat="26.041613" lon="100.116752">
<time>2015-08-27T15:34:06Z</time></trkpt>
<trkpt lat="26.041503" lon="100.116732">
<time>2015-08-27T15:34:07Z</time></trkpt>
<trkpt lat="26.041383" lon="100.116732">
<time>2015-08-27T15:34:08Z</time></trkpt>
<trkpt lat="26.041303" lon="100.116762">
<time>2015-08-27T15:34:09Z</time></trkpt>
<trkpt lat="26.041153" lon="100.116822">
<time>2015-08-27T15:34:10Z</time></trkpt>
<trkpt lat="26.038973" lon="100.118224">
<time>2015-08-27T15:34:11Z</time></trkpt>
<trkpt lat="26.038793" lon="100.118324">
<time>2015-08-27T15:34:12Z</time></trkpt>
<trkpt lat="26.038653" lon="100.118384">
<time>2015-08-27T15:34:13Z</time></trkpt>
<trkpt lat="26.038512" lon="100.118414">
<time>2015-08-27T15:34:14Z</time></trkpt>
<trkpt lat="26.038362" lon="100.118424">
<time>2015-08-27T15:34:15Z</time></trkpt>
<trkpt lat="26.038192" lon="100.118394">
<time>2015-08-27T15:34:16Z</time></trkpt>
<trkpt lat="26.038002" lon="100.118334">
<time>2015-08-27T15:34:17Z</time></trkpt>
<trkpt lat="26.037652" lon="100.118194">
<time>2015-08-27T15:34:18Z</time></trkpt>
<trkpt lat="26.037532" lon="100.118154">
<time>2015-08-27T15:34:19Z</time></trkpt>
<trkpt lat="26.037371" lon="100.118124">
<time>2015-08-27T15:34:20Z</time></trkpt>
<trkpt lat="26.037171" lon="100.118124">
<time>2015-08-27T15:34:21Z</time></trkpt>
<trkpt lat="26.036261" lon="100.118214">
<time>2015-08-27T15:34:22Z</time></trkpt>
<trkpt lat="26.036081" lon="100.118224">
<time>2015-08-27T15:34:23Z</time></trkpt>
<trkpt lat="26.03592" lon="100.118214">
<time>2015-08-27T15:34:24Z</time></trkpt>
<trkpt lat="26.03581" lon="100.118194">
<time>2015-08-27T15:34:25Z</time></trkpt>
<trkpt lat="26.0357" lon="100.118154">
<time>2015-08-27T15:34:26Z</time></trkpt>
<trkpt lat="26.03559" lon="100.118094">
<time>2015-08-27T15:34:27Z</time></trkpt>
<trkpt lat="26.03544" lon="100.117984">
<time>2015-08-27T15:34:28Z</time></trkpt>
<trkpt lat="26.03532" lon="100.117853">
<time>2015-08-27T15:34:29Z</time></trkpt>
<trkpt lat="26.03524" lon="100.117753">
<time>2015-08-27T15:34:30Z</time></trkpt>
<trkpt lat="26.035189" lon="100.117643">
<time>2015-08-27T15:34:31Z</time></trkpt>
<trkpt lat="26.035139" lon="100.117523">
<time>2015-08-27T15:34:32Z</time></trkpt>
<trkpt lat="26.035109" lon="100.117383">
<time>2015-08-27T15:34:33Z</time></trkpt>
<trkpt lat="26.035099" lon="100.117223">
<time>2015-08-27T15:34:34Z</time></trkpt>
<trkpt lat="26.035089" lon="100.117073">
<time>2015-08-27T15:34:35Z</time></trkpt>
<trkpt lat="26.035109" lon="100.116943">
<time>2015-08-27T15:34:36Z</time></trkpt>
<trkpt lat="26.035438" lon="100.115061">
<time>2015-08-27T15:34:37Z</time></trkpt>
<trkpt lat="26.035587" lon="100.1146">
<time>2015-08-27T15:34:38Z</time></trkpt>
<trkpt lat="26.037046" lon="100.110277">
<time>2015-08-27T15:34:39Z</time></trkpt>
<trkpt lat="26.037085" lon="100.109857">
<time>2015-08-27T15:34:40Z</time></trkpt>
<trkpt lat="26.037035" lon="100.109617">
<time>2015-08-27T15:34:41Z</time></trkpt>
<trkpt lat="26.036795" lon="100.109136">
<time>2015-08-27T15:34:42Z</time></trkpt>
<trkpt lat="26.036404" lon="100.108336">
<time>2015-08-27T15:34:43Z</time></trkpt>
<trkpt lat="26.036324" lon="100.107966">
<time>2015-08-27T15:34:44Z</time></trkpt>
<trkpt lat="26.036394" lon="100.107676">
<time>2015-08-27T15:34:45Z</time></trkpt>
<trkpt lat="26.036474" lon="100.107545">
<time>2015-08-27T15:34:46Z</time></trkpt>
<trkpt lat="26.036714" lon="100.107355">
<time>2015-08-27T15:34:47Z</time></trkpt>
<trkpt lat="26.037624" lon="100.106875">
<time>2015-08-27T15:34:48Z</time></trkpt>
<trkpt lat="26.037964" lon="100.106745">
<time>2015-08-27T15:34:49Z</time></trkpt>
<trkpt lat="26.038345" lon="100.106695">
<time>2015-08-27T15:34:50Z</time></trkpt>
<trkpt lat="26.040596" lon="100.106645">
<time>2015-08-27T15:34:51Z</time></trkpt>
<trkpt lat="26.040706" lon="100.106635">
<time>2015-08-27T15:34:52Z</time></trkpt>
<trkpt lat="26.040766" lon="100.106625">
<time>2015-08-27T15:34:53Z</time></trkpt>
<trkpt lat="26.040806" lon="100.106605">
<time>2015-08-27T15:34:54Z</time></trkpt>
<trkpt lat="26.040846" lon="100.106595">
<time>2015-08-27T15:34:55Z</time></trkpt>
<trkpt lat="26.040876" lon="100.106575">
<time>2015-08-27T15:34:56Z</time></trkpt>
<trkpt lat="26.040936" lon="100.106535">
<time>2015-08-27T15:34:57Z</time></trkpt>
<trkpt lat="26.040966" lon="100.106505">
<time>2015-08-27T15:34:58Z</time></trkpt>
<trkpt lat="26.040986" lon="100.106465">
<time>2015-08-27T15:34:59Z</time></trkpt>
<trkpt lat="26.041006" lon="100.106415">
<time>2015-08-27T15:35:00Z</time></trkpt>
<trkpt lat="26.041026" lon="100.106335">
<time>2015-08-27T15:35:01Z</time></trkpt>
<trkpt lat="26.041036" lon="100.106275">
<time>2015-08-27T15:35:02Z</time></trkpt>
<trkpt lat="26.041026" lon="100.106225">
<time>2015-08-27T15:35:03Z</time></trkpt>
<trkpt lat="26.041016" lon="100.106165">
<time>2015-08-27T15:35:04Z</time></trkpt>
<trkpt lat="26.040986" lon="100.106105">
<time>2015-08-27T15:35:05Z</time></trkpt>
<trkpt lat="26.040946" lon="100.106055">
<time>2015-08-27T15:35:06Z</time></trkpt>
<trkpt lat="26.040916" lon="100.106015">
<time>2015-08-27T15:35:07Z</time></trkpt>
<trkpt lat="26.040866" lon="100.105975">
<time>2015-08-27T15:35:08Z</time></trkpt>
<trkpt lat="26.040806" lon="100.105945">
<time>2015-08-27T15:35:09Z</time></trkpt>
<trkpt lat="26.040736" lon="100.105925">
<time>2015-08-27T15:35:10Z</time></trkpt>
<trkpt lat="26.039175" lon="100.105825">
<time>2015-08-27T15:35:11Z</time></trkpt>
<trkpt lat="26.038655" lon="100.105744">
<time>2015-08-27T15:35:12Z</time></trkpt>
<trkpt lat="26.038214" lon="100.105674">
<time>2015-08-27T15:35:13Z</time></trkpt>
<trkpt lat="26.037444" lon="100.105464">
<time>2015-08-27T15:35:14Z</time></trkpt>
<trkpt lat="26.037093" lon="100.105434">
<time>2015-08-27T15:35:15Z</time></trkpt>
<trkpt lat="26.036683" lon="100.105494">
<time>2015-08-27T15:35:16Z</time></trkpt>
<trkpt lat="26.035362" lon="100.105795">
<time>2015-08-27T15:35:17Z</time></trkpt>
<trkpt lat="26.034982" lon="100.105895">
<time>2015-08-27T15:35:18Z</time></trkpt>
<trkpt lat="26.034662" lon="100.106015">
<time>2015-08-27T15:35:19Z</time></trkpt>
<trkpt lat="26.034442" lon="100.106145">
<time>2015-08-27T15:35:20Z</time></trkpt>
<trkpt lat="26.034192" lon="100.106325">
<time>2015-08-27T15:35:21Z</time></trkpt>
<trkpt lat="26.033521" lon="100.106875">
<time>2015-08-27T15:35:22Z</time></trkpt>
<trkpt lat="26.033051" lon="100.107265">
<time>2015-08-27T15:35:23Z</time></trkpt>
<trkpt lat="26.032661" lon="100.107736">
<time>2015-08-27T15:35:24Z</time></trkpt>
<trkpt lat="26.032401" lon="100.108186">
<time>2015-08-27T15:35:25Z</time></trkpt>
<trkpt lat="26.032221" lon="100.108666">
<time>2015-08-27T15:35:26Z</time></trkpt>
<trkpt lat="26.031832" lon="100.110627">
<time>2015-08-27T15:35:27Z</time></trkpt>
<trkpt lat="26.031752" lon="100.110968">
<time>2015-08-27T15:35:28Z</time></trkpt>
<trkpt lat="26.031562" lon="100.111288">
<time>2015-08-27T15:35:29Z</time></trkpt>
<trkpt lat="26.030632" lon="100.112229">
<time>2015-08-27T15:35:30Z</time></trkpt>
<trkpt lat="26.030422" lon="100.112469">
<time>2015-08-27T15:35:31Z</time></trkpt>
<trkpt lat="26.030132" lon="100.112879">
<time>2015-08-27T15:35:32Z</time></trkpt>
<trkpt lat="26.029813" lon="100.11352">
<time>2015-08-27T15:35:33Z</time></trkpt>
<trkpt lat="26.029643" lon="100.11407">
<time>2015-08-27T15:35:34Z</time></trkpt>
<trkpt lat="26.029373" lon="100.115131">
<time>2015-08-27T15:35:35Z</time></trkpt>
<trkpt lat="26.029244" lon="100.115521">
<time>2015-08-27T15:35:36Z</time></trkpt>
<trkpt lat="26.029154" lon="100.115712">
<time>2015-08-27T15:35:37Z</time></trkpt>
<trkpt lat="26.029074" lon="100.115822">
<time>2015-08-27T15:35:38Z</time></trkpt>
<trkpt lat="26.028984" lon="100.115912">
<time>2015-08-27T15:35:39Z</time></trkpt>
<trkpt lat="26.028884" lon="100.116002">
<time>2015-08-27T15:35:40Z</time></trkpt>
<trkpt lat="26.028774" lon="100.116052">
<time>2015-08-27T15:35:41Z</time></trkpt>
<trkpt lat="26.028654" lon="100.116102">
<time>2015-08-27T15:35:42Z</time></trkpt>
<trkpt lat="26.028484" lon="100.116132">
<time>2015-08-27T15:35:43Z</time></trkpt>
<trkpt lat="26.028374" lon="100.116132">
<time>2015-08-27T15:35:44Z</time></trkpt>
<trkpt lat="26.028293" lon="100.116132">
<time>2015-08-27T15:35:45Z</time></trkpt>
<trkpt lat="26.028183" lon="100.116102">
<time>2015-08-27T15:35:46Z</time></trkpt>
<trkpt lat="26.028093" lon="100.116062">
<time>2015-08-27T15:35:47Z</time></trkpt>
<trkpt lat="26.027993" lon="100.116002">
<time>2015-08-27T15:35:48Z</time></trkpt>
<trkpt lat="26.027733" lon="100.115792">
<time>2015-08-27T15:35:49Z</time></trkpt>
<trkpt lat="26.02579" lon="100.1141">
<time>2015-08-27T15:35:50Z</time></trkpt>
<trkpt lat="26.024909" lon="100.11314">
<time>2015-08-27T15:35:51Z</time></trkpt>
<trkpt lat="26.024418" lon="100.112559">
<time>2015-08-27T15:35:52Z</time></trkpt>
<trkpt lat="26.023917" lon="100.111788">
<time>2015-08-27T15:35:53Z</time></trkpt>
<trkpt lat="26.023176" lon="100.110428">
<time>2015-08-27T15:35:54Z</time></trkpt>
<trkpt lat="26.023006" lon="100.110047">
<time>2015-08-27T15:35:55Z</time></trkpt>
<trkpt lat="26.022916" lon="100.109847">
<time>2015-08-27T15:35:56Z</time></trkpt>
<trkpt lat="26.021543" lon="100.106755">
<time>2015-08-27T15:35:57Z</time></trkpt>
<trkpt lat="26.021283" lon="100.106365">
<time>2015-08-27T15:35:58Z</time></trkpt>
<trkpt lat="26.021073" lon="100.106205">
<time>2015-08-27T15:35:59Z</time></trkpt>
<trkpt lat="26.020942" lon="100.106105">
<time>2015-08-27T15:36:00Z</time></trkpt>
<trkpt lat="26.020602" lon="100.105955">
<time>2015-08-27T15:36:01Z</time></trkpt>
<trkpt lat="26.01822" lon="100.104935">
<time>2015-08-27T15:36:02Z</time></trkpt>
<trkpt lat="26.01775" lon="100.104685">
<time>2015-08-27T15:36:03Z</time></trkpt>
<trkpt lat="26.015888" lon="100.103704">
<time>2015-08-27T15:36:04Z</time></trkpt>
<trkpt lat="26.015548" lon="100.103544">
<time>2015-08-27T15:36:05Z</time></trkpt>
<trkpt lat="26.014977" lon="100.103814">
<time>2015-08-27T15:36:06Z</time></trkpt>
<trkpt lat="26.013006" lon="100.105075">
<time>2015-08-27T15:36:07Z</time></trkpt>
<trkpt lat="26.012356" lon="100.105505">
<time>2015-08-27T15:36:08Z</time></trkpt>
<trkpt lat="26.011946" lon="100.105655">
<time>2015-08-27T15:36:09Z</time></trkpt>
<trkpt lat="26.008214" lon="100.106686">
<time>2015-08-27T15:36:10Z</time></trkpt>
<trkpt lat="26.007503" lon="100.106926">
<time>2015-08-27T15:36:11Z</time></trkpt>
<trkpt lat="26.006463" lon="100.107396">
<time>2015-08-27T15:36:12Z</time></trkpt>
<trkpt lat="26.005832" lon="100.107616">
<time>2015-08-27T15:36:13Z</time></trkpt>
<trkpt lat="26.004171" lon="100.107876">
<time>2015-08-27T15:36:14Z</time></trkpt>
<trkpt lat="26.004041" lon="100.107896">
<time>2015-08-27T15:36:15Z</time></trkpt>
<trkpt lat="26.004001" lon="100.107896">
<time>2015-08-27T15:36:16Z</time></trkpt>
<trkpt lat="26.003071" lon="100.108097">
<time>2015-08-27T15:36:17Z</time></trkpt>
<trkpt lat="26.002921" lon="100.108137">
<time>2015-08-27T15:36:18Z</time></trkpt>
<trkpt lat="26.002811" lon="100.108167">
<time>2015-08-27T15:36:19Z</time></trkpt>
<trkpt lat="26.002691" lon="100.108197">
<time>2015-08-27T15:36:20Z</time></trkpt>
<trkpt lat="26.002691" lon="100.108197">
<time>2015-08-27T15:36:21Z</time></trkpt>
<trkpt lat="26.00201" lon="100.107346">
<time>2015-08-27T15:36:22Z</time></trkpt>
<trkpt lat="26.001489" lon="100.106706">
<time>2015-08-27T15:36:23Z</time></trkpt>
<trkpt lat="26.000718" lon="100.105685">
<time>2015-08-27T15:36:24Z</time></trkpt>
<trkpt lat="26.000208" lon="100.105195">
<time>2015-08-27T15:36:25Z</time></trkpt>
<trkpt lat="26.000077" lon="100.105085">
<time>2015-08-27T15:36:26Z</time></trkpt>
<trkpt lat="26.000017" lon="100.105045">
<time>2015-08-27T15:36:27Z</time></trkpt>
<trkpt lat="25.999737" lon="100.104885">
<time>2015-08-27T15:36:28Z</time></trkpt>
<trkpt lat="25.999247" lon="100.104695">
<time>2015-08-27T15:36:29Z</time></trkpt>
<trkpt lat="25.998846" lon="100.104595">
<time>2015-08-27T15:36:30Z</time></trkpt>
<trkpt lat="25.998546" lon="100.104505">
<time>2015-08-27T15:36:31Z</time></trkpt>
<trkpt lat="25.998236" lon="100.104445">
<time>2015-08-27T15:36:32Z</time></trkpt>
<trkpt lat="25.997876" lon="100.104395">
<time>2015-08-27T15:36:33Z</time></trkpt>
<trkpt lat="25.997355" lon="100.104355">
<time>2015-08-27T15:36:34Z</time></trkpt>
<trkpt lat="25.996755" lon="100.104405">
<time>2015-08-27T15:36:35Z</time></trkpt>
<trkpt lat="25.996365" lon="100.104465">
<time>2015-08-27T15:36:36Z</time></trkpt>
<trkpt lat="25.996195" lon="100.104495">
<time>2015-08-27T15:36:37Z</time></trkpt>
<trkpt lat="25.995784" lon="100.104615">
<time>2015-08-27T15:36:38Z</time></trkpt>
<trkpt lat="25.995134" lon="100.104845">
<time>2015-08-27T15:36:39Z</time></trkpt>
<trkpt lat="25.994774" lon="100.105015">
<time>2015-08-27T15:36:40Z</time></trkpt>
<trkpt lat="25.994454" lon="100.105125">
<time>2015-08-27T15:36:41Z</time></trkpt>
<trkpt lat="25.994444" lon="100.105125">
<time>2015-08-27T15:36:42Z</time></trkpt>
<trkpt lat="25.993813" lon="100.105305">
<time>2015-08-27T15:36:43Z</time></trkpt>
<trkpt lat="25.993073" lon="100.105456">
<time>2015-08-27T15:36:44Z</time></trkpt>
<trkpt lat="25.992392" lon="100.105536">
<time>2015-08-27T15:36:45Z</time></trkpt>
<trkpt lat="25.991722" lon="100.105536">
<time>2015-08-27T15:36:46Z</time></trkpt>
<trkpt lat="25.991632" lon="100.105526">
<time>2015-08-27T15:36:47Z</time></trkpt>
<trkpt lat="25.990971" lon="100.105466">
<time>2015-08-27T15:36:48Z</time></trkpt>
<trkpt lat="25.990581" lon="100.105396">
<time>2015-08-27T15:36:49Z</time></trkpt>
<trkpt lat="25.990391" lon="100.105336">
<time>2015-08-27T15:36:50Z</time></trkpt>
<trkpt lat="25.9897" lon="100.105125">
<time>2015-08-27T15:36:51Z</time></trkpt>
<trkpt lat="25.9891" lon="100.104885">
<time>2015-08-27T15:36:52Z</time></trkpt>
<trkpt lat="25.988199" lon="100.104505">
<time>2015-08-27T15:36:53Z</time></trkpt>
<trkpt lat="25.988019" lon="100.104435">
<time>2015-08-27T15:36:54Z</time></trkpt>
<trkpt lat="25.987328" lon="100.104195">
<time>2015-08-27T15:36:55Z</time></trkpt>
<trkpt lat="25.986968" lon="100.104065">
<time>2015-08-27T15:36:56Z</time></trkpt>
<trkpt lat="25.986838" lon="100.104015">
<time>2015-08-27T15:36:57Z</time></trkpt>
<trkpt lat="25.985227" lon="100.103585">
<time>2015-08-27T15:36:58Z</time></trkpt>
<trkpt lat="25.984396" lon="100.103455">
<time>2015-08-27T15:36:59Z</time></trkpt>
<trkpt lat="25.982234" lon="100.103255">
<time>2015-08-27T15:37:00Z</time></trkpt>
<trkpt lat="25.980553" lon="100.103065">
<time>2015-08-27T15:37:01Z</time></trkpt>
<trkpt lat="25.979072" lon="100.102695">
<time>2015-08-27T15:37:02Z</time></trkpt>
<trkpt lat="25.978101" lon="100.102305">
<time>2015-08-27T15:37:03Z</time></trkpt>
<trkpt lat="25.977541" lon="100.102015">
<time>2015-08-27T15:37:04Z</time></trkpt>
<trkpt lat="25.977471" lon="100.101975">
<time>2015-08-27T15:37:05Z</time></trkpt>
<trkpt lat="25.97611" lon="100.101054">
<time>2015-08-27T15:37:06Z</time></trkpt>
<trkpt lat="25.974378" lon="100.099724">
<time>2015-08-27T15:37:07Z</time></trkpt>
<trkpt lat="25.971626" lon="100.097614">
<time>2015-08-27T15:37:08Z</time></trkpt>
<trkpt lat="25.969995" lon="100.096424">
<time>2015-08-27T15:37:09Z</time></trkpt>
<trkpt lat="25.969645" lon="100.096174">
<time>2015-08-27T15:37:10Z</time></trkpt>
<trkpt lat="25.969475" lon="100.096064">
<time>2015-08-27T15:37:11Z</time></trkpt>
<trkpt lat="25.969224" lon="100.095894">
<time>2015-08-27T15:37:12Z</time></trkpt>
<trkpt lat="25.968734" lon="100.095594">
<time>2015-08-27T15:37:13Z</time></trkpt>
<trkpt lat="25.968464" lon="100.095494">
<time>2015-08-27T15:37:14Z</time></trkpt>
<trkpt lat="25.967944" lon="100.095304">
<time>2015-08-27T15:37:15Z</time></trkpt>
<trkpt lat="25.967363" lon="100.095184">
<time>2015-08-27T15:37:16Z</time></trkpt>
<trkpt lat="25.967253" lon="100.095164">
<time>2015-08-27T15:37:17Z</time></trkpt>
<trkpt lat="25.966443" lon="100.095024">
<time>2015-08-27T15:37:18Z</time></trkpt>
<trkpt lat="25.964041" lon="100.094894">
<time>2015-08-27T15:37:19Z</time></trkpt>
<trkpt lat="25.96335" lon="100.094854">
<time>2015-08-27T15:37:20Z</time></trkpt>
<trkpt lat="25.96251" lon="100.094784">
<time>2015-08-27T15:37:21Z</time></trkpt>
<trkpt lat="25.96251" lon="100.094784">
<time>2015-08-27T15:37:22Z</time></trkpt>
<trkpt lat="25.961549" lon="100.094724">
<time>2015-08-27T15:37:23Z</time></trkpt>
<trkpt lat="25.960919" lon="100.094684">
<time>2015-08-27T15:37:24Z</time></trkpt>
<trkpt lat="25.960098" lon="100.094674">
<time>2015-08-27T15:37:25Z</time></trkpt>
<trkpt lat="25.959728" lon="100.094674">
<time>2015-08-27T15:37:26Z</time></trkpt>
<trkpt lat="25.959518" lon="100.094694">
<time>2015-08-27T15:37:27Z</time></trkpt>
<trkpt lat="25.956856" lon="100.095314">
<time>2015-08-27T15:37:28Z</time></trkpt>
<trkpt lat="25.956365" lon="100.095424">
<time>2015-08-27T15:37:29Z</time></trkpt>
<trkpt lat="25.956215" lon="100.095454">
<time>2015-08-27T15:37:30Z</time></trkpt>
<trkpt lat="25.956095" lon="100.095484">
<time>2015-08-27T15:37:31Z</time></trkpt>
<trkpt lat="25.955925" lon="100.095524">
<time>2015-08-27T15:37:32Z</time></trkpt>
<trkpt lat="25.955815" lon="100.095554">
<time>2015-08-27T15:37:33Z</time></trkpt>
<trkpt lat="25.955725" lon="100.095584">
<time>2015-08-27T15:37:34Z</time></trkpt>
<trkpt lat="25.955585" lon="100.095614">
<time>2015-08-27T15:37:35Z</time></trkpt>
<trkpt lat="25.953874" lon="100.096004">
<time>2015-08-27T15:37:36Z</time></trkpt>
<trkpt lat="25.953513" lon="100.096074">
<time>2015-08-27T15:37:37Z</time></trkpt>
<trkpt lat="25.953343" lon="100.096284">
<time>2015-08-27T15:37:38Z</time></trkpt>
<trkpt lat="25.953133" lon="100.096464">
<time>2015-08-27T15:37:39Z</time></trkpt>
<trkpt lat="25.952963" lon="100.096564">
<time>2015-08-27T15:37:40Z</time></trkpt>
<trkpt lat="25.952893" lon="100.096594">
<time>2015-08-27T15:37:41Z</time></trkpt>
<trkpt lat="25.952793" lon="100.096644">
<time>2015-08-27T15:37:42Z</time></trkpt>
<trkpt lat="25.952713" lon="100.096684">
<time>2015-08-27T15:37:43Z</time></trkpt>
<trkpt lat="25.952663" lon="100.096714">
<time>2015-08-27T15:37:44Z</time></trkpt>
<trkpt lat="25.952643" lon="100.096724">
<time>2015-08-27T15:37:45Z</time></trkpt>
<trkpt lat="25.952593" lon="100.096744">
<time>2015-08-27T15:37:46Z</time></trkpt>
<trkpt lat="25.952503" lon="100.096774">
<time>2015-08-27T15:37:47Z</time></trkpt>
<trkpt lat="25.952473" lon="100.096784">
<time>2015-08-27T15:37:48Z</time></trkpt>
<trkpt lat="25.952453" lon="100.096794">
<time>2015-08-27T15:37:49Z</time></trkpt>
<trkpt lat="25.952433" lon="100.096794">
<time>2015-08-27T15:37:50Z</time></trkpt>
<trkpt lat="25.952403" lon="100.096804">
<time>2015-08-27T15:37:51Z</time></trkpt>
<trkpt lat="25.952373" lon="100.096814">
<time>2015-08-27T15:37:52Z</time></trkpt>
<trkpt lat="25.952323" lon="100.096834">
<time>2015-08-27T15:37:53Z</time></trkpt>
<trkpt lat="25.952253" lon="100.096854">
<time>2015-08-27T15:37:54Z</time></trkpt>
<trkpt lat="25.952172" lon="100.096884">
<time>2015-08-27T15:37:55Z</time></trkpt>
<trkpt lat="25.952112" lon="100.096894">
<time>2015-08-27T15:37:56Z</time></trkpt>
<trkpt lat="25.952012" lon="100.096924">
<time>2015-08-27T15:37:57Z</time></trkpt>
<trkpt lat="25.951932" lon="100.096944">
<time>2015-08-27T15:37:58Z</time></trkpt>
<trkpt lat="25.951862" lon="100.096964">
<time>2015-08-27T15:37:59Z</time></trkpt>
<trkpt lat="25.951852" lon="100.096964">
<time>2015-08-27T15:38:00Z</time></trkpt>
<trkpt lat="25.951782" lon="100.096984">
<time>2015-08-27T15:38:01Z</time></trkpt>
<trkpt lat="25.951722" lon="100.096994">
<time>2015-08-27T15:38:02Z</time></trkpt>
<trkpt lat="25.951652" lon="100.097014">
<time>2015-08-27T15:38:03Z</time></trkpt>
<trkpt lat="25.951572" lon="100.097024">
<time>2015-08-27T15:38:04Z</time></trkpt>
<trkpt lat="25.951432" lon="100.097034">
<time>2015-08-27T15:38:05Z</time></trkpt>
<trkpt lat="25.951362" lon="100.097044">
<time>2015-08-27T15:38:06Z</time></trkpt>
<trkpt lat="25.951362" lon="100.097044">
<time>2015-08-27T15:38:07Z</time></trkpt>
<trkpt lat="25.949411" lon="100.098635">
<time>2015-08-27T15:38:08Z</time></trkpt>
<trkpt lat="25.94829" lon="100.099585">
<time>2015-08-27T15:38:09Z</time></trkpt>
<trkpt lat="25.94811" lon="100.099725">
<time>2015-08-27T15:38:10Z</time></trkpt>
<trkpt lat="25.94801" lon="100.099785">
<time>2015-08-27T15:38:11Z</time></trkpt>
<trkpt lat="25.94791" lon="100.099825">
<time>2015-08-27T15:38:12Z</time></trkpt>
<trkpt lat="25.94784" lon="100.099845">
<time>2015-08-27T15:38:13Z</time></trkpt>
<trkpt lat="25.94771" lon="100.099845">
<time>2015-08-27T15:38:14Z</time></trkpt>
<trkpt lat="25.9476" lon="100.099845">
<time>2015-08-27T15:38:15Z</time></trkpt>
<trkpt lat="25.946439" lon="100.099635">
<time>2015-08-27T15:38:16Z</time></trkpt>
<trkpt lat="25.945648" lon="100.099525">
<time>2015-08-27T15:38:17Z</time></trkpt>
<trkpt lat="25.944998" lon="100.099405">
<time>2015-08-27T15:38:18Z</time></trkpt>
<trkpt lat="25.944757" lon="100.099375">
<time>2015-08-27T15:38:19Z</time></trkpt>
<trkpt lat="25.944647" lon="100.099365">
<time>2015-08-27T15:38:20Z</time></trkpt>
<trkpt lat="25.944617" lon="100.099365">
<time>2015-08-27T15:38:21Z</time></trkpt>
<trkpt lat="25.944497" lon="100.099365">
<time>2015-08-27T15:38:22Z</time></trkpt>
<trkpt lat="25.943937" lon="100.099395">
<time>2015-08-27T15:38:23Z</time></trkpt>
<trkpt lat="25.943717" lon="100.099305">
<time>2015-08-27T15:38:24Z</time></trkpt>
<trkpt lat="25.943717" lon="100.099305">
<time>2015-08-27T15:38:25Z</time></trkpt>
<trkpt lat="25.943657" lon="100.099055">
<time>2015-08-27T15:38:26Z</time></trkpt>
<trkpt lat="25.943567" lon="100.098695">
<time>2015-08-27T15:38:27Z</time></trkpt>
<trkpt lat="25.943497" lon="100.098555">
<time>2015-08-27T15:38:28Z</time></trkpt>
<trkpt lat="25.943446" lon="100.098465">
<time>2015-08-27T15:38:29Z</time></trkpt>
<trkpt lat="25.943366" lon="100.098375">
<time>2015-08-27T15:38:30Z</time></trkpt>
<trkpt lat="25.943276" lon="100.098305">
<time>2015-08-27T15:38:31Z</time></trkpt>
<trkpt lat="25.943166" lon="100.098235">
<time>2015-08-27T15:38:32Z</time></trkpt>
<trkpt lat="25.943076" lon="100.098205">
<time>2015-08-27T15:38:33Z</time></trkpt>
<trkpt lat="25.942946" lon="100.098165">
<time>2015-08-27T15:38:34Z</time></trkpt>
<trkpt lat="25.942796" lon="100.098135">
<time>2015-08-27T15:38:35Z</time></trkpt>
<trkpt lat="25.942506" lon="100.098065">
<time>2015-08-27T15:38:36Z</time></trkpt>
<trkpt lat="25.942206" lon="100.097985">
<time>2015-08-27T15:38:37Z</time></trkpt>
<trkpt lat="25.941905" lon="100.097895">
<time>2015-08-27T15:38:38Z</time></trkpt>
<trkpt lat="25.941585" lon="100.097815">
<time>2015-08-27T15:38:39Z</time></trkpt>
<trkpt lat="25.941245" lon="100.097735">
<time>2015-08-27T15:38:40Z</time></trkpt>
<trkpt lat="25.940915" lon="100.097655">
<time>2015-08-27T15:38:41Z</time></trkpt>
<trkpt lat="25.940574" lon="100.097555">
<time>2015-08-27T15:38:42Z</time></trkpt>
<trkpt lat="25.940264" lon="100.097475">
<time>2015-08-27T15:38:43Z</time></trkpt>
<trkpt lat="25.939914" lon="100.097395">
<time>2015-08-27T15:38:44Z</time></trkpt>
<trkpt lat="25.939744" lon="100.097345">
<time>2015-08-27T15:38:45Z</time></trkpt>
<trkpt lat="25.939594" lon="100.097315">
<time>2015-08-27T15:38:46Z</time></trkpt>
<trkpt lat="25.939424" lon="100.097265">
<time>2015-08-27T15:38:47Z</time></trkpt>
<trkpt lat="25.939254" lon="100.097215">
<time>2015-08-27T15:38:48Z</time></trkpt>
<trkpt lat="25.939053" lon="100.097125">
<time>2015-08-27T15:38:49Z</time></trkpt>
<trkpt lat="25.938943" lon="100.097065">
<time>2015-08-27T15:38:50Z</time></trkpt>
<trkpt lat="25.938783" lon="100.096955">
<time>2015-08-27T15:38:51Z</time></trkpt>
<trkpt lat="25.938633" lon="100.096855">
<time>2015-08-27T15:38:52Z</time></trkpt>
<trkpt lat="25.938483" lon="100.096705">
<time>2015-08-27T15:38:53Z</time></trkpt>
<trkpt lat="25.938323" lon="100.096555">
<time>2015-08-27T15:38:54Z</time></trkpt>
<trkpt lat="25.938073" lon="100.096315">
<time>2015-08-27T15:38:55Z</time></trkpt>
<trkpt lat="25.937813" lon="100.096065">
<time>2015-08-27T15:38:56Z</time></trkpt>
<trkpt lat="25.937572" lon="100.095835">
<time>2015-08-27T15:38:57Z</time></trkpt>
<trkpt lat="25.937442" lon="100.095735">
<time>2015-08-27T15:38:58Z</time></trkpt>
<trkpt lat="25.937362" lon="100.095675">
<time>2015-08-27T15:38:59Z</time></trkpt>
<trkpt lat="25.937302" lon="100.095635">
<time>2015-08-27T15:39:00Z</time></trkpt>
<trkpt lat="25.937232" lon="100.095595">
<time>2015-08-27T15:39:01Z</time></trkpt>
<trkpt lat="25.937102" lon="100.095555">
<time>2015-08-27T15:39:02Z</time></trkpt>
<trkpt lat="25.936992" lon="100.095525">
<time>2015-08-27T15:39:03Z</time></trkpt>
<trkpt lat="25.936832" lon="100.095505">
<time>2015-08-27T15:39:04Z</time></trkpt>
<trkpt lat="25.936682" lon="100.095515">
<time>2015-08-27T15:39:05Z</time></trkpt>
<trkpt lat="25.936542" lon="100.095545">
<time>2015-08-27T15:39:06Z</time></trkpt>
<trkpt lat="25.936362" lon="100.095605">
<time>2015-08-27T15:39:07Z</time></trkpt>
<trkpt lat="25.936221" lon="100.095665">
<time>2015-08-27T15:39:08Z</time></trkpt>
<trkpt lat="25.936051" lon="100.095735">
<time>2015-08-27T15:39:09Z</time></trkpt>
<trkpt lat="25.935911" lon="100.095795">
<time>2015-08-27T15:39:10Z</time></trkpt>
<trkpt lat="25.935601" lon="100.095935">
<time>2015-08-27T15:39:11Z</time></trkpt>
<trkpt lat="25.935301" lon="100.096075">
<time>2015-08-27T15:39:12Z</time></trkpt>
<trkpt lat="25.935001" lon="100.096205">
<time>2015-08-27T15:39:13Z</time></trkpt>
<trkpt lat="25.93471" lon="100.096335">
<time>2015-08-27T15:39:14Z</time></trkpt>
<trkpt lat="25.93442" lon="100.096465">
<time>2015-08-27T15:39:15Z</time></trkpt>
<trkpt lat="25.93416" lon="100.096585">
<time>2015-08-27T15:39:16Z</time></trkpt>
<trkpt lat="25.93411" lon="100.096605">
<time>2015-08-27T15:39:17Z</time></trkpt>
<trkpt lat="25.93383" lon="100.096745">
<time>2015-08-27T15:39:18Z</time></trkpt>
<trkpt lat="25.93354" lon="100.096905">
<time>2015-08-27T15:39:19Z</time></trkpt>
<trkpt lat="25.933419" lon="100.096975">
<time>2015-08-27T15:39:20Z</time></trkpt>
<trkpt lat="25.933269" lon="100.097085">
<time>2015-08-27T15:39:21Z</time></trkpt>
<trkpt lat="25.933139" lon="100.097205">
<time>2015-08-27T15:39:22Z</time></trkpt>
<trkpt lat="25.932989" lon="100.097345">
<time>2015-08-27T15:39:23Z</time></trkpt>
<trkpt lat="25.932759" lon="100.097565">
<time>2015-08-27T15:39:24Z</time></trkpt>
<trkpt lat="25.932529" lon="100.097775">
<time>2015-08-27T15:39:25Z</time></trkpt>
<trkpt lat="25.932259" lon="100.098035">
<time>2015-08-27T15:39:26Z</time></trkpt>
<trkpt lat="25.931989" lon="100.098295">
<time>2015-08-27T15:39:27Z</time></trkpt>
<trkpt lat="25.931728" lon="100.098535">
<time>2015-08-27T15:39:28Z</time></trkpt>
<trkpt lat="25.931468" lon="100.098785">
<time>2015-08-27T15:39:29Z</time></trkpt>
<trkpt lat="25.931198" lon="100.099045">
<time>2015-08-27T15:39:30Z</time></trkpt>
<trkpt lat="25.931098" lon="100.099145">
<time>2015-08-27T15:39:31Z</time></trkpt>
<trkpt lat="25.930938" lon="100.099295">
<time>2015-08-27T15:39:32Z</time></trkpt>
<trkpt lat="25.930598" lon="100.099615">
<time>2015-08-27T15:39:33Z</time></trkpt>
<trkpt lat="25.930307" lon="100.099875">
<time>2015-08-27T15:39:34Z</time></trkpt>
<trkpt lat="25.930057" lon="100.100105">
<time>2015-08-27T15:39:35Z</time></trkpt>
<trkpt lat="25.929737" lon="100.100375">
<time>2015-08-27T15:39:36Z</time></trkpt>
<trkpt lat="25.929447" lon="100.100616">
<time>2015-08-27T15:39:37Z</time></trkpt>
<trkpt lat="25.929137" lon="100.100876">
<time>2015-08-27T15:39:38Z</time></trkpt>
<trkpt lat="25.928847" lon="100.101116">
<time>2015-08-27T15:39:39Z</time></trkpt>
<trkpt lat="25.928577" lon="100.101366">
<time>2015-08-27T15:39:40Z</time></trkpt>
<trkpt lat="25.928426" lon="100.101536">
<time>2015-08-27T15:39:41Z</time></trkpt>
<trkpt lat="25.928306" lon="100.101686">
<time>2015-08-27T15:39:42Z</time></trkpt>
<trkpt lat="25.928096" lon="100.102006">
<time>2015-08-27T15:39:43Z</time></trkpt>
<trkpt lat="25.927876" lon="100.102346">
<time>2015-08-27T15:39:44Z</time></trkpt>
<trkpt lat="25.927526" lon="100.102896">
<time>2015-08-27T15:39:45Z</time></trkpt>
<trkpt lat="25.927446" lon="100.103016">
<time>2015-08-27T15:39:46Z</time></trkpt>
<trkpt lat="25.927336" lon="100.103146">
<time>2015-08-27T15:39:47Z</time></trkpt>
<trkpt lat="25.927226" lon="100.103256">
<time>2015-08-27T15:39:48Z</time></trkpt>
<trkpt lat="25.927086" lon="100.103386">
<time>2015-08-27T15:39:49Z</time></trkpt>
<trkpt lat="25.926836" lon="100.103586">
<time>2015-08-27T15:39:50Z</time></trkpt>
<trkpt lat="25.926586" lon="100.103747">
<time>2015-08-27T15:39:51Z</time></trkpt>
<trkpt lat="25.926296" lon="100.103907">
<time>2015-08-27T15:39:52Z</time></trkpt>
<trkpt lat="25.926015" lon="100.104057">
<time>2015-08-27T15:39:53Z</time></trkpt>
<trkpt lat="25.925755" lon="100.104207">
<time>2015-08-27T15:39:54Z</time></trkpt>
<trkpt lat="25.925525" lon="100.104327">
<time>2015-08-27T15:39:55Z</time></trkpt>
<trkpt lat="25.925315" lon="100.104427">
<time>2015-08-27T15:39:56Z</time></trkpt>
<trkpt lat="25.925115" lon="100.104517">
<time>2015-08-27T15:39:57Z</time></trkpt>
<trkpt lat="25.924925" lon="100.104627">
<time>2015-08-27T15:39:58Z</time></trkpt>
<trkpt lat="25.924735" lon="100.104727">
<time>2015-08-27T15:39:59Z</time></trkpt>
<trkpt lat="25.924525" lon="100.104847">
<time>2015-08-27T15:40:00Z</time></trkpt>
<trkpt lat="25.924285" lon="100.104967">
<time>2015-08-27T15:40:01Z</time></trkpt>
<trkpt lat="25.924064" lon="100.105077">
<time>2015-08-27T15:40:02Z</time></trkpt>
<trkpt lat="25.923824" lon="100.105207">
<time>2015-08-27T15:40:03Z</time></trkpt>
<trkpt lat="25.923564" lon="100.105317">
<time>2015-08-27T15:40:04Z</time></trkpt>
<trkpt lat="25.923274" lon="100.105457">
<time>2015-08-27T15:40:05Z</time></trkpt>
<trkpt lat="25.923134" lon="100.105537">
<time>2015-08-27T15:40:06Z</time></trkpt>
<trkpt lat="25.922994" lon="100.105597">
<time>2015-08-27T15:40:07Z</time></trkpt>
<trkpt lat="25.922664" lon="100.105737">
<time>2015-08-27T15:40:08Z</time></trkpt>
<trkpt lat="25.922384" lon="100.105868">
<time>2015-08-27T15:40:09Z</time></trkpt>
<trkpt lat="25.922133" lon="100.105978">
<time>2015-08-27T15:40:10Z</time></trkpt>
<trkpt lat="25.922063" lon="100.106008">
<time>2015-08-27T15:40:11Z</time></trkpt>
<trkpt lat="25.921743" lon="100.106138">
<time>2015-08-27T15:40:12Z</time></trkpt>
<trkpt lat="25.921413" lon="100.106288">
<time>2015-08-27T15:40:13Z</time></trkpt>
<trkpt lat="25.921063" lon="100.106438">
<time>2015-08-27T15:40:14Z</time></trkpt>
<trkpt lat="25.920783" lon="100.106578">
<time>2015-08-27T15:40:15Z</time></trkpt>
<trkpt lat="25.920443" lon="100.106718">
<time>2015-08-27T15:40:16Z</time></trkpt>
<trkpt lat="25.920102" lon="100.106868">
<time>2015-08-27T15:40:17Z</time></trkpt>
<trkpt lat="25.919752" lon="100.107018">
<time>2015-08-27T15:40:18Z</time></trkpt>
<trkpt lat="25.919402" lon="100.107168">
<time>2015-08-27T15:40:19Z</time></trkpt>
<trkpt lat="25.919192" lon="100.107258">
<time>2015-08-27T15:40:20Z</time></trkpt>
<trkpt lat="25.919062" lon="100.107308">
<time>2015-08-27T15:40:21Z</time></trkpt>
<trkpt lat="25.918702" lon="100.107468">
<time>2015-08-27T15:40:22Z</time></trkpt>
<trkpt lat="25.918362" lon="100.107619">
<time>2015-08-27T15:40:23Z</time></trkpt>
<trkpt lat="25.918001" lon="100.107769">
<time>2015-08-27T15:40:24Z</time></trkpt>
<trkpt lat="25.917651" lon="100.107929">
<time>2015-08-27T15:40:25Z</time></trkpt>
<trkpt lat="25.917291" lon="100.108079">
<time>2015-08-27T15:40:26Z</time></trkpt>
<trkpt lat="25.916921" lon="100.108239">
<time>2015-08-27T15:40:27Z</time></trkpt>
<trkpt lat="25.916681" lon="100.108349">
<time>2015-08-27T15:40:28Z</time></trkpt>
<trkpt lat="25.916581" lon="100.108399">
<time>2015-08-27T15:40:29Z</time></trkpt>
<trkpt lat="25.91584" lon="100.108719">
<time>2015-08-27T15:40:30Z</time></trkpt>
<trkpt lat="25.91431" lon="100.1094">
<time>2015-08-27T15:40:31Z</time></trkpt>
<trkpt lat="25.913549" lon="100.10977">
<time>2015-08-27T15:40:32Z</time></trkpt>
<trkpt lat="25.912939" lon="100.11006">
<time>2015-08-27T15:40:33Z</time></trkpt>
<trkpt lat="25.911899" lon="100.110591">
<time>2015-08-27T15:40:34Z</time></trkpt>
<trkpt lat="25.910818" lon="100.111141">
<time>2015-08-27T15:40:35Z</time></trkpt>
<trkpt lat="25.909998" lon="100.111551">
<time>2015-08-27T15:40:36Z</time></trkpt>
<trkpt lat="25.908997" lon="100.112072">
<time>2015-08-27T15:40:37Z</time></trkpt>
<trkpt lat="25.907787" lon="100.112642">
<time>2015-08-27T15:40:38Z</time></trkpt>
<trkpt lat="25.907397" lon="100.112842">
<time>2015-08-27T15:40:39Z</time></trkpt>
<trkpt lat="25.903155" lon="100.114984">
<time>2015-08-27T15:40:40Z</time></trkpt>
<trkpt lat="25.902325" lon="100.115405">
<time>2015-08-27T15:40:41Z</time></trkpt>
<trkpt lat="25.901255" lon="100.115995">
<time>2015-08-27T15:40:42Z</time></trkpt>
<trkpt lat="25.900105" lon="100.116526">
<time>2015-08-27T15:40:43Z</time></trkpt>
<trkpt lat="25.898724" lon="100.117226">
<time>2015-08-27T15:40:44Z</time></trkpt>
<trkpt lat="25.898284" lon="100.117447">
<time>2015-08-27T15:40:45Z</time></trkpt>
<trkpt lat="25.896354" lon="100.118358">
<time>2015-08-27T15:40:46Z</time></trkpt>
<trkpt lat="25.893943" lon="100.119389">
<time>2015-08-27T15:40:47Z</time></trkpt>
<trkpt lat="25.893943" lon="100.119389">
<time>2015-08-27T15:40:48Z</time></trkpt>
<trkpt lat="25.893873" lon="100.119439">
<time>2015-08-27T15:40:49Z</time></trkpt>
<trkpt lat="25.892853" lon="100.119839">
<time>2015-08-27T15:40:50Z</time></trkpt>
<trkpt lat="25.890932" lon="100.12057">
<time>2015-08-27T15:40:51Z</time></trkpt>
<trkpt lat="25.890922" lon="100.12057">
<time>2015-08-27T15:40:52Z</time></trkpt>
<trkpt lat="25.890292" lon="100.12081">
<time>2015-08-27T15:40:53Z</time></trkpt>
<trkpt lat="25.889171" lon="100.121201">
<time>2015-08-27T15:40:54Z</time></trkpt>
<trkpt lat="25.887951" lon="100.121621">
<time>2015-08-27T15:40:55Z</time></trkpt>
<trkpt lat="25.88636" lon="100.122152">
<time>2015-08-27T15:40:56Z</time></trkpt>
<trkpt lat="25.88629" lon="100.122152">
<time>2015-08-27T15:40:57Z</time></trkpt>
<trkpt lat="25.88509" lon="100.122512">
<time>2015-08-27T15:40:58Z</time></trkpt>
<trkpt lat="25.88488" lon="100.122542">
<time>2015-08-27T15:40:59Z</time></trkpt>
<trkpt lat="25.884349" lon="100.122472">
<time>2015-08-27T15:41:00Z</time></trkpt>
<trkpt lat="25.882047" lon="100.121872">
<time>2015-08-27T15:41:01Z</time></trkpt>
<trkpt lat="25.879355" lon="100.121241">
<time>2015-08-27T15:41:02Z</time></trkpt>
<trkpt lat="25.878824" lon="100.121111">
<time>2015-08-27T15:41:03Z</time></trkpt>
<trkpt lat="25.878444" lon="100.121081">
<time>2015-08-27T15:41:04Z</time></trkpt>
<trkpt lat="25.878154" lon="100.121071">
<time>2015-08-27T15:41:05Z</time></trkpt>
<trkpt lat="25.878064" lon="100.121071">
<time>2015-08-27T15:41:06Z</time></trkpt>
<trkpt lat="25.876403" lon="100.121151">
<time>2015-08-27T15:41:07Z</time></trkpt>
<trkpt lat="25.874391" lon="100.121251">
<time>2015-08-27T15:41:08Z</time></trkpt>
<trkpt lat="25.873301" lon="100.121311">
<time>2015-08-27T15:41:09Z</time></trkpt>
<trkpt lat="25.87285" lon="100.121361">
<time>2015-08-27T15:41:10Z</time></trkpt>
<trkpt lat="25.87231" lon="100.121451">
<time>2015-08-27T15:41:11Z</time></trkpt>
<trkpt lat="25.8718" lon="100.121592">
<time>2015-08-27T15:41:12Z</time></trkpt>
<trkpt lat="25.8712" lon="100.121822">
<time>2015-08-27T15:41:13Z</time></trkpt>
<trkpt lat="25.86975" lon="100.122573">
<time>2015-08-27T15:41:14Z</time></trkpt>
<trkpt lat="25.866349" lon="100.124365">
<time>2015-08-27T15:41:15Z</time></trkpt>
<trkpt lat="25.865819" lon="100.124655">
<time>2015-08-27T15:41:16Z</time></trkpt>
<trkpt lat="25.865439" lon="100.124866">
<time>2015-08-27T15:41:17Z</time></trkpt>
<trkpt lat="25.865159" lon="100.125026">
<time>2015-08-27T15:41:18Z</time></trkpt>
<trkpt lat="25.864909" lon="100.125136">
<time>2015-08-27T15:41:19Z</time></trkpt>
<trkpt lat="25.864239" lon="100.125487">
<time>2015-08-27T15:41:20Z</time></trkpt>
<trkpt lat="25.863439" lon="100.125897">
<time>2015-08-27T15:41:21Z</time></trkpt>
<trkpt lat="25.862509" lon="100.126398">
<time>2015-08-27T15:41:22Z</time></trkpt>
<trkpt lat="25.861869" lon="100.126728">
<time>2015-08-27T15:41:23Z</time></trkpt>
<trkpt lat="25.860949" lon="100.127219">
<time>2015-08-27T15:41:24Z</time></trkpt>
<trkpt lat="25.859809" lon="100.12787">
<time>2015-08-27T15:41:25Z</time></trkpt>
<trkpt lat="25.859579" lon="100.12796">
<time>2015-08-27T15:41:26Z</time></trkpt>
<trkpt lat="25.859579" lon="100.12796">
<time>2015-08-27T15:41:27Z</time></trkpt>
<trkpt lat="25.859679" lon="100.12809">
<time>2015-08-27T15:41:28Z</time></trkpt>
<trkpt lat="25.859679" lon="100.12809">
<time>2015-08-27T15:41:29Z</time></trkpt>
<trkpt lat="25.85886" lon="100.129392">
<time>2015-08-27T15:41:30Z</time></trkpt>
<trkpt lat="25.85882" lon="100.129542">
<time>2015-08-27T15:41:31Z</time></trkpt>
<trkpt lat="25.85881" lon="100.129562">
<time>2015-08-27T15:41:32Z</time></trkpt>
<trkpt lat="25.8588" lon="100.129572">
<time>2015-08-27T15:41:33Z</time></trkpt>
<trkpt lat="25.85867" lon="100.129702">
<time>2015-08-27T15:41:34Z</time></trkpt>
<trkpt lat="25.85859" lon="100.129813">
<time>2015-08-27T15:41:35Z</time></trkpt>
<trkpt lat="25.85858" lon="100.129833">
<time>2015-08-27T15:41:36Z</time></trkpt>
<trkpt lat="25.85858" lon="100.129853">
<time>2015-08-27T15:41:37Z</time></trkpt>
<trkpt lat="25.85855" lon="100.129953">
<time>2015-08-27T15:41:38Z</time></trkpt>
<trkpt lat="25.85855" lon="100.129973">
<time>2015-08-27T15:41:39Z</time></trkpt>
<trkpt lat="25.85854" lon="100.129993">
<time>2015-08-27T15:41:40Z</time></trkpt>
<trkpt lat="25.858341" lon="100.130193">
<time>2015-08-27T15:41:41Z</time></trkpt>
<trkpt lat="25.858111" lon="100.130323">
<time>2015-08-27T15:41:42Z</time></trkpt>
<trkpt lat="25.858011" lon="100.130453">
<time>2015-08-27T15:41:43Z</time></trkpt>
<trkpt lat="25.857801" lon="100.130654">
<time>2015-08-27T15:41:44Z</time></trkpt>
<trkpt lat="25.857621" lon="100.130784">
<time>2015-08-27T15:41:45Z</time></trkpt>
<trkpt lat="25.857461" lon="100.130824">
<time>2015-08-27T15:41:46Z</time></trkpt>
<trkpt lat="25.857291" lon="100.130894">
<time>2015-08-27T15:41:47Z</time></trkpt>
<trkpt lat="25.857151" lon="100.130994">
<time>2015-08-27T15:41:48Z</time></trkpt>
<trkpt lat="25.856991" lon="100.131064">
<time>2015-08-27T15:41:49Z</time></trkpt>
<trkpt lat="25.856931" lon="100.131064">
<time>2015-08-27T15:41:50Z</time></trkpt>
<trkpt lat="25.85664" lon="100.131004">
<time>2015-08-27T15:41:51Z</time></trkpt>
<trkpt lat="25.85629" lon="100.130944">
<time>2015-08-27T15:41:52Z</time></trkpt>
<trkpt lat="25.85629" lon="100.130944">
<time>2015-08-27T15:41:53Z</time></trkpt>
<trkpt lat="25.85617" lon="100.131215">
<time>2015-08-27T15:41:54Z</time></trkpt>
<trkpt lat="25.85614" lon="100.131255">
<time>2015-08-27T15:41:55Z</time></trkpt>
<trkpt lat="25.856121" lon="100.131295">
<time>2015-08-27T15:41:56Z</time></trkpt>
<trkpt lat="25.856081" lon="100.131335">
<time>2015-08-27T15:41:57Z</time></trkpt>
<trkpt lat="25.856051" lon="100.131345">
<time>2015-08-27T15:41:58Z</time></trkpt>
<trkpt lat="25.856021" lon="100.131375">
<time>2015-08-27T15:41:59Z</time></trkpt>
<trkpt lat="25.855971" lon="100.131395">
<time>2015-08-27T15:42:00Z</time></trkpt>
<trkpt lat="25.855951" lon="100.131405">
<time>2015-08-27T15:42:01Z</time></trkpt>
<trkpt lat="25.855831" lon="100.131435">
<time>2015-08-27T15:42:02Z</time></trkpt>
<trkpt lat="25.85566" lon="100.131475">
<time>2015-08-27T15:42:03Z</time></trkpt>
<trkpt lat="25.85508" lon="100.131605">
<time>2015-08-27T15:42:04Z</time></trkpt>
<trkpt lat="25.85434" lon="100.131745">
<time>2015-08-27T15:42:05Z</time></trkpt>
<trkpt lat="25.85326" lon="100.132026">
<time>2015-08-27T15:42:06Z</time></trkpt>
<trkpt lat="25.85324" lon="100.132036">
<time>2015-08-27T15:42:07Z</time></trkpt>
<trkpt lat="25.852119" lon="100.132406">
<time>2015-08-27T15:42:08Z</time></trkpt>
<trkpt lat="25.852119" lon="100.132406">
<time>2015-08-27T15:42:09Z</time></trkpt>
<trkpt lat="25.851919" lon="100.132416">
<time>2015-08-27T15:42:10Z</time></trkpt>
<trkpt lat="25.851729" lon="100.132427">
<time>2015-08-27T15:42:11Z</time></trkpt>
<trkpt lat="25.851519" lon="100.132447">
<time>2015-08-27T15:42:12Z</time></trkpt>
<trkpt lat="25.851299" lon="100.132487">
<time>2015-08-27T15:42:13Z</time></trkpt>
<trkpt lat="25.851109" lon="100.132517">
<time>2015-08-27T15:42:14Z</time></trkpt>
<trkpt lat="25.850889" lon="100.132587">
<time>2015-08-27T15:42:15Z</time></trkpt>
<trkpt lat="25.850479" lon="100.132727">
<time>2015-08-27T15:42:16Z</time></trkpt>
<trkpt lat="25.849968" lon="100.132857">
<time>2015-08-27T15:42:17Z</time></trkpt>
<trkpt lat="25.849828" lon="100.132897">
<time>2015-08-27T15:42:18Z</time></trkpt>
<trkpt lat="25.849678" lon="100.132917">
<time>2015-08-27T15:42:19Z</time></trkpt>
<trkpt lat="25.849618" lon="100.132907">
<time>2015-08-27T15:42:20Z</time></trkpt>
<trkpt lat="25.849378" lon="100.132887">
<time>2015-08-27T15:42:21Z</time></trkpt>
<trkpt lat="25.849018" lon="100.132897">
<time>2015-08-27T15:42:22Z</time></trkpt>
<trkpt lat="25.848868" lon="100.132917">
<time>2015-08-27T15:42:23Z</time></trkpt>
<trkpt lat="25.848468" lon="100.133017">
<time>2015-08-27T15:42:24Z</time></trkpt>
<trkpt lat="25.848418" lon="100.133017">
<time>2015-08-27T15:42:25Z</time></trkpt>
<trkpt lat="25.848298" lon="100.133018">
<time>2015-08-27T15:42:26Z</time></trkpt>
<trkpt lat="25.847847" lon="100.132907">
<time>2015-08-27T15:42:27Z</time></trkpt>
<trkpt lat="25.847577" lon="100.132837">
<time>2015-08-27T15:42:28Z</time></trkpt>
<trkpt lat="25.847096" lon="100.132757">
<time>2015-08-27T15:42:29Z</time></trkpt>
<trkpt lat="25.846706" lon="100.132667">
<time>2015-08-27T15:42:30Z</time></trkpt>
<trkpt lat="25.846196" lon="100.132577">
<time>2015-08-27T15:42:31Z</time></trkpt>
<trkpt lat="25.845685" lon="100.132457">
<time>2015-08-27T15:42:32Z</time></trkpt>
<trkpt lat="25.845495" lon="100.132387">
<time>2015-08-27T15:42:33Z</time></trkpt>
<trkpt lat="25.845325" lon="100.132347">
<time>2015-08-27T15:42:34Z</time></trkpt>
<trkpt lat="25.845325" lon="100.132347">
<time>2015-08-27T15:42:35Z</time></trkpt>
<trkpt lat="25.844314" lon="100.132437">
<time>2015-08-27T15:42:36Z</time></trkpt>
<trkpt lat="25.843774" lon="100.132487">
<time>2015-08-27T15:42:37Z</time></trkpt>
<trkpt lat="25.842343" lon="100.132627">
<time>2015-08-27T15:42:38Z</time></trkpt>
<trkpt lat="25.841423" lon="100.132697">
<time>2015-08-27T15:42:39Z</time></trkpt>
<trkpt lat="25.840002" lon="100.132757">
<time>2015-08-27T15:42:40Z</time></trkpt>
<trkpt lat="25.838951" lon="100.132767">
<time>2015-08-27T15:42:41Z</time></trkpt>
<trkpt lat="25.838641" lon="100.132767">
<time>2015-08-27T15:42:42Z</time></trkpt>
<trkpt lat="25.838121" lon="100.132787">
<time>2015-08-27T15:42:43Z</time></trkpt>
<trkpt lat="25.83729" lon="100.132817">
<time>2015-08-27T15:42:44Z</time></trkpt>
<trkpt lat="25.83718" lon="100.132817">
<time>2015-08-27T15:42:45Z</time></trkpt>
<trkpt lat="25.835959" lon="100.132878">
<time>2015-08-27T15:42:46Z</time></trkpt>
<trkpt lat="25.835289" lon="100.132888">
<time>2015-08-27T15:42:47Z</time></trkpt>
<trkpt lat="25.834238" lon="100.132938">
<time>2015-08-27T15:42:48Z</time></trkpt>
<trkpt lat="25.834038" lon="100.132948">
<time>2015-08-27T15:42:49Z</time></trkpt>
<trkpt lat="25.833598" lon="100.132968">
<time>2015-08-27T15:42:50Z</time></trkpt>
<trkpt lat="25.833348" lon="100.132988">
<time>2015-08-27T15:42:51Z</time></trkpt>
<trkpt lat="25.833238" lon="100.132988">
<time>2015-08-27T15:42:52Z</time></trkpt>
<trkpt lat="25.832517" lon="100.133008">
<time>2015-08-27T15:42:53Z</time></trkpt>
<trkpt lat="25.831196" lon="100.133058">
<time>2015-08-27T15:42:54Z</time></trkpt>
<trkpt lat="25.830436" lon="100.133118">
<time>2015-08-27T15:42:55Z</time></trkpt>
<trkpt lat="25.830056" lon="100.133138">
<time>2015-08-27T15:42:56Z</time></trkpt>
<trkpt lat="25.829886" lon="100.133138">
<time>2015-08-27T15:42:57Z</time></trkpt>
<trkpt lat="25.829465" lon="100.133178">
<time>2015-08-27T15:42:58Z</time></trkpt>
<trkpt lat="25.828975" lon="100.133258">
<time>2015-08-27T15:42:59Z</time></trkpt>
<trkpt lat="25.828695" lon="100.133288">
<time>2015-08-27T15:43:00Z</time></trkpt>
<trkpt lat="25.827585" lon="100.133429">
<time>2015-08-27T15:43:01Z</time></trkpt>
<trkpt lat="25.827505" lon="100.133439">
<time>2015-08-27T15:43:02Z</time></trkpt>
<trkpt lat="25.827364" lon="100.133469">
<time>2015-08-27T15:43:03Z</time></trkpt>
<trkpt lat="25.827174" lon="100.133489">
<time>2015-08-27T15:43:04Z</time></trkpt>
<trkpt lat="25.826634" lon="100.133549">
<time>2015-08-27T15:43:05Z</time></trkpt>
<trkpt lat="25.826324" lon="100.133569">
<time>2015-08-27T15:43:06Z</time></trkpt>
<trkpt lat="25.826104" lon="100.133589">
<time>2015-08-27T15:43:07Z</time></trkpt>
<trkpt lat="25.825864" lon="100.133609">
<time>2015-08-27T15:43:08Z</time></trkpt>
<trkpt lat="25.825183" lon="100.133649">
<time>2015-08-27T15:43:09Z</time></trkpt>
<trkpt lat="25.824723" lon="100.133649">
<time>2015-08-27T15:43:10Z</time></trkpt>
<trkpt lat="25.824273" lon="100.133669">
<time>2015-08-27T15:43:11Z</time></trkpt>
<trkpt lat="25.823822" lon="100.133659">
<time>2015-08-27T15:43:12Z</time></trkpt>
<trkpt lat="25.823022" lon="100.133669">
<time>2015-08-27T15:43:13Z</time></trkpt>
<trkpt lat="25.822472" lon="100.133669">
<time>2015-08-27T15:43:14Z</time></trkpt>
<trkpt lat="25.821831" lon="100.133689">
<time>2015-08-27T15:43:15Z</time></trkpt>
<trkpt lat="25.821751" lon="100.133689">
<time>2015-08-27T15:43:16Z</time></trkpt>
<trkpt lat="25.821191" lon="100.133719">
<time>2015-08-27T15:43:17Z</time></trkpt>
<trkpt lat="25.82053" lon="100.133759">
<time>2015-08-27T15:43:18Z</time></trkpt>
<trkpt lat="25.82008" lon="100.133809">
<time>2015-08-27T15:43:19Z</time></trkpt>
<trkpt lat="25.81968" lon="100.133839">
<time>2015-08-27T15:43:20Z</time></trkpt>
<trkpt lat="25.81925" lon="100.13389">
<time>2015-08-27T15:43:21Z</time></trkpt>
<trkpt lat="25.81879" lon="100.13392">
<time>2015-08-27T15:43:22Z</time></trkpt>
<trkpt lat="25.818339" lon="100.13396">
<time>2015-08-27T15:43:23Z</time></trkpt>
<trkpt lat="25.817889" lon="100.13399">
<time>2015-08-27T15:43:24Z</time></trkpt>
<trkpt lat="25.817589" lon="100.13401">
<time>2015-08-27T15:43:25Z</time></trkpt>
<trkpt lat="25.817439" lon="100.13402">
<time>2015-08-27T15:43:26Z</time></trkpt>
<trkpt lat="25.817009" lon="100.13403">
<time>2015-08-27T15:43:27Z</time></trkpt>
<trkpt lat="25.816778" lon="100.13405">
<time>2015-08-27T15:43:28Z</time></trkpt>
<trkpt lat="25.816608" lon="100.13405">
<time>2015-08-27T15:43:29Z</time></trkpt>
<trkpt lat="25.816128" lon="100.13406">
<time>2015-08-27T15:43:30Z</time></trkpt>
<trkpt lat="25.815688" lon="100.13409">
<time>2015-08-27T15:43:31Z</time></trkpt>
<trkpt lat="25.815227" lon="100.13411">
<time>2015-08-27T15:43:32Z</time></trkpt>
<trkpt lat="25.815217" lon="100.13411">
<time>2015-08-27T15:43:33Z</time></trkpt>
<trkpt lat="25.814877" lon="100.13413">
<time>2015-08-27T15:43:34Z</time></trkpt>
<trkpt lat="25.814417" lon="100.13417">
<time>2015-08-27T15:43:35Z</time></trkpt>
<trkpt lat="25.813957" lon="100.1342">
<time>2015-08-27T15:43:36Z</time></trkpt>
<trkpt lat="25.813497" lon="100.13423">
<time>2015-08-27T15:43:37Z</time></trkpt>
<trkpt lat="25.813026" lon="100.13426">
<time>2015-08-27T15:43:38Z</time></trkpt>
<trkpt lat="25.812576" lon="100.13429">
<time>2015-08-27T15:43:39Z</time></trkpt>
<trkpt lat="25.812086" lon="100.13432">
<time>2015-08-27T15:43:40Z</time></trkpt>
<trkpt lat="25.811586" lon="100.134361">
<time>2015-08-27T15:43:41Z</time></trkpt>
<trkpt lat="25.811125" lon="100.134391">
<time>2015-08-27T15:43:42Z</time></trkpt>
<trkpt lat="25.810675" lon="100.134421">
<time>2015-08-27T15:43:43Z</time></trkpt>
<trkpt lat="25.810515" lon="100.134431">
<time>2015-08-27T15:43:44Z</time></trkpt>
<trkpt lat="25.810185" lon="100.134451">
<time>2015-08-27T15:43:45Z</time></trkpt>
<trkpt lat="25.809394" lon="100.134511">
<time>2015-08-27T15:43:46Z</time></trkpt>
<trkpt lat="25.808894" lon="100.134531">
<time>2015-08-27T15:43:47Z</time></trkpt>
<trkpt lat="25.808444" lon="100.134561">
<time>2015-08-27T15:43:48Z</time></trkpt>
<trkpt lat="25.807963" lon="100.134581">
<time>2015-08-27T15:43:49Z</time></trkpt>
<trkpt lat="25.807483" lon="100.134601">
<time>2015-08-27T15:43:50Z</time></trkpt>
<trkpt lat="25.807013" lon="100.134631">
<time>2015-08-27T15:43:51Z</time></trkpt>
<trkpt lat="25.806353" lon="100.134671">
<time>2015-08-27T15:43:52Z</time></trkpt>
<trkpt lat="25.805822" lon="100.134691">
<time>2015-08-27T15:43:53Z</time></trkpt>
<trkpt lat="25.805342" lon="100.134721">
<time>2015-08-27T15:43:54Z</time></trkpt>
<trkpt lat="25.805172" lon="100.134731">
<time>2015-08-27T15:43:55Z</time></trkpt>
<trkpt lat="25.804872" lon="100.134751">
<time>2015-08-27T15:43:56Z</time></trkpt>
<trkpt lat="25.804392" lon="100.134781">
<time>2015-08-27T15:43:57Z</time></trkpt>
<trkpt lat="25.803931" lon="100.134811">
<time>2015-08-27T15:43:58Z</time></trkpt>
<trkpt lat="25.803511" lon="100.134831">
<time>2015-08-27T15:43:59Z</time></trkpt>
<trkpt lat="25.803041" lon="100.134872">
<time>2015-08-27T15:44:00Z</time></trkpt>
<trkpt lat="25.80202" lon="100.134952">
<time>2015-08-27T15:44:01Z</time></trkpt>
<trkpt lat="25.80148" lon="100.134992">
<time>2015-08-27T15:44:02Z</time></trkpt>
<trkpt lat="25.8011" lon="100.135012">
<time>2015-08-27T15:44:03Z</time></trkpt>
<trkpt lat="25.801" lon="100.135022">
<time>2015-08-27T15:44:04Z</time></trkpt>
<trkpt lat="25.800539" lon="100.135062">
<time>2015-08-27T15:44:05Z</time></trkpt>
<trkpt lat="25.800079" lon="100.135092">
<time>2015-08-27T15:44:06Z</time></trkpt>
<trkpt lat="25.799479" lon="100.135132">
<time>2015-08-27T15:44:07Z</time></trkpt>
<trkpt lat="25.799079" lon="100.135152">
<time>2015-08-27T15:44:08Z</time></trkpt>
<trkpt lat="25.798999" lon="100.135162">
<time>2015-08-27T15:44:09Z</time></trkpt>
<trkpt lat="25.798598" lon="100.135192">
<time>2015-08-27T15:44:10Z</time></trkpt>
<trkpt lat="25.798218" lon="100.135232">
<time>2015-08-27T15:44:11Z</time></trkpt>
<trkpt lat="25.797688" lon="100.135262">
<time>2015-08-27T15:44:12Z</time></trkpt>
<trkpt lat="25.797218" lon="100.135282">
<time>2015-08-27T15:44:13Z</time></trkpt>
<trkpt lat="25.796777" lon="100.135322">
<time>2015-08-27T15:44:14Z</time></trkpt>
<trkpt lat="25.796317" lon="100.135362">
<time>2015-08-27T15:44:15Z</time></trkpt>
<trkpt lat="25.795947" lon="100.135383">
<time>2015-08-27T15:44:16Z</time></trkpt>
<trkpt lat="25.795497" lon="100.135423">
<time>2015-08-27T15:44:17Z</time></trkpt>
<trkpt lat="25.795017" lon="100.135453">
<time>2015-08-27T15:44:18Z</time></trkpt>
<trkpt lat="25.794576" lon="100.135483">
<time>2015-08-27T15:44:19Z</time></trkpt>
<trkpt lat="25.794306" lon="100.135503">
<time>2015-08-27T15:44:20Z</time></trkpt>
<trkpt lat="25.793836" lon="100.135543">
<time>2015-08-27T15:44:21Z</time></trkpt>
<trkpt lat="25.793556" lon="100.135563">
<time>2015-08-27T15:44:22Z</time></trkpt>
<trkpt lat="25.793406" lon="100.135573">
<time>2015-08-27T15:44:23Z</time></trkpt>
<trkpt lat="25.792695" lon="100.135613">
<time>2015-08-27T15:44:24Z</time></trkpt>
<trkpt lat="25.791825" lon="100.135683">
<time>2015-08-27T15:44:25Z</time></trkpt>
<trkpt lat="25.791545" lon="100.135703">
<time>2015-08-27T15:44:26Z</time></trkpt>
<trkpt lat="25.791024" lon="100.135743">
<time>2015-08-27T15:44:27Z</time></trkpt>
<trkpt lat="25.790564" lon="100.135783">
<time>2015-08-27T15:44:28Z</time></trkpt>
<trkpt lat="25.790104" lon="100.135823">
<time>2015-08-27T15:44:29Z</time></trkpt>
<trkpt lat="25.790064" lon="100.135823">
<time>2015-08-27T15:44:30Z</time></trkpt>
<trkpt lat="25.789924" lon="100.135833">
<time>2015-08-27T15:44:31Z</time></trkpt>
<trkpt lat="25.789784" lon="100.135853">
<time>2015-08-27T15:44:32Z</time></trkpt>
<trkpt lat="25.789644" lon="100.135863">
<time>2015-08-27T15:44:33Z</time></trkpt>
<trkpt lat="25.789184" lon="100.135904">
<time>2015-08-27T15:44:34Z</time></trkpt>
<trkpt lat="25.788743" lon="100.135934">
<time>2015-08-27T15:44:35Z</time></trkpt>
<trkpt lat="25.788273" lon="100.135964">
<time>2015-08-27T15:44:36Z</time></trkpt>
<trkpt lat="25.787843" lon="100.135994">
<time>2015-08-27T15:44:37Z</time></trkpt>
<trkpt lat="25.787793" lon="100.135994">
<time>2015-08-27T15:44:38Z</time></trkpt>
<trkpt lat="25.787182" lon="100.136034">
<time>2015-08-27T15:44:39Z</time></trkpt>
<trkpt lat="25.786962" lon="100.136054">
<time>2015-08-27T15:44:40Z</time></trkpt>
<trkpt lat="25.786662" lon="100.136074">
<time>2015-08-27T15:44:41Z</time></trkpt>
<trkpt lat="25.786182" lon="100.136124">
<time>2015-08-27T15:44:42Z</time></trkpt>
<trkpt lat="25.785782" lon="100.136154">
<time>2015-08-27T15:44:43Z</time></trkpt>
<trkpt lat="25.785331" lon="100.136184">
<time>2015-08-27T15:44:44Z</time></trkpt>
<trkpt lat="25.784891" lon="100.136224">
<time>2015-08-27T15:44:45Z</time></trkpt>
<trkpt lat="25.784421" lon="100.136254">
<time>2015-08-27T15:44:46Z</time></trkpt>
<trkpt lat="25.784021" lon="100.136294">
<time>2015-08-27T15:44:47Z</time></trkpt>
<trkpt lat="25.783701" lon="100.136324">
<time>2015-08-27T15:44:48Z</time></trkpt>
<trkpt lat="25.783551" lon="100.136334">
<time>2015-08-27T15:44:49Z</time></trkpt>
<trkpt lat="25.78273" lon="100.136394">
<time>2015-08-27T15:44:50Z</time></trkpt>
<trkpt lat="25.78225" lon="100.136425">
<time>2015-08-27T15:44:51Z</time></trkpt>
<trkpt lat="25.7818" lon="100.136455">
<time>2015-08-27T15:44:52Z</time></trkpt>
<trkpt lat="25.7814" lon="100.136495">
<time>2015-08-27T15:44:53Z</time></trkpt>
<trkpt lat="25.780919" lon="100.136535">
<time>2015-08-27T15:44:54Z</time></trkpt>
<trkpt lat="25.780459" lon="100.136575">
<time>2015-08-27T15:44:55Z</time></trkpt>
<trkpt lat="25.780009" lon="100.136605">
<time>2015-08-27T15:44:56Z</time></trkpt>
<trkpt lat="25.779569" lon="100.136645">
<time>2015-08-27T15:44:57Z</time></trkpt>
<trkpt lat="25.779108" lon="100.136675">
<time>2015-08-27T15:44:58Z</time></trkpt>
<trkpt lat="25.778668" lon="100.136705">
<time>2015-08-27T15:44:59Z</time></trkpt>
<trkpt lat="25.778208" lon="100.136745">
<time>2015-08-27T15:45:00Z</time></trkpt>
<trkpt lat="25.777768" lon="100.136785">
<time>2015-08-27T15:45:01Z</time></trkpt>
<trkpt lat="25.777117" lon="100.136825">
<time>2015-08-27T15:45:02Z</time></trkpt>
<trkpt lat="25.776147" lon="100.136895">
<time>2015-08-27T15:45:03Z</time></trkpt>
<trkpt lat="25.775687" lon="100.136936">
<time>2015-08-27T15:45:04Z</time></trkpt>
<trkpt lat="25.775276" lon="100.136966">
<time>2015-08-27T15:45:05Z</time></trkpt>
<trkpt lat="25.774826" lon="100.137006">
<time>2015-08-27T15:45:06Z</time></trkpt>
<trkpt lat="25.774376" lon="100.137026">
<time>2015-08-27T15:45:07Z</time></trkpt>
<trkpt lat="25.773776" lon="100.137076">
<time>2015-08-27T15:45:08Z</time></trkpt>
<trkpt lat="25.773696" lon="100.137076">
<time>2015-08-27T15:45:09Z</time></trkpt>
<trkpt lat="25.772835" lon="100.137116">
<time>2015-08-27T15:45:10Z</time></trkpt>
<trkpt lat="25.772365" lon="100.137136">
<time>2015-08-27T15:45:11Z</time></trkpt>
<trkpt lat="25.771905" lon="100.137166">
<time>2015-08-27T15:45:12Z</time></trkpt>
<trkpt lat="25.769593" lon="100.137276">
<time>2015-08-27T15:45:13Z</time></trkpt>
<trkpt lat="25.767462" lon="100.137387">
<time>2015-08-27T15:45:14Z</time></trkpt>
<trkpt lat="25.766182" lon="100.137447">
<time>2015-08-27T15:45:15Z</time></trkpt>
<trkpt lat="25.76341" lon="100.137597">
<time>2015-08-27T15:45:16Z</time></trkpt>
<trkpt lat="25.7625" lon="100.137657">
<time>2015-08-27T15:45:17Z</time></trkpt>
<trkpt lat="25.76232" lon="100.137667">
<time>2015-08-27T15:45:18Z</time></trkpt>
<trkpt lat="25.762119" lon="100.137697">
<time>2015-08-27T15:45:19Z</time></trkpt>
<trkpt lat="25.762079" lon="100.137707">
<time>2015-08-27T15:45:20Z</time></trkpt>
<trkpt lat="25.761859" lon="100.137767">
<time>2015-08-27T15:45:21Z</time></trkpt>
<trkpt lat="25.761439" lon="100.137938">
<time>2015-08-27T15:45:22Z</time></trkpt>
<trkpt lat="25.75823" lon="100.139631">
<time>2015-08-27T15:45:23Z</time></trkpt>
<trkpt lat="25.75775" lon="100.139891">
<time>2015-08-27T15:45:24Z</time></trkpt>
<trkpt lat="25.754421" lon="100.141754">
<time>2015-08-27T15:45:25Z</time></trkpt>
<trkpt lat="25.754131" lon="100.141915">
<time>2015-08-27T15:45:26Z</time></trkpt>
<trkpt lat="25.750022" lon="100.144169">
<time>2015-08-27T15:45:27Z</time></trkpt>
<trkpt lat="25.748113" lon="100.145141">
<time>2015-08-27T15:45:28Z</time></trkpt>
<trkpt lat="25.747033" lon="100.145692">
<time>2015-08-27T15:45:29Z</time></trkpt>
<trkpt lat="25.745633" lon="100.146403">
<time>2015-08-27T15:45:30Z</time></trkpt>
<trkpt lat="25.744484" lon="100.147004">
<time>2015-08-27T15:45:31Z</time></trkpt>
<trkpt lat="25.744164" lon="100.147215">
<time>2015-08-27T15:45:32Z</time></trkpt>
<trkpt lat="25.743414" lon="100.147685">
<time>2015-08-27T15:45:33Z</time></trkpt>
<trkpt lat="25.742664" lon="100.148166">
<time>2015-08-27T15:45:34Z</time></trkpt>
<trkpt lat="25.742125" lon="100.148447">
<time>2015-08-27T15:45:35Z</time></trkpt>
<trkpt lat="25.741625" lon="100.148697">
<time>2015-08-27T15:45:36Z</time></trkpt>
<trkpt lat="25.741065" lon="100.149008">
<time>2015-08-27T15:45:37Z</time></trkpt>
<trkpt lat="25.740165" lon="100.149479">
<time>2015-08-27T15:45:38Z</time></trkpt>
<trkpt lat="25.740115" lon="100.149509">
<time>2015-08-27T15:45:39Z</time></trkpt>
<trkpt lat="25.738976" lon="100.15011">
<time>2015-08-27T15:45:40Z</time></trkpt>
<trkpt lat="25.737596" lon="100.150832">
<time>2015-08-27T15:45:41Z</time></trkpt>
<trkpt lat="25.736576" lon="100.151413">
<time>2015-08-27T15:45:42Z</time></trkpt>
<trkpt lat="25.735987" lon="100.151723">
<time>2015-08-27T15:45:43Z</time></trkpt>
<trkpt lat="25.735547" lon="100.151954">
<time>2015-08-27T15:45:44Z</time></trkpt>
<trkpt lat="25.734457" lon="100.152565">
<time>2015-08-27T15:45:45Z</time></trkpt>
<trkpt lat="25.733348" lon="100.153176">
<time>2015-08-27T15:45:46Z</time></trkpt>
<trkpt lat="25.732038" lon="100.153908">
<time>2015-08-27T15:45:47Z</time></trkpt>
<trkpt lat="25.730499" lon="100.15476">
<time>2015-08-27T15:45:48Z</time></trkpt>
<trkpt lat="25.729249" lon="100.155431">
<time>2015-08-27T15:45:49Z</time></trkpt>
<trkpt lat="25.72875" lon="100.155712">
<time>2015-08-27T15:45:50Z</time></trkpt>
<trkpt lat="25.72717" lon="100.156583">
<time>2015-08-27T15:45:51Z</time></trkpt>
<trkpt lat="25.726471" lon="100.156964">
<time>2015-08-27T15:45:52Z</time></trkpt>
<trkpt lat="25.726071" lon="100.157175">
<time>2015-08-27T15:45:53Z</time></trkpt>
<trkpt lat="25.725691" lon="100.157385">
<time>2015-08-27T15:45:54Z</time></trkpt>
<trkpt lat="25.725221" lon="100.157656">
<time>2015-08-27T15:45:55Z</time></trkpt>
<trkpt lat="25.724741" lon="100.157926">
<time>2015-08-27T15:45:56Z</time></trkpt>
<trkpt lat="25.723952" lon="100.158367">
<time>2015-08-27T15:45:57Z</time></trkpt>
<trkpt lat="25.723082" lon="100.158808">
<time>2015-08-27T15:45:58Z</time></trkpt>
<trkpt lat="25.722902" lon="100.158908">
<time>2015-08-27T15:45:59Z</time></trkpt>
<trkpt lat="25.721962" lon="100.159409">
<time>2015-08-27T15:46:00Z</time></trkpt>
<trkpt lat="25.721323" lon="100.15977">
<time>2015-08-27T15:46:01Z</time></trkpt>
<trkpt lat="25.720303" lon="100.160321">
<time>2015-08-27T15:46:02Z</time></trkpt>
<trkpt lat="25.719334" lon="100.160832">
<time>2015-08-27T15:46:03Z</time></trkpt>
<trkpt lat="25.718464" lon="100.161273">
<time>2015-08-27T15:46:04Z</time></trkpt>
<trkpt lat="25.717774" lon="100.161644">
<time>2015-08-27T15:46:05Z</time></trkpt>
<trkpt lat="25.717014" lon="100.162015">
<time>2015-08-27T15:46:06Z</time></trkpt>
<trkpt lat="25.715975" lon="100.162496">
<time>2015-08-27T15:46:07Z</time></trkpt>
<trkpt lat="25.714815" lon="100.163007">
<time>2015-08-27T15:46:08Z</time></trkpt>
<trkpt lat="25.714485" lon="100.163147">
<time>2015-08-27T15:46:09Z</time></trkpt>
<trkpt lat="25.714005" lon="100.163368">
<time>2015-08-27T15:46:10Z</time></trkpt>
<trkpt lat="25.713805" lon="100.163478">
<time>2015-08-27T15:46:11Z</time></trkpt>
<trkpt lat="25.713675" lon="100.163548">
<time>2015-08-27T15:46:12Z</time></trkpt>
<trkpt lat="25.712836" lon="100.163989">
<time>2015-08-27T15:46:13Z</time></trkpt>
<trkpt lat="25.712506" lon="100.164179">
<time>2015-08-27T15:46:14Z</time></trkpt>
<trkpt lat="25.711406" lon="100.164801">
<time>2015-08-27T15:46:15Z</time></trkpt>
<trkpt lat="25.710627" lon="100.165252">
<time>2015-08-27T15:46:16Z</time></trkpt>
<trkpt lat="25.710127" lon="100.165542">
<time>2015-08-27T15:46:17Z</time></trkpt>
<trkpt lat="25.709497" lon="100.165903">
<time>2015-08-27T15:46:18Z</time></trkpt>
<trkpt lat="25.709138" lon="100.166103">
<time>2015-08-27T15:46:19Z</time></trkpt>
<trkpt lat="25.709058" lon="100.166154">
<time>2015-08-27T15:46:20Z</time></trkpt>
<trkpt lat="25.708938" lon="100.166244">
<time>2015-08-27T15:46:21Z</time></trkpt>
<trkpt lat="25.708858" lon="100.166304">
<time>2015-08-27T15:46:22Z</time></trkpt>
<trkpt lat="25.708738" lon="100.166434">
<time>2015-08-27T15:46:23Z</time></trkpt>
<trkpt lat="25.708738" lon="100.166434">
<time>2015-08-27T15:46:24Z</time></trkpt>
<trkpt lat="25.708648" lon="100.166595">
<time>2015-08-27T15:46:25Z</time></trkpt>
<trkpt lat="25.708548" lon="100.166715">
<time>2015-08-27T15:46:26Z</time></trkpt>
<trkpt lat="25.70796" lon="100.167446">
<time>2015-08-27T15:46:27Z</time></trkpt>
<trkpt lat="25.70786" lon="100.167587">
<time>2015-08-27T15:46:28Z</time></trkpt>
<trkpt lat="25.707031" lon="100.168709">
<time>2015-08-27T15:46:29Z</time></trkpt>
<trkpt lat="25.706353" lon="100.169561">
<time>2015-08-27T15:46:30Z</time></trkpt>
<trkpt lat="25.706243" lon="100.169701">
<time>2015-08-27T15:46:31Z</time></trkpt>
<trkpt lat="25.706103" lon="100.169851">
<time>2015-08-27T15:46:32Z</time></trkpt>
<trkpt lat="25.705963" lon="100.169982">
<time>2015-08-27T15:46:33Z</time></trkpt>
<trkpt lat="25.705813" lon="100.170112">
<time>2015-08-27T15:46:34Z</time></trkpt>
<trkpt lat="25.705314" lon="100.170533">
<time>2015-08-27T15:46:35Z</time></trkpt>
<trkpt lat="25.705214" lon="100.170603">
<time>2015-08-27T15:46:36Z</time></trkpt>
<trkpt lat="25.705114" lon="100.170673">
<time>2015-08-27T15:46:37Z</time></trkpt>
<trkpt lat="25.705034" lon="100.170733">
<time>2015-08-27T15:46:38Z</time></trkpt>
<trkpt lat="25.705014" lon="100.170743">
<time>2015-08-27T15:46:39Z</time></trkpt>
<trkpt lat="25.704914" lon="100.170803">
<time>2015-08-27T15:46:40Z</time></trkpt>
<trkpt lat="25.704295" lon="100.171174">
<time>2015-08-27T15:46:41Z</time></trkpt>
<trkpt lat="25.703825" lon="100.171455">
<time>2015-08-27T15:46:42Z</time></trkpt>
<trkpt lat="25.703665" lon="100.171545">
<time>2015-08-27T15:46:43Z</time></trkpt>
<trkpt lat="25.703405" lon="100.171695">
<time>2015-08-27T15:46:44Z</time></trkpt>
<trkpt lat="25.703215" lon="100.171806">
<time>2015-08-27T15:46:45Z</time></trkpt>
<trkpt lat="25.701836" lon="100.172587">
<time>2015-08-27T15:46:46Z</time></trkpt>
<trkpt lat="25.701236" lon="100.172908">
<time>2015-08-27T15:46:47Z</time></trkpt>
<trkpt lat="25.699927" lon="100.17363">
<time>2015-08-27T15:46:48Z</time></trkpt>
<trkpt lat="25.699727" lon="100.17373">
<time>2015-08-27T15:46:49Z</time></trkpt>
<trkpt lat="25.699527" lon="100.17383">
<time>2015-08-27T15:46:50Z</time></trkpt>
<trkpt lat="25.699327" lon="100.17392">
<time>2015-08-27T15:46:51Z</time></trkpt>
<trkpt lat="25.699147" lon="100.17399">
<time>2015-08-27T15:46:52Z</time></trkpt>
<trkpt lat="25.698717" lon="100.174151">
<time>2015-08-27T15:46:53Z</time></trkpt>
<trkpt lat="25.697387" lon="100.174662">
<time>2015-08-27T15:46:54Z</time></trkpt>
<trkpt lat="25.697037" lon="100.174792">
<time>2015-08-27T15:46:55Z</time></trkpt>
<trkpt lat="25.696557" lon="100.174932">
<time>2015-08-27T15:46:56Z</time></trkpt>
<trkpt lat="25.696347" lon="100.174982">
<time>2015-08-27T15:46:57Z</time></trkpt>
<trkpt lat="25.694768" lon="100.175554">
<time>2015-08-27T15:46:58Z</time></trkpt>
<trkpt lat="25.693998" lon="100.175834">
<time>2015-08-27T15:46:59Z</time></trkpt>
<trkpt lat="25.692268" lon="100.176436">
<time>2015-08-27T15:47:00Z</time></trkpt>
<trkpt lat="25.691958" lon="100.176546">
<time>2015-08-27T15:47:01Z</time></trkpt>
<trkpt lat="25.691818" lon="100.176586">
<time>2015-08-27T15:47:02Z</time></trkpt>
<trkpt lat="25.690448" lon="100.177127">
<time>2015-08-27T15:47:03Z</time></trkpt>
<trkpt lat="25.689708" lon="100.177428">
<time>2015-08-27T15:47:04Z</time></trkpt>
<trkpt lat="25.689688" lon="100.177438">
<time>2015-08-27T15:47:05Z</time></trkpt>
<trkpt lat="25.688649" lon="100.177999">
<time>2015-08-27T15:47:06Z</time></trkpt>
<trkpt lat="25.68728" lon="100.178851">
<time>2015-08-27T15:47:07Z</time></trkpt>
<trkpt lat="25.685851" lon="100.179723">
<time>2015-08-27T15:47:08Z</time></trkpt>
<trkpt lat="25.684062" lon="100.180845">
<time>2015-08-27T15:47:09Z</time></trkpt>
<trkpt lat="25.683262" lon="100.181326">
<time>2015-08-27T15:47:10Z</time></trkpt>
<trkpt lat="25.683052" lon="100.181446">
<time>2015-08-27T15:47:11Z</time></trkpt>
<trkpt lat="25.683022" lon="100.181466">
<time>2015-08-27T15:47:12Z</time></trkpt>
<trkpt lat="25.682782" lon="100.181617">
<time>2015-08-27T15:47:13Z</time></trkpt>
<trkpt lat="25.682413" lon="100.181857">
<time>2015-08-27T15:47:14Z</time></trkpt>
<trkpt lat="25.681623" lon="100.182368">
<time>2015-08-27T15:47:15Z</time></trkpt>
<trkpt lat="25.680124" lon="100.18329">
<time>2015-08-27T15:47:16Z</time></trkpt>
<trkpt lat="25.679125" lon="100.183901">
<time>2015-08-27T15:47:17Z</time></trkpt>
<trkpt lat="25.677995" lon="100.184593">
<time>2015-08-27T15:47:18Z</time></trkpt>
<trkpt lat="25.676716" lon="100.185374">
<time>2015-08-27T15:47:19Z</time></trkpt>
<trkpt lat="25.675007" lon="100.186426">
<time>2015-08-27T15:47:20Z</time></trkpt>
<trkpt lat="25.673798" lon="100.187168">
<time>2015-08-27T15:47:21Z</time></trkpt>
<trkpt lat="25.673478" lon="100.187358">
<time>2015-08-27T15:47:22Z</time></trkpt>
<trkpt lat="25.672069" lon="100.18838">
<time>2015-08-27T15:47:23Z</time></trkpt>
<trkpt lat="25.67108" lon="100.189112">
<time>2015-08-27T15:47:24Z</time></trkpt>
<trkpt lat="25.67084" lon="100.189292">
<time>2015-08-27T15:47:25Z</time></trkpt>
<trkpt lat="25.67034" lon="100.189663">
<time>2015-08-27T15:47:26Z</time></trkpt>
<trkpt lat="25.669651" lon="100.190064">
<time>2015-08-27T15:47:27Z</time></trkpt>
<trkpt lat="25.669301" lon="100.190264">
<time>2015-08-27T15:47:28Z</time></trkpt>
<trkpt lat="25.669041" lon="100.190404">
<time>2015-08-27T15:47:29Z</time></trkpt>
<trkpt lat="25.667562" lon="100.191146">
<time>2015-08-27T15:47:30Z</time></trkpt>
<trkpt lat="25.667282" lon="100.191286">
<time>2015-08-27T15:47:31Z</time></trkpt>
<trkpt lat="25.666862" lon="100.191477">
<time>2015-08-27T15:47:32Z</time></trkpt>
<trkpt lat="25.666682" lon="100.191557">
<time>2015-08-27T15:47:33Z</time></trkpt>
<trkpt lat="25.665482" lon="100.192138">
<time>2015-08-27T15:47:34Z</time></trkpt>
<trkpt lat="25.663723" lon="100.193">
<time>2015-08-27T15:47:35Z</time></trkpt>
<trkpt lat="25.662903" lon="100.19348">
<time>2015-08-27T15:47:36Z</time></trkpt>
<trkpt lat="25.662753" lon="100.193581">
<time>2015-08-27T15:47:37Z</time></trkpt>
<trkpt lat="25.661294" lon="100.194542">
<time>2015-08-27T15:47:38Z</time></trkpt>
<trkpt lat="25.660175" lon="100.195264">
<time>2015-08-27T15:47:39Z</time></trkpt>
<trkpt lat="25.659775" lon="100.195504">
<time>2015-08-27T15:47:40Z</time></trkpt>
<trkpt lat="25.659775" lon="100.195514">
<time>2015-08-27T15:47:41Z</time></trkpt>
<trkpt lat="25.659395" lon="100.195695">
<time>2015-08-27T15:47:42Z</time></trkpt>
<trkpt lat="25.658985" lon="100.195885">
<time>2015-08-27T15:47:43Z</time></trkpt>
<trkpt lat="25.658585" lon="100.196045">
<time>2015-08-27T15:47:44Z</time></trkpt>
<trkpt lat="25.657685" lon="100.196426">
<time>2015-08-27T15:47:45Z</time></trkpt>
<trkpt lat="25.656876" lon="100.196787">
<time>2015-08-27T15:47:46Z</time></trkpt>
<trkpt lat="25.656416" lon="100.197007">
<time>2015-08-27T15:47:47Z</time></trkpt>
<trkpt lat="25.656116" lon="100.197147">
<time>2015-08-27T15:47:48Z</time></trkpt>
<trkpt lat="25.654816" lon="100.197799">
<time>2015-08-27T15:47:49Z</time></trkpt>
<trkpt lat="25.653706" lon="100.19834">
<time>2015-08-27T15:47:50Z</time></trkpt>
<trkpt lat="25.653107" lon="100.19864">
<time>2015-08-27T15:47:51Z</time></trkpt>
<trkpt lat="25.652267" lon="100.199051">
<time>2015-08-27T15:47:52Z</time></trkpt>
<trkpt lat="25.651737" lon="100.199321">
<time>2015-08-27T15:47:53Z</time></trkpt>
<trkpt lat="25.650957" lon="100.199762">
<time>2015-08-27T15:47:54Z</time></trkpt>
<trkpt lat="25.649828" lon="100.200423">
<time>2015-08-27T15:47:55Z</time></trkpt>
<trkpt lat="25.649038" lon="100.200894">
<time>2015-08-27T15:47:56Z</time></trkpt>
<trkpt lat="25.648528" lon="100.201185">
<time>2015-08-27T15:47:57Z</time></trkpt>
<trkpt lat="25.647569" lon="100.201655">
<time>2015-08-27T15:47:58Z</time></trkpt>
<trkpt lat="25.646569" lon="100.202106">
<time>2015-08-27T15:47:59Z</time></trkpt>
<trkpt lat="25.646249" lon="100.202216">
<time>2015-08-27T15:48:00Z</time></trkpt>
<trkpt lat="25.644719" lon="100.202747">
<time>2015-08-27T15:48:01Z</time></trkpt>
<trkpt lat="25.644639" lon="100.202787">
<time>2015-08-27T15:48:02Z</time></trkpt>
<trkpt lat="25.644199" lon="100.202978">
<time>2015-08-27T15:48:03Z</time></trkpt>
<trkpt lat="25.643119" lon="100.203499">
<time>2015-08-27T15:48:04Z</time></trkpt>
<trkpt lat="25.64236" lon="100.203949">
<time>2015-08-27T15:48:05Z</time></trkpt>
<trkpt lat="25.64132" lon="100.20453">
<time>2015-08-27T15:48:06Z</time></trkpt>
<trkpt lat="25.6409" lon="100.204771">
<time>2015-08-27T15:48:07Z</time></trkpt>
<trkpt lat="25.64079" lon="100.204821">
<time>2015-08-27T15:48:08Z</time></trkpt>
<trkpt lat="25.639111" lon="100.205843">
<time>2015-08-27T15:48:09Z</time></trkpt>
<trkpt lat="25.637821" lon="100.206604">
<time>2015-08-27T15:48:10Z</time></trkpt>
<trkpt lat="25.637441" lon="100.206834">
<time>2015-08-27T15:48:11Z</time></trkpt>
<trkpt lat="25.636412" lon="100.207425">
<time>2015-08-27T15:48:12Z</time></trkpt>
<trkpt lat="25.635842" lon="100.207756">
<time>2015-08-27T15:48:13Z</time></trkpt>
<trkpt lat="25.634502" lon="100.208497">
<time>2015-08-27T15:48:14Z</time></trkpt>
<trkpt lat="25.634112" lon="100.208717">
<time>2015-08-27T15:48:15Z</time></trkpt>
<trkpt lat="25.632883" lon="100.209398">
<time>2015-08-27T15:48:16Z</time></trkpt>
<trkpt lat="25.632433" lon="100.209649">
<time>2015-08-27T15:48:17Z</time></trkpt>
<trkpt lat="25.632183" lon="100.209789">
<time>2015-08-27T15:48:18Z</time></trkpt>
<trkpt lat="25.630913" lon="100.21049">
<time>2015-08-27T15:48:19Z</time></trkpt>
<trkpt lat="25.630823" lon="100.21054">
<time>2015-08-27T15:48:20Z</time></trkpt>
<trkpt lat="25.629653" lon="100.211181">
<time>2015-08-27T15:48:21Z</time></trkpt>
<trkpt lat="25.628324" lon="100.211912">
<time>2015-08-27T15:48:22Z</time></trkpt>
<trkpt lat="25.627954" lon="100.212112">
<time>2015-08-27T15:48:23Z</time></trkpt>
<trkpt lat="25.627674" lon="100.212262">
<time>2015-08-27T15:48:24Z</time></trkpt>
<trkpt lat="25.627324" lon="100.212463">
<time>2015-08-27T15:48:25Z</time></trkpt>
<trkpt lat="25.627244" lon="100.212513">
<time>2015-08-27T15:48:26Z</time></trkpt>
<trkpt lat="25.626534" lon="100.212903">
<time>2015-08-27T15:48:27Z</time></trkpt>
<trkpt lat="25.625465" lon="100.213584">
<time>2015-08-27T15:48:28Z</time></trkpt>
<trkpt lat="25.624965" lon="100.213945">
<time>2015-08-27T15:48:29Z</time></trkpt>
<trkpt lat="25.624925" lon="100.213975">
<time>2015-08-27T15:48:30Z</time></trkpt>
<trkpt lat="25.624765" lon="100.214095">
<time>2015-08-27T15:48:31Z</time></trkpt>
<trkpt lat="25.624095" lon="100.214616">
<time>2015-08-27T15:48:32Z</time></trkpt>
<trkpt lat="25.623435" lon="100.215086">
<time>2015-08-27T15:48:33Z</time></trkpt>
<trkpt lat="25.623335" lon="100.215156">
<time>2015-08-27T15:48:34Z</time></trkpt>
<trkpt lat="25.623245" lon="100.215216">
<time>2015-08-27T15:48:35Z</time></trkpt>
<trkpt lat="25.622596" lon="100.215597">
<time>2015-08-27T15:48:36Z</time></trkpt>
<trkpt lat="25.622576" lon="100.215627">
<time>2015-08-27T15:48:37Z</time></trkpt>
<trkpt lat="25.622576" lon="100.215627">
<time>2015-08-27T15:48:38Z</time></trkpt>
<trkpt lat="25.622116" lon="100.215897">
<time>2015-08-27T15:48:39Z</time></trkpt>
<trkpt lat="25.621176" lon="100.216468">
<time>2015-08-27T15:48:40Z</time></trkpt>
<trkpt lat="25.620516" lon="100.216869">
<time>2015-08-27T15:48:41Z</time></trkpt>
<trkpt lat="25.620126" lon="100.217099">
<time>2015-08-27T15:48:42Z</time></trkpt>
<trkpt lat="25.620056" lon="100.217149">
<time>2015-08-27T15:48:43Z</time></trkpt>
<trkpt lat="25.620006" lon="100.217169">
<time>2015-08-27T15:48:44Z</time></trkpt>
<trkpt lat="25.619376" lon="100.217549">
<time>2015-08-27T15:48:45Z</time></trkpt>
<trkpt lat="25.619226" lon="100.21763">
<time>2015-08-27T15:48:46Z</time></trkpt>
<trkpt lat="25.617897" lon="100.218421">
<time>2015-08-27T15:48:47Z</time></trkpt>
<trkpt lat="25.617587" lon="100.218601">
<time>2015-08-27T15:48:48Z</time></trkpt>
<trkpt lat="25.617157" lon="100.218831">
<time>2015-08-27T15:48:49Z</time></trkpt>
<trkpt lat="25.617127" lon="100.218841">
<time>2015-08-27T15:48:50Z</time></trkpt>
<trkpt lat="25.616217" lon="100.219121">
<time>2015-08-27T15:48:51Z</time></trkpt>
<trkpt lat="25.615606" lon="100.219302">
<time>2015-08-27T15:48:52Z</time></trkpt>
<trkpt lat="25.614616" lon="100.219622">
<time>2015-08-27T15:48:53Z</time></trkpt>
<trkpt lat="25.613966" lon="100.219822">
<time>2015-08-27T15:48:54Z</time></trkpt>
<trkpt lat="25.613016" lon="100.220143">
<time>2015-08-27T15:48:55Z</time></trkpt>
<trkpt lat="25.612336" lon="100.220373">
<time>2015-08-27T15:48:56Z</time></trkpt>
<trkpt lat="25.611896" lon="100.220493">
<time>2015-08-27T15:48:57Z</time></trkpt>
<trkpt lat="25.611656" lon="100.220553">
<time>2015-08-27T15:48:58Z</time></trkpt>
<trkpt lat="25.611606" lon="100.220573">
<time>2015-08-27T15:48:59Z</time></trkpt>
<trkpt lat="25.609645" lon="100.220904">
<time>2015-08-27T15:49:00Z</time></trkpt>
<trkpt lat="25.608925" lon="100.221024">
<time>2015-08-27T15:49:01Z</time></trkpt>
<trkpt lat="25.608765" lon="100.221054">
<time>2015-08-27T15:49:02Z</time></trkpt>
<trkpt lat="25.608075" lon="100.221204">
<time>2015-08-27T15:49:03Z</time></trkpt>
<trkpt lat="25.607995" lon="100.221224">
<time>2015-08-27T15:49:04Z</time></trkpt>
<trkpt lat="25.606494" lon="100.221304">
<time>2015-08-27T15:49:05Z</time></trkpt>
<trkpt lat="25.606154" lon="100.221334">
<time>2015-08-27T15:49:06Z</time></trkpt>
<trkpt lat="25.606154" lon="100.221334">
<time>2015-08-27T15:49:07Z</time></trkpt>
<trkpt lat="25.606235" lon="100.221865">
<time>2015-08-27T15:49:08Z</time></trkpt>
<trkpt lat="25.606325" lon="100.222405">
<time>2015-08-27T15:49:09Z</time></trkpt>
<trkpt lat="25.606396" lon="100.222736">
<time>2015-08-27T15:49:10Z</time></trkpt>
<trkpt lat="25.606426" lon="100.222886">
<time>2015-08-27T15:49:11Z</time></trkpt>
<trkpt lat="25.606506" lon="100.223256">
<time>2015-08-27T15:49:12Z</time></trkpt>
<trkpt lat="25.606536" lon="100.223396">
<time>2015-08-27T15:49:13Z</time></trkpt>
<trkpt lat="25.606617" lon="100.223807">
<time>2015-08-27T15:49:14Z</time></trkpt>
<trkpt lat="25.606687" lon="100.224107">
<time>2015-08-27T15:49:15Z</time></trkpt>
<trkpt lat="25.606697" lon="100.224147">
<time>2015-08-27T15:49:16Z</time></trkpt>
<trkpt lat="25.606747" lon="100.224477">
<time>2015-08-27T15:49:17Z</time></trkpt>
<trkpt lat="25.606747" lon="100.224477">
<time>2015-08-27T15:49:18Z</time></trkpt>
<trkpt lat="25.605207" lon="100.224597">
<time>2015-08-27T15:49:19Z</time></trkpt>
<trkpt lat="25.605207" lon="100.224597">
<time>2015-08-27T15:49:20Z</time></trkpt>
<trkpt lat="25.605358" lon="100.225638">
<time>2015-08-27T15:49:21Z</time></trkpt>
<trkpt lat="25.605438" lon="100.226279">
<time>2015-08-27T15:49:22Z</time></trkpt>
<trkpt lat="25.605669" lon="100.226359">
<time>2015-08-27T15:49:23Z</time></trkpt>
<trkpt lat="25.605789" lon="100.22725">
<time>2015-08-27T15:49:24Z</time></trkpt>
<trkpt lat="25.605789" lon="100.2273">
<time>2015-08-27T15:49:25Z</time></trkpt>
<trkpt lat="25.605789" lon="100.22733">
<time>2015-08-27T15:49:26Z</time></trkpt>
<trkpt lat="25.605779" lon="100.22736">
<time>2015-08-27T15:49:27Z</time></trkpt>
<trkpt lat="25.6057" lon="100.22761">
<time>2015-08-27T15:49:28Z</time></trkpt>
<trkpt lat="25.6057" lon="100.22761">
<time>2015-08-27T15:49:29Z</time></trkpt>
<trkpt lat="25.60566" lon="100.22762">
<time>2015-08-27T15:49:30Z</time></trkpt>
<trkpt lat="25.60547" lon="100.22766">
<time>2015-08-27T15:49:31Z</time></trkpt>
<trkpt lat="25.6053" lon="100.22773">
<time>2015-08-27T15:49:32Z</time></trkpt>
<trkpt lat="25.60509" lon="100.22788">
<time>2015-08-27T15:49:33Z</time></trkpt>
<trkpt lat="25.60486" lon="100.228081">
<time>2015-08-27T15:49:34Z</time></trkpt>
<trkpt lat="25.60477" lon="100.228151">
<time>2015-08-27T15:49:35Z</time></trkpt>
<trkpt lat="25.60423" lon="100.228671">
<time>2015-08-27T15:49:36Z</time></trkpt>
<trkpt lat="25.60401" lon="100.228891">
<time>2015-08-27T15:49:37Z</time></trkpt>
<trkpt lat="25.6037" lon="100.229182">
<time>2015-08-27T15:49:38Z</time></trkpt>
<trkpt lat="25.60335" lon="100.229512">
<time>2015-08-27T15:49:39Z</time></trkpt>
<trkpt lat="25.60221" lon="100.230503">
<time>2015-08-27T15:49:40Z</time></trkpt>
<trkpt lat="25.60203" lon="100.230663">
<time>2015-08-27T15:49:41Z</time></trkpt>
<trkpt lat="25.60176" lon="100.230883">
<time>2015-08-27T15:49:42Z</time></trkpt>
<trkpt lat="25.60172" lon="100.230923">
<time>2015-08-27T15:49:43Z</time></trkpt>
<trkpt lat="25.60156" lon="100.231043">
<time>2015-08-27T15:49:44Z</time></trkpt>
<trkpt lat="25.60138" lon="100.231133">
<time>2015-08-27T15:49:45Z</time></trkpt>
<trkpt lat="25.60091" lon="100.231283">
<time>2015-08-27T15:49:46Z</time></trkpt>
<trkpt lat="25.60087" lon="100.231293">
<time>2015-08-27T15:49:47Z</time></trkpt>
<trkpt lat="25.60062" lon="100.231353">
<time>2015-08-27T15:49:48Z</time></trkpt>
<trkpt lat="25.59979" lon="100.231373">
<time>2015-08-27T15:49:49Z</time></trkpt>
<trkpt lat="25.59952" lon="100.231383">
<time>2015-08-27T15:49:50Z</time></trkpt>
<trkpt lat="25.599259" lon="100.231433">
<time>2015-08-27T15:49:51Z</time></trkpt>
<trkpt lat="25.599259" lon="100.231433">
<time>2015-08-27T15:49:52Z</time></trkpt>
<trkpt lat="25.59924" lon="100.232664">
<time>2015-08-27T15:49:53Z</time></trkpt>
<trkpt lat="25.599251" lon="100.233335">
<time>2015-08-27T15:49:54Z</time></trkpt>
<trkpt lat="25.599251" lon="100.233465">
<time>2015-08-27T15:49:55Z</time></trkpt>
<trkpt lat="25.599271" lon="100.234915">
<time>2015-08-27T15:49:56Z</time></trkpt>
<trkpt lat="25.599282" lon="100.235916">
<time>2015-08-27T15:49:57Z</time></trkpt>
<trkpt lat="25.599282" lon="100.236256">
<time>2015-08-27T15:49:58Z</time></trkpt>
<trkpt lat="25.599282" lon="100.236256">
<time>2015-08-27T15:49:59Z</time></trkpt>
<trkpt lat="25.599312" lon="100.236346">
<time>2015-08-27T15:50:00Z</time></trkpt>
<trkpt lat="25.599302" lon="100.236666">
<time>2015-08-27T15:50:01Z</time></trkpt>
<trkpt lat="25.599302" lon="100.236756">
<time>2015-08-27T15:50:02Z</time></trkpt>
<trkpt lat="25.599293" lon="100.237387">
<time>2015-08-27T15:50:03Z</time></trkpt>
<trkpt lat="25.599313" lon="100.237647">
<time>2015-08-27T15:50:04Z</time></trkpt>
<trkpt lat="25.599313" lon="100.237647">
<time>2015-08-27T15:50:05Z</time></trkpt>
<trkpt lat="25.599523" lon="100.237607">
<time>2015-08-27T15:50:06Z</time></trkpt></trkseg></trk></gpx>